<?xml version="1.0" encoding="UTF-8" standalone="no" ?>
<gpx xmlns="http://www.topografix.com/GPX/1/1" xmlns:xsi="http://www.w3.org/2001/XMLSchema-instance" xsi:schemaLocation="http://www.topografix.com/GPX/1/1 http://www.topografix.com/GPX/1/1/gpx.xsd" version="1.1" creator="VisuGPX - https://www.visugpx.com">
  <metadata>
    <name>Pornichet 13/02/2022</name>
    <desc><![CDATA[Sortie dimanche 13 février 2022]]></desc>
  </metadata>
  <trk>
    <name><![CDATA[Pornichet Cyclisme]]></name>
    <trkseg>
      <trkpt lat="47.26391" lon="-2.31599">
        <ele>9.1</ele>
        <time>2022-02-13T07:58:39.000Z</time>
      </trkpt>
      <trkpt lat="47.26392" lon="-2.31613">
        <ele>9.1</ele>
        <time>2022-02-13T07:58:42.000Z</time>
      </trkpt>
      <trkpt lat="47.26393" lon="-2.31618">
        <ele>0.40000000596046</ele>
        <time>2022-02-13T07:58:43.000Z</time>
      </trkpt>
      <trkpt lat="47.26393" lon="-2.31628">
        <ele>0.40000000596046</ele>
        <time>2022-02-13T07:58:45.000Z</time>
      </trkpt>
      <trkpt lat="47.26395" lon="-2.31665">
        <ele>0.40000000596046</ele>
        <time>2022-02-13T07:58:52.000Z</time>
      </trkpt>
      <trkpt lat="47.26395" lon="-2.3168">
        <ele>0.40000000596046</ele>
        <time>2022-02-13T07:58:55.000Z</time>
      </trkpt>
      <trkpt lat="47.26393" lon="-2.31683">
        <ele>0.40000000596046</ele>
        <time>2022-02-13T07:58:56.000Z</time>
      </trkpt>
      <trkpt lat="47.26377" lon="-2.31689">
        <ele>0.40000000596046</ele>
        <time>2022-02-13T07:59:00.000Z</time>
      </trkpt>
      <trkpt lat="47.26368" lon="-2.31694">
        <ele>7</ele>
        <time>2022-02-13T07:59:02.000Z</time>
      </trkpt>
      <trkpt lat="47.26363" lon="-2.31697">
        <ele>-0.40000000596046</ele>
        <time>2022-02-13T07:59:03.000Z</time>
      </trkpt>
      <trkpt lat="47.26358" lon="-2.317">
        <ele>-0.80000001192093</ele>
        <time>2022-02-13T07:59:04.000Z</time>
      </trkpt>
      <trkpt lat="47.26354" lon="-2.31703">
        <ele>-1.2000000476837</ele>
        <time>2022-02-13T07:59:05.000Z</time>
      </trkpt>
      <trkpt lat="47.26348" lon="-2.31706">
        <ele>-1.6000000238419</ele>
        <time>2022-02-13T07:59:06.000Z</time>
      </trkpt>
      <trkpt lat="47.26317" lon="-2.31721">
        <ele>-1.6000000238419</ele>
        <time>2022-02-13T07:59:12.000Z</time>
      </trkpt>
      <trkpt lat="47.26306" lon="-2.31727">
        <ele>-2.2000000476837</ele>
        <time>2022-02-13T07:59:14.000Z</time>
      </trkpt>
      <trkpt lat="47.26302" lon="-2.31729">
        <ele>-2.5999999046326</ele>
        <time>2022-02-13T07:59:15.000Z</time>
      </trkpt>
      <trkpt lat="47.26298" lon="-2.31731">
        <ele>-3</ele>
        <time>2022-02-13T07:59:16.000Z</time>
      </trkpt>
      <trkpt lat="47.26295" lon="-2.31736">
        <ele>-3.4000000953674</ele>
        <time>2022-02-13T07:59:17.000Z</time>
      </trkpt>
      <trkpt lat="47.26294" lon="-2.31742">
        <ele>-3.7999999523163</ele>
        <time>2022-02-13T07:59:18.000Z</time>
      </trkpt>
      <trkpt lat="47.26296" lon="-2.31756">
        <ele>-3.7999999523163</ele>
        <time>2022-02-13T07:59:20.000Z</time>
      </trkpt>
      <trkpt lat="47.26297" lon="-2.31763">
        <ele>-3.7999999523163</ele>
        <time>2022-02-13T07:59:21.000Z</time>
      </trkpt>
      <trkpt lat="47.26299" lon="-2.31815">
        <ele>-3.7999999523163</ele>
        <time>2022-02-13T07:59:28.000Z</time>
      </trkpt>
      <trkpt lat="47.26296" lon="-2.31866">
        <ele>-3.7999999523163</ele>
        <time>2022-02-13T07:59:35.000Z</time>
      </trkpt>
      <trkpt lat="47.26294" lon="-2.31886">
        <ele>-3.7999999523163</ele>
        <time>2022-02-13T07:59:38.000Z</time>
      </trkpt>
      <trkpt lat="47.26293" lon="-2.31897">
        <ele>-3.7999999523163</ele>
        <time>2022-02-13T07:59:40.000Z</time>
      </trkpt>
      <trkpt lat="47.26287" lon="-2.31903">
        <ele>-3.7999999523163</ele>
        <time>2022-02-13T07:59:42.000Z</time>
      </trkpt>
      <trkpt lat="47.26284" lon="-2.31907">
        <ele>-3.7999999523163</ele>
        <time>2022-02-13T07:59:43.000Z</time>
      </trkpt>
      <trkpt lat="47.26274" lon="-2.31918">
        <ele>-3.7999999523163</ele>
        <time>2022-02-13T07:59:46.000Z</time>
      </trkpt>
      <trkpt lat="47.26268" lon="-2.31927">
        <ele>-3.7999999523163</ele>
        <time>2022-02-13T07:59:48.000Z</time>
      </trkpt>
      <trkpt lat="47.26263" lon="-2.31936">
        <ele>-3.7999999523163</ele>
        <time>2022-02-13T07:59:50.000Z</time>
      </trkpt>
      <trkpt lat="47.2626" lon="-2.31941">
        <ele>-4.1999998092651</ele>
        <time>2022-02-13T07:59:51.000Z</time>
      </trkpt>
      <trkpt lat="47.26257" lon="-2.31946">
        <ele>-4.5999999046326</ele>
        <time>2022-02-13T07:59:52.000Z</time>
      </trkpt>
      <trkpt lat="47.26255" lon="-2.31951">
        <ele>-5.1999998092651</ele>
        <time>2022-02-13T07:59:53.000Z</time>
      </trkpt>
      <trkpt lat="47.26252" lon="-2.31955">
        <ele>-5.5999999046326</ele>
        <time>2022-02-13T07:59:54.000Z</time>
      </trkpt>
      <trkpt lat="47.2625" lon="-2.31959">
        <ele>-6</ele>
        <time>2022-02-13T07:59:55.000Z</time>
      </trkpt>
      <trkpt lat="47.26237" lon="-2.31974">
        <ele>-6</ele>
        <time>2022-02-13T07:59:59.000Z</time>
      </trkpt>
      <trkpt lat="47.26225" lon="-2.31985">
        <ele>-6</ele>
        <time>2022-02-13T08:00:04.000Z</time>
      </trkpt>
      <trkpt lat="47.2621" lon="-2.32">
        <ele>-6</ele>
        <time>2022-02-13T08:00:10.000Z</time>
      </trkpt>
      <trkpt lat="47.26203" lon="-2.32007">
        <ele>-6</ele>
        <time>2022-02-13T08:00:13.000Z</time>
      </trkpt>
      <trkpt lat="47.26201" lon="-2.32015">
        <ele>-6</ele>
        <time>2022-02-13T08:00:15.000Z</time>
      </trkpt>
      <trkpt lat="47.26197" lon="-2.32026">
        <ele>-6</ele>
        <time>2022-02-13T08:00:19.000Z</time>
      </trkpt>
      <trkpt lat="47.26191" lon="-2.32026">
        <ele>-6</ele>
        <time>2022-02-13T08:00:22.000Z</time>
      </trkpt>
      <trkpt lat="47.26186" lon="-2.32027">
        <ele>-6</ele>
        <time>2022-02-13T08:00:24.000Z</time>
      </trkpt>
      <trkpt lat="47.26169" lon="-2.32037">
        <ele>-6</ele>
        <time>2022-02-13T08:00:29.000Z</time>
      </trkpt>
      <trkpt lat="47.26157" lon="-2.32058">
        <ele>-6</ele>
        <time>2022-02-13T08:00:33.000Z</time>
      </trkpt>
      <trkpt lat="47.26155" lon="-2.32064">
        <ele>-6</ele>
        <time>2022-02-13T08:00:34.000Z</time>
      </trkpt>
      <trkpt lat="47.26141" lon="-2.32108">
        <ele>-6</ele>
        <time>2022-02-13T08:00:41.000Z</time>
      </trkpt>
      <trkpt lat="47.26138" lon="-2.32114">
        <ele>-6</ele>
        <time>2022-02-13T08:00:42.000Z</time>
      </trkpt>
      <trkpt lat="47.26132" lon="-2.32135">
        <ele>-6</ele>
        <time>2022-02-13T08:00:45.000Z</time>
      </trkpt>
      <trkpt lat="47.26128" lon="-2.32149">
        <ele>-6</ele>
        <time>2022-02-13T08:00:47.000Z</time>
      </trkpt>
      <trkpt lat="47.26118" lon="-2.32176">
        <ele>-6</ele>
        <time>2022-02-13T08:00:51.000Z</time>
      </trkpt>
      <trkpt lat="47.26112" lon="-2.32188">
        <ele>-6</ele>
        <time>2022-02-13T08:00:53.000Z</time>
      </trkpt>
      <trkpt lat="47.26109" lon="-2.32194">
        <ele>-6</ele>
        <time>2022-02-13T08:00:54.000Z</time>
      </trkpt>
      <trkpt lat="47.26104" lon="-2.32206">
        <ele>-6</ele>
        <time>2022-02-13T08:00:56.000Z</time>
      </trkpt>
      <trkpt lat="47.26101" lon="-2.32212">
        <ele>-6</ele>
        <time>2022-02-13T08:00:57.000Z</time>
      </trkpt>
      <trkpt lat="47.26095" lon="-2.32223">
        <ele>-6</ele>
        <time>2022-02-13T08:00:59.000Z</time>
      </trkpt>
      <trkpt lat="47.26092" lon="-2.32228">
        <ele>-6</ele>
        <time>2022-02-13T08:01:00.000Z</time>
      </trkpt>
      <trkpt lat="47.26072" lon="-2.32253">
        <ele>-6</ele>
        <time>2022-02-13T08:01:05.000Z</time>
      </trkpt>
      <trkpt lat="47.26042" lon="-2.32286">
        <ele>-6</ele>
        <time>2022-02-13T08:01:12.000Z</time>
      </trkpt>
      <trkpt lat="47.26009" lon="-2.32326">
        <ele>-6</ele>
        <time>2022-02-13T08:01:20.000Z</time>
      </trkpt>
      <trkpt lat="47.25982" lon="-2.32362">
        <ele>-6</ele>
        <time>2022-02-13T08:01:27.000Z</time>
      </trkpt>
      <trkpt lat="47.25953" lon="-2.32402">
        <ele>-6</ele>
        <time>2022-02-13T08:01:35.000Z</time>
      </trkpt>
      <trkpt lat="47.25926" lon="-2.32437">
        <ele>-6</ele>
        <time>2022-02-13T08:01:42.000Z</time>
      </trkpt>
      <trkpt lat="47.25904" lon="-2.32465">
        <ele>-6</ele>
        <time>2022-02-13T08:01:48.000Z</time>
      </trkpt>
      <trkpt lat="47.25899" lon="-2.32469">
        <ele>-6</ele>
        <time>2022-02-13T08:01:49.000Z</time>
      </trkpt>
      <trkpt lat="47.25891" lon="-2.32475">
        <ele>-6</ele>
        <time>2022-02-13T08:01:51.000Z</time>
      </trkpt>
      <trkpt lat="47.25872" lon="-2.32483">
        <ele>-6</ele>
        <time>2022-02-13T08:01:55.000Z</time>
      </trkpt>
      <trkpt lat="47.25857" lon="-2.32484">
        <ele>-6</ele>
        <time>2022-02-13T08:01:58.000Z</time>
      </trkpt>
      <trkpt lat="47.25852" lon="-2.32483">
        <ele>-6</ele>
        <time>2022-02-13T08:01:59.000Z</time>
      </trkpt>
      <trkpt lat="47.25846" lon="-2.32482">
        <ele>-6</ele>
        <time>2022-02-13T08:02:00.000Z</time>
      </trkpt>
      <trkpt lat="47.25827" lon="-2.32473">
        <ele>-6</ele>
        <time>2022-02-13T08:02:04.000Z</time>
      </trkpt>
      <trkpt lat="47.25808" lon="-2.32465">
        <ele>-6</ele>
        <time>2022-02-13T08:02:08.000Z</time>
      </trkpt>
      <trkpt lat="47.25798" lon="-2.32464">
        <ele>-6</ele>
        <time>2022-02-13T08:02:10.000Z</time>
      </trkpt>
      <trkpt lat="47.2579" lon="-2.32464">
        <ele>-6</ele>
        <time>2022-02-13T08:02:12.000Z</time>
      </trkpt>
      <trkpt lat="47.25782" lon="-2.32458">
        <ele>-6</ele>
        <time>2022-02-13T08:02:14.000Z</time>
      </trkpt>
      <trkpt lat="47.25773" lon="-2.32442">
        <ele>-6</ele>
        <time>2022-02-13T08:02:17.000Z</time>
      </trkpt>
      <trkpt lat="47.2577" lon="-2.32438">
        <ele>-6</ele>
        <time>2022-02-13T08:02:18.000Z</time>
      </trkpt>
      <trkpt lat="47.25766" lon="-2.32435">
        <ele>-6</ele>
        <time>2022-02-13T08:02:19.000Z</time>
      </trkpt>
      <trkpt lat="47.25745" lon="-2.32432">
        <ele>-6</ele>
        <time>2022-02-13T08:02:23.000Z</time>
      </trkpt>
      <trkpt lat="47.25695" lon="-2.32428">
        <ele>-6</ele>
        <time>2022-02-13T08:02:32.000Z</time>
      </trkpt>
      <trkpt lat="47.25676" lon="-2.32425">
        <ele>-6</ele>
        <time>2022-02-13T08:02:36.000Z</time>
      </trkpt>
      <trkpt lat="47.25671" lon="-2.32425">
        <ele>-6</ele>
        <time>2022-02-13T08:02:37.000Z</time>
      </trkpt>
      <trkpt lat="47.25664" lon="-2.32428">
        <ele>-6</ele>
        <time>2022-02-13T08:02:39.000Z</time>
      </trkpt>
      <trkpt lat="47.25663" lon="-2.32433">
        <ele>-6</ele>
        <time>2022-02-13T08:02:40.000Z</time>
      </trkpt>
      <trkpt lat="47.25664" lon="-2.32451">
        <ele>-6</ele>
        <time>2022-02-13T08:02:43.000Z</time>
      </trkpt>
      <trkpt lat="47.25666" lon="-2.32457">
        <ele>-6</ele>
        <time>2022-02-13T08:02:44.000Z</time>
      </trkpt>
      <trkpt lat="47.25678" lon="-2.32498">
        <ele>-5.5999999046326</ele>
        <time>2022-02-13T08:02:51.000Z</time>
      </trkpt>
      <trkpt lat="47.2568" lon="-2.32504">
        <ele>-5.1999998092651</ele>
        <time>2022-02-13T08:02:52.000Z</time>
      </trkpt>
      <trkpt lat="47.25682" lon="-2.3251">
        <ele>-4.5999999046326</ele>
        <time>2022-02-13T08:02:53.000Z</time>
      </trkpt>
      <trkpt lat="47.25684" lon="-2.32515">
        <ele>-4.1999998092651</ele>
        <time>2022-02-13T08:02:54.000Z</time>
      </trkpt>
      <trkpt lat="47.25686" lon="-2.32521">
        <ele>-3.7999999523163</ele>
        <time>2022-02-13T08:02:55.000Z</time>
      </trkpt>
      <trkpt lat="47.25695" lon="-2.32554">
        <ele>-3.7999999523163</ele>
        <time>2022-02-13T08:03:01.000Z</time>
      </trkpt>
      <trkpt lat="47.25702" lon="-2.32575">
        <ele>-3.4000000953674</ele>
        <time>2022-02-13T08:03:05.000Z</time>
      </trkpt>
      <trkpt lat="47.25704" lon="-2.3258">
        <ele>-3</ele>
        <time>2022-02-13T08:03:06.000Z</time>
      </trkpt>
      <trkpt lat="47.25705" lon="-2.32586">
        <ele>-2.5999999046326</ele>
        <time>2022-02-13T08:03:07.000Z</time>
      </trkpt>
      <trkpt lat="47.25707" lon="-2.32591">
        <ele>-2.2000000476837</ele>
        <time>2022-02-13T08:03:08.000Z</time>
      </trkpt>
      <trkpt lat="47.25708" lon="-2.32597">
        <ele>-1.7999999523163</ele>
        <time>2022-02-13T08:03:09.000Z</time>
      </trkpt>
      <trkpt lat="47.25709" lon="-2.3261">
        <ele>-1.7999999523163</ele>
        <time>2022-02-13T08:03:11.000Z</time>
      </trkpt>
      <trkpt lat="47.25703" lon="-2.32626">
        <ele>-1.7999999523163</ele>
        <time>2022-02-13T08:03:14.000Z</time>
      </trkpt>
      <trkpt lat="47.25687" lon="-2.32634">
        <ele>-1.7999999523163</ele>
        <time>2022-02-13T08:03:18.000Z</time>
      </trkpt>
      <trkpt lat="47.25679" lon="-2.32637">
        <ele>-1.3999999761581</ele>
        <time>2022-02-13T08:03:20.000Z</time>
      </trkpt>
      <trkpt lat="47.25675" lon="-2.32639">
        <ele>-0.80000001192093</ele>
        <time>2022-02-13T08:03:21.000Z</time>
      </trkpt>
      <trkpt lat="47.25672" lon="-2.32642">
        <ele>10.8</ele>
        <time>2022-02-13T08:03:22.000Z</time>
      </trkpt>
      <trkpt lat="47.25668" lon="-2.32644">
        <ele>0.40000000596046</ele>
        <time>2022-02-13T08:03:23.000Z</time>
      </trkpt>
      <trkpt lat="47.25664" lon="-2.32647">
        <ele>0.40000000596046</ele>
        <time>2022-02-13T08:03:24.000Z</time>
      </trkpt>
      <trkpt lat="47.25636" lon="-2.32659">
        <ele>0.40000000596046</ele>
        <time>2022-02-13T08:03:31.000Z</time>
      </trkpt>
      <trkpt lat="47.2561" lon="-2.32672">
        <ele>0.40000000596046</ele>
        <time>2022-02-13T08:03:38.000Z</time>
      </trkpt>
      <trkpt lat="47.25606" lon="-2.32674">
        <ele>0.80000001192093</ele>
        <time>2022-02-13T08:03:39.000Z</time>
      </trkpt>
      <trkpt lat="47.25602" lon="-2.32676">
        <ele>1.2000000476837</ele>
        <time>2022-02-13T08:03:40.000Z</time>
      </trkpt>
      <trkpt lat="47.25598" lon="-2.32677">
        <ele>1.7999999523163</ele>
        <time>2022-02-13T08:03:41.000Z</time>
      </trkpt>
      <trkpt lat="47.25594" lon="-2.32679">
        <ele>2.2000000476837</ele>
        <time>2022-02-13T08:03:42.000Z</time>
      </trkpt>
      <trkpt lat="47.2559" lon="-2.32681">
        <ele>2.5999999046326</ele>
        <time>2022-02-13T08:03:43.000Z</time>
      </trkpt>
      <trkpt lat="47.25582" lon="-2.32684">
        <ele>2.5999999046326</ele>
        <time>2022-02-13T08:03:45.000Z</time>
      </trkpt>
      <trkpt lat="47.25569" lon="-2.3269">
        <ele>2.5999999046326</ele>
        <time>2022-02-13T08:03:48.000Z</time>
      </trkpt>
      <trkpt lat="47.25538" lon="-2.32702">
        <ele>2.5999999046326</ele>
        <time>2022-02-13T08:03:55.000Z</time>
      </trkpt>
      <trkpt lat="47.25507" lon="-2.3271">
        <ele>2.5999999046326</ele>
        <time>2022-02-13T08:04:02.000Z</time>
      </trkpt>
      <trkpt lat="47.25481" lon="-2.32717">
        <ele>2.5999999046326</ele>
        <time>2022-02-13T08:04:08.000Z</time>
      </trkpt>
      <trkpt lat="47.25477" lon="-2.32721">
        <ele>2.5999999046326</ele>
        <time>2022-02-13T08:04:09.000Z</time>
      </trkpt>
      <trkpt lat="47.25466" lon="-2.32734">
        <ele>2.5999999046326</ele>
        <time>2022-02-13T08:04:12.000Z</time>
      </trkpt>
      <trkpt lat="47.25455" lon="-2.32748">
        <ele>2.5999999046326</ele>
        <time>2022-02-13T08:04:15.000Z</time>
      </trkpt>
      <trkpt lat="47.25452" lon="-2.32753">
        <ele>2.5999999046326</ele>
        <time>2022-02-13T08:04:16.000Z</time>
      </trkpt>
      <trkpt lat="47.25436" lon="-2.32776">
        <ele>2.5999999046326</ele>
        <time>2022-02-13T08:04:21.000Z</time>
      </trkpt>
      <trkpt lat="47.25433" lon="-2.32787">
        <ele>2.5999999046326</ele>
        <time>2022-02-13T08:04:23.000Z</time>
      </trkpt>
      <trkpt lat="47.25428" lon="-2.32797">
        <ele>2.2000000476837</ele>
        <time>2022-02-13T08:04:25.000Z</time>
      </trkpt>
      <trkpt lat="47.25425" lon="-2.32802">
        <ele>1.7999999523163</ele>
        <time>2022-02-13T08:04:26.000Z</time>
      </trkpt>
      <trkpt lat="47.25421" lon="-2.32806">
        <ele>1.2000000476837</ele>
        <time>2022-02-13T08:04:27.000Z</time>
      </trkpt>
      <trkpt lat="47.25418" lon="-2.32811">
        <ele>0.80000001192093</ele>
        <time>2022-02-13T08:04:28.000Z</time>
      </trkpt>
      <trkpt lat="47.25414" lon="-2.32816">
        <ele>0.40000000596046</ele>
        <time>2022-02-13T08:04:29.000Z</time>
      </trkpt>
      <trkpt lat="47.2541" lon="-2.32821">
        <ele>0.40000000596046</ele>
        <time>2022-02-13T08:04:30.000Z</time>
      </trkpt>
      <trkpt lat="47.25385" lon="-2.32854">
        <ele>0.40000000596046</ele>
        <time>2022-02-13T08:04:36.000Z</time>
      </trkpt>
      <trkpt lat="47.25355" lon="-2.32886">
        <ele>0.40000000596046</ele>
        <time>2022-02-13T08:04:43.000Z</time>
      </trkpt>
      <trkpt lat="47.25333" lon="-2.32907">
        <ele>0.40000000596046</ele>
        <time>2022-02-13T08:04:48.000Z</time>
      </trkpt>
      <trkpt lat="47.2532" lon="-2.32919">
        <ele>0.40000000596046</ele>
        <time>2022-02-13T08:04:51.000Z</time>
      </trkpt>
      <trkpt lat="47.25316" lon="-2.32923">
        <ele>0.40000000596046</ele>
        <time>2022-02-13T08:04:52.000Z</time>
      </trkpt>
      <trkpt lat="47.25307" lon="-2.32939">
        <ele>0.40000000596046</ele>
        <time>2022-02-13T08:04:55.000Z</time>
      </trkpt>
      <trkpt lat="47.25309" lon="-2.32964">
        <ele>0.40000000596046</ele>
        <time>2022-02-13T08:04:59.000Z</time>
      </trkpt>
      <trkpt lat="47.25314" lon="-2.32975">
        <ele>8.9</ele>
        <time>2022-02-13T08:05:01.000Z</time>
      </trkpt>
      <trkpt lat="47.25316" lon="-2.32981">
        <ele>-0.40000000596046</ele>
        <time>2022-02-13T08:05:02.000Z</time>
      </trkpt>
      <trkpt lat="47.25319" lon="-2.32987">
        <ele>-0.80000001192093</ele>
        <time>2022-02-13T08:05:03.000Z</time>
      </trkpt>
      <trkpt lat="47.25321" lon="-2.32994">
        <ele>-1.2000000476837</ele>
        <time>2022-02-13T08:05:04.000Z</time>
      </trkpt>
      <trkpt lat="47.25324" lon="-2.33">
        <ele>-1.6000000238419</ele>
        <time>2022-02-13T08:05:05.000Z</time>
      </trkpt>
      <trkpt lat="47.25334" lon="-2.33026">
        <ele>-1.6000000238419</ele>
        <time>2022-02-13T08:05:09.000Z</time>
      </trkpt>
      <trkpt lat="47.25342" lon="-2.33046">
        <ele>-1.6000000238419</ele>
        <time>2022-02-13T08:05:12.000Z</time>
      </trkpt>
      <trkpt lat="47.25363" lon="-2.33096">
        <ele>-1.6000000238419</ele>
        <time>2022-02-13T08:05:20.000Z</time>
      </trkpt>
      <trkpt lat="47.2537" lon="-2.33112">
        <ele>-1.6000000238419</ele>
        <time>2022-02-13T08:05:23.000Z</time>
      </trkpt>
      <trkpt lat="47.25373" lon="-2.33123">
        <ele>-1.6000000238419</ele>
        <time>2022-02-13T08:05:25.000Z</time>
      </trkpt>
      <trkpt lat="47.25376" lon="-2.33136">
        <ele>-1.6000000238419</ele>
        <time>2022-02-13T08:05:29.000Z</time>
      </trkpt>
      <trkpt lat="47.25372" lon="-2.33139">
        <ele>-1.6000000238419</ele>
        <time>2022-02-13T08:05:33.000Z</time>
      </trkpt>
      <trkpt lat="47.25372" lon="-2.33138">
        <ele>-1.6000000238419</ele>
        <time>2022-02-13T08:05:35.000Z</time>
      </trkpt>
      <trkpt lat="47.25375" lon="-2.33137">
        <ele>-5.8000001907349</ele>
        <time>2022-02-13T08:12:13.000Z</time>
      </trkpt>
      <trkpt lat="47.25377" lon="-2.33138">
        <ele>-5.8000001907349</ele>
        <time>2022-02-13T08:12:14.000Z</time>
      </trkpt>
      <trkpt lat="47.25385" lon="-2.33137">
        <ele>-5.8000001907349</ele>
        <time>2022-02-13T08:12:18.000Z</time>
      </trkpt>
      <trkpt lat="47.25388" lon="-2.33136">
        <ele>-5.8000001907349</ele>
        <time>2022-02-13T08:12:19.000Z</time>
      </trkpt>
      <trkpt lat="47.25403" lon="-2.33126">
        <ele>-5.8000001907349</ele>
        <time>2022-02-13T08:12:25.000Z</time>
      </trkpt>
      <trkpt lat="47.25422" lon="-2.33118">
        <ele>-5.8000001907349</ele>
        <time>2022-02-13T08:12:31.000Z</time>
      </trkpt>
      <trkpt lat="47.25439" lon="-2.33111">
        <ele>-5.8000001907349</ele>
        <time>2022-02-13T08:12:37.000Z</time>
      </trkpt>
      <trkpt lat="47.2546" lon="-2.33101">
        <ele>-5.8000001907349</ele>
        <time>2022-02-13T08:12:44.000Z</time>
      </trkpt>
      <trkpt lat="47.25481" lon="-2.33091">
        <ele>-5.8000001907349</ele>
        <time>2022-02-13T08:12:50.000Z</time>
      </trkpt>
      <trkpt lat="47.25494" lon="-2.33076">
        <ele>-5.8000001907349</ele>
        <time>2022-02-13T08:12:55.000Z</time>
      </trkpt>
      <trkpt lat="47.25504" lon="-2.33065">
        <ele>-5.8000001907349</ele>
        <time>2022-02-13T08:12:58.000Z</time>
      </trkpt>
      <trkpt lat="47.25513" lon="-2.33054">
        <ele>-5.8000001907349</ele>
        <time>2022-02-13T08:13:01.000Z</time>
      </trkpt>
      <trkpt lat="47.25528" lon="-2.33042">
        <ele>-5.8000001907349</ele>
        <time>2022-02-13T08:13:06.000Z</time>
      </trkpt>
      <trkpt lat="47.25547" lon="-2.33037">
        <ele>-5.8000001907349</ele>
        <time>2022-02-13T08:13:12.000Z</time>
      </trkpt>
      <trkpt lat="47.25565" lon="-2.33035">
        <ele>-5.8000001907349</ele>
        <time>2022-02-13T08:13:17.000Z</time>
      </trkpt>
      <trkpt lat="47.25587" lon="-2.3303">
        <ele>-5.8000001907349</ele>
        <time>2022-02-13T08:13:23.000Z</time>
      </trkpt>
      <trkpt lat="47.25609" lon="-2.33026">
        <ele>-5.8000001907349</ele>
        <time>2022-02-13T08:13:29.000Z</time>
      </trkpt>
      <trkpt lat="47.25616" lon="-2.33019">
        <ele>-5.8000001907349</ele>
        <time>2022-02-13T08:13:31.000Z</time>
      </trkpt>
      <trkpt lat="47.25618" lon="-2.33008">
        <ele>-5.8000001907349</ele>
        <time>2022-02-13T08:13:33.000Z</time>
      </trkpt>
      <trkpt lat="47.25616" lon="-2.32992">
        <ele>-5.4000000953674</ele>
        <time>2022-02-13T08:13:36.000Z</time>
      </trkpt>
      <trkpt lat="47.25614" lon="-2.32986">
        <ele>-5</ele>
        <time>2022-02-13T08:13:37.000Z</time>
      </trkpt>
      <trkpt lat="47.25613" lon="-2.32981">
        <ele>-4.5999999046326</ele>
        <time>2022-02-13T08:13:38.000Z</time>
      </trkpt>
      <trkpt lat="47.25612" lon="-2.32974">
        <ele>-4</ele>
        <time>2022-02-13T08:13:39.000Z</time>
      </trkpt>
      <trkpt lat="47.25611" lon="-2.32969">
        <ele>-3.5999999046326</ele>
        <time>2022-02-13T08:13:40.000Z</time>
      </trkpt>
      <trkpt lat="47.25605" lon="-2.3294">
        <ele>-3.5999999046326</ele>
        <time>2022-02-13T08:13:45.000Z</time>
      </trkpt>
      <trkpt lat="47.25599" lon="-2.32896">
        <ele>-3.5999999046326</ele>
        <time>2022-02-13T08:13:53.000Z</time>
      </trkpt>
      <trkpt lat="47.25593" lon="-2.32847">
        <ele>-3.5999999046326</ele>
        <time>2022-02-13T08:14:02.000Z</time>
      </trkpt>
      <trkpt lat="47.25592" lon="-2.32825">
        <ele>-3.5999999046326</ele>
        <time>2022-02-13T08:14:06.000Z</time>
      </trkpt>
      <trkpt lat="47.25593" lon="-2.32818">
        <ele>-3.5999999046326</ele>
        <time>2022-02-13T08:14:07.000Z</time>
      </trkpt>
      <trkpt lat="47.25601" lon="-2.3277">
        <ele>-3.5999999046326</ele>
        <time>2022-02-13T08:14:14.000Z</time>
      </trkpt>
      <trkpt lat="47.25604" lon="-2.32722">
        <ele>-3.5999999046326</ele>
        <time>2022-02-13T08:14:22.000Z</time>
      </trkpt>
      <trkpt lat="47.25605" lon="-2.32683">
        <ele>-3.5999999046326</ele>
        <time>2022-02-13T08:14:29.000Z</time>
      </trkpt>
      <trkpt lat="47.25609" lon="-2.32664">
        <ele>-3.5999999046326</ele>
        <time>2022-02-13T08:14:34.000Z</time>
      </trkpt>
      <trkpt lat="47.25624" lon="-2.32656">
        <ele>-3.5999999046326</ele>
        <time>2022-02-13T08:14:38.000Z</time>
      </trkpt>
      <trkpt lat="47.2565" lon="-2.32644">
        <ele>-3.5999999046326</ele>
        <time>2022-02-13T08:14:44.000Z</time>
      </trkpt>
      <trkpt lat="47.25693" lon="-2.32625">
        <ele>-3.5999999046326</ele>
        <time>2022-02-13T08:14:53.000Z</time>
      </trkpt>
      <trkpt lat="47.25703" lon="-2.32619">
        <ele>-4</ele>
        <time>2022-02-13T08:14:55.000Z</time>
      </trkpt>
      <trkpt lat="47.25706" lon="-2.32616">
        <ele>-4.5999999046326</ele>
        <time>2022-02-13T08:14:56.000Z</time>
      </trkpt>
      <trkpt lat="47.25709" lon="-2.3261">
        <ele>-5</ele>
        <time>2022-02-13T08:14:57.000Z</time>
      </trkpt>
      <trkpt lat="47.2571" lon="-2.32604">
        <ele>-5.4000000953674</ele>
        <time>2022-02-13T08:14:58.000Z</time>
      </trkpt>
      <trkpt lat="47.25709" lon="-2.32597">
        <ele>-5.8000001907349</ele>
        <time>2022-02-13T08:14:59.000Z</time>
      </trkpt>
      <trkpt lat="47.25708" lon="-2.3259">
        <ele>-5.8000001907349</ele>
        <time>2022-02-13T08:15:00.000Z</time>
      </trkpt>
      <trkpt lat="47.25706" lon="-2.32583">
        <ele>-5.8000001907349</ele>
        <time>2022-02-13T08:15:01.000Z</time>
      </trkpt>
      <trkpt lat="47.25703" lon="-2.3257">
        <ele>-5.8000001907349</ele>
        <time>2022-02-13T08:15:03.000Z</time>
      </trkpt>
      <trkpt lat="47.25695" lon="-2.32544">
        <ele>-5.8000001907349</ele>
        <time>2022-02-13T08:15:07.000Z</time>
      </trkpt>
      <trkpt lat="47.25679" lon="-2.32498">
        <ele>-6.4000000953674</ele>
        <time>2022-02-13T08:15:14.000Z</time>
      </trkpt>
      <trkpt lat="47.25677" lon="-2.32492">
        <ele>-6.8000001907349</ele>
        <time>2022-02-13T08:15:15.000Z</time>
      </trkpt>
      <trkpt lat="47.25674" lon="-2.32486">
        <ele>-7.1999998092651</ele>
        <time>2022-02-13T08:15:16.000Z</time>
      </trkpt>
      <trkpt lat="47.25672" lon="-2.3248">
        <ele>-7.5999999046326</ele>
        <time>2022-02-13T08:15:17.000Z</time>
      </trkpt>
      <trkpt lat="47.2567" lon="-2.32474">
        <ele>-8.1999998092651</ele>
        <time>2022-02-13T08:15:18.000Z</time>
      </trkpt>
      <trkpt lat="47.25661" lon="-2.32439">
        <ele>-8.1999998092651</ele>
        <time>2022-02-13T08:15:23.000Z</time>
      </trkpt>
      <trkpt lat="47.25659" lon="-2.32426">
        <ele>-8.6000003814697</ele>
        <time>2022-02-13T08:15:25.000Z</time>
      </trkpt>
      <trkpt lat="47.25657" lon="-2.32421">
        <ele>-9</ele>
        <time>2022-02-13T08:15:26.000Z</time>
      </trkpt>
      <trkpt lat="47.25655" lon="-2.32416">
        <ele>-9.3999996185303</ele>
        <time>2022-02-13T08:15:27.000Z</time>
      </trkpt>
      <trkpt lat="47.25655" lon="-2.3241">
        <ele>-9.8000001907349</ele>
        <time>2022-02-13T08:15:28.000Z</time>
      </trkpt>
      <trkpt lat="47.25655" lon="-2.32406">
        <ele>-10.199999809265</ele>
        <time>2022-02-13T08:15:29.000Z</time>
      </trkpt>
      <trkpt lat="47.25662" lon="-2.32403">
        <ele>-10.199999809265</ele>
        <time>2022-02-13T08:15:31.000Z</time>
      </trkpt>
      <trkpt lat="47.2567" lon="-2.32413">
        <ele>-10.199999809265</ele>
        <time>2022-02-13T08:15:34.000Z</time>
      </trkpt>
      <trkpt lat="47.25674" lon="-2.32417">
        <ele>-10.199999809265</ele>
        <time>2022-02-13T08:15:35.000Z</time>
      </trkpt>
      <trkpt lat="47.25685" lon="-2.3242">
        <ele>-10.199999809265</ele>
        <time>2022-02-13T08:15:37.000Z</time>
      </trkpt>
      <trkpt lat="47.25695" lon="-2.32421">
        <ele>-10.199999809265</ele>
        <time>2022-02-13T08:15:39.000Z</time>
      </trkpt>
      <trkpt lat="47.25722" lon="-2.32423">
        <ele>-10.199999809265</ele>
        <time>2022-02-13T08:15:44.000Z</time>
      </trkpt>
      <trkpt lat="47.25754" lon="-2.32423">
        <ele>-10.199999809265</ele>
        <time>2022-02-13T08:15:51.000Z</time>
      </trkpt>
      <trkpt lat="47.25774" lon="-2.32413">
        <ele>-10.199999809265</ele>
        <time>2022-02-13T08:15:56.000Z</time>
      </trkpt>
      <trkpt lat="47.25781" lon="-2.32414">
        <ele>-10.199999809265</ele>
        <time>2022-02-13T08:15:58.000Z</time>
      </trkpt>
      <trkpt lat="47.25785" lon="-2.32419">
        <ele>-10.199999809265</ele>
        <time>2022-02-13T08:15:59.000Z</time>
      </trkpt>
      <trkpt lat="47.25797" lon="-2.32444">
        <ele>-10.199999809265</ele>
        <time>2022-02-13T08:16:03.000Z</time>
      </trkpt>
      <trkpt lat="47.25816" lon="-2.3246">
        <ele>-10.199999809265</ele>
        <time>2022-02-13T08:16:07.000Z</time>
      </trkpt>
      <trkpt lat="47.25822" lon="-2.32463">
        <ele>-10.199999809265</ele>
        <time>2022-02-13T08:16:08.000Z</time>
      </trkpt>
      <trkpt lat="47.25854" lon="-2.32475">
        <ele>-10.60000038147</ele>
        <time>2022-02-13T08:16:14.000Z</time>
      </trkpt>
      <trkpt lat="47.2586" lon="-2.32475">
        <ele>-11</ele>
        <time>2022-02-13T08:16:15.000Z</time>
      </trkpt>
      <trkpt lat="47.25865" lon="-2.32474">
        <ele>-11.60000038147</ele>
        <time>2022-02-13T08:16:16.000Z</time>
      </trkpt>
      <trkpt lat="47.25871" lon="-2.32473">
        <ele>-12</ele>
        <time>2022-02-13T08:16:17.000Z</time>
      </trkpt>
      <trkpt lat="47.25876" lon="-2.32472">
        <ele>-12.39999961853</ele>
        <time>2022-02-13T08:16:18.000Z</time>
      </trkpt>
      <trkpt lat="47.25881" lon="-2.32471">
        <ele>-12.39999961853</ele>
        <time>2022-02-13T08:16:19.000Z</time>
      </trkpt>
      <trkpt lat="47.25892" lon="-2.32468">
        <ele>-12.39999961853</ele>
        <time>2022-02-13T08:16:21.000Z</time>
      </trkpt>
      <trkpt lat="47.25902" lon="-2.32457">
        <ele>-12.39999961853</ele>
        <time>2022-02-13T08:16:23.000Z</time>
      </trkpt>
      <trkpt lat="47.25925" lon="-2.3243">
        <ele>-12.39999961853</ele>
        <time>2022-02-13T08:16:28.000Z</time>
      </trkpt>
      <trkpt lat="47.25934" lon="-2.32417">
        <ele>-12.39999961853</ele>
        <time>2022-02-13T08:16:30.000Z</time>
      </trkpt>
      <trkpt lat="47.25966" lon="-2.32374">
        <ele>-12.39999961853</ele>
        <time>2022-02-13T08:16:38.000Z</time>
      </trkpt>
      <trkpt lat="47.25994" lon="-2.32337">
        <ele>-12.39999961853</ele>
        <time>2022-02-13T08:16:45.000Z</time>
      </trkpt>
      <trkpt lat="47.26021" lon="-2.32303">
        <ele>-12.39999961853</ele>
        <time>2022-02-13T08:16:52.000Z</time>
      </trkpt>
      <trkpt lat="47.26049" lon="-2.32271">
        <ele>-12.39999961853</ele>
        <time>2022-02-13T08:17:00.000Z</time>
      </trkpt>
      <trkpt lat="47.26063" lon="-2.32254">
        <ele>-12.39999961853</ele>
        <time>2022-02-13T08:17:04.000Z</time>
      </trkpt>
      <trkpt lat="47.26073" lon="-2.32243">
        <ele>-12.39999961853</ele>
        <time>2022-02-13T08:17:07.000Z</time>
      </trkpt>
      <trkpt lat="47.26094" lon="-2.32213">
        <ele>-12.39999961853</ele>
        <time>2022-02-13T08:17:14.000Z</time>
      </trkpt>
      <trkpt lat="47.261" lon="-2.32203">
        <ele>-12.39999961853</ele>
        <time>2022-02-13T08:17:16.000Z</time>
      </trkpt>
      <trkpt lat="47.26109" lon="-2.32185">
        <ele>-12.39999961853</ele>
        <time>2022-02-13T08:17:19.000Z</time>
      </trkpt>
      <trkpt lat="47.26126" lon="-2.32139">
        <ele>-12.39999961853</ele>
        <time>2022-02-13T08:17:26.000Z</time>
      </trkpt>
      <trkpt lat="47.26143" lon="-2.32081">
        <ele>-12.39999961853</ele>
        <time>2022-02-13T08:17:34.000Z</time>
      </trkpt>
      <trkpt lat="47.26155" lon="-2.32043">
        <ele>-12.39999961853</ele>
        <time>2022-02-13T08:17:40.000Z</time>
      </trkpt>
      <trkpt lat="47.26158" lon="-2.32038">
        <ele>-12.39999961853</ele>
        <time>2022-02-13T08:17:41.000Z</time>
      </trkpt>
      <trkpt lat="47.26169" lon="-2.3202">
        <ele>-12.39999961853</ele>
        <time>2022-02-13T08:17:46.000Z</time>
      </trkpt>
      <trkpt lat="47.26181" lon="-2.32021">
        <ele>-12.39999961853</ele>
        <time>2022-02-13T08:17:50.000Z</time>
      </trkpt>
      <trkpt lat="47.26192" lon="-2.32024">
        <ele>-12.39999961853</ele>
        <time>2022-02-13T08:17:55.000Z</time>
      </trkpt>
      <trkpt lat="47.26197" lon="-2.32022">
        <ele>-12.39999961853</ele>
        <time>2022-02-13T08:17:57.000Z</time>
      </trkpt>
      <trkpt lat="47.26198" lon="-2.32013">
        <ele>-12.39999961853</ele>
        <time>2022-02-13T08:17:59.000Z</time>
      </trkpt>
      <trkpt lat="47.26203" lon="-2.32004">
        <ele>-12.39999961853</ele>
        <time>2022-02-13T08:18:02.000Z</time>
      </trkpt>
      <trkpt lat="47.26205" lon="-2.32002">
        <ele>-12.39999961853</ele>
        <time>2022-02-13T08:18:03.000Z</time>
      </trkpt>
      <trkpt lat="47.26221" lon="-2.31982">
        <ele>-12.39999961853</ele>
        <time>2022-02-13T08:18:09.000Z</time>
      </trkpt>
      <trkpt lat="47.26241" lon="-2.3196">
        <ele>-12.39999961853</ele>
        <time>2022-02-13T08:18:15.000Z</time>
      </trkpt>
      <trkpt lat="47.26254" lon="-2.31941">
        <ele>-12.39999961853</ele>
        <time>2022-02-13T08:18:20.000Z</time>
      </trkpt>
      <trkpt lat="47.26274" lon="-2.31909">
        <ele>-12.39999961853</ele>
        <time>2022-02-13T08:18:27.000Z</time>
      </trkpt>
      <trkpt lat="47.26291" lon="-2.31898">
        <ele>-12.39999961853</ele>
        <time>2022-02-13T08:18:31.000Z</time>
      </trkpt>
      <trkpt lat="47.26293" lon="-2.31897">
        <ele>-12.39999961853</ele>
        <time>2022-02-13T08:18:32.000Z</time>
      </trkpt>
      <trkpt lat="47.26295" lon="-2.31905">
        <ele>-12.39999961853</ele>
        <time>2022-02-13T08:18:35.000Z</time>
      </trkpt>
      <trkpt lat="47.26295" lon="-2.31908">
        <ele>-12.39999961853</ele>
        <time>2022-02-13T08:18:36.000Z</time>
      </trkpt>
      <trkpt lat="47.26297" lon="-2.31925">
        <ele>-12.39999961853</ele>
        <time>2022-02-13T08:18:40.000Z</time>
      </trkpt>
      <trkpt lat="47.263" lon="-2.3193">
        <ele>-12.39999961853</ele>
        <time>2022-02-13T08:18:42.000Z</time>
      </trkpt>
      <trkpt lat="47.26305" lon="-2.31931">
        <ele>-12.39999961853</ele>
        <time>2022-02-13T08:18:44.000Z</time>
      </trkpt>
      <trkpt lat="47.26316" lon="-2.31929">
        <ele>-12.39999961853</ele>
        <time>2022-02-13T08:18:47.000Z</time>
      </trkpt>
      <trkpt lat="47.26323" lon="-2.3193">
        <ele>-12.39999961853</ele>
        <time>2022-02-13T08:18:49.000Z</time>
      </trkpt>
      <trkpt lat="47.2634" lon="-2.31943">
        <ele>-12.39999961853</ele>
        <time>2022-02-13T08:18:54.000Z</time>
      </trkpt>
      <trkpt lat="47.26349" lon="-2.31959">
        <ele>-12.39999961853</ele>
        <time>2022-02-13T08:18:58.000Z</time>
      </trkpt>
      <trkpt lat="47.26359" lon="-2.31983">
        <ele>-12.39999961853</ele>
        <time>2022-02-13T08:19:03.000Z</time>
      </trkpt>
      <trkpt lat="47.26363" lon="-2.31985">
        <ele>-12.39999961853</ele>
        <time>2022-02-13T08:19:04.000Z</time>
      </trkpt>
      <trkpt lat="47.26371" lon="-2.31988">
        <ele>-12</ele>
        <time>2022-02-13T08:19:06.000Z</time>
      </trkpt>
      <trkpt lat="47.26375" lon="-2.31988">
        <ele>-11.60000038147</ele>
        <time>2022-02-13T08:19:07.000Z</time>
      </trkpt>
      <trkpt lat="47.2638" lon="-2.31987">
        <ele>-11.199999809265</ele>
        <time>2022-02-13T08:19:08.000Z</time>
      </trkpt>
      <trkpt lat="47.26384" lon="-2.31989">
        <ele>-10.800000190735</ele>
        <time>2022-02-13T08:19:09.000Z</time>
      </trkpt>
      <trkpt lat="47.26387" lon="-2.3199">
        <ele>-10.199999809265</ele>
        <time>2022-02-13T08:19:10.000Z</time>
      </trkpt>
      <trkpt lat="47.2639" lon="-2.31991">
        <ele>-10.199999809265</ele>
        <time>2022-02-13T08:19:11.000Z</time>
      </trkpt>
      <trkpt lat="47.26402" lon="-2.31992">
        <ele>-10.199999809265</ele>
        <time>2022-02-13T08:19:16.000Z</time>
      </trkpt>
      <trkpt lat="47.26408" lon="-2.31993">
        <ele>-9.8000001907349</ele>
        <time>2022-02-13T08:19:18.000Z</time>
      </trkpt>
      <trkpt lat="47.2641" lon="-2.31994">
        <ele>-9.3999996185303</ele>
        <time>2022-02-13T08:19:19.000Z</time>
      </trkpt>
      <trkpt lat="47.26414" lon="-2.31994">
        <ele>-9</ele>
        <time>2022-02-13T08:19:20.000Z</time>
      </trkpt>
      <trkpt lat="47.26417" lon="-2.31994">
        <ele>-8.6000003814697</ele>
        <time>2022-02-13T08:19:21.000Z</time>
      </trkpt>
      <trkpt lat="47.2642" lon="-2.31995">
        <ele>-8.1999998092651</ele>
        <time>2022-02-13T08:19:22.000Z</time>
      </trkpt>
      <trkpt lat="47.26423" lon="-2.31995">
        <ele>-8.1999998092651</ele>
        <time>2022-02-13T08:19:23.000Z</time>
      </trkpt>
      <trkpt lat="47.2644" lon="-2.31999">
        <ele>-7.5999999046326</ele>
        <time>2022-02-13T08:19:28.000Z</time>
      </trkpt>
      <trkpt lat="47.26443" lon="-2.31999">
        <ele>-7.1999998092651</ele>
        <time>2022-02-13T08:19:29.000Z</time>
      </trkpt>
      <trkpt lat="47.26446" lon="-2.31999">
        <ele>-6.8000001907349</ele>
        <time>2022-02-13T08:19:30.000Z</time>
      </trkpt>
      <trkpt lat="47.26449" lon="-2.32">
        <ele>-6.4000000953674</ele>
        <time>2022-02-13T08:19:31.000Z</time>
      </trkpt>
      <trkpt lat="47.26452" lon="-2.32">
        <ele>-6</ele>
        <time>2022-02-13T08:19:32.000Z</time>
      </trkpt>
      <trkpt lat="47.26461" lon="-2.31998">
        <ele>-6</ele>
        <time>2022-02-13T08:19:35.000Z</time>
      </trkpt>
      <trkpt lat="47.26475" lon="-2.31997">
        <ele>-5.5999999046326</ele>
        <time>2022-02-13T08:19:39.000Z</time>
      </trkpt>
      <trkpt lat="47.26478" lon="-2.31996">
        <ele>-5.1999998092651</ele>
        <time>2022-02-13T08:19:40.000Z</time>
      </trkpt>
      <trkpt lat="47.2648" lon="-2.31996">
        <ele>-4.8000001907349</ele>
        <time>2022-02-13T08:19:41.000Z</time>
      </trkpt>
      <trkpt lat="47.26484" lon="-2.31996">
        <ele>-4.1999998092651</ele>
        <time>2022-02-13T08:19:42.000Z</time>
      </trkpt>
      <trkpt lat="47.26488" lon="-2.31996">
        <ele>-3.7999999523163</ele>
        <time>2022-02-13T08:19:43.000Z</time>
      </trkpt>
      <trkpt lat="47.26506" lon="-2.31994">
        <ele>-3.4000000953674</ele>
        <time>2022-02-13T08:19:49.000Z</time>
      </trkpt>
      <trkpt lat="47.26508" lon="-2.31993">
        <ele>-3</ele>
        <time>2022-02-13T08:19:50.000Z</time>
      </trkpt>
      <trkpt lat="47.2651" lon="-2.31993">
        <ele>-2.2000000476837</ele>
        <time>2022-02-13T08:19:51.000Z</time>
      </trkpt>
      <trkpt lat="47.26512" lon="-2.31993">
        <ele>-1.7999999523163</ele>
        <time>2022-02-13T08:19:52.000Z</time>
      </trkpt>
      <trkpt lat="47.26516" lon="-2.31994">
        <ele>-1.7999999523163</ele>
        <time>2022-02-13T08:19:54.000Z</time>
      </trkpt>
      <trkpt lat="47.26521" lon="-2.31996">
        <ele>-1.3999999761581</ele>
        <time>2022-02-13T08:19:57.000Z</time>
      </trkpt>
      <trkpt lat="47.26524" lon="-2.31998">
        <ele>-0.80000001192093</ele>
        <time>2022-02-13T08:19:58.000Z</time>
      </trkpt>
      <trkpt lat="47.26526" lon="-2.32">
        <ele>-0.40000000596046</ele>
        <time>2022-02-13T08:19:59.000Z</time>
      </trkpt>
      <trkpt lat="47.26527" lon="-2.32003">
        <ele>17.1</ele>
        <time>2022-02-13T08:20:00.000Z</time>
      </trkpt>
      <trkpt lat="47.26529" lon="-2.32006">
        <ele>0.40000000596046</ele>
        <time>2022-02-13T08:20:01.000Z</time>
      </trkpt>
      <trkpt lat="47.26539" lon="-2.32025">
        <ele>0.40000000596046</ele>
        <time>2022-02-13T08:20:07.000Z</time>
      </trkpt>
      <trkpt lat="47.26545" lon="-2.32037">
        <ele>0.40000000596046</ele>
        <time>2022-02-13T08:20:11.000Z</time>
      </trkpt>
      <trkpt lat="47.26551" lon="-2.32038">
        <ele>0.80000001192093</ele>
        <time>2022-02-13T08:20:13.000Z</time>
      </trkpt>
      <trkpt lat="47.26554" lon="-2.32035">
        <ele>1.2000000476837</ele>
        <time>2022-02-13T08:20:14.000Z</time>
      </trkpt>
      <trkpt lat="47.26557" lon="-2.32034">
        <ele>1.6000000238419</ele>
        <time>2022-02-13T08:20:15.000Z</time>
      </trkpt>
      <trkpt lat="47.2656" lon="-2.32032">
        <ele>2.2000000476837</ele>
        <time>2022-02-13T08:20:16.000Z</time>
      </trkpt>
      <trkpt lat="47.26563" lon="-2.32031">
        <ele>2.5999999046326</ele>
        <time>2022-02-13T08:20:17.000Z</time>
      </trkpt>
      <trkpt lat="47.26579" lon="-2.32025">
        <ele>2.5999999046326</ele>
        <time>2022-02-13T08:20:22.000Z</time>
      </trkpt>
      <trkpt lat="47.26592" lon="-2.3202">
        <ele>3</ele>
        <time>2022-02-13T08:20:26.000Z</time>
      </trkpt>
      <trkpt lat="47.26594" lon="-2.3202">
        <ele>3.4000000953674</ele>
        <time>2022-02-13T08:20:27.000Z</time>
      </trkpt>
      <trkpt lat="47.26597" lon="-2.3202">
        <ele>3.7999999523163</ele>
        <time>2022-02-13T08:20:28.000Z</time>
      </trkpt>
      <trkpt lat="47.266" lon="-2.32019">
        <ele>4.1999998092651</ele>
        <time>2022-02-13T08:20:29.000Z</time>
      </trkpt>
      <trkpt lat="47.26603" lon="-2.32018">
        <ele>4.5999999046326</ele>
        <time>2022-02-13T08:20:30.000Z</time>
      </trkpt>
      <trkpt lat="47.26618" lon="-2.32012">
        <ele>4.5999999046326</ele>
        <time>2022-02-13T08:20:35.000Z</time>
      </trkpt>
      <trkpt lat="47.26633" lon="-2.32007">
        <ele>4.5999999046326</ele>
        <time>2022-02-13T08:20:42.000Z</time>
      </trkpt>
      <trkpt lat="47.26639" lon="-2.32004">
        <ele>4.5999999046326</ele>
        <time>2022-02-13T08:20:48.000Z</time>
      </trkpt>
      <trkpt lat="47.26639" lon="-2.32004">
        <ele>4.5999999046326</ele>
        <time>2022-02-13T08:20:49.000Z</time>
      </trkpt>
      <trkpt lat="47.26644" lon="-2.32004">
        <ele>4.5999999046326</ele>
        <time>2022-02-13T08:21:14.000Z</time>
      </trkpt>
      <trkpt lat="47.26647" lon="-2.3201">
        <ele>4.5999999046326</ele>
        <time>2022-02-13T08:21:16.000Z</time>
      </trkpt>
      <trkpt lat="47.26652" lon="-2.32028">
        <ele>4.5999999046326</ele>
        <time>2022-02-13T08:21:20.000Z</time>
      </trkpt>
      <trkpt lat="47.26654" lon="-2.32033">
        <ele>4.5999999046326</ele>
        <time>2022-02-13T08:21:21.000Z</time>
      </trkpt>
      <trkpt lat="47.26664" lon="-2.32072">
        <ele>4.5999999046326</ele>
        <time>2022-02-13T08:21:27.000Z</time>
      </trkpt>
      <trkpt lat="47.26672" lon="-2.32111">
        <ele>4.5999999046326</ele>
        <time>2022-02-13T08:21:33.000Z</time>
      </trkpt>
      <trkpt lat="47.26675" lon="-2.32122">
        <ele>4.5999999046326</ele>
        <time>2022-02-13T08:21:35.000Z</time>
      </trkpt>
      <trkpt lat="47.2668" lon="-2.32125">
        <ele>4.5999999046326</ele>
        <time>2022-02-13T08:21:37.000Z</time>
      </trkpt>
      <trkpt lat="47.26683" lon="-2.32122">
        <ele>4.5999999046326</ele>
        <time>2022-02-13T08:21:38.000Z</time>
      </trkpt>
      <trkpt lat="47.26685" lon="-2.32106">
        <ele>4.5999999046326</ele>
        <time>2022-02-13T08:21:41.000Z</time>
      </trkpt>
      <trkpt lat="47.26685" lon="-2.32094">
        <ele>4.5999999046326</ele>
        <time>2022-02-13T08:21:43.000Z</time>
      </trkpt>
      <trkpt lat="47.26685" lon="-2.32068">
        <ele>4.5999999046326</ele>
        <time>2022-02-13T08:21:47.000Z</time>
      </trkpt>
      <trkpt lat="47.26685" lon="-2.32055">
        <ele>4.5999999046326</ele>
        <time>2022-02-13T08:21:49.000Z</time>
      </trkpt>
      <trkpt lat="47.26687" lon="-2.32039">
        <ele>4.5999999046326</ele>
        <time>2022-02-13T08:21:52.000Z</time>
      </trkpt>
      <trkpt lat="47.26694" lon="-2.32019">
        <ele>4.5999999046326</ele>
        <time>2022-02-13T08:21:56.000Z</time>
      </trkpt>
      <trkpt lat="47.26703" lon="-2.32004">
        <ele>4.5999999046326</ele>
        <time>2022-02-13T08:21:59.000Z</time>
      </trkpt>
      <trkpt lat="47.26713" lon="-2.31997">
        <ele>4.5999999046326</ele>
        <time>2022-02-13T08:22:01.000Z</time>
      </trkpt>
      <trkpt lat="47.26732" lon="-2.31984">
        <ele>4.5999999046326</ele>
        <time>2022-02-13T08:22:05.000Z</time>
      </trkpt>
      <trkpt lat="47.26742" lon="-2.31976">
        <ele>4.1999998092651</ele>
        <time>2022-02-13T08:22:07.000Z</time>
      </trkpt>
      <trkpt lat="47.26746" lon="-2.31972">
        <ele>3.7999999523163</ele>
        <time>2022-02-13T08:22:08.000Z</time>
      </trkpt>
      <trkpt lat="47.2675" lon="-2.31967">
        <ele>3.2000000476837</ele>
        <time>2022-02-13T08:22:09.000Z</time>
      </trkpt>
      <trkpt lat="47.26753" lon="-2.3196">
        <ele>2.7999999523163</ele>
        <time>2022-02-13T08:22:10.000Z</time>
      </trkpt>
      <trkpt lat="47.26756" lon="-2.31954">
        <ele>2.4000000953674</ele>
        <time>2022-02-13T08:22:11.000Z</time>
      </trkpt>
      <trkpt lat="47.26759" lon="-2.31948">
        <ele>2.4000000953674</ele>
        <time>2022-02-13T08:22:12.000Z</time>
      </trkpt>
      <trkpt lat="47.26762" lon="-2.31946">
        <ele>2.4000000953674</ele>
        <time>2022-02-13T08:22:13.000Z</time>
      </trkpt>
      <trkpt lat="47.26766" lon="-2.31949">
        <ele>2.4000000953674</ele>
        <time>2022-02-13T08:22:14.000Z</time>
      </trkpt>
      <trkpt lat="47.26777" lon="-2.31965">
        <ele>2.4000000953674</ele>
        <time>2022-02-13T08:22:17.000Z</time>
      </trkpt>
      <trkpt lat="47.26789" lon="-2.31988">
        <ele>2</ele>
        <time>2022-02-13T08:22:20.000Z</time>
      </trkpt>
      <trkpt lat="47.26793" lon="-2.31997">
        <ele>1.6000000238419</ele>
        <time>2022-02-13T08:22:21.000Z</time>
      </trkpt>
      <trkpt lat="47.26798" lon="-2.32006">
        <ele>1</ele>
        <time>2022-02-13T08:22:22.000Z</time>
      </trkpt>
      <trkpt lat="47.26803" lon="-2.32015">
        <ele>0.60000002384186</ele>
        <time>2022-02-13T08:22:23.000Z</time>
      </trkpt>
      <trkpt lat="47.26806" lon="-2.32024">
        <ele>15.9</ele>
        <time>2022-02-13T08:22:24.000Z</time>
      </trkpt>
      <trkpt lat="47.26813" lon="-2.32045">
        <ele>15.5</ele>
        <time>2022-02-13T08:22:26.000Z</time>
      </trkpt>
      <trkpt lat="47.26821" lon="-2.32075">
        <ele>-0.40000000596046</ele>
        <time>2022-02-13T08:22:29.000Z</time>
      </trkpt>
      <trkpt lat="47.26823" lon="-2.32086">
        <ele>-0.80000001192093</ele>
        <time>2022-02-13T08:22:30.000Z</time>
      </trkpt>
      <trkpt lat="47.26826" lon="-2.32096">
        <ele>-1.2000000476837</ele>
        <time>2022-02-13T08:22:31.000Z</time>
      </trkpt>
      <trkpt lat="47.26828" lon="-2.32105">
        <ele>-1.6000000238419</ele>
        <time>2022-02-13T08:22:32.000Z</time>
      </trkpt>
      <trkpt lat="47.2683" lon="-2.32115">
        <ele>-2.2000000476837</ele>
        <time>2022-02-13T08:22:33.000Z</time>
      </trkpt>
      <trkpt lat="47.26844" lon="-2.32163">
        <ele>-2.2000000476837</ele>
        <time>2022-02-13T08:22:38.000Z</time>
      </trkpt>
      <trkpt lat="47.26858" lon="-2.32198">
        <ele>-2.5999999046326</ele>
        <time>2022-02-13T08:22:42.000Z</time>
      </trkpt>
      <trkpt lat="47.26861" lon="-2.32206">
        <ele>-3</ele>
        <time>2022-02-13T08:22:43.000Z</time>
      </trkpt>
      <trkpt lat="47.26865" lon="-2.32214">
        <ele>-3.4000000953674</ele>
        <time>2022-02-13T08:22:44.000Z</time>
      </trkpt>
      <trkpt lat="47.26869" lon="-2.32222">
        <ele>-4.1999998092651</ele>
        <time>2022-02-13T08:22:45.000Z</time>
      </trkpt>
      <trkpt lat="47.26882" lon="-2.32247">
        <ele>-4.5999999046326</ele>
        <time>2022-02-13T08:22:48.000Z</time>
      </trkpt>
      <trkpt lat="47.26887" lon="-2.32253">
        <ele>-5</ele>
        <time>2022-02-13T08:22:49.000Z</time>
      </trkpt>
      <trkpt lat="47.26892" lon="-2.32261">
        <ele>-5.4000000953674</ele>
        <time>2022-02-13T08:22:50.000Z</time>
      </trkpt>
      <trkpt lat="47.26897" lon="-2.32269">
        <ele>-6</ele>
        <time>2022-02-13T08:22:51.000Z</time>
      </trkpt>
      <trkpt lat="47.26901" lon="-2.32278">
        <ele>-6.4000000953674</ele>
        <time>2022-02-13T08:22:52.000Z</time>
      </trkpt>
      <trkpt lat="47.26914" lon="-2.32306">
        <ele>-6.8000001907349</ele>
        <time>2022-02-13T08:22:55.000Z</time>
      </trkpt>
      <trkpt lat="47.26917" lon="-2.32315">
        <ele>-7.1999998092651</ele>
        <time>2022-02-13T08:22:56.000Z</time>
      </trkpt>
      <trkpt lat="47.26918" lon="-2.32321">
        <ele>-7.5999999046326</ele>
        <time>2022-02-13T08:22:57.000Z</time>
      </trkpt>
      <trkpt lat="47.26919" lon="-2.32326">
        <ele>-8</ele>
        <time>2022-02-13T08:22:58.000Z</time>
      </trkpt>
      <trkpt lat="47.26919" lon="-2.32328">
        <ele>-8.3999996185303</ele>
        <time>2022-02-13T08:22:59.000Z</time>
      </trkpt>
      <trkpt lat="47.26919" lon="-2.32332">
        <ele>-8.3999996185303</ele>
        <time>2022-02-13T08:23:01.000Z</time>
      </trkpt>
      <trkpt lat="47.2692" lon="-2.32336">
        <ele>-8.3999996185303</ele>
        <time>2022-02-13T08:23:05.000Z</time>
      </trkpt>
      <trkpt lat="47.26924" lon="-2.32343">
        <ele>-8.3999996185303</ele>
        <time>2022-02-13T08:23:20.000Z</time>
      </trkpt>
      <trkpt lat="47.26926" lon="-2.32345">
        <ele>-8.8000001907349</ele>
        <time>2022-02-13T08:23:21.000Z</time>
      </trkpt>
      <trkpt lat="47.26928" lon="-2.32347">
        <ele>-9.1999998092651</ele>
        <time>2022-02-13T08:23:22.000Z</time>
      </trkpt>
      <trkpt lat="47.2693" lon="-2.3235">
        <ele>-9.6000003814697</ele>
        <time>2022-02-13T08:23:23.000Z</time>
      </trkpt>
      <trkpt lat="47.26932" lon="-2.32354">
        <ele>-10</ele>
        <time>2022-02-13T08:23:24.000Z</time>
      </trkpt>
      <trkpt lat="47.26935" lon="-2.32359">
        <ele>-10.39999961853</ele>
        <time>2022-02-13T08:23:25.000Z</time>
      </trkpt>
      <trkpt lat="47.26938" lon="-2.3237">
        <ele>-10.39999961853</ele>
        <time>2022-02-13T08:23:27.000Z</time>
      </trkpt>
      <trkpt lat="47.26941" lon="-2.32382">
        <ele>-10.39999961853</ele>
        <time>2022-02-13T08:23:29.000Z</time>
      </trkpt>
      <trkpt lat="47.26955" lon="-2.32422">
        <ele>-10.39999961853</ele>
        <time>2022-02-13T08:23:35.000Z</time>
      </trkpt>
      <trkpt lat="47.26966" lon="-2.3244">
        <ele>-10.39999961853</ele>
        <time>2022-02-13T08:23:38.000Z</time>
      </trkpt>
      <trkpt lat="47.26976" lon="-2.32451">
        <ele>-10.39999961853</ele>
        <time>2022-02-13T08:23:40.000Z</time>
      </trkpt>
      <trkpt lat="47.26989" lon="-2.32477">
        <ele>-10.39999961853</ele>
        <time>2022-02-13T08:23:44.000Z</time>
      </trkpt>
      <trkpt lat="47.27001" lon="-2.32504">
        <ele>-10.800000190735</ele>
        <time>2022-02-13T08:23:48.000Z</time>
      </trkpt>
      <trkpt lat="47.27006" lon="-2.32507">
        <ele>-11.39999961853</ele>
        <time>2022-02-13T08:23:49.000Z</time>
      </trkpt>
      <trkpt lat="47.27011" lon="-2.32509">
        <ele>-11.800000190735</ele>
        <time>2022-02-13T08:23:50.000Z</time>
      </trkpt>
      <trkpt lat="47.27017" lon="-2.32507">
        <ele>-12.199999809265</ele>
        <time>2022-02-13T08:23:51.000Z</time>
      </trkpt>
      <trkpt lat="47.27022" lon="-2.32504">
        <ele>-12.60000038147</ele>
        <time>2022-02-13T08:23:52.000Z</time>
      </trkpt>
      <trkpt lat="47.27032" lon="-2.32482">
        <ele>-12.60000038147</ele>
        <time>2022-02-13T08:23:55.000Z</time>
      </trkpt>
      <trkpt lat="47.27033" lon="-2.32447">
        <ele>-12.60000038147</ele>
        <time>2022-02-13T08:23:59.000Z</time>
      </trkpt>
      <trkpt lat="47.27029" lon="-2.32393">
        <ele>-12.60000038147</ele>
        <time>2022-02-13T08:24:05.000Z</time>
      </trkpt>
      <trkpt lat="47.27022" lon="-2.32333">
        <ele>-12.60000038147</ele>
        <time>2022-02-13T08:24:12.000Z</time>
      </trkpt>
      <trkpt lat="47.2702" lon="-2.32282">
        <ele>-12.60000038147</ele>
        <time>2022-02-13T08:24:18.000Z</time>
      </trkpt>
      <trkpt lat="47.2702" lon="-2.32267">
        <ele>-12.60000038147</ele>
        <time>2022-02-13T08:24:20.000Z</time>
      </trkpt>
      <trkpt lat="47.2702" lon="-2.32235">
        <ele>-12.60000038147</ele>
        <time>2022-02-13T08:24:24.000Z</time>
      </trkpt>
      <trkpt lat="47.27018" lon="-2.32219">
        <ele>-12.60000038147</ele>
        <time>2022-02-13T08:24:26.000Z</time>
      </trkpt>
      <trkpt lat="47.27014" lon="-2.32198">
        <ele>-12.60000038147</ele>
        <time>2022-02-13T08:24:29.000Z</time>
      </trkpt>
      <trkpt lat="47.27012" lon="-2.32191">
        <ele>-12.60000038147</ele>
        <time>2022-02-13T08:24:30.000Z</time>
      </trkpt>
      <trkpt lat="47.27002" lon="-2.32174">
        <ele>-12.60000038147</ele>
        <time>2022-02-13T08:24:33.000Z</time>
      </trkpt>
      <trkpt lat="47.26989" lon="-2.3215">
        <ele>-12.60000038147</ele>
        <time>2022-02-13T08:24:37.000Z</time>
      </trkpt>
      <trkpt lat="47.26993" lon="-2.32132">
        <ele>-12.60000038147</ele>
        <time>2022-02-13T08:24:40.000Z</time>
      </trkpt>
      <trkpt lat="47.27007" lon="-2.32117">
        <ele>-12.60000038147</ele>
        <time>2022-02-13T08:24:44.000Z</time>
      </trkpt>
      <trkpt lat="47.2701" lon="-2.32106">
        <ele>-12.60000038147</ele>
        <time>2022-02-13T08:24:46.000Z</time>
      </trkpt>
      <trkpt lat="47.27013" lon="-2.32093">
        <ele>-12.60000038147</ele>
        <time>2022-02-13T08:24:48.000Z</time>
      </trkpt>
      <trkpt lat="47.27016" lon="-2.3206">
        <ele>-12.60000038147</ele>
        <time>2022-02-13T08:24:53.000Z</time>
      </trkpt>
      <trkpt lat="47.27013" lon="-2.32026">
        <ele>-12.60000038147</ele>
        <time>2022-02-13T08:24:59.000Z</time>
      </trkpt>
      <trkpt lat="47.27011" lon="-2.32014">
        <ele>-12.199999809265</ele>
        <time>2022-02-13T08:25:01.000Z</time>
      </trkpt>
      <trkpt lat="47.27009" lon="-2.32009">
        <ele>-11.800000190735</ele>
        <time>2022-02-13T08:25:02.000Z</time>
      </trkpt>
      <trkpt lat="47.27008" lon="-2.32004">
        <ele>-11.39999961853</ele>
        <time>2022-02-13T08:25:03.000Z</time>
      </trkpt>
      <trkpt lat="47.27006" lon="-2.31998">
        <ele>-11</ele>
        <time>2022-02-13T08:25:04.000Z</time>
      </trkpt>
      <trkpt lat="47.27006" lon="-2.31992">
        <ele>-10.39999961853</ele>
        <time>2022-02-13T08:25:05.000Z</time>
      </trkpt>
      <trkpt lat="47.27006" lon="-2.31985">
        <ele>-10.39999961853</ele>
        <time>2022-02-13T08:25:06.000Z</time>
      </trkpt>
      <trkpt lat="47.27007" lon="-2.3198">
        <ele>-10.39999961853</ele>
        <time>2022-02-13T08:25:07.000Z</time>
      </trkpt>
      <trkpt lat="47.27015" lon="-2.31976">
        <ele>-10.39999961853</ele>
        <time>2022-02-13T08:25:09.000Z</time>
      </trkpt>
      <trkpt lat="47.27033" lon="-2.31965">
        <ele>-10.39999961853</ele>
        <time>2022-02-13T08:25:14.000Z</time>
      </trkpt>
      <trkpt lat="47.27049" lon="-2.31957">
        <ele>-10.39999961853</ele>
        <time>2022-02-13T08:25:19.000Z</time>
      </trkpt>
      <trkpt lat="47.27053" lon="-2.31959">
        <ele>-10.39999961853</ele>
        <time>2022-02-13T08:25:20.000Z</time>
      </trkpt>
      <trkpt lat="47.27073" lon="-2.31956">
        <ele>-10.39999961853</ele>
        <time>2022-02-13T08:25:26.000Z</time>
      </trkpt>
      <trkpt lat="47.27074" lon="-2.31951">
        <ele>-10.39999961853</ele>
        <time>2022-02-13T08:25:27.000Z</time>
      </trkpt>
      <trkpt lat="47.27074" lon="-2.31946">
        <ele>-10.39999961853</ele>
        <time>2022-02-13T08:25:29.000Z</time>
      </trkpt>
      <trkpt lat="47.27073" lon="-2.31919">
        <ele>-10.39999961853</ele>
        <time>2022-02-13T08:25:36.000Z</time>
      </trkpt>
      <trkpt lat="47.27072" lon="-2.31883">
        <ele>-10.39999961853</ele>
        <time>2022-02-13T08:25:43.000Z</time>
      </trkpt>
      <trkpt lat="47.27077" lon="-2.31862">
        <ele>-10.39999961853</ele>
        <time>2022-02-13T08:25:49.000Z</time>
      </trkpt>
      <trkpt lat="47.27076" lon="-2.31855">
        <ele>-10.39999961853</ele>
        <time>2022-02-13T08:25:52.000Z</time>
      </trkpt>
      <trkpt lat="47.27074" lon="-2.31854">
        <ele>-10.39999961853</ele>
        <time>2022-02-13T08:25:53.000Z</time>
      </trkpt>
      <trkpt lat="47.27066" lon="-2.31851">
        <ele>-10</ele>
        <time>2022-02-13T08:25:56.000Z</time>
      </trkpt>
      <trkpt lat="47.27063" lon="-2.31849">
        <ele>-9.6000003814697</ele>
        <time>2022-02-13T08:25:57.000Z</time>
      </trkpt>
      <trkpt lat="47.27061" lon="-2.31846">
        <ele>-9.1999998092651</ele>
        <time>2022-02-13T08:25:58.000Z</time>
      </trkpt>
      <trkpt lat="47.27059" lon="-2.31842">
        <ele>-8.8000001907349</ele>
        <time>2022-02-13T08:25:59.000Z</time>
      </trkpt>
      <trkpt lat="47.27058" lon="-2.31838">
        <ele>-8.3999996185303</ele>
        <time>2022-02-13T08:26:00.000Z</time>
      </trkpt>
      <trkpt lat="47.27058" lon="-2.3183">
        <ele>-8.3999996185303</ele>
        <time>2022-02-13T08:26:02.000Z</time>
      </trkpt>
      <trkpt lat="47.27058" lon="-2.31818">
        <ele>-8.3999996185303</ele>
        <time>2022-02-13T08:26:05.000Z</time>
      </trkpt>
      <trkpt lat="47.27056" lon="-2.318">
        <ele>-8.3999996185303</ele>
        <time>2022-02-13T08:26:09.000Z</time>
      </trkpt>
      <trkpt lat="47.27056" lon="-2.31786">
        <ele>-8</ele>
        <time>2022-02-13T08:26:12.000Z</time>
      </trkpt>
      <trkpt lat="47.27055" lon="-2.31782">
        <ele>-7.5999999046326</ele>
        <time>2022-02-13T08:26:13.000Z</time>
      </trkpt>
      <trkpt lat="47.27055" lon="-2.31778">
        <ele>-7.1999998092651</ele>
        <time>2022-02-13T08:26:14.000Z</time>
      </trkpt>
      <trkpt lat="47.27054" lon="-2.31775">
        <ele>-6.5999999046326</ele>
        <time>2022-02-13T08:26:15.000Z</time>
      </trkpt>
      <trkpt lat="47.27053" lon="-2.31771">
        <ele>-6.1999998092651</ele>
        <time>2022-02-13T08:26:16.000Z</time>
      </trkpt>
      <trkpt lat="47.2705" lon="-2.31753">
        <ele>-6.1999998092651</ele>
        <time>2022-02-13T08:26:21.000Z</time>
      </trkpt>
      <trkpt lat="47.27052" lon="-2.31735">
        <ele>-6.1999998092651</ele>
        <time>2022-02-13T08:26:25.000Z</time>
      </trkpt>
      <trkpt lat="47.27044" lon="-2.31728">
        <ele>-5.4000000953674</ele>
        <time>2022-02-13T08:26:28.000Z</time>
      </trkpt>
      <trkpt lat="47.27041" lon="-2.31725">
        <ele>-5</ele>
        <time>2022-02-13T08:26:29.000Z</time>
      </trkpt>
      <trkpt lat="47.27037" lon="-2.31723">
        <ele>-4.5999999046326</ele>
        <time>2022-02-13T08:26:30.000Z</time>
      </trkpt>
      <trkpt lat="47.27034" lon="-2.31721">
        <ele>-4.1999998092651</ele>
        <time>2022-02-13T08:26:31.000Z</time>
      </trkpt>
      <trkpt lat="47.27026" lon="-2.31712">
        <ele>-4.1999998092651</ele>
        <time>2022-02-13T08:26:34.000Z</time>
      </trkpt>
      <trkpt lat="47.27022" lon="-2.3169">
        <ele>-4.1999998092651</ele>
        <time>2022-02-13T08:26:39.000Z</time>
      </trkpt>
      <trkpt lat="47.27028" lon="-2.31661">
        <ele>-4.1999998092651</ele>
        <time>2022-02-13T08:26:45.000Z</time>
      </trkpt>
      <trkpt lat="47.27029" lon="-2.31655">
        <ele>-3.5999999046326</ele>
        <time>2022-02-13T08:26:46.000Z</time>
      </trkpt>
      <trkpt lat="47.2703" lon="-2.3165">
        <ele>-3.2000000476837</ele>
        <time>2022-02-13T08:26:47.000Z</time>
      </trkpt>
      <trkpt lat="47.27029" lon="-2.31644">
        <ele>-2.7999999523163</ele>
        <time>2022-02-13T08:26:48.000Z</time>
      </trkpt>
      <trkpt lat="47.27029" lon="-2.31639">
        <ele>-2.4000000953674</ele>
        <time>2022-02-13T08:26:49.000Z</time>
      </trkpt>
      <trkpt lat="47.27029" lon="-2.31634">
        <ele>-2</ele>
        <time>2022-02-13T08:26:50.000Z</time>
      </trkpt>
      <trkpt lat="47.27029" lon="-2.3163">
        <ele>-2</ele>
        <time>2022-02-13T08:26:51.000Z</time>
      </trkpt>
      <trkpt lat="47.27025" lon="-2.31607">
        <ele>-1.6000000238419</ele>
        <time>2022-02-13T08:26:56.000Z</time>
      </trkpt>
      <trkpt lat="47.27025" lon="-2.31603">
        <ele>-1.2000000476837</ele>
        <time>2022-02-13T08:26:57.000Z</time>
      </trkpt>
      <trkpt lat="47.27024" lon="-2.31599">
        <ele>-0.80000001192093</ele>
        <time>2022-02-13T08:26:58.000Z</time>
      </trkpt>
      <trkpt lat="47.27023" lon="-2.31595">
        <ele>-0.20000000298023</ele>
        <time>2022-02-13T08:26:59.000Z</time>
      </trkpt>
      <trkpt lat="47.2702" lon="-2.3159">
        <ele>0.20000000298023</ele>
        <time>2022-02-13T08:27:00.000Z</time>
      </trkpt>
      <trkpt lat="47.27017" lon="-2.31581">
        <ele>0.20000000298023</ele>
        <time>2022-02-13T08:27:02.000Z</time>
      </trkpt>
      <trkpt lat="47.27012" lon="-2.3157">
        <ele>0.60000002384186</ele>
        <time>2022-02-13T08:27:05.000Z</time>
      </trkpt>
      <trkpt lat="47.2701" lon="-2.31565">
        <ele>1</ele>
        <time>2022-02-13T08:27:06.000Z</time>
      </trkpt>
      <trkpt lat="47.27009" lon="-2.3156">
        <ele>1.3999999761581</ele>
        <time>2022-02-13T08:27:07.000Z</time>
      </trkpt>
      <trkpt lat="47.27008" lon="-2.31555">
        <ele>1.7999999523163</ele>
        <time>2022-02-13T08:27:08.000Z</time>
      </trkpt>
      <trkpt lat="47.27007" lon="-2.31549">
        <ele>2.2000000476837</ele>
        <time>2022-02-13T08:27:09.000Z</time>
      </trkpt>
      <trkpt lat="47.27001" lon="-2.31524">
        <ele>2.5999999046326</ele>
        <time>2022-02-13T08:27:14.000Z</time>
      </trkpt>
      <trkpt lat="47.27001" lon="-2.31519">
        <ele>3</ele>
        <time>2022-02-13T08:27:15.000Z</time>
      </trkpt>
      <trkpt lat="47.26999" lon="-2.31512">
        <ele>3.7999999523163</ele>
        <time>2022-02-13T08:27:16.000Z</time>
      </trkpt>
      <trkpt lat="47.26998" lon="-2.31507">
        <ele>4.1999998092651</ele>
        <time>2022-02-13T08:27:17.000Z</time>
      </trkpt>
      <trkpt lat="47.26995" lon="-2.31497">
        <ele>4.1999998092651</ele>
        <time>2022-02-13T08:27:19.000Z</time>
      </trkpt>
      <trkpt lat="47.26991" lon="-2.3148">
        <ele>4.8000001907349</ele>
        <time>2022-02-13T08:27:23.000Z</time>
      </trkpt>
      <trkpt lat="47.26991" lon="-2.31475">
        <ele>5.1999998092651</ele>
        <time>2022-02-13T08:27:24.000Z</time>
      </trkpt>
      <trkpt lat="47.26989" lon="-2.31469">
        <ele>5.5999999046326</ele>
        <time>2022-02-13T08:27:25.000Z</time>
      </trkpt>
      <trkpt lat="47.26988" lon="-2.31464">
        <ele>6</ele>
        <time>2022-02-13T08:27:26.000Z</time>
      </trkpt>
      <trkpt lat="47.26987" lon="-2.3146">
        <ele>6.4000000953674</ele>
        <time>2022-02-13T08:27:27.000Z</time>
      </trkpt>
      <trkpt lat="47.26986" lon="-2.3144">
        <ele>6.4000000953674</ele>
        <time>2022-02-13T08:27:31.000Z</time>
      </trkpt>
      <trkpt lat="47.26984" lon="-2.31408">
        <ele>6.4000000953674</ele>
        <time>2022-02-13T08:27:37.000Z</time>
      </trkpt>
      <trkpt lat="47.26985" lon="-2.31393">
        <ele>6.8000001907349</ele>
        <time>2022-02-13T08:27:40.000Z</time>
      </trkpt>
      <trkpt lat="47.26985" lon="-2.31387">
        <ele>7.5999999046326</ele>
        <time>2022-02-13T08:27:41.000Z</time>
      </trkpt>
      <trkpt lat="47.26985" lon="-2.31382">
        <ele>8.1999998092651</ele>
        <time>2022-02-13T08:27:42.000Z</time>
      </trkpt>
      <trkpt lat="47.26985" lon="-2.31377">
        <ele>8.6000003814697</ele>
        <time>2022-02-13T08:27:43.000Z</time>
      </trkpt>
      <trkpt lat="47.26984" lon="-2.31372">
        <ele>8.6000003814697</ele>
        <time>2022-02-13T08:27:44.000Z</time>
      </trkpt>
      <trkpt lat="47.26982" lon="-2.31345">
        <ele>8.6000003814697</ele>
        <time>2022-02-13T08:27:50.000Z</time>
      </trkpt>
      <trkpt lat="47.26981" lon="-2.31336">
        <ele>9</ele>
        <time>2022-02-13T08:27:52.000Z</time>
      </trkpt>
      <trkpt lat="47.26981" lon="-2.31331">
        <ele>9.3999996185303</ele>
        <time>2022-02-13T08:27:53.000Z</time>
      </trkpt>
      <trkpt lat="47.2698" lon="-2.31327">
        <ele>9.8000001907349</ele>
        <time>2022-02-13T08:27:54.000Z</time>
      </trkpt>
      <trkpt lat="47.26979" lon="-2.31323">
        <ele>10.199999809265</ele>
        <time>2022-02-13T08:27:55.000Z</time>
      </trkpt>
      <trkpt lat="47.26978" lon="-2.31318">
        <ele>10.60000038147</ele>
        <time>2022-02-13T08:27:56.000Z</time>
      </trkpt>
      <trkpt lat="47.26977" lon="-2.3131">
        <ele>10.60000038147</ele>
        <time>2022-02-13T08:27:58.000Z</time>
      </trkpt>
      <trkpt lat="47.26976" lon="-2.31283">
        <ele>10.60000038147</ele>
        <time>2022-02-13T08:28:05.000Z</time>
      </trkpt>
      <trkpt lat="47.26976" lon="-2.3128">
        <ele>10.60000038147</ele>
        <time>2022-02-13T08:28:09.000Z</time>
      </trkpt>
      <trkpt lat="47.26976" lon="-2.31278">
        <ele>10.60000038147</ele>
        <time>2022-02-13T08:28:32.000Z</time>
      </trkpt>
      <trkpt lat="47.26974" lon="-2.31256">
        <ele>10.60000038147</ele>
        <time>2022-02-13T08:28:37.000Z</time>
      </trkpt>
      <trkpt lat="47.26974" lon="-2.3125">
        <ele>10.60000038147</ele>
        <time>2022-02-13T08:28:38.000Z</time>
      </trkpt>
      <trkpt lat="47.26977" lon="-2.31231">
        <ele>10.60000038147</ele>
        <time>2022-02-13T08:28:41.000Z</time>
      </trkpt>
      <trkpt lat="47.26983" lon="-2.31181">
        <ele>10.60000038147</ele>
        <time>2022-02-13T08:28:48.000Z</time>
      </trkpt>
      <trkpt lat="47.26984" lon="-2.31166">
        <ele>10.199999809265</ele>
        <time>2022-02-13T08:28:50.000Z</time>
      </trkpt>
      <trkpt lat="47.26985" lon="-2.31159">
        <ele>9.8000001907349</ele>
        <time>2022-02-13T08:28:51.000Z</time>
      </trkpt>
      <trkpt lat="47.26986" lon="-2.31151">
        <ele>9.3999996185303</ele>
        <time>2022-02-13T08:28:52.000Z</time>
      </trkpt>
      <trkpt lat="47.26987" lon="-2.31143">
        <ele>8.8000001907349</ele>
        <time>2022-02-13T08:28:53.000Z</time>
      </trkpt>
      <trkpt lat="47.26988" lon="-2.31135">
        <ele>8.3999996185303</ele>
        <time>2022-02-13T08:28:54.000Z</time>
      </trkpt>
      <trkpt lat="47.26987" lon="-2.31087">
        <ele>8</ele>
        <time>2022-02-13T08:29:00.000Z</time>
      </trkpt>
      <trkpt lat="47.26987" lon="-2.31082">
        <ele>7.5999999046326</ele>
        <time>2022-02-13T08:29:01.000Z</time>
      </trkpt>
      <trkpt lat="47.26987" lon="-2.31077">
        <ele>7.1999998092651</ele>
        <time>2022-02-13T08:29:02.000Z</time>
      </trkpt>
      <trkpt lat="47.26988" lon="-2.31073">
        <ele>6.8000001907349</ele>
        <time>2022-02-13T08:29:03.000Z</time>
      </trkpt>
      <trkpt lat="47.2699" lon="-2.31068">
        <ele>6.4000000953674</ele>
        <time>2022-02-13T08:29:04.000Z</time>
      </trkpt>
      <trkpt lat="47.27005" lon="-2.31055">
        <ele>6.4000000953674</ele>
        <time>2022-02-13T08:29:08.000Z</time>
      </trkpt>
      <trkpt lat="47.2701" lon="-2.31053">
        <ele>6.4000000953674</ele>
        <time>2022-02-13T08:29:09.000Z</time>
      </trkpt>
      <trkpt lat="47.27014" lon="-2.31051">
        <ele>6.4000000953674</ele>
        <time>2022-02-13T08:29:10.000Z</time>
      </trkpt>
      <trkpt lat="47.27024" lon="-2.31046">
        <ele>5.8000001907349</ele>
        <time>2022-02-13T08:29:12.000Z</time>
      </trkpt>
      <trkpt lat="47.27029" lon="-2.31044">
        <ele>5.4000000953674</ele>
        <time>2022-02-13T08:29:13.000Z</time>
      </trkpt>
      <trkpt lat="47.27034" lon="-2.3104">
        <ele>5</ele>
        <time>2022-02-13T08:29:14.000Z</time>
      </trkpt>
      <trkpt lat="47.27038" lon="-2.31035">
        <ele>4.5999999046326</ele>
        <time>2022-02-13T08:29:15.000Z</time>
      </trkpt>
      <trkpt lat="47.27043" lon="-2.31031">
        <ele>4.1999998092651</ele>
        <time>2022-02-13T08:29:16.000Z</time>
      </trkpt>
      <trkpt lat="47.27056" lon="-2.31018">
        <ele>4.1999998092651</ele>
        <time>2022-02-13T08:29:19.000Z</time>
      </trkpt>
      <trkpt lat="47.27059" lon="-2.31011">
        <ele>4.1999998092651</ele>
        <time>2022-02-13T08:29:20.000Z</time>
      </trkpt>
      <trkpt lat="47.27062" lon="-2.30996">
        <ele>4.1999998092651</ele>
        <time>2022-02-13T08:29:22.000Z</time>
      </trkpt>
      <trkpt lat="47.27061" lon="-2.30975">
        <ele>4.1999998092651</ele>
        <time>2022-02-13T08:29:25.000Z</time>
      </trkpt>
      <trkpt lat="47.2706" lon="-2.3097">
        <ele>4.1999998092651</ele>
        <time>2022-02-13T08:29:26.000Z</time>
      </trkpt>
      <trkpt lat="47.27057" lon="-2.30941">
        <ele>4.1999998092651</ele>
        <time>2022-02-13T08:29:32.000Z</time>
      </trkpt>
      <trkpt lat="47.27054" lon="-2.30934">
        <ele>4.1999998092651</ele>
        <time>2022-02-13T08:29:36.000Z</time>
      </trkpt>
      <trkpt lat="47.27051" lon="-2.3092">
        <ele>4.1999998092651</ele>
        <time>2022-02-13T08:29:45.000Z</time>
      </trkpt>
      <trkpt lat="47.27046" lon="-2.30901">
        <ele>4.1999998092651</ele>
        <time>2022-02-13T08:29:50.000Z</time>
      </trkpt>
      <trkpt lat="47.27042" lon="-2.3089">
        <ele>4.1999998092651</ele>
        <time>2022-02-13T08:29:52.000Z</time>
      </trkpt>
      <trkpt lat="47.27035" lon="-2.3088">
        <ele>4.1999998092651</ele>
        <time>2022-02-13T08:29:54.000Z</time>
      </trkpt>
      <trkpt lat="47.27017" lon="-2.3085">
        <ele>4.1999998092651</ele>
        <time>2022-02-13T08:30:00.000Z</time>
      </trkpt>
      <trkpt lat="47.27013" lon="-2.30844">
        <ele>4.1999998092651</ele>
        <time>2022-02-13T08:30:01.000Z</time>
      </trkpt>
      <trkpt lat="47.27005" lon="-2.30828">
        <ele>4.1999998092651</ele>
        <time>2022-02-13T08:30:04.000Z</time>
      </trkpt>
      <trkpt lat="47.26989" lon="-2.30804">
        <ele>4.1999998092651</ele>
        <time>2022-02-13T08:30:09.000Z</time>
      </trkpt>
      <trkpt lat="47.26975" lon="-2.30784">
        <ele>4.5999999046326</ele>
        <time>2022-02-13T08:30:14.000Z</time>
      </trkpt>
      <trkpt lat="47.26972" lon="-2.30781">
        <ele>5</ele>
        <time>2022-02-13T08:30:15.000Z</time>
      </trkpt>
      <trkpt lat="47.2697" lon="-2.30777">
        <ele>5.4000000953674</ele>
        <time>2022-02-13T08:30:16.000Z</time>
      </trkpt>
      <trkpt lat="47.26967" lon="-2.30773">
        <ele>5.8000001907349</ele>
        <time>2022-02-13T08:30:17.000Z</time>
      </trkpt>
      <trkpt lat="47.26964" lon="-2.30769">
        <ele>6.1999998092651</ele>
        <time>2022-02-13T08:30:18.000Z</time>
      </trkpt>
      <trkpt lat="47.26959" lon="-2.30762">
        <ele>6.1999998092651</ele>
        <time>2022-02-13T08:30:20.000Z</time>
      </trkpt>
      <trkpt lat="47.26937" lon="-2.30728">
        <ele>6.8000001907349</ele>
        <time>2022-02-13T08:30:28.000Z</time>
      </trkpt>
      <trkpt lat="47.26934" lon="-2.30724">
        <ele>7.1999998092651</ele>
        <time>2022-02-13T08:30:29.000Z</time>
      </trkpt>
      <trkpt lat="47.26932" lon="-2.3072">
        <ele>7.5999999046326</ele>
        <time>2022-02-13T08:30:30.000Z</time>
      </trkpt>
      <trkpt lat="47.26929" lon="-2.30716">
        <ele>8</ele>
        <time>2022-02-13T08:30:31.000Z</time>
      </trkpt>
      <trkpt lat="47.26927" lon="-2.30712">
        <ele>8.3999996185303</ele>
        <time>2022-02-13T08:30:32.000Z</time>
      </trkpt>
      <trkpt lat="47.26921" lon="-2.30704">
        <ele>8.3999996185303</ele>
        <time>2022-02-13T08:30:34.000Z</time>
      </trkpt>
      <trkpt lat="47.2691" lon="-2.30688">
        <ele>8.3999996185303</ele>
        <time>2022-02-13T08:30:38.000Z</time>
      </trkpt>
      <trkpt lat="47.26904" lon="-2.30679">
        <ele>8.3999996185303</ele>
        <time>2022-02-13T08:30:40.000Z</time>
      </trkpt>
      <trkpt lat="47.26902" lon="-2.30675">
        <ele>8.8000001907349</ele>
        <time>2022-02-13T08:30:41.000Z</time>
      </trkpt>
      <trkpt lat="47.269" lon="-2.3067">
        <ele>9.3999996185303</ele>
        <time>2022-02-13T08:30:42.000Z</time>
      </trkpt>
      <trkpt lat="47.26898" lon="-2.30665">
        <ele>9.8000001907349</ele>
        <time>2022-02-13T08:30:43.000Z</time>
      </trkpt>
      <trkpt lat="47.26898" lon="-2.3066">
        <ele>10.199999809265</ele>
        <time>2022-02-13T08:30:44.000Z</time>
      </trkpt>
      <trkpt lat="47.26898" lon="-2.30656">
        <ele>10.60000038147</ele>
        <time>2022-02-13T08:30:45.000Z</time>
      </trkpt>
      <trkpt lat="47.26913" lon="-2.30639">
        <ele>10.60000038147</ele>
        <time>2022-02-13T08:30:49.000Z</time>
      </trkpt>
      <trkpt lat="47.26917" lon="-2.30636">
        <ele>10.60000038147</ele>
        <time>2022-02-13T08:30:50.000Z</time>
      </trkpt>
      <trkpt lat="47.26933" lon="-2.30632">
        <ele>10.60000038147</ele>
        <time>2022-02-13T08:30:53.000Z</time>
      </trkpt>
      <trkpt lat="47.26956" lon="-2.30624">
        <ele>10.60000038147</ele>
        <time>2022-02-13T08:30:57.000Z</time>
      </trkpt>
      <trkpt lat="47.26962" lon="-2.30621">
        <ele>10.60000038147</ele>
        <time>2022-02-13T08:30:58.000Z</time>
      </trkpt>
      <trkpt lat="47.26973" lon="-2.30616">
        <ele>10.199999809265</ele>
        <time>2022-02-13T08:31:00.000Z</time>
      </trkpt>
      <trkpt lat="47.26979" lon="-2.30613">
        <ele>9.8000001907349</ele>
        <time>2022-02-13T08:31:01.000Z</time>
      </trkpt>
      <trkpt lat="47.26984" lon="-2.3061">
        <ele>9.3999996185303</ele>
        <time>2022-02-13T08:31:02.000Z</time>
      </trkpt>
      <trkpt lat="47.2699" lon="-2.30607">
        <ele>9</ele>
        <time>2022-02-13T08:31:03.000Z</time>
      </trkpt>
      <trkpt lat="47.26995" lon="-2.30604">
        <ele>8.6000003814697</ele>
        <time>2022-02-13T08:31:04.000Z</time>
      </trkpt>
      <trkpt lat="47.27001" lon="-2.306">
        <ele>8.6000003814697</ele>
        <time>2022-02-13T08:31:05.000Z</time>
      </trkpt>
      <trkpt lat="47.27011" lon="-2.30583">
        <ele>8.6000003814697</ele>
        <time>2022-02-13T08:31:08.000Z</time>
      </trkpt>
      <trkpt lat="47.27015" lon="-2.30569">
        <ele>8.6000003814697</ele>
        <time>2022-02-13T08:31:10.000Z</time>
      </trkpt>
      <trkpt lat="47.27021" lon="-2.30546">
        <ele>8.6000003814697</ele>
        <time>2022-02-13T08:31:13.000Z</time>
      </trkpt>
      <trkpt lat="47.27035" lon="-2.30494">
        <ele>8.6000003814697</ele>
        <time>2022-02-13T08:31:20.000Z</time>
      </trkpt>
      <trkpt lat="47.27045" lon="-2.30443">
        <ele>8.6000003814697</ele>
        <time>2022-02-13T08:31:26.000Z</time>
      </trkpt>
      <trkpt lat="47.2705" lon="-2.30393">
        <ele>8.6000003814697</ele>
        <time>2022-02-13T08:31:32.000Z</time>
      </trkpt>
      <trkpt lat="47.27057" lon="-2.30347">
        <ele>8.6000003814697</ele>
        <time>2022-02-13T08:31:38.000Z</time>
      </trkpt>
      <trkpt lat="47.2706" lon="-2.30326">
        <ele>8.6000003814697</ele>
        <time>2022-02-13T08:31:41.000Z</time>
      </trkpt>
      <trkpt lat="47.27062" lon="-2.30312">
        <ele>8.6000003814697</ele>
        <time>2022-02-13T08:31:43.000Z</time>
      </trkpt>
      <trkpt lat="47.27064" lon="-2.30305">
        <ele>8.6000003814697</ele>
        <time>2022-02-13T08:31:44.000Z</time>
      </trkpt>
      <trkpt lat="47.27068" lon="-2.30286">
        <ele>8.6000003814697</ele>
        <time>2022-02-13T08:31:47.000Z</time>
      </trkpt>
      <trkpt lat="47.27074" lon="-2.30276">
        <ele>8.6000003814697</ele>
        <time>2022-02-13T08:31:49.000Z</time>
      </trkpt>
      <trkpt lat="47.27087" lon="-2.30264">
        <ele>8.1999998092651</ele>
        <time>2022-02-13T08:31:52.000Z</time>
      </trkpt>
      <trkpt lat="47.27092" lon="-2.30262">
        <ele>7.8000001907349</ele>
        <time>2022-02-13T08:31:53.000Z</time>
      </trkpt>
      <trkpt lat="47.27097" lon="-2.30261">
        <ele>7.4000000953674</ele>
        <time>2022-02-13T08:31:54.000Z</time>
      </trkpt>
      <trkpt lat="47.27101" lon="-2.30259">
        <ele>7</ele>
        <time>2022-02-13T08:31:55.000Z</time>
      </trkpt>
      <trkpt lat="47.27106" lon="-2.30257">
        <ele>6.5999999046326</ele>
        <time>2022-02-13T08:31:56.000Z</time>
      </trkpt>
      <trkpt lat="47.27131" lon="-2.30246">
        <ele>6.5999999046326</ele>
        <time>2022-02-13T08:32:01.000Z</time>
      </trkpt>
      <trkpt lat="47.27141" lon="-2.30243">
        <ele>6.5999999046326</ele>
        <time>2022-02-13T08:32:03.000Z</time>
      </trkpt>
      <trkpt lat="47.27151" lon="-2.30243">
        <ele>6.5999999046326</ele>
        <time>2022-02-13T08:32:05.000Z</time>
      </trkpt>
      <trkpt lat="47.27158" lon="-2.30248">
        <ele>6.5999999046326</ele>
        <time>2022-02-13T08:32:07.000Z</time>
      </trkpt>
      <trkpt lat="47.27167" lon="-2.30256">
        <ele>6.5999999046326</ele>
        <time>2022-02-13T08:32:10.000Z</time>
      </trkpt>
      <trkpt lat="47.27171" lon="-2.30258">
        <ele>6.5999999046326</ele>
        <time>2022-02-13T08:32:11.000Z</time>
      </trkpt>
      <trkpt lat="47.27178" lon="-2.30258">
        <ele>6.5999999046326</ele>
        <time>2022-02-13T08:32:13.000Z</time>
      </trkpt>
      <trkpt lat="47.2719" lon="-2.30255">
        <ele>6.5999999046326</ele>
        <time>2022-02-13T08:32:16.000Z</time>
      </trkpt>
      <trkpt lat="47.27195" lon="-2.30256">
        <ele>6</ele>
        <time>2022-02-13T08:32:17.000Z</time>
      </trkpt>
      <trkpt lat="47.272" lon="-2.30258">
        <ele>5.5999999046326</ele>
        <time>2022-02-13T08:32:18.000Z</time>
      </trkpt>
      <trkpt lat="47.27205" lon="-2.3026">
        <ele>5.1999998092651</ele>
        <time>2022-02-13T08:32:19.000Z</time>
      </trkpt>
      <trkpt lat="47.2721" lon="-2.30261">
        <ele>4.8000001907349</ele>
        <time>2022-02-13T08:32:20.000Z</time>
      </trkpt>
      <trkpt lat="47.27214" lon="-2.30261">
        <ele>4.4000000953674</ele>
        <time>2022-02-13T08:32:21.000Z</time>
      </trkpt>
      <trkpt lat="47.27218" lon="-2.30261">
        <ele>4.4000000953674</ele>
        <time>2022-02-13T08:32:22.000Z</time>
      </trkpt>
      <trkpt lat="47.27233" lon="-2.30266">
        <ele>4.4000000953674</ele>
        <time>2022-02-13T08:32:26.000Z</time>
      </trkpt>
      <trkpt lat="47.27237" lon="-2.30266">
        <ele>4.4000000953674</ele>
        <time>2022-02-13T08:32:27.000Z</time>
      </trkpt>
      <trkpt lat="47.27246" lon="-2.30265">
        <ele>4.4000000953674</ele>
        <time>2022-02-13T08:32:29.000Z</time>
      </trkpt>
      <trkpt lat="47.27251" lon="-2.30264">
        <ele>4.4000000953674</ele>
        <time>2022-02-13T08:32:30.000Z</time>
      </trkpt>
      <trkpt lat="47.27277" lon="-2.30261">
        <ele>4.4000000953674</ele>
        <time>2022-02-13T08:32:35.000Z</time>
      </trkpt>
      <trkpt lat="47.27314" lon="-2.3026">
        <ele>4.4000000953674</ele>
        <time>2022-02-13T08:32:42.000Z</time>
      </trkpt>
      <trkpt lat="47.27329" lon="-2.30258">
        <ele>4.8000001907349</ele>
        <time>2022-02-13T08:32:45.000Z</time>
      </trkpt>
      <trkpt lat="47.27334" lon="-2.30257">
        <ele>5.1999998092651</ele>
        <time>2022-02-13T08:32:46.000Z</time>
      </trkpt>
      <trkpt lat="47.27339" lon="-2.30257">
        <ele>5.5999999046326</ele>
        <time>2022-02-13T08:32:47.000Z</time>
      </trkpt>
      <trkpt lat="47.27344" lon="-2.30256">
        <ele>6</ele>
        <time>2022-02-13T08:32:48.000Z</time>
      </trkpt>
      <trkpt lat="47.27349" lon="-2.30255">
        <ele>6.4000000953674</ele>
        <time>2022-02-13T08:32:49.000Z</time>
      </trkpt>
      <trkpt lat="47.27365" lon="-2.30253">
        <ele>6.4000000953674</ele>
        <time>2022-02-13T08:32:52.000Z</time>
      </trkpt>
      <trkpt lat="47.2737" lon="-2.30251">
        <ele>6.4000000953674</ele>
        <time>2022-02-13T08:32:53.000Z</time>
      </trkpt>
      <trkpt lat="47.27387" lon="-2.30245">
        <ele>6.4000000953674</ele>
        <time>2022-02-13T08:32:56.000Z</time>
      </trkpt>
      <trkpt lat="47.27403" lon="-2.30236">
        <ele>6.4000000953674</ele>
        <time>2022-02-13T08:32:59.000Z</time>
      </trkpt>
      <trkpt lat="47.2744" lon="-2.30219">
        <ele>6.4000000953674</ele>
        <time>2022-02-13T08:33:06.000Z</time>
      </trkpt>
      <trkpt lat="47.27449" lon="-2.30214">
        <ele>6.4000000953674</ele>
        <time>2022-02-13T08:33:08.000Z</time>
      </trkpt>
      <trkpt lat="47.27458" lon="-2.30201">
        <ele>6.4000000953674</ele>
        <time>2022-02-13T08:33:11.000Z</time>
      </trkpt>
      <trkpt lat="47.27458" lon="-2.30184">
        <ele>6.4000000953674</ele>
        <time>2022-02-13T08:33:14.000Z</time>
      </trkpt>
      <trkpt lat="47.27454" lon="-2.30162">
        <ele>6.4000000953674</ele>
        <time>2022-02-13T08:33:18.000Z</time>
      </trkpt>
      <trkpt lat="47.27452" lon="-2.3015">
        <ele>6.4000000953674</ele>
        <time>2022-02-13T08:33:20.000Z</time>
      </trkpt>
      <trkpt lat="47.27448" lon="-2.3013">
        <ele>6.8000001907349</ele>
        <time>2022-02-13T08:33:23.000Z</time>
      </trkpt>
      <trkpt lat="47.27447" lon="-2.30123">
        <ele>7.1999998092651</ele>
        <time>2022-02-13T08:33:24.000Z</time>
      </trkpt>
      <trkpt lat="47.27445" lon="-2.30116">
        <ele>7.5999999046326</ele>
        <time>2022-02-13T08:33:25.000Z</time>
      </trkpt>
      <trkpt lat="47.27444" lon="-2.30109">
        <ele>8</ele>
        <time>2022-02-13T08:33:26.000Z</time>
      </trkpt>
      <trkpt lat="47.27443" lon="-2.30103">
        <ele>8.6000003814697</ele>
        <time>2022-02-13T08:33:27.000Z</time>
      </trkpt>
      <trkpt lat="47.2744" lon="-2.3009">
        <ele>8.6000003814697</ele>
        <time>2022-02-13T08:33:29.000Z</time>
      </trkpt>
      <trkpt lat="47.27434" lon="-2.3007">
        <ele>8.6000003814697</ele>
        <time>2022-02-13T08:33:32.000Z</time>
      </trkpt>
      <trkpt lat="47.27418" lon="-2.30031">
        <ele>8.6000003814697</ele>
        <time>2022-02-13T08:33:38.000Z</time>
      </trkpt>
      <trkpt lat="47.27412" lon="-2.30018">
        <ele>8.6000003814697</ele>
        <time>2022-02-13T08:33:40.000Z</time>
      </trkpt>
      <trkpt lat="47.27403" lon="-2.3">
        <ele>9</ele>
        <time>2022-02-13T08:33:43.000Z</time>
      </trkpt>
      <trkpt lat="47.274" lon="-2.29994">
        <ele>9.3999996185303</ele>
        <time>2022-02-13T08:33:44.000Z</time>
      </trkpt>
      <trkpt lat="47.27398" lon="-2.29987">
        <ele>9.8000001907349</ele>
        <time>2022-02-13T08:33:45.000Z</time>
      </trkpt>
      <trkpt lat="47.27395" lon="-2.29981">
        <ele>10.199999809265</ele>
        <time>2022-02-13T08:33:46.000Z</time>
      </trkpt>
      <trkpt lat="47.27392" lon="-2.29974">
        <ele>10.60000038147</ele>
        <time>2022-02-13T08:33:47.000Z</time>
      </trkpt>
      <trkpt lat="47.27384" lon="-2.29954">
        <ele>10.60000038147</ele>
        <time>2022-02-13T08:33:50.000Z</time>
      </trkpt>
      <trkpt lat="47.27379" lon="-2.29941">
        <ele>10.60000038147</ele>
        <time>2022-02-13T08:33:52.000Z</time>
      </trkpt>
      <trkpt lat="47.27367" lon="-2.29914">
        <ele>10.60000038147</ele>
        <time>2022-02-13T08:33:56.000Z</time>
      </trkpt>
      <trkpt lat="47.27346" lon="-2.29868">
        <ele>10.60000038147</ele>
        <time>2022-02-13T08:34:03.000Z</time>
      </trkpt>
      <trkpt lat="47.27329" lon="-2.29839">
        <ele>10.60000038147</ele>
        <time>2022-02-13T08:34:08.000Z</time>
      </trkpt>
      <trkpt lat="47.27307" lon="-2.29804">
        <ele>10.60000038147</ele>
        <time>2022-02-13T08:34:14.000Z</time>
      </trkpt>
      <trkpt lat="47.27304" lon="-2.29797">
        <ele>10.60000038147</ele>
        <time>2022-02-13T08:34:15.000Z</time>
      </trkpt>
      <trkpt lat="47.27297" lon="-2.29776">
        <ele>10.60000038147</ele>
        <time>2022-02-13T08:34:18.000Z</time>
      </trkpt>
      <trkpt lat="47.27292" lon="-2.2976">
        <ele>10.60000038147</ele>
        <time>2022-02-13T08:34:20.000Z</time>
      </trkpt>
      <trkpt lat="47.27287" lon="-2.29745">
        <ele>10.60000038147</ele>
        <time>2022-02-13T08:34:22.000Z</time>
      </trkpt>
      <trkpt lat="47.27283" lon="-2.2973">
        <ele>10.60000038147</ele>
        <time>2022-02-13T08:34:24.000Z</time>
      </trkpt>
      <trkpt lat="47.2728" lon="-2.29722">
        <ele>10.60000038147</ele>
        <time>2022-02-13T08:34:25.000Z</time>
      </trkpt>
      <trkpt lat="47.27272" lon="-2.2969">
        <ele>10.60000038147</ele>
        <time>2022-02-13T08:34:29.000Z</time>
      </trkpt>
      <trkpt lat="47.27266" lon="-2.29653">
        <ele>10.60000038147</ele>
        <time>2022-02-13T08:34:34.000Z</time>
      </trkpt>
      <trkpt lat="47.27264" lon="-2.29632">
        <ele>10.60000038147</ele>
        <time>2022-02-13T08:34:38.000Z</time>
      </trkpt>
      <trkpt lat="47.27263" lon="-2.29625">
        <ele>10.60000038147</ele>
        <time>2022-02-13T08:34:39.000Z</time>
      </trkpt>
      <trkpt lat="47.27255" lon="-2.2959">
        <ele>10.60000038147</ele>
        <time>2022-02-13T08:34:44.000Z</time>
      </trkpt>
      <trkpt lat="47.27253" lon="-2.29582">
        <ele>10.60000038147</ele>
        <time>2022-02-13T08:34:45.000Z</time>
      </trkpt>
      <trkpt lat="47.27248" lon="-2.29544">
        <ele>10.60000038147</ele>
        <time>2022-02-13T08:34:50.000Z</time>
      </trkpt>
      <trkpt lat="47.27247" lon="-2.29536">
        <ele>10.60000038147</ele>
        <time>2022-02-13T08:34:51.000Z</time>
      </trkpt>
      <trkpt lat="47.27239" lon="-2.29515">
        <ele>10.60000038147</ele>
        <time>2022-02-13T08:34:54.000Z</time>
      </trkpt>
      <trkpt lat="47.27222" lon="-2.29471">
        <ele>10.60000038147</ele>
        <time>2022-02-13T08:35:00.000Z</time>
      </trkpt>
      <trkpt lat="47.27202" lon="-2.29406">
        <ele>10.60000038147</ele>
        <time>2022-02-13T08:35:08.000Z</time>
      </trkpt>
      <trkpt lat="47.27184" lon="-2.29362">
        <ele>10.60000038147</ele>
        <time>2022-02-13T08:35:14.000Z</time>
      </trkpt>
      <trkpt lat="47.27172" lon="-2.29344">
        <ele>10.60000038147</ele>
        <time>2022-02-13T08:35:17.000Z</time>
      </trkpt>
      <trkpt lat="47.27164" lon="-2.29334">
        <ele>10.60000038147</ele>
        <time>2022-02-13T08:35:19.000Z</time>
      </trkpt>
      <trkpt lat="47.27153" lon="-2.29318">
        <ele>10.60000038147</ele>
        <time>2022-02-13T08:35:22.000Z</time>
      </trkpt>
      <trkpt lat="47.27149" lon="-2.29307">
        <ele>10.60000038147</ele>
        <time>2022-02-13T08:35:24.000Z</time>
      </trkpt>
      <trkpt lat="47.2715" lon="-2.29288">
        <ele>10.60000038147</ele>
        <time>2022-02-13T08:35:27.000Z</time>
      </trkpt>
      <trkpt lat="47.27153" lon="-2.29281">
        <ele>10.60000038147</ele>
        <time>2022-02-13T08:35:28.000Z</time>
      </trkpt>
      <trkpt lat="47.27163" lon="-2.29258">
        <ele>10.60000038147</ele>
        <time>2022-02-13T08:35:31.000Z</time>
      </trkpt>
      <trkpt lat="47.27167" lon="-2.29235">
        <ele>10.60000038147</ele>
        <time>2022-02-13T08:35:34.000Z</time>
      </trkpt>
      <trkpt lat="47.27161" lon="-2.29218">
        <ele>10.60000038147</ele>
        <time>2022-02-13T08:35:37.000Z</time>
      </trkpt>
      <trkpt lat="47.27159" lon="-2.29212">
        <ele>10.60000038147</ele>
        <time>2022-02-13T08:35:38.000Z</time>
      </trkpt>
      <trkpt lat="47.27152" lon="-2.29192">
        <ele>10.60000038147</ele>
        <time>2022-02-13T08:35:41.000Z</time>
      </trkpt>
      <trkpt lat="47.2715" lon="-2.29185">
        <ele>10.60000038147</ele>
        <time>2022-02-13T08:35:42.000Z</time>
      </trkpt>
      <trkpt lat="47.2715" lon="-2.29158">
        <ele>10.60000038147</ele>
        <time>2022-02-13T08:35:46.000Z</time>
      </trkpt>
      <trkpt lat="47.27158" lon="-2.29138">
        <ele>10.60000038147</ele>
        <time>2022-02-13T08:35:50.000Z</time>
      </trkpt>
      <trkpt lat="47.27162" lon="-2.29134">
        <ele>10.60000038147</ele>
        <time>2022-02-13T08:35:51.000Z</time>
      </trkpt>
      <trkpt lat="47.27173" lon="-2.2912">
        <ele>10.60000038147</ele>
        <time>2022-02-13T08:35:54.000Z</time>
      </trkpt>
      <trkpt lat="47.27172" lon="-2.2911">
        <ele>10.60000038147</ele>
        <time>2022-02-13T08:35:56.000Z</time>
      </trkpt>
      <trkpt lat="47.27162" lon="-2.29102">
        <ele>10.60000038147</ele>
        <time>2022-02-13T08:35:59.000Z</time>
      </trkpt>
      <trkpt lat="47.27158" lon="-2.29099">
        <ele>10.60000038147</ele>
        <time>2022-02-13T08:36:00.000Z</time>
      </trkpt>
      <trkpt lat="47.27133" lon="-2.29086">
        <ele>10.60000038147</ele>
        <time>2022-02-13T08:36:05.000Z</time>
      </trkpt>
      <trkpt lat="47.27099" lon="-2.2907">
        <ele>10.60000038147</ele>
        <time>2022-02-13T08:36:12.000Z</time>
      </trkpt>
      <trkpt lat="47.27066" lon="-2.29056">
        <ele>10.60000038147</ele>
        <time>2022-02-13T08:36:19.000Z</time>
      </trkpt>
      <trkpt lat="47.27057" lon="-2.29051">
        <ele>10.60000038147</ele>
        <time>2022-02-13T08:36:21.000Z</time>
      </trkpt>
      <trkpt lat="47.27045" lon="-2.29039">
        <ele>10.60000038147</ele>
        <time>2022-02-13T08:36:24.000Z</time>
      </trkpt>
      <trkpt lat="47.27036" lon="-2.2902">
        <ele>10.60000038147</ele>
        <time>2022-02-13T08:36:27.000Z</time>
      </trkpt>
      <trkpt lat="47.27031" lon="-2.29015">
        <ele>10.60000038147</ele>
        <time>2022-02-13T08:36:28.000Z</time>
      </trkpt>
      <trkpt lat="47.27016" lon="-2.29008">
        <ele>10.60000038147</ele>
        <time>2022-02-13T08:36:31.000Z</time>
      </trkpt>
      <trkpt lat="47.2701" lon="-2.29006">
        <ele>10.60000038147</ele>
        <time>2022-02-13T08:36:32.000Z</time>
      </trkpt>
      <trkpt lat="47.26982" lon="-2.29">
        <ele>10.60000038147</ele>
        <time>2022-02-13T08:36:37.000Z</time>
      </trkpt>
      <trkpt lat="47.2697" lon="-2.28996">
        <ele>10.60000038147</ele>
        <time>2022-02-13T08:36:39.000Z</time>
      </trkpt>
      <trkpt lat="47.26948" lon="-2.28988">
        <ele>10.60000038147</ele>
        <time>2022-02-13T08:36:43.000Z</time>
      </trkpt>
      <trkpt lat="47.26932" lon="-2.28984">
        <ele>10.60000038147</ele>
        <time>2022-02-13T08:36:46.000Z</time>
      </trkpt>
      <trkpt lat="47.26917" lon="-2.28976">
        <ele>10.60000038147</ele>
        <time>2022-02-13T08:36:49.000Z</time>
      </trkpt>
      <trkpt lat="47.26898" lon="-2.2897">
        <ele>10.60000038147</ele>
        <time>2022-02-13T08:36:53.000Z</time>
      </trkpt>
      <trkpt lat="47.26874" lon="-2.2896">
        <ele>10.60000038147</ele>
        <time>2022-02-13T08:36:58.000Z</time>
      </trkpt>
      <trkpt lat="47.26865" lon="-2.28955">
        <ele>10.60000038147</ele>
        <time>2022-02-13T08:37:00.000Z</time>
      </trkpt>
      <trkpt lat="47.26837" lon="-2.28937">
        <ele>10.60000038147</ele>
        <time>2022-02-13T08:37:06.000Z</time>
      </trkpt>
      <trkpt lat="47.26808" lon="-2.2892">
        <ele>10.60000038147</ele>
        <time>2022-02-13T08:37:12.000Z</time>
      </trkpt>
      <trkpt lat="47.26779" lon="-2.28906">
        <ele>10.60000038147</ele>
        <time>2022-02-13T08:37:18.000Z</time>
      </trkpt>
      <trkpt lat="47.26756" lon="-2.28885">
        <ele>10.60000038147</ele>
        <time>2022-02-13T08:37:23.000Z</time>
      </trkpt>
      <trkpt lat="47.26751" lon="-2.28881">
        <ele>11</ele>
        <time>2022-02-13T08:37:24.000Z</time>
      </trkpt>
      <trkpt lat="47.26747" lon="-2.28876">
        <ele>11.60000038147</ele>
        <time>2022-02-13T08:37:25.000Z</time>
      </trkpt>
      <trkpt lat="47.26743" lon="-2.28872">
        <ele>12</ele>
        <time>2022-02-13T08:37:26.000Z</time>
      </trkpt>
      <trkpt lat="47.26738" lon="-2.28868">
        <ele>12.39999961853</ele>
        <time>2022-02-13T08:37:27.000Z</time>
      </trkpt>
      <trkpt lat="47.26734" lon="-2.28864">
        <ele>12.800000190735</ele>
        <time>2022-02-13T08:37:28.000Z</time>
      </trkpt>
      <trkpt lat="47.26729" lon="-2.2886">
        <ele>12.800000190735</ele>
        <time>2022-02-13T08:37:29.000Z</time>
      </trkpt>
      <trkpt lat="47.26703" lon="-2.28838">
        <ele>12.800000190735</ele>
        <time>2022-02-13T08:37:35.000Z</time>
      </trkpt>
      <trkpt lat="47.267" lon="-2.28833">
        <ele>12.800000190735</ele>
        <time>2022-02-13T08:37:36.000Z</time>
      </trkpt>
      <trkpt lat="47.26673" lon="-2.28807">
        <ele>12.800000190735</ele>
        <time>2022-02-13T08:37:42.000Z</time>
      </trkpt>
      <trkpt lat="47.26665" lon="-2.28799">
        <ele>12.800000190735</ele>
        <time>2022-02-13T08:37:44.000Z</time>
      </trkpt>
      <trkpt lat="47.26656" lon="-2.2879">
        <ele>12.800000190735</ele>
        <time>2022-02-13T08:37:46.000Z</time>
      </trkpt>
      <trkpt lat="47.26653" lon="-2.28785">
        <ele>12.800000190735</ele>
        <time>2022-02-13T08:37:47.000Z</time>
      </trkpt>
      <trkpt lat="47.26641" lon="-2.28772">
        <ele>12.800000190735</ele>
        <time>2022-02-13T08:37:50.000Z</time>
      </trkpt>
      <trkpt lat="47.26634" lon="-2.28764">
        <ele>12.800000190735</ele>
        <time>2022-02-13T08:37:52.000Z</time>
      </trkpt>
      <trkpt lat="47.26614" lon="-2.28744">
        <ele>12.800000190735</ele>
        <time>2022-02-13T08:37:57.000Z</time>
      </trkpt>
      <trkpt lat="47.2661" lon="-2.2874">
        <ele>12.800000190735</ele>
        <time>2022-02-13T08:37:58.000Z</time>
      </trkpt>
      <trkpt lat="47.26606" lon="-2.28735">
        <ele>13.199999809265</ele>
        <time>2022-02-13T08:37:59.000Z</time>
      </trkpt>
      <trkpt lat="47.26603" lon="-2.28731">
        <ele>13.60000038147</ele>
        <time>2022-02-13T08:38:00.000Z</time>
      </trkpt>
      <trkpt lat="47.266" lon="-2.28727">
        <ele>14</ele>
        <time>2022-02-13T08:38:01.000Z</time>
      </trkpt>
      <trkpt lat="47.26596" lon="-2.28723">
        <ele>14.39999961853</ele>
        <time>2022-02-13T08:38:02.000Z</time>
      </trkpt>
      <trkpt lat="47.26592" lon="-2.28718">
        <ele>14.800000190735</ele>
        <time>2022-02-13T08:38:03.000Z</time>
      </trkpt>
      <trkpt lat="47.26575" lon="-2.28696">
        <ele>14.800000190735</ele>
        <time>2022-02-13T08:38:08.000Z</time>
      </trkpt>
      <trkpt lat="47.26571" lon="-2.28692">
        <ele>14.800000190735</ele>
        <time>2022-02-13T08:38:09.000Z</time>
      </trkpt>
      <trkpt lat="47.26552" lon="-2.28675">
        <ele>14.800000190735</ele>
        <time>2022-02-13T08:38:14.000Z</time>
      </trkpt>
      <trkpt lat="47.26544" lon="-2.28669">
        <ele>14.800000190735</ele>
        <time>2022-02-13T08:38:16.000Z</time>
      </trkpt>
      <trkpt lat="47.26536" lon="-2.28659">
        <ele>14.800000190735</ele>
        <time>2022-02-13T08:38:18.000Z</time>
      </trkpt>
      <trkpt lat="47.26532" lon="-2.28653">
        <ele>15.199999809265</ele>
        <time>2022-02-13T08:38:19.000Z</time>
      </trkpt>
      <trkpt lat="47.26529" lon="-2.28648">
        <ele>15.60000038147</ele>
        <time>2022-02-13T08:38:20.000Z</time>
      </trkpt>
      <trkpt lat="47.26526" lon="-2.28643">
        <ele>16</ele>
        <time>2022-02-13T08:38:21.000Z</time>
      </trkpt>
      <trkpt lat="47.26523" lon="-2.28638">
        <ele>16.39999961853</ele>
        <time>2022-02-13T08:38:22.000Z</time>
      </trkpt>
      <trkpt lat="47.2652" lon="-2.28633">
        <ele>16.799999237061</ele>
        <time>2022-02-13T08:38:23.000Z</time>
      </trkpt>
      <trkpt lat="47.26507" lon="-2.28617">
        <ele>16.799999237061</ele>
        <time>2022-02-13T08:38:27.000Z</time>
      </trkpt>
      <trkpt lat="47.26505" lon="-2.28611">
        <ele>16.799999237061</ele>
        <time>2022-02-13T08:38:28.000Z</time>
      </trkpt>
      <trkpt lat="47.26504" lon="-2.28598">
        <ele>16.799999237061</ele>
        <time>2022-02-13T08:38:30.000Z</time>
      </trkpt>
      <trkpt lat="47.26502" lon="-2.28583">
        <ele>16.799999237061</ele>
        <time>2022-02-13T08:38:32.000Z</time>
      </trkpt>
      <trkpt lat="47.26499" lon="-2.28569">
        <ele>16.799999237061</ele>
        <time>2022-02-13T08:38:34.000Z</time>
      </trkpt>
      <trkpt lat="47.26497" lon="-2.28563">
        <ele>16.799999237061</ele>
        <time>2022-02-13T08:38:35.000Z</time>
      </trkpt>
      <trkpt lat="47.26495" lon="-2.28557">
        <ele>16.799999237061</ele>
        <time>2022-02-13T08:38:36.000Z</time>
      </trkpt>
      <trkpt lat="47.26484" lon="-2.28535">
        <ele>16.799999237061</ele>
        <time>2022-02-13T08:38:40.000Z</time>
      </trkpt>
      <trkpt lat="47.26467" lon="-2.28503">
        <ele>17.39999961853</ele>
        <time>2022-02-13T08:38:46.000Z</time>
      </trkpt>
      <trkpt lat="47.26464" lon="-2.28497">
        <ele>17.799999237061</ele>
        <time>2022-02-13T08:38:47.000Z</time>
      </trkpt>
      <trkpt lat="47.2646" lon="-2.28491">
        <ele>18.60000038147</ele>
        <time>2022-02-13T08:38:48.000Z</time>
      </trkpt>
      <trkpt lat="47.26457" lon="-2.28486">
        <ele>19</ele>
        <time>2022-02-13T08:38:49.000Z</time>
      </trkpt>
      <trkpt lat="47.26442" lon="-2.28453">
        <ele>19</ele>
        <time>2022-02-13T08:38:55.000Z</time>
      </trkpt>
      <trkpt lat="47.26427" lon="-2.28422">
        <ele>19</ele>
        <time>2022-02-13T08:39:01.000Z</time>
      </trkpt>
      <trkpt lat="47.26419" lon="-2.28405">
        <ele>19.39999961853</ele>
        <time>2022-02-13T08:39:04.000Z</time>
      </trkpt>
      <trkpt lat="47.26416" lon="-2.28399">
        <ele>19.799999237061</ele>
        <time>2022-02-13T08:39:05.000Z</time>
      </trkpt>
      <trkpt lat="47.26414" lon="-2.28393">
        <ele>20.39999961853</ele>
        <time>2022-02-13T08:39:06.000Z</time>
      </trkpt>
      <trkpt lat="47.26411" lon="-2.28387">
        <ele>20.799999237061</ele>
        <time>2022-02-13T08:39:07.000Z</time>
      </trkpt>
      <trkpt lat="47.26408" lon="-2.28382">
        <ele>21.200000762939</ele>
        <time>2022-02-13T08:39:08.000Z</time>
      </trkpt>
      <trkpt lat="47.2639" lon="-2.28342">
        <ele>21.200000762939</ele>
        <time>2022-02-13T08:39:15.000Z</time>
      </trkpt>
      <trkpt lat="47.26376" lon="-2.28306">
        <ele>21.200000762939</ele>
        <time>2022-02-13T08:39:21.000Z</time>
      </trkpt>
      <trkpt lat="47.26361" lon="-2.28255">
        <ele>21.200000762939</ele>
        <time>2022-02-13T08:39:29.000Z</time>
      </trkpt>
      <trkpt lat="47.26349" lon="-2.28208">
        <ele>21.200000762939</ele>
        <time>2022-02-13T08:39:36.000Z</time>
      </trkpt>
      <trkpt lat="47.26339" lon="-2.28158">
        <ele>21.200000762939</ele>
        <time>2022-02-13T08:39:43.000Z</time>
      </trkpt>
      <trkpt lat="47.26329" lon="-2.28093">
        <ele>21.200000762939</ele>
        <time>2022-02-13T08:39:51.000Z</time>
      </trkpt>
      <trkpt lat="47.26322" lon="-2.28061">
        <ele>20.799999237061</ele>
        <time>2022-02-13T08:39:55.000Z</time>
      </trkpt>
      <trkpt lat="47.2632" lon="-2.28053">
        <ele>20.200000762939</ele>
        <time>2022-02-13T08:39:56.000Z</time>
      </trkpt>
      <trkpt lat="47.26318" lon="-2.28046">
        <ele>19.799999237061</ele>
        <time>2022-02-13T08:39:57.000Z</time>
      </trkpt>
      <trkpt lat="47.26316" lon="-2.28038">
        <ele>19.39999961853</ele>
        <time>2022-02-13T08:39:58.000Z</time>
      </trkpt>
      <trkpt lat="47.26313" lon="-2.2803">
        <ele>19</ele>
        <time>2022-02-13T08:39:59.000Z</time>
      </trkpt>
      <trkpt lat="47.26298" lon="-2.27988">
        <ele>19</ele>
        <time>2022-02-13T08:40:05.000Z</time>
      </trkpt>
      <trkpt lat="47.26292" lon="-2.27977">
        <ele>19</ele>
        <time>2022-02-13T08:40:08.000Z</time>
      </trkpt>
      <trkpt lat="47.26284" lon="-2.2797">
        <ele>19</ele>
        <time>2022-02-13T08:40:13.000Z</time>
      </trkpt>
      <trkpt lat="47.26277" lon="-2.27963">
        <ele>19</ele>
        <time>2022-02-13T08:40:16.000Z</time>
      </trkpt>
      <trkpt lat="47.26274" lon="-2.27959">
        <ele>19</ele>
        <time>2022-02-13T08:40:17.000Z</time>
      </trkpt>
      <trkpt lat="47.26268" lon="-2.27947">
        <ele>19</ele>
        <time>2022-02-13T08:40:19.000Z</time>
      </trkpt>
      <trkpt lat="47.26259" lon="-2.27929">
        <ele>19</ele>
        <time>2022-02-13T08:40:22.000Z</time>
      </trkpt>
      <trkpt lat="47.26238" lon="-2.27889">
        <ele>19</ele>
        <time>2022-02-13T08:40:29.000Z</time>
      </trkpt>
      <trkpt lat="47.2623" lon="-2.27874">
        <ele>19</ele>
        <time>2022-02-13T08:40:32.000Z</time>
      </trkpt>
      <trkpt lat="47.26221" lon="-2.27854">
        <ele>19</ele>
        <time>2022-02-13T08:40:36.000Z</time>
      </trkpt>
      <trkpt lat="47.26203" lon="-2.27817">
        <ele>19</ele>
        <time>2022-02-13T08:40:43.000Z</time>
      </trkpt>
      <trkpt lat="47.26195" lon="-2.27802">
        <ele>19</ele>
        <time>2022-02-13T08:40:46.000Z</time>
      </trkpt>
      <trkpt lat="47.26189" lon="-2.27784">
        <ele>19</ele>
        <time>2022-02-13T08:40:49.000Z</time>
      </trkpt>
      <trkpt lat="47.26173" lon="-2.2774">
        <ele>19</ele>
        <time>2022-02-13T08:40:56.000Z</time>
      </trkpt>
      <trkpt lat="47.26156" lon="-2.27679">
        <ele>19</ele>
        <time>2022-02-13T08:41:05.000Z</time>
      </trkpt>
      <trkpt lat="47.26148" lon="-2.27652">
        <ele>19</ele>
        <time>2022-02-13T08:41:09.000Z</time>
      </trkpt>
      <trkpt lat="47.26145" lon="-2.27638">
        <ele>19</ele>
        <time>2022-02-13T08:41:11.000Z</time>
      </trkpt>
      <trkpt lat="47.26142" lon="-2.27619">
        <ele>19</ele>
        <time>2022-02-13T08:41:14.000Z</time>
      </trkpt>
      <trkpt lat="47.2614" lon="-2.276">
        <ele>19</ele>
        <time>2022-02-13T08:41:17.000Z</time>
      </trkpt>
      <trkpt lat="47.26128" lon="-2.27587">
        <ele>19</ele>
        <time>2022-02-13T08:41:20.000Z</time>
      </trkpt>
      <trkpt lat="47.26113" lon="-2.27584">
        <ele>19</ele>
        <time>2022-02-13T08:41:23.000Z</time>
      </trkpt>
      <trkpt lat="47.26099" lon="-2.27593">
        <ele>19</ele>
        <time>2022-02-13T08:41:26.000Z</time>
      </trkpt>
      <trkpt lat="47.26095" lon="-2.27596">
        <ele>19</ele>
        <time>2022-02-13T08:41:27.000Z</time>
      </trkpt>
      <trkpt lat="47.26062" lon="-2.27615">
        <ele>19</ele>
        <time>2022-02-13T08:41:34.000Z</time>
      </trkpt>
      <trkpt lat="47.26052" lon="-2.27618">
        <ele>19</ele>
        <time>2022-02-13T08:41:36.000Z</time>
      </trkpt>
      <trkpt lat="47.26043" lon="-2.27615">
        <ele>19</ele>
        <time>2022-02-13T08:41:38.000Z</time>
      </trkpt>
      <trkpt lat="47.26033" lon="-2.27597">
        <ele>19</ele>
        <time>2022-02-13T08:41:41.000Z</time>
      </trkpt>
      <trkpt lat="47.26029" lon="-2.27583">
        <ele>19</ele>
        <time>2022-02-13T08:41:43.000Z</time>
      </trkpt>
      <trkpt lat="47.26022" lon="-2.27554">
        <ele>19</ele>
        <time>2022-02-13T08:41:47.000Z</time>
      </trkpt>
      <trkpt lat="47.26015" lon="-2.27515">
        <ele>19</ele>
        <time>2022-02-13T08:41:53.000Z</time>
      </trkpt>
      <trkpt lat="47.26019" lon="-2.27478">
        <ele>19</ele>
        <time>2022-02-13T08:41:58.000Z</time>
      </trkpt>
      <trkpt lat="47.26029" lon="-2.27455">
        <ele>19</ele>
        <time>2022-02-13T08:42:01.000Z</time>
      </trkpt>
      <trkpt lat="47.26032" lon="-2.27447">
        <ele>19</ele>
        <time>2022-02-13T08:42:02.000Z</time>
      </trkpt>
      <trkpt lat="47.26047" lon="-2.27423">
        <ele>19</ele>
        <time>2022-02-13T08:42:05.000Z</time>
      </trkpt>
      <trkpt lat="47.26061" lon="-2.274">
        <ele>19</ele>
        <time>2022-02-13T08:42:08.000Z</time>
      </trkpt>
      <trkpt lat="47.26067" lon="-2.27393">
        <ele>19</ele>
        <time>2022-02-13T08:42:09.000Z</time>
      </trkpt>
      <trkpt lat="47.26085" lon="-2.27375">
        <ele>19</ele>
        <time>2022-02-13T08:42:12.000Z</time>
      </trkpt>
      <trkpt lat="47.26124" lon="-2.27334">
        <ele>19</ele>
        <time>2022-02-13T08:42:19.000Z</time>
      </trkpt>
      <trkpt lat="47.26138" lon="-2.27317">
        <ele>19</ele>
        <time>2022-02-13T08:42:22.000Z</time>
      </trkpt>
      <trkpt lat="47.2615" lon="-2.27313">
        <ele>19</ele>
        <time>2022-02-13T08:42:24.000Z</time>
      </trkpt>
      <trkpt lat="47.26169" lon="-2.27313">
        <ele>19</ele>
        <time>2022-02-13T08:42:27.000Z</time>
      </trkpt>
      <trkpt lat="47.26208" lon="-2.2731">
        <ele>18.60000038147</ele>
        <time>2022-02-13T08:42:33.000Z</time>
      </trkpt>
      <trkpt lat="47.26215" lon="-2.27312">
        <ele>18.200000762939</ele>
        <time>2022-02-13T08:42:34.000Z</time>
      </trkpt>
      <trkpt lat="47.26222" lon="-2.27314">
        <ele>17.799999237061</ele>
        <time>2022-02-13T08:42:35.000Z</time>
      </trkpt>
      <trkpt lat="47.26229" lon="-2.27314">
        <ele>17.39999961853</ele>
        <time>2022-02-13T08:42:36.000Z</time>
      </trkpt>
      <trkpt lat="47.26235" lon="-2.27315">
        <ele>17</ele>
        <time>2022-02-13T08:42:37.000Z</time>
      </trkpt>
      <trkpt lat="47.26248" lon="-2.27319">
        <ele>17</ele>
        <time>2022-02-13T08:42:39.000Z</time>
      </trkpt>
      <trkpt lat="47.26254" lon="-2.2732">
        <ele>17</ele>
        <time>2022-02-13T08:42:40.000Z</time>
      </trkpt>
      <trkpt lat="47.26282" lon="-2.27321">
        <ele>17</ele>
        <time>2022-02-13T08:42:44.000Z</time>
      </trkpt>
      <trkpt lat="47.26329" lon="-2.27327">
        <ele>17</ele>
        <time>2022-02-13T08:42:51.000Z</time>
      </trkpt>
      <trkpt lat="47.26368" lon="-2.2733">
        <ele>17</ele>
        <time>2022-02-13T08:42:57.000Z</time>
      </trkpt>
      <trkpt lat="47.26386" lon="-2.27331">
        <ele>16.60000038147</ele>
        <time>2022-02-13T08:43:00.000Z</time>
      </trkpt>
      <trkpt lat="47.26392" lon="-2.2733">
        <ele>16</ele>
        <time>2022-02-13T08:43:01.000Z</time>
      </trkpt>
      <trkpt lat="47.26398" lon="-2.2733">
        <ele>15.60000038147</ele>
        <time>2022-02-13T08:43:02.000Z</time>
      </trkpt>
      <trkpt lat="47.26404" lon="-2.27331">
        <ele>15.199999809265</ele>
        <time>2022-02-13T08:43:03.000Z</time>
      </trkpt>
      <trkpt lat="47.2641" lon="-2.27333">
        <ele>14.800000190735</ele>
        <time>2022-02-13T08:43:04.000Z</time>
      </trkpt>
      <trkpt lat="47.2643" lon="-2.27348">
        <ele>14.800000190735</ele>
        <time>2022-02-13T08:43:08.000Z</time>
      </trkpt>
      <trkpt lat="47.26437" lon="-2.27361">
        <ele>14.800000190735</ele>
        <time>2022-02-13T08:43:10.000Z</time>
      </trkpt>
      <trkpt lat="47.26446" lon="-2.27384">
        <ele>14.800000190735</ele>
        <time>2022-02-13T08:43:13.000Z</time>
      </trkpt>
      <trkpt lat="47.26454" lon="-2.27406">
        <ele>14.800000190735</ele>
        <time>2022-02-13T08:43:16.000Z</time>
      </trkpt>
      <trkpt lat="47.26457" lon="-2.27414">
        <ele>14.39999961853</ele>
        <time>2022-02-13T08:43:17.000Z</time>
      </trkpt>
      <trkpt lat="47.26461" lon="-2.27422">
        <ele>14</ele>
        <time>2022-02-13T08:43:18.000Z</time>
      </trkpt>
      <trkpt lat="47.26464" lon="-2.27431">
        <ele>13.60000038147</ele>
        <time>2022-02-13T08:43:19.000Z</time>
      </trkpt>
      <trkpt lat="47.26466" lon="-2.2744">
        <ele>12.60000038147</ele>
        <time>2022-02-13T08:43:20.000Z</time>
      </trkpt>
      <trkpt lat="47.26471" lon="-2.27457">
        <ele>12.60000038147</ele>
        <time>2022-02-13T08:43:22.000Z</time>
      </trkpt>
      <trkpt lat="47.26488" lon="-2.27516">
        <ele>12.199999809265</ele>
        <time>2022-02-13T08:43:29.000Z</time>
      </trkpt>
      <trkpt lat="47.2649" lon="-2.27525">
        <ele>11.800000190735</ele>
        <time>2022-02-13T08:43:30.000Z</time>
      </trkpt>
      <trkpt lat="47.26491" lon="-2.27535">
        <ele>11.39999961853</ele>
        <time>2022-02-13T08:43:31.000Z</time>
      </trkpt>
      <trkpt lat="47.26492" lon="-2.27544">
        <ele>11</ele>
        <time>2022-02-13T08:43:32.000Z</time>
      </trkpt>
      <trkpt lat="47.26493" lon="-2.27554">
        <ele>10.39999961853</ele>
        <time>2022-02-13T08:43:33.000Z</time>
      </trkpt>
      <trkpt lat="47.26496" lon="-2.2757">
        <ele>10.39999961853</ele>
        <time>2022-02-13T08:43:35.000Z</time>
      </trkpt>
      <trkpt lat="47.26507" lon="-2.27577">
        <ele>10.39999961853</ele>
        <time>2022-02-13T08:43:38.000Z</time>
      </trkpt>
      <trkpt lat="47.26512" lon="-2.27576">
        <ele>10</ele>
        <time>2022-02-13T08:43:39.000Z</time>
      </trkpt>
      <trkpt lat="47.26518" lon="-2.27576">
        <ele>9.6000003814697</ele>
        <time>2022-02-13T08:43:40.000Z</time>
      </trkpt>
      <trkpt lat="47.26524" lon="-2.27576">
        <ele>9.1999998092651</ele>
        <time>2022-02-13T08:43:41.000Z</time>
      </trkpt>
      <trkpt lat="47.26531" lon="-2.27578">
        <ele>8.8000001907349</ele>
        <time>2022-02-13T08:43:42.000Z</time>
      </trkpt>
      <trkpt lat="47.26537" lon="-2.27579">
        <ele>8.3999996185303</ele>
        <time>2022-02-13T08:43:43.000Z</time>
      </trkpt>
      <trkpt lat="47.26558" lon="-2.2758">
        <ele>8.3999996185303</ele>
        <time>2022-02-13T08:43:46.000Z</time>
      </trkpt>
      <trkpt lat="47.26586" lon="-2.27584">
        <ele>8.3999996185303</ele>
        <time>2022-02-13T08:43:50.000Z</time>
      </trkpt>
      <trkpt lat="47.26592" lon="-2.27586">
        <ele>8.3999996185303</ele>
        <time>2022-02-13T08:43:51.000Z</time>
      </trkpt>
      <trkpt lat="47.26621" lon="-2.276">
        <ele>8.3999996185303</ele>
        <time>2022-02-13T08:43:56.000Z</time>
      </trkpt>
      <trkpt lat="47.26661" lon="-2.27621">
        <ele>8.3999996185303</ele>
        <time>2022-02-13T08:44:03.000Z</time>
      </trkpt>
      <trkpt lat="47.26703" lon="-2.27638">
        <ele>8.3999996185303</ele>
        <time>2022-02-13T08:44:10.000Z</time>
      </trkpt>
      <trkpt lat="47.26736" lon="-2.27649">
        <ele>8.3999996185303</ele>
        <time>2022-02-13T08:44:16.000Z</time>
      </trkpt>
      <trkpt lat="47.26753" lon="-2.27654">
        <ele>8.3999996185303</ele>
        <time>2022-02-13T08:44:19.000Z</time>
      </trkpt>
      <trkpt lat="47.2676" lon="-2.27648">
        <ele>8.3999996185303</ele>
        <time>2022-02-13T08:44:21.000Z</time>
      </trkpt>
      <trkpt lat="47.26762" lon="-2.27628">
        <ele>8.3999996185303</ele>
        <time>2022-02-13T08:44:24.000Z</time>
      </trkpt>
      <trkpt lat="47.26761" lon="-2.2762">
        <ele>8.3999996185303</ele>
        <time>2022-02-13T08:44:25.000Z</time>
      </trkpt>
      <trkpt lat="47.26756" lon="-2.27586">
        <ele>8.3999996185303</ele>
        <time>2022-02-13T08:44:29.000Z</time>
      </trkpt>
      <trkpt lat="47.26751" lon="-2.27526">
        <ele>8.3999996185303</ele>
        <time>2022-02-13T08:44:36.000Z</time>
      </trkpt>
      <trkpt lat="47.26751" lon="-2.2751">
        <ele>8.8000001907349</ele>
        <time>2022-02-13T08:44:38.000Z</time>
      </trkpt>
      <trkpt lat="47.26751" lon="-2.27502">
        <ele>9.1999998092651</ele>
        <time>2022-02-13T08:44:39.000Z</time>
      </trkpt>
      <trkpt lat="47.26752" lon="-2.27494">
        <ele>9.6000003814697</ele>
        <time>2022-02-13T08:44:40.000Z</time>
      </trkpt>
      <trkpt lat="47.26752" lon="-2.27486">
        <ele>10</ele>
        <time>2022-02-13T08:44:41.000Z</time>
      </trkpt>
      <trkpt lat="47.26752" lon="-2.27477">
        <ele>10.60000038147</ele>
        <time>2022-02-13T08:44:42.000Z</time>
      </trkpt>
      <trkpt lat="47.26752" lon="-2.2746">
        <ele>10.60000038147</ele>
        <time>2022-02-13T08:44:44.000Z</time>
      </trkpt>
      <trkpt lat="47.26752" lon="-2.2742">
        <ele>10.60000038147</ele>
        <time>2022-02-13T08:44:49.000Z</time>
      </trkpt>
      <trkpt lat="47.26755" lon="-2.27416">
        <ele>10.60000038147</ele>
        <time>2022-02-13T08:44:50.000Z</time>
      </trkpt>
      <trkpt lat="47.26769" lon="-2.27412">
        <ele>10.60000038147</ele>
        <time>2022-02-13T08:44:53.000Z</time>
      </trkpt>
      <trkpt lat="47.26774" lon="-2.27413">
        <ele>10.60000038147</ele>
        <time>2022-02-13T08:44:54.000Z</time>
      </trkpt>
      <trkpt lat="47.26805" lon="-2.27412">
        <ele>10.60000038147</ele>
        <time>2022-02-13T08:45:00.000Z</time>
      </trkpt>
      <trkpt lat="47.26821" lon="-2.27411">
        <ele>10</ele>
        <time>2022-02-13T08:45:03.000Z</time>
      </trkpt>
      <trkpt lat="47.26827" lon="-2.2741">
        <ele>9.6000003814697</ele>
        <time>2022-02-13T08:45:04.000Z</time>
      </trkpt>
      <trkpt lat="47.26833" lon="-2.27408">
        <ele>9.1999998092651</ele>
        <time>2022-02-13T08:45:05.000Z</time>
      </trkpt>
      <trkpt lat="47.26839" lon="-2.27406">
        <ele>8.8000001907349</ele>
        <time>2022-02-13T08:45:06.000Z</time>
      </trkpt>
      <trkpt lat="47.26845" lon="-2.27404">
        <ele>8.3999996185303</ele>
        <time>2022-02-13T08:45:07.000Z</time>
      </trkpt>
      <trkpt lat="47.26876" lon="-2.27392">
        <ele>8.3999996185303</ele>
        <time>2022-02-13T08:45:12.000Z</time>
      </trkpt>
      <trkpt lat="47.26882" lon="-2.27389">
        <ele>8</ele>
        <time>2022-02-13T08:45:13.000Z</time>
      </trkpt>
      <trkpt lat="47.26888" lon="-2.27386">
        <ele>7.5999999046326</ele>
        <time>2022-02-13T08:45:14.000Z</time>
      </trkpt>
      <trkpt lat="47.26893" lon="-2.27382">
        <ele>7.1999998092651</ele>
        <time>2022-02-13T08:45:15.000Z</time>
      </trkpt>
      <trkpt lat="47.26897" lon="-2.27379">
        <ele>6.8000001907349</ele>
        <time>2022-02-13T08:45:16.000Z</time>
      </trkpt>
      <trkpt lat="47.26902" lon="-2.27377">
        <ele>6.4000000953674</ele>
        <time>2022-02-13T08:45:17.000Z</time>
      </trkpt>
      <trkpt lat="47.26908" lon="-2.27371">
        <ele>6</ele>
        <time>2022-02-13T08:45:19.000Z</time>
      </trkpt>
      <trkpt lat="47.2691" lon="-2.27367">
        <ele>5.5999999046326</ele>
        <time>2022-02-13T08:45:20.000Z</time>
      </trkpt>
      <trkpt lat="47.26912" lon="-2.27363">
        <ele>5.1999998092651</ele>
        <time>2022-02-13T08:45:21.000Z</time>
      </trkpt>
      <trkpt lat="47.26914" lon="-2.2736">
        <ele>4.8000001907349</ele>
        <time>2022-02-13T08:45:22.000Z</time>
      </trkpt>
      <trkpt lat="47.26915" lon="-2.27358">
        <ele>4.4000000953674</ele>
        <time>2022-02-13T08:45:23.000Z</time>
      </trkpt>
      <trkpt lat="47.26916" lon="-2.27357">
        <ele>4.4000000953674</ele>
        <time>2022-02-13T08:45:25.000Z</time>
      </trkpt>
      <trkpt lat="47.26916" lon="-2.27357">
        <ele>4.4000000953674</ele>
        <time>2022-02-13T08:45:26.000Z</time>
      </trkpt>
      <trkpt lat="47.26917" lon="-2.27349">
        <ele>4.4000000953674</ele>
        <time>2022-02-13T08:45:33.000Z</time>
      </trkpt>
      <trkpt lat="47.26918" lon="-2.27344">
        <ele>4.4000000953674</ele>
        <time>2022-02-13T08:45:35.000Z</time>
      </trkpt>
      <trkpt lat="47.26924" lon="-2.27323">
        <ele>4.4000000953674</ele>
        <time>2022-02-13T08:45:41.000Z</time>
      </trkpt>
      <trkpt lat="47.26925" lon="-2.27316">
        <ele>4.4000000953674</ele>
        <time>2022-02-13T08:45:43.000Z</time>
      </trkpt>
      <trkpt lat="47.26925" lon="-2.27305">
        <ele>4.4000000953674</ele>
        <time>2022-02-13T08:45:46.000Z</time>
      </trkpt>
      <trkpt lat="47.26924" lon="-2.27299">
        <ele>4.4000000953674</ele>
        <time>2022-02-13T08:45:48.000Z</time>
      </trkpt>
      <trkpt lat="47.26923" lon="-2.27294">
        <ele>4.4000000953674</ele>
        <time>2022-02-13T08:45:51.000Z</time>
      </trkpt>
      <trkpt lat="47.26923" lon="-2.27292">
        <ele>4.4000000953674</ele>
        <time>2022-02-13T08:45:52.000Z</time>
      </trkpt>
      <trkpt lat="47.26927" lon="-2.27279">
        <ele>4.4000000953674</ele>
        <time>2022-02-13T08:45:56.000Z</time>
      </trkpt>
      <trkpt lat="47.26928" lon="-2.2727">
        <ele>4.4000000953674</ele>
        <time>2022-02-13T08:45:59.000Z</time>
      </trkpt>
      <trkpt lat="47.26931" lon="-2.27269">
        <ele>4.4000000953674</ele>
        <time>2022-02-13T08:46:00.000Z</time>
      </trkpt>
      <trkpt lat="47.26933" lon="-2.27267">
        <ele>4.4000000953674</ele>
        <time>2022-02-13T08:46:01.000Z</time>
      </trkpt>
      <trkpt lat="47.26949" lon="-2.27261">
        <ele>4.4000000953674</ele>
        <time>2022-02-13T08:46:06.000Z</time>
      </trkpt>
      <trkpt lat="47.26958" lon="-2.27243">
        <ele>4.4000000953674</ele>
        <time>2022-02-13T08:46:11.000Z</time>
      </trkpt>
      <trkpt lat="47.26961" lon="-2.27222">
        <ele>4.4000000953674</ele>
        <time>2022-02-13T08:46:16.000Z</time>
      </trkpt>
      <trkpt lat="47.26965" lon="-2.27212">
        <ele>4.4000000953674</ele>
        <time>2022-02-13T08:46:19.000Z</time>
      </trkpt>
      <trkpt lat="47.26968" lon="-2.27212">
        <ele>4.4000000953674</ele>
        <time>2022-02-13T08:46:20.000Z</time>
      </trkpt>
      <trkpt lat="47.26977" lon="-2.272">
        <ele>4.4000000953674</ele>
        <time>2022-02-13T08:46:24.000Z</time>
      </trkpt>
      <trkpt lat="47.26977" lon="-2.272">
        <ele>4.4000000953674</ele>
        <time>2022-02-13T08:46:25.000Z</time>
      </trkpt>
      <trkpt lat="47.26978" lon="-2.27189">
        <ele>4.4000000953674</ele>
        <time>2022-02-13T08:46:31.000Z</time>
      </trkpt>
      <trkpt lat="47.26979" lon="-2.27186">
        <ele>4.4000000953674</ele>
        <time>2022-02-13T08:46:33.000Z</time>
      </trkpt>
      <trkpt lat="47.26981" lon="-2.27188">
        <ele>4.4000000953674</ele>
        <time>2022-02-13T08:46:35.000Z</time>
      </trkpt>
      <trkpt lat="47.26985" lon="-2.27187">
        <ele>4.4000000953674</ele>
        <time>2022-02-13T08:46:38.000Z</time>
      </trkpt>
      <trkpt lat="47.26985" lon="-2.27185">
        <ele>4.4000000953674</ele>
        <time>2022-02-13T08:46:39.000Z</time>
      </trkpt>
      <trkpt lat="47.26991" lon="-2.27176">
        <ele>4.4000000953674</ele>
        <time>2022-02-13T08:46:43.000Z</time>
      </trkpt>
      <trkpt lat="47.27004" lon="-2.2717">
        <ele>4.4000000953674</ele>
        <time>2022-02-13T08:46:48.000Z</time>
      </trkpt>
      <trkpt lat="47.27005" lon="-2.27172">
        <ele>4.4000000953674</ele>
        <time>2022-02-13T08:46:49.000Z</time>
      </trkpt>
      <trkpt lat="47.27006" lon="-2.27174">
        <ele>4.4000000953674</ele>
        <time>2022-02-13T08:46:52.000Z</time>
      </trkpt>
      <trkpt lat="47.27008" lon="-2.27172">
        <ele>3.2000000476837</ele>
        <time>2022-02-13T08:46:55.000Z</time>
      </trkpt>
      <trkpt lat="47.27009" lon="-2.2717">
        <ele>2.5999999046326</ele>
        <time>2022-02-13T08:46:56.000Z</time>
      </trkpt>
      <trkpt lat="47.2701" lon="-2.27168">
        <ele>2.2000000476837</ele>
        <time>2022-02-13T08:46:57.000Z</time>
      </trkpt>
      <trkpt lat="47.27016" lon="-2.27159">
        <ele>2.2000000476837</ele>
        <time>2022-02-13T08:47:02.000Z</time>
      </trkpt>
      <trkpt lat="47.27025" lon="-2.27152">
        <ele>1.7999999523163</ele>
        <time>2022-02-13T08:47:05.000Z</time>
      </trkpt>
      <trkpt lat="47.27028" lon="-2.27147">
        <ele>1.3999999761581</ele>
        <time>2022-02-13T08:47:06.000Z</time>
      </trkpt>
      <trkpt lat="47.2703" lon="-2.27145">
        <ele>1</ele>
        <time>2022-02-13T08:47:07.000Z</time>
      </trkpt>
      <trkpt lat="47.27031" lon="-2.27143">
        <ele>0.60000002384186</ele>
        <time>2022-02-13T08:47:08.000Z</time>
      </trkpt>
      <trkpt lat="47.27032" lon="-2.2714">
        <ele>0.20000000298023</ele>
        <time>2022-02-13T08:47:09.000Z</time>
      </trkpt>
      <trkpt lat="47.27032" lon="-2.27134">
        <ele>0.20000000298023</ele>
        <time>2022-02-13T08:47:12.000Z</time>
      </trkpt>
      <trkpt lat="47.27024" lon="-2.27122">
        <ele>0.60000002384186</ele>
        <time>2022-02-13T08:47:16.000Z</time>
      </trkpt>
      <trkpt lat="47.27022" lon="-2.2712">
        <ele>1</ele>
        <time>2022-02-13T08:47:17.000Z</time>
      </trkpt>
      <trkpt lat="47.27021" lon="-2.27118">
        <ele>1.3999999761581</ele>
        <time>2022-02-13T08:47:18.000Z</time>
      </trkpt>
      <trkpt lat="47.2702" lon="-2.27115">
        <ele>1.7999999523163</ele>
        <time>2022-02-13T08:47:19.000Z</time>
      </trkpt>
      <trkpt lat="47.27019" lon="-2.27113">
        <ele>2.2000000476837</ele>
        <time>2022-02-13T08:47:20.000Z</time>
      </trkpt>
      <trkpt lat="47.27018" lon="-2.2711">
        <ele>2.2000000476837</ele>
        <time>2022-02-13T08:47:21.000Z</time>
      </trkpt>
      <trkpt lat="47.27018" lon="-2.27108">
        <ele>2.2000000476837</ele>
        <time>2022-02-13T08:47:22.000Z</time>
      </trkpt>
      <trkpt lat="47.27018" lon="-2.27108">
        <ele>2.2000000476837</ele>
        <time>2022-02-13T08:47:23.000Z</time>
      </trkpt>
      <trkpt lat="47.27013" lon="-2.27096">
        <ele>2.2000000476837</ele>
        <time>2022-02-13T08:48:07.000Z</time>
      </trkpt>
      <trkpt lat="47.27012" lon="-2.27092">
        <ele>2.2000000476837</ele>
        <time>2022-02-13T08:48:09.000Z</time>
      </trkpt>
      <trkpt lat="47.27012" lon="-2.27092">
        <ele>2.2000000476837</ele>
        <time>2022-02-13T08:48:10.000Z</time>
      </trkpt>
      <trkpt lat="47.2701" lon="-2.27079">
        <ele>2.2000000476837</ele>
        <time>2022-02-13T08:50:01.000Z</time>
      </trkpt>
      <trkpt lat="47.27008" lon="-2.27072">
        <ele>2.2000000476837</ele>
        <time>2022-02-13T08:50:03.000Z</time>
      </trkpt>
      <trkpt lat="47.27" lon="-2.27052">
        <ele>2.2000000476837</ele>
        <time>2022-02-13T08:50:08.000Z</time>
      </trkpt>
      <trkpt lat="47.26989" lon="-2.27037">
        <ele>2.2000000476837</ele>
        <time>2022-02-13T08:50:13.000Z</time>
      </trkpt>
      <trkpt lat="47.26973" lon="-2.27017">
        <ele>2.2000000476837</ele>
        <time>2022-02-13T08:50:18.000Z</time>
      </trkpt>
      <trkpt lat="47.26963" lon="-2.27001">
        <ele>2.2000000476837</ele>
        <time>2022-02-13T08:50:21.000Z</time>
      </trkpt>
      <trkpt lat="47.26958" lon="-2.26987">
        <ele>2.2000000476837</ele>
        <time>2022-02-13T08:50:23.000Z</time>
      </trkpt>
      <trkpt lat="47.26959" lon="-2.26962">
        <ele>2.2000000476837</ele>
        <time>2022-02-13T08:50:26.000Z</time>
      </trkpt>
      <trkpt lat="47.26963" lon="-2.26925">
        <ele>2.2000000476837</ele>
        <time>2022-02-13T08:50:30.000Z</time>
      </trkpt>
      <trkpt lat="47.26963" lon="-2.26906">
        <ele>2.2000000476837</ele>
        <time>2022-02-13T08:50:32.000Z</time>
      </trkpt>
      <trkpt lat="47.26961" lon="-2.26888">
        <ele>1.7999999523163</ele>
        <time>2022-02-13T08:50:34.000Z</time>
      </trkpt>
      <trkpt lat="47.26959" lon="-2.26879">
        <ele>1.3999999761581</ele>
        <time>2022-02-13T08:50:35.000Z</time>
      </trkpt>
      <trkpt lat="47.26958" lon="-2.26871">
        <ele>1</ele>
        <time>2022-02-13T08:50:36.000Z</time>
      </trkpt>
      <trkpt lat="47.26957" lon="-2.26863">
        <ele>0.40000000596046</ele>
        <time>2022-02-13T08:50:37.000Z</time>
      </trkpt>
      <trkpt lat="47.26956" lon="-2.26855">
        <ele>22</ele>
        <time>2022-02-13T08:50:38.000Z</time>
      </trkpt>
      <trkpt lat="47.26955" lon="-2.26832">
        <ele>21.6</ele>
        <time>2022-02-13T08:50:41.000Z</time>
      </trkpt>
      <trkpt lat="47.26957" lon="-2.26825">
        <ele>21.2</ele>
        <time>2022-02-13T08:50:42.000Z</time>
      </trkpt>
      <trkpt lat="47.26969" lon="-2.26807">
        <ele>20.2</ele>
        <time>2022-02-13T08:50:46.000Z</time>
      </trkpt>
      <trkpt lat="47.26981" lon="-2.268">
        <ele>20.4</ele>
        <time>2022-02-13T08:50:49.000Z</time>
      </trkpt>
      <trkpt lat="47.26987" lon="-2.26795">
        <ele>20.5</ele>
        <time>2022-02-13T08:50:51.000Z</time>
      </trkpt>
      <trkpt lat="47.27003" lon="-2.26786">
        <ele>20.3</ele>
        <time>2022-02-13T08:50:56.000Z</time>
      </trkpt>
      <trkpt lat="47.27005" lon="-2.26782">
        <ele>-0.40000000596046</ele>
        <time>2022-02-13T08:50:57.000Z</time>
      </trkpt>
      <trkpt lat="47.27008" lon="-2.26778">
        <ele>-0.80000001192093</ele>
        <time>2022-02-13T08:50:58.000Z</time>
      </trkpt>
      <trkpt lat="47.27011" lon="-2.26775">
        <ele>-1.2000000476837</ele>
        <time>2022-02-13T08:50:59.000Z</time>
      </trkpt>
      <trkpt lat="47.27013" lon="-2.26772">
        <ele>-1.6000000238419</ele>
        <time>2022-02-13T08:51:00.000Z</time>
      </trkpt>
      <trkpt lat="47.27014" lon="-2.26769">
        <ele>-2</ele>
        <time>2022-02-13T08:51:01.000Z</time>
      </trkpt>
      <trkpt lat="47.27022" lon="-2.26761">
        <ele>-2</ele>
        <time>2022-02-13T08:51:05.000Z</time>
      </trkpt>
      <trkpt lat="47.2703" lon="-2.26754">
        <ele>-2</ele>
        <time>2022-02-13T08:51:09.000Z</time>
      </trkpt>
      <trkpt lat="47.27032" lon="-2.26749">
        <ele>-2</ele>
        <time>2022-02-13T08:51:11.000Z</time>
      </trkpt>
      <trkpt lat="47.27033" lon="-2.26737">
        <ele>-2</ele>
        <time>2022-02-13T08:51:14.000Z</time>
      </trkpt>
      <trkpt lat="47.27032" lon="-2.26733">
        <ele>-2</ele>
        <time>2022-02-13T08:51:15.000Z</time>
      </trkpt>
      <trkpt lat="47.27032" lon="-2.26707">
        <ele>-2</ele>
        <time>2022-02-13T08:51:19.000Z</time>
      </trkpt>
      <trkpt lat="47.27031" lon="-2.26682">
        <ele>-2</ele>
        <time>2022-02-13T08:51:23.000Z</time>
      </trkpt>
      <trkpt lat="47.27032" lon="-2.26676">
        <ele>-2</ele>
        <time>2022-02-13T08:51:24.000Z</time>
      </trkpt>
      <trkpt lat="47.27034" lon="-2.26656">
        <ele>-2</ele>
        <time>2022-02-13T08:51:27.000Z</time>
      </trkpt>
      <trkpt lat="47.2703" lon="-2.26645">
        <ele>-2</ele>
        <time>2022-02-13T08:51:29.000Z</time>
      </trkpt>
      <trkpt lat="47.27024" lon="-2.26636">
        <ele>-2</ele>
        <time>2022-02-13T08:51:31.000Z</time>
      </trkpt>
      <trkpt lat="47.27016" lon="-2.26622">
        <ele>-2</ele>
        <time>2022-02-13T08:51:34.000Z</time>
      </trkpt>
      <trkpt lat="47.27013" lon="-2.26617">
        <ele>-2</ele>
        <time>2022-02-13T08:51:35.000Z</time>
      </trkpt>
      <trkpt lat="47.27003" lon="-2.266">
        <ele>-2</ele>
        <time>2022-02-13T08:51:39.000Z</time>
      </trkpt>
      <trkpt lat="47.26986" lon="-2.26573">
        <ele>-1.6000000238419</ele>
        <time>2022-02-13T08:51:44.000Z</time>
      </trkpt>
      <trkpt lat="47.26984" lon="-2.26569">
        <ele>-1.2000000476837</ele>
        <time>2022-02-13T08:51:45.000Z</time>
      </trkpt>
      <trkpt lat="47.26981" lon="-2.26563">
        <ele>-0.80000001192093</ele>
        <time>2022-02-13T08:51:46.000Z</time>
      </trkpt>
      <trkpt lat="47.26979" lon="-2.26557">
        <ele>-0.40000000596046</ele>
        <time>2022-02-13T08:51:47.000Z</time>
      </trkpt>
      <trkpt lat="47.26977" lon="-2.26551">
        <ele>22.3</ele>
        <time>2022-02-13T08:51:48.000Z</time>
      </trkpt>
      <trkpt lat="47.26974" lon="-2.2654">
        <ele>22.6</ele>
        <time>2022-02-13T08:51:50.000Z</time>
      </trkpt>
      <trkpt lat="47.26973" lon="-2.26535">
        <ele>22.7</ele>
        <time>2022-02-13T08:51:51.000Z</time>
      </trkpt>
      <trkpt lat="47.26968" lon="-2.26516">
        <ele>23.6</ele>
        <time>2022-02-13T08:51:56.000Z</time>
      </trkpt>
      <trkpt lat="47.26968" lon="-2.26512">
        <ele>23.7</ele>
        <time>2022-02-13T08:51:57.000Z</time>
      </trkpt>
      <trkpt lat="47.26969" lon="-2.26508">
        <ele>0.60000002384186</ele>
        <time>2022-02-13T08:51:58.000Z</time>
      </trkpt>
      <trkpt lat="47.26971" lon="-2.26503">
        <ele>1</ele>
        <time>2022-02-13T08:51:59.000Z</time>
      </trkpt>
      <trkpt lat="47.26973" lon="-2.26498">
        <ele>1.3999999761581</ele>
        <time>2022-02-13T08:52:00.000Z</time>
      </trkpt>
      <trkpt lat="47.26976" lon="-2.26494">
        <ele>1.7999999523163</ele>
        <time>2022-02-13T08:52:01.000Z</time>
      </trkpt>
      <trkpt lat="47.2698" lon="-2.26489">
        <ele>2.2000000476837</ele>
        <time>2022-02-13T08:52:02.000Z</time>
      </trkpt>
      <trkpt lat="47.26987" lon="-2.2648">
        <ele>2.2000000476837</ele>
        <time>2022-02-13T08:52:04.000Z</time>
      </trkpt>
      <trkpt lat="47.26994" lon="-2.26469">
        <ele>2.2000000476837</ele>
        <time>2022-02-13T08:52:06.000Z</time>
      </trkpt>
      <trkpt lat="47.27014" lon="-2.2644">
        <ele>2.2000000476837</ele>
        <time>2022-02-13T08:52:11.000Z</time>
      </trkpt>
      <trkpt lat="47.27022" lon="-2.26428">
        <ele>2.2000000476837</ele>
        <time>2022-02-13T08:52:13.000Z</time>
      </trkpt>
      <trkpt lat="47.27049" lon="-2.26391">
        <ele>2.2000000476837</ele>
        <time>2022-02-13T08:52:19.000Z</time>
      </trkpt>
      <trkpt lat="47.27085" lon="-2.2634">
        <ele>2.2000000476837</ele>
        <time>2022-02-13T08:52:27.000Z</time>
      </trkpt>
      <trkpt lat="47.27117" lon="-2.26293">
        <ele>2.2000000476837</ele>
        <time>2022-02-13T08:52:34.000Z</time>
      </trkpt>
      <trkpt lat="47.27151" lon="-2.26243">
        <ele>2.2000000476837</ele>
        <time>2022-02-13T08:52:41.000Z</time>
      </trkpt>
      <trkpt lat="47.27195" lon="-2.26196">
        <ele>2.2000000476837</ele>
        <time>2022-02-13T08:52:48.000Z</time>
      </trkpt>
      <trkpt lat="47.27202" lon="-2.26191">
        <ele>1.7999999523163</ele>
        <time>2022-02-13T08:52:49.000Z</time>
      </trkpt>
      <trkpt lat="47.27208" lon="-2.26185">
        <ele>1.3999999761581</ele>
        <time>2022-02-13T08:52:50.000Z</time>
      </trkpt>
      <trkpt lat="47.27215" lon="-2.2618">
        <ele>1</ele>
        <time>2022-02-13T08:52:51.000Z</time>
      </trkpt>
      <trkpt lat="47.27222" lon="-2.26175">
        <ele>0.60000002384186</ele>
        <time>2022-02-13T08:52:52.000Z</time>
      </trkpt>
      <trkpt lat="47.27229" lon="-2.2617">
        <ele>0.20000000298023</ele>
        <time>2022-02-13T08:52:53.000Z</time>
      </trkpt>
      <trkpt lat="47.27236" lon="-2.26166">
        <ele>0.20000000298023</ele>
        <time>2022-02-13T08:52:54.000Z</time>
      </trkpt>
      <trkpt lat="47.27285" lon="-2.26142">
        <ele>0.20000000298023</ele>
        <time>2022-02-13T08:53:01.000Z</time>
      </trkpt>
      <trkpt lat="47.27327" lon="-2.26129">
        <ele>0.20000000298023</ele>
        <time>2022-02-13T08:53:07.000Z</time>
      </trkpt>
      <trkpt lat="47.27339" lon="-2.26125">
        <ele>0.20000000298023</ele>
        <time>2022-02-13T08:53:09.000Z</time>
      </trkpt>
      <trkpt lat="47.27345" lon="-2.26114">
        <ele>0.20000000298023</ele>
        <time>2022-02-13T08:53:11.000Z</time>
      </trkpt>
      <trkpt lat="47.27342" lon="-2.261">
        <ele>0.20000000298023</ele>
        <time>2022-02-13T08:53:13.000Z</time>
      </trkpt>
      <trkpt lat="47.27335" lon="-2.26086">
        <ele>0.20000000298023</ele>
        <time>2022-02-13T08:53:15.000Z</time>
      </trkpt>
      <trkpt lat="47.27325" lon="-2.26065">
        <ele>-0.20000000298023</ele>
        <time>2022-02-13T08:53:18.000Z</time>
      </trkpt>
      <trkpt lat="47.27321" lon="-2.26058">
        <ele>-0.80000001192093</ele>
        <time>2022-02-13T08:53:19.000Z</time>
      </trkpt>
      <trkpt lat="47.27318" lon="-2.26051">
        <ele>-1.2000000476837</ele>
        <time>2022-02-13T08:53:20.000Z</time>
      </trkpt>
      <trkpt lat="47.27314" lon="-2.26044">
        <ele>-1.6000000238419</ele>
        <time>2022-02-13T08:53:21.000Z</time>
      </trkpt>
      <trkpt lat="47.27311" lon="-2.26037">
        <ele>-2</ele>
        <time>2022-02-13T08:53:22.000Z</time>
      </trkpt>
      <trkpt lat="47.27307" lon="-2.2603">
        <ele>-2</ele>
        <time>2022-02-13T08:53:23.000Z</time>
      </trkpt>
      <trkpt lat="47.273" lon="-2.26018">
        <ele>-2</ele>
        <time>2022-02-13T08:53:25.000Z</time>
      </trkpt>
      <trkpt lat="47.27291" lon="-2.26">
        <ele>-2</ele>
        <time>2022-02-13T08:53:28.000Z</time>
      </trkpt>
      <trkpt lat="47.27289" lon="-2.25991">
        <ele>-2</ele>
        <time>2022-02-13T08:53:30.000Z</time>
      </trkpt>
      <trkpt lat="47.27296" lon="-2.2598">
        <ele>-2</ele>
        <time>2022-02-13T08:53:34.000Z</time>
      </trkpt>
      <trkpt lat="47.27313" lon="-2.25969">
        <ele>-2</ele>
        <time>2022-02-13T08:53:39.000Z</time>
      </trkpt>
      <trkpt lat="47.27347" lon="-2.25956">
        <ele>-2</ele>
        <time>2022-02-13T08:53:46.000Z</time>
      </trkpt>
      <trkpt lat="47.27351" lon="-2.25953">
        <ele>-2</ele>
        <time>2022-02-13T08:53:47.000Z</time>
      </trkpt>
      <trkpt lat="47.27364" lon="-2.25939">
        <ele>-2</ele>
        <time>2022-02-13T08:53:50.000Z</time>
      </trkpt>
      <trkpt lat="47.27368" lon="-2.25933">
        <ele>-2</ele>
        <time>2022-02-13T08:53:51.000Z</time>
      </trkpt>
      <trkpt lat="47.27373" lon="-2.25927">
        <ele>-2</ele>
        <time>2022-02-13T08:53:52.000Z</time>
      </trkpt>
      <trkpt lat="47.27392" lon="-2.25904">
        <ele>-2</ele>
        <time>2022-02-13T08:53:56.000Z</time>
      </trkpt>
      <trkpt lat="47.27401" lon="-2.25891">
        <ele>-2</ele>
        <time>2022-02-13T08:53:58.000Z</time>
      </trkpt>
      <trkpt lat="47.27416" lon="-2.25863">
        <ele>-2</ele>
        <time>2022-02-13T08:54:02.000Z</time>
      </trkpt>
      <trkpt lat="47.27436" lon="-2.2583">
        <ele>-2</ele>
        <time>2022-02-13T08:54:07.000Z</time>
      </trkpt>
      <trkpt lat="47.27439" lon="-2.25823">
        <ele>-2</ele>
        <time>2022-02-13T08:54:08.000Z</time>
      </trkpt>
      <trkpt lat="47.2745" lon="-2.25806">
        <ele>-2</ele>
        <time>2022-02-13T08:54:11.000Z</time>
      </trkpt>
      <trkpt lat="47.27459" lon="-2.25798">
        <ele>-2</ele>
        <time>2022-02-13T08:54:13.000Z</time>
      </trkpt>
      <trkpt lat="47.27469" lon="-2.25791">
        <ele>-2.4000000953674</ele>
        <time>2022-02-13T08:54:15.000Z</time>
      </trkpt>
      <trkpt lat="47.27473" lon="-2.25787">
        <ele>-2.7999999523163</ele>
        <time>2022-02-13T08:54:16.000Z</time>
      </trkpt>
      <trkpt lat="47.27477" lon="-2.25782">
        <ele>-3.2000000476837</ele>
        <time>2022-02-13T08:54:17.000Z</time>
      </trkpt>
      <trkpt lat="47.27481" lon="-2.25778">
        <ele>-3.5999999046326</ele>
        <time>2022-02-13T08:54:18.000Z</time>
      </trkpt>
      <trkpt lat="47.27486" lon="-2.25774">
        <ele>-4</ele>
        <time>2022-02-13T08:54:19.000Z</time>
      </trkpt>
      <trkpt lat="47.2749" lon="-2.2577">
        <ele>-4</ele>
        <time>2022-02-13T08:54:20.000Z</time>
      </trkpt>
      <trkpt lat="47.27507" lon="-2.2575">
        <ele>-4</ele>
        <time>2022-02-13T08:54:24.000Z</time>
      </trkpt>
      <trkpt lat="47.27515" lon="-2.2574">
        <ele>-4</ele>
        <time>2022-02-13T08:54:26.000Z</time>
      </trkpt>
      <trkpt lat="47.27529" lon="-2.25719">
        <ele>-4</ele>
        <time>2022-02-13T08:54:30.000Z</time>
      </trkpt>
      <trkpt lat="47.27549" lon="-2.25681">
        <ele>-4</ele>
        <time>2022-02-13T08:54:36.000Z</time>
      </trkpt>
      <trkpt lat="47.27553" lon="-2.25675">
        <ele>-4.4000000953674</ele>
        <time>2022-02-13T08:54:37.000Z</time>
      </trkpt>
      <trkpt lat="47.27556" lon="-2.25669">
        <ele>-5</ele>
        <time>2022-02-13T08:54:38.000Z</time>
      </trkpt>
      <trkpt lat="47.2756" lon="-2.25665">
        <ele>-5.4000000953674</ele>
        <time>2022-02-13T08:54:39.000Z</time>
      </trkpt>
      <trkpt lat="47.27563" lon="-2.2566">
        <ele>-5.8000001907349</ele>
        <time>2022-02-13T08:54:40.000Z</time>
      </trkpt>
      <trkpt lat="47.27564" lon="-2.25656">
        <ele>-6.1999998092651</ele>
        <time>2022-02-13T08:54:41.000Z</time>
      </trkpt>
      <trkpt lat="47.27562" lon="-2.25648">
        <ele>-6.1999998092651</ele>
        <time>2022-02-13T08:54:44.000Z</time>
      </trkpt>
      <trkpt lat="47.27562" lon="-2.2563">
        <ele>-6.1999998092651</ele>
        <time>2022-02-13T08:54:48.000Z</time>
      </trkpt>
      <trkpt lat="47.27562" lon="-2.25623">
        <ele>-6.1999998092651</ele>
        <time>2022-02-13T08:54:49.000Z</time>
      </trkpt>
      <trkpt lat="47.27559" lon="-2.25582">
        <ele>-6.1999998092651</ele>
        <time>2022-02-13T08:54:54.000Z</time>
      </trkpt>
      <trkpt lat="47.27557" lon="-2.25573">
        <ele>-6.1999998092651</ele>
        <time>2022-02-13T08:54:55.000Z</time>
      </trkpt>
      <trkpt lat="47.27549" lon="-2.25539">
        <ele>-6.1999998092651</ele>
        <time>2022-02-13T08:54:59.000Z</time>
      </trkpt>
      <trkpt lat="47.27546" lon="-2.25531">
        <ele>-6.1999998092651</ele>
        <time>2022-02-13T08:55:00.000Z</time>
      </trkpt>
      <trkpt lat="47.27525" lon="-2.25482">
        <ele>-6.1999998092651</ele>
        <time>2022-02-13T08:55:07.000Z</time>
      </trkpt>
      <trkpt lat="47.27521" lon="-2.25476">
        <ele>-6.1999998092651</ele>
        <time>2022-02-13T08:55:08.000Z</time>
      </trkpt>
      <trkpt lat="47.27501" lon="-2.25458">
        <ele>-6.1999998092651</ele>
        <time>2022-02-13T08:55:12.000Z</time>
      </trkpt>
      <trkpt lat="47.27478" lon="-2.25454">
        <ele>-6.1999998092651</ele>
        <time>2022-02-13T08:55:16.000Z</time>
      </trkpt>
      <trkpt lat="47.27461" lon="-2.25454">
        <ele>-6.1999998092651</ele>
        <time>2022-02-13T08:55:19.000Z</time>
      </trkpt>
      <trkpt lat="47.27451" lon="-2.25451">
        <ele>-6.1999998092651</ele>
        <time>2022-02-13T08:55:21.000Z</time>
      </trkpt>
      <trkpt lat="47.27435" lon="-2.25435">
        <ele>-6.1999998092651</ele>
        <time>2022-02-13T08:55:25.000Z</time>
      </trkpt>
      <trkpt lat="47.27428" lon="-2.25427">
        <ele>-6.1999998092651</ele>
        <time>2022-02-13T08:55:27.000Z</time>
      </trkpt>
      <trkpt lat="47.27424" lon="-2.25424">
        <ele>-6.1999998092651</ele>
        <time>2022-02-13T08:55:28.000Z</time>
      </trkpt>
      <trkpt lat="47.27421" lon="-2.25419">
        <ele>-6.1999998092651</ele>
        <time>2022-02-13T08:55:29.000Z</time>
      </trkpt>
      <trkpt lat="47.27416" lon="-2.25405">
        <ele>-6.1999998092651</ele>
        <time>2022-02-13T08:55:32.000Z</time>
      </trkpt>
      <trkpt lat="47.27414" lon="-2.25401">
        <ele>-6.1999998092651</ele>
        <time>2022-02-13T08:55:33.000Z</time>
      </trkpt>
      <trkpt lat="47.27409" lon="-2.25393">
        <ele>-6.1999998092651</ele>
        <time>2022-02-13T08:55:35.000Z</time>
      </trkpt>
      <trkpt lat="47.27405" lon="-2.25386">
        <ele>-6.1999998092651</ele>
        <time>2022-02-13T08:55:37.000Z</time>
      </trkpt>
      <trkpt lat="47.27402" lon="-2.25364">
        <ele>-6.1999998092651</ele>
        <time>2022-02-13T08:55:41.000Z</time>
      </trkpt>
      <trkpt lat="47.27403" lon="-2.25337">
        <ele>-6.1999998092651</ele>
        <time>2022-02-13T08:55:45.000Z</time>
      </trkpt>
      <trkpt lat="47.27396" lon="-2.25321">
        <ele>-6.1999998092651</ele>
        <time>2022-02-13T08:55:48.000Z</time>
      </trkpt>
      <trkpt lat="47.27397" lon="-2.25295">
        <ele>-6.1999998092651</ele>
        <time>2022-02-13T08:55:52.000Z</time>
      </trkpt>
      <trkpt lat="47.27395" lon="-2.25265">
        <ele>-6.1999998092651</ele>
        <time>2022-02-13T08:55:56.000Z</time>
      </trkpt>
      <trkpt lat="47.27393" lon="-2.25258">
        <ele>-6.1999998092651</ele>
        <time>2022-02-13T08:55:57.000Z</time>
      </trkpt>
      <trkpt lat="47.27388" lon="-2.2523">
        <ele>-6.1999998092651</ele>
        <time>2022-02-13T08:56:01.000Z</time>
      </trkpt>
      <trkpt lat="47.27385" lon="-2.25216">
        <ele>-6.1999998092651</ele>
        <time>2022-02-13T08:56:03.000Z</time>
      </trkpt>
      <trkpt lat="47.27386" lon="-2.2521">
        <ele>-6.8000001907349</ele>
        <time>2022-02-13T08:56:04.000Z</time>
      </trkpt>
      <trkpt lat="47.27386" lon="-2.25204">
        <ele>-7.1999998092651</ele>
        <time>2022-02-13T08:56:05.000Z</time>
      </trkpt>
      <trkpt lat="47.27386" lon="-2.25197">
        <ele>-7.5999999046326</ele>
        <time>2022-02-13T08:56:06.000Z</time>
      </trkpt>
      <trkpt lat="47.27387" lon="-2.25191">
        <ele>-8</ele>
        <time>2022-02-13T08:56:07.000Z</time>
      </trkpt>
      <trkpt lat="47.27387" lon="-2.25186">
        <ele>-8.3999996185303</ele>
        <time>2022-02-13T08:56:08.000Z</time>
      </trkpt>
      <trkpt lat="47.27383" lon="-2.25168">
        <ele>-8.3999996185303</ele>
        <time>2022-02-13T08:56:11.000Z</time>
      </trkpt>
      <trkpt lat="47.27367" lon="-2.25123">
        <ele>-8.3999996185303</ele>
        <time>2022-02-13T08:56:17.000Z</time>
      </trkpt>
      <trkpt lat="47.27363" lon="-2.25116">
        <ele>-8.3999996185303</ele>
        <time>2022-02-13T08:56:18.000Z</time>
      </trkpt>
      <trkpt lat="47.27352" lon="-2.25089">
        <ele>-8.3999996185303</ele>
        <time>2022-02-13T08:56:22.000Z</time>
      </trkpt>
      <trkpt lat="47.27337" lon="-2.25039">
        <ele>-8.3999996185303</ele>
        <time>2022-02-13T08:56:29.000Z</time>
      </trkpt>
      <trkpt lat="47.2733" lon="-2.24998">
        <ele>-8.3999996185303</ele>
        <time>2022-02-13T08:56:35.000Z</time>
      </trkpt>
      <trkpt lat="47.27335" lon="-2.2498">
        <ele>-8.3999996185303</ele>
        <time>2022-02-13T08:56:38.000Z</time>
      </trkpt>
      <trkpt lat="47.27341" lon="-2.24969">
        <ele>-8.3999996185303</ele>
        <time>2022-02-13T08:56:40.000Z</time>
      </trkpt>
      <trkpt lat="47.27351" lon="-2.24954">
        <ele>-8.3999996185303</ele>
        <time>2022-02-13T08:56:43.000Z</time>
      </trkpt>
      <trkpt lat="47.2737" lon="-2.24927">
        <ele>-8.3999996185303</ele>
        <time>2022-02-13T08:56:48.000Z</time>
      </trkpt>
      <trkpt lat="47.2739" lon="-2.24896">
        <ele>-8.3999996185303</ele>
        <time>2022-02-13T08:56:54.000Z</time>
      </trkpt>
      <trkpt lat="47.27394" lon="-2.24892">
        <ele>-8.3999996185303</ele>
        <time>2022-02-13T08:56:55.000Z</time>
      </trkpt>
      <trkpt lat="47.27402" lon="-2.24874">
        <ele>-8.3999996185303</ele>
        <time>2022-02-13T08:56:59.000Z</time>
      </trkpt>
      <trkpt lat="47.27404" lon="-2.24845">
        <ele>-8.3999996185303</ele>
        <time>2022-02-13T08:57:05.000Z</time>
      </trkpt>
      <trkpt lat="47.27417" lon="-2.24821">
        <ele>-8.3999996185303</ele>
        <time>2022-02-13T08:57:12.000Z</time>
      </trkpt>
      <trkpt lat="47.27426" lon="-2.24797">
        <ele>-8.3999996185303</ele>
        <time>2022-02-13T08:57:17.000Z</time>
      </trkpt>
      <trkpt lat="47.27442" lon="-2.24787">
        <ele>-8</ele>
        <time>2022-02-13T08:57:20.000Z</time>
      </trkpt>
      <trkpt lat="47.27446" lon="-2.24785">
        <ele>-7.5999999046326</ele>
        <time>2022-02-13T08:57:21.000Z</time>
      </trkpt>
      <trkpt lat="47.27451" lon="-2.24784">
        <ele>-7.1999998092651</ele>
        <time>2022-02-13T08:57:22.000Z</time>
      </trkpt>
      <trkpt lat="47.27455" lon="-2.24782">
        <ele>-6.8000001907349</ele>
        <time>2022-02-13T08:57:23.000Z</time>
      </trkpt>
      <trkpt lat="47.27459" lon="-2.24782">
        <ele>-6.4000000953674</ele>
        <time>2022-02-13T08:57:24.000Z</time>
      </trkpt>
      <trkpt lat="47.27464" lon="-2.24782">
        <ele>-6</ele>
        <time>2022-02-13T08:57:25.000Z</time>
      </trkpt>
      <trkpt lat="47.27467" lon="-2.24783">
        <ele>-5.5999999046326</ele>
        <time>2022-02-13T08:57:26.000Z</time>
      </trkpt>
      <trkpt lat="47.27471" lon="-2.24783">
        <ele>-5</ele>
        <time>2022-02-13T08:57:27.000Z</time>
      </trkpt>
      <trkpt lat="47.27475" lon="-2.24784">
        <ele>-4.5999999046326</ele>
        <time>2022-02-13T08:57:28.000Z</time>
      </trkpt>
      <trkpt lat="47.27478" lon="-2.24784">
        <ele>-4.1999998092651</ele>
        <time>2022-02-13T08:57:29.000Z</time>
      </trkpt>
      <trkpt lat="47.27485" lon="-2.24785">
        <ele>-3.7999999523163</ele>
        <time>2022-02-13T08:57:31.000Z</time>
      </trkpt>
      <trkpt lat="47.27489" lon="-2.24784">
        <ele>-3.4000000953674</ele>
        <time>2022-02-13T08:57:32.000Z</time>
      </trkpt>
      <trkpt lat="47.27494" lon="-2.24784">
        <ele>-3</ele>
        <time>2022-02-13T08:57:33.000Z</time>
      </trkpt>
      <trkpt lat="47.27498" lon="-2.24784">
        <ele>-2.5999999046326</ele>
        <time>2022-02-13T08:57:34.000Z</time>
      </trkpt>
      <trkpt lat="47.27502" lon="-2.24784">
        <ele>-2.2000000476837</ele>
        <time>2022-02-13T08:57:35.000Z</time>
      </trkpt>
      <trkpt lat="47.27521" lon="-2.24784">
        <ele>-2.2000000476837</ele>
        <time>2022-02-13T08:57:39.000Z</time>
      </trkpt>
      <trkpt lat="47.2753" lon="-2.24785">
        <ele>-2.2000000476837</ele>
        <time>2022-02-13T08:57:41.000Z</time>
      </trkpt>
      <trkpt lat="47.2754" lon="-2.24785">
        <ele>-1.3999999761581</ele>
        <time>2022-02-13T08:57:43.000Z</time>
      </trkpt>
      <trkpt lat="47.27545" lon="-2.24785">
        <ele>-1</ele>
        <time>2022-02-13T08:57:44.000Z</time>
      </trkpt>
      <trkpt lat="47.2755" lon="-2.24785">
        <ele>-0.60000002384186</ele>
        <time>2022-02-13T08:57:45.000Z</time>
      </trkpt>
      <trkpt lat="47.27554" lon="-2.24786">
        <ele>-0.20000000298023</ele>
        <time>2022-02-13T08:57:46.000Z</time>
      </trkpt>
      <trkpt lat="47.27579" lon="-2.24787">
        <ele>-0.20000000298023</ele>
        <time>2022-02-13T08:57:51.000Z</time>
      </trkpt>
      <trkpt lat="47.27585" lon="-2.24787">
        <ele>-0.20000000298023</ele>
        <time>2022-02-13T08:57:52.000Z</time>
      </trkpt>
      <trkpt lat="47.2761" lon="-2.2479">
        <ele>-0.20000000298023</ele>
        <time>2022-02-13T08:57:57.000Z</time>
      </trkpt>
      <trkpt lat="47.2763" lon="-2.24789">
        <ele>-0.20000000298023</ele>
        <time>2022-02-13T08:58:01.000Z</time>
      </trkpt>
      <trkpt lat="47.27641" lon="-2.2479">
        <ele>-0.20000000298023</ele>
        <time>2022-02-13T08:58:03.000Z</time>
      </trkpt>
      <trkpt lat="47.27655" lon="-2.24797">
        <ele>-0.20000000298023</ele>
        <time>2022-02-13T08:58:06.000Z</time>
      </trkpt>
      <trkpt lat="47.27668" lon="-2.24804">
        <ele>-0.20000000298023</ele>
        <time>2022-02-13T08:58:08.000Z</time>
      </trkpt>
      <trkpt lat="47.27689" lon="-2.24803">
        <ele>-0.20000000298023</ele>
        <time>2022-02-13T08:58:11.000Z</time>
      </trkpt>
      <trkpt lat="47.27696" lon="-2.24804">
        <ele>-0.20000000298023</ele>
        <time>2022-02-13T08:58:12.000Z</time>
      </trkpt>
      <trkpt lat="47.27735" lon="-2.24803">
        <ele>-0.20000000298023</ele>
        <time>2022-02-13T08:58:18.000Z</time>
      </trkpt>
      <trkpt lat="47.27775" lon="-2.24802">
        <ele>-0.20000000298023</ele>
        <time>2022-02-13T08:58:25.000Z</time>
      </trkpt>
      <trkpt lat="47.27818" lon="-2.24799">
        <ele>-0.20000000298023</ele>
        <time>2022-02-13T08:58:33.000Z</time>
      </trkpt>
      <trkpt lat="47.27849" lon="-2.2479">
        <ele>-0.20000000298023</ele>
        <time>2022-02-13T08:58:39.000Z</time>
      </trkpt>
      <trkpt lat="47.27855" lon="-2.24781">
        <ele>-0.20000000298023</ele>
        <time>2022-02-13T08:58:43.000Z</time>
      </trkpt>
      <trkpt lat="47.27855" lon="-2.24777">
        <ele>-0.20000000298023</ele>
        <time>2022-02-13T08:58:44.000Z</time>
      </trkpt>
      <trkpt lat="47.2786" lon="-2.2477">
        <ele>-0.20000000298023</ele>
        <time>2022-02-13T08:58:47.000Z</time>
      </trkpt>
      <trkpt lat="47.27871" lon="-2.2478">
        <ele>-0.20000000298023</ele>
        <time>2022-02-13T08:58:51.000Z</time>
      </trkpt>
      <trkpt lat="47.27879" lon="-2.24781">
        <ele>-0.20000000298023</ele>
        <time>2022-02-13T08:58:54.000Z</time>
      </trkpt>
      <trkpt lat="47.27881" lon="-2.24781">
        <ele>-0.20000000298023</ele>
        <time>2022-02-13T08:58:55.000Z</time>
      </trkpt>
      <trkpt lat="47.27884" lon="-2.2478">
        <ele>0.40000000596046</ele>
        <time>2022-02-13T08:58:57.000Z</time>
      </trkpt>
      <trkpt lat="47.27885" lon="-2.2478">
        <ele>1.6000000238419</ele>
        <time>2022-02-13T08:58:58.000Z</time>
      </trkpt>
      <trkpt lat="47.27887" lon="-2.24779">
        <ele>2</ele>
        <time>2022-02-13T08:58:59.000Z</time>
      </trkpt>
      <trkpt lat="47.27889" lon="-2.24779">
        <ele>2.5999999046326</ele>
        <time>2022-02-13T08:59:00.000Z</time>
      </trkpt>
      <trkpt lat="47.27896" lon="-2.24782">
        <ele>2.5999999046326</ele>
        <time>2022-02-13T08:59:04.000Z</time>
      </trkpt>
      <trkpt lat="47.27898" lon="-2.24785">
        <ele>2.5999999046326</ele>
        <time>2022-02-13T08:59:06.000Z</time>
      </trkpt>
      <trkpt lat="47.27896" lon="-2.24785">
        <ele>2.5999999046326</ele>
        <time>2022-02-13T08:59:09.000Z</time>
      </trkpt>
      <trkpt lat="47.27897" lon="-2.2479">
        <ele>2.5999999046326</ele>
        <time>2022-02-13T08:59:28.000Z</time>
      </trkpt>
      <trkpt lat="47.27902" lon="-2.24796">
        <ele>2.5999999046326</ele>
        <time>2022-02-13T08:59:30.000Z</time>
      </trkpt>
      <trkpt lat="47.27917" lon="-2.24806">
        <ele>2.5999999046326</ele>
        <time>2022-02-13T08:59:35.000Z</time>
      </trkpt>
      <trkpt lat="47.27928" lon="-2.24814">
        <ele>2.5999999046326</ele>
        <time>2022-02-13T08:59:38.000Z</time>
      </trkpt>
      <trkpt lat="47.27937" lon="-2.24815">
        <ele>2.5999999046326</ele>
        <time>2022-02-13T08:59:40.000Z</time>
      </trkpt>
      <trkpt lat="47.27941" lon="-2.24818">
        <ele>2.5999999046326</ele>
        <time>2022-02-13T08:59:41.000Z</time>
      </trkpt>
      <trkpt lat="47.27953" lon="-2.24822">
        <ele>2.5999999046326</ele>
        <time>2022-02-13T08:59:44.000Z</time>
      </trkpt>
      <trkpt lat="47.27968" lon="-2.24825">
        <ele>2.5999999046326</ele>
        <time>2022-02-13T08:59:47.000Z</time>
      </trkpt>
      <trkpt lat="47.27973" lon="-2.24827">
        <ele>2.5999999046326</ele>
        <time>2022-02-13T08:59:48.000Z</time>
      </trkpt>
      <trkpt lat="47.27983" lon="-2.24832">
        <ele>3</ele>
        <time>2022-02-13T08:59:50.000Z</time>
      </trkpt>
      <trkpt lat="47.27988" lon="-2.24832">
        <ele>3.4000000953674</ele>
        <time>2022-02-13T08:59:51.000Z</time>
      </trkpt>
      <trkpt lat="47.27993" lon="-2.24833">
        <ele>3.7999999523163</ele>
        <time>2022-02-13T08:59:52.000Z</time>
      </trkpt>
      <trkpt lat="47.27998" lon="-2.24834">
        <ele>4.1999998092651</ele>
        <time>2022-02-13T08:59:53.000Z</time>
      </trkpt>
      <trkpt lat="47.28003" lon="-2.24835">
        <ele>4.5999999046326</ele>
        <time>2022-02-13T08:59:54.000Z</time>
      </trkpt>
      <trkpt lat="47.28018" lon="-2.24837">
        <ele>4.5999999046326</ele>
        <time>2022-02-13T08:59:57.000Z</time>
      </trkpt>
      <trkpt lat="47.28028" lon="-2.24839">
        <ele>4.5999999046326</ele>
        <time>2022-02-13T08:59:59.000Z</time>
      </trkpt>
      <trkpt lat="47.28039" lon="-2.24842">
        <ele>4.5999999046326</ele>
        <time>2022-02-13T09:00:01.000Z</time>
      </trkpt>
      <trkpt lat="47.28054" lon="-2.24844">
        <ele>4.5999999046326</ele>
        <time>2022-02-13T09:00:04.000Z</time>
      </trkpt>
      <trkpt lat="47.28064" lon="-2.24848">
        <ele>4.5999999046326</ele>
        <time>2022-02-13T09:00:06.000Z</time>
      </trkpt>
      <trkpt lat="47.28068" lon="-2.24848">
        <ele>4.5999999046326</ele>
        <time>2022-02-13T09:00:07.000Z</time>
      </trkpt>
      <trkpt lat="47.28078" lon="-2.24847">
        <ele>4.5999999046326</ele>
        <time>2022-02-13T09:00:09.000Z</time>
      </trkpt>
      <trkpt lat="47.2809" lon="-2.24846">
        <ele>4.5999999046326</ele>
        <time>2022-02-13T09:00:11.000Z</time>
      </trkpt>
      <trkpt lat="47.28108" lon="-2.24852">
        <ele>4.5999999046326</ele>
        <time>2022-02-13T09:00:14.000Z</time>
      </trkpt>
      <trkpt lat="47.28126" lon="-2.24857">
        <ele>4.1999998092651</ele>
        <time>2022-02-13T09:00:17.000Z</time>
      </trkpt>
      <trkpt lat="47.28132" lon="-2.24858">
        <ele>3.7999999523163</ele>
        <time>2022-02-13T09:00:18.000Z</time>
      </trkpt>
      <trkpt lat="47.28139" lon="-2.24857">
        <ele>3.2000000476837</ele>
        <time>2022-02-13T09:00:19.000Z</time>
      </trkpt>
      <trkpt lat="47.28144" lon="-2.24855">
        <ele>2.7999999523163</ele>
        <time>2022-02-13T09:00:20.000Z</time>
      </trkpt>
      <trkpt lat="47.28149" lon="-2.24853">
        <ele>2.4000000953674</ele>
        <time>2022-02-13T09:00:21.000Z</time>
      </trkpt>
      <trkpt lat="47.28153" lon="-2.2485">
        <ele>1.7999999523163</ele>
        <time>2022-02-13T09:00:22.000Z</time>
      </trkpt>
      <trkpt lat="47.28155" lon="-2.24847">
        <ele>1.3999999761581</ele>
        <time>2022-02-13T09:00:23.000Z</time>
      </trkpt>
      <trkpt lat="47.28157" lon="-2.24842">
        <ele>0.80000001192093</ele>
        <time>2022-02-13T09:00:24.000Z</time>
      </trkpt>
      <trkpt lat="47.28156" lon="-2.24835">
        <ele>0.40000000596046</ele>
        <time>2022-02-13T09:00:25.000Z</time>
      </trkpt>
      <trkpt lat="47.28157" lon="-2.24828">
        <ele>0.40000000596046</ele>
        <time>2022-02-13T09:00:26.000Z</time>
      </trkpt>
      <trkpt lat="47.28157" lon="-2.24822">
        <ele>0.40000000596046</ele>
        <time>2022-02-13T09:00:27.000Z</time>
      </trkpt>
      <trkpt lat="47.28162" lon="-2.24807">
        <ele>20.1</ele>
        <time>2022-02-13T09:00:31.000Z</time>
      </trkpt>
      <trkpt lat="47.28166" lon="-2.24807">
        <ele>-0.40000000596046</ele>
        <time>2022-02-13T09:00:32.000Z</time>
      </trkpt>
      <trkpt lat="47.28172" lon="-2.24808">
        <ele>-0.80000001192093</ele>
        <time>2022-02-13T09:00:33.000Z</time>
      </trkpt>
      <trkpt lat="47.28178" lon="-2.24808">
        <ele>-1.3999999761581</ele>
        <time>2022-02-13T09:00:34.000Z</time>
      </trkpt>
      <trkpt lat="47.28186" lon="-2.2481">
        <ele>-1.7999999523163</ele>
        <time>2022-02-13T09:00:35.000Z</time>
      </trkpt>
      <trkpt lat="47.28194" lon="-2.24811">
        <ele>-2.4000000953674</ele>
        <time>2022-02-13T09:00:36.000Z</time>
      </trkpt>
      <trkpt lat="47.28203" lon="-2.24812">
        <ele>-3.5999999046326</ele>
        <time>2022-02-13T09:00:37.000Z</time>
      </trkpt>
      <trkpt lat="47.28212" lon="-2.24813">
        <ele>-4.1999998092651</ele>
        <time>2022-02-13T09:00:38.000Z</time>
      </trkpt>
      <trkpt lat="47.28221" lon="-2.24813">
        <ele>-4.8000001907349</ele>
        <time>2022-02-13T09:00:39.000Z</time>
      </trkpt>
      <trkpt lat="47.28229" lon="-2.2481">
        <ele>-5.5999999046326</ele>
        <time>2022-02-13T09:00:40.000Z</time>
      </trkpt>
      <trkpt lat="47.28237" lon="-2.24804">
        <ele>-6.1999998092651</ele>
        <time>2022-02-13T09:00:41.000Z</time>
      </trkpt>
      <trkpt lat="47.28245" lon="-2.24798">
        <ele>-7</ele>
        <time>2022-02-13T09:00:42.000Z</time>
      </trkpt>
      <trkpt lat="47.28252" lon="-2.24792">
        <ele>-7.5999999046326</ele>
        <time>2022-02-13T09:00:43.000Z</time>
      </trkpt>
      <trkpt lat="47.2826" lon="-2.24788">
        <ele>-8.3999996185303</ele>
        <time>2022-02-13T09:00:44.000Z</time>
      </trkpt>
      <trkpt lat="47.28267" lon="-2.24783">
        <ele>-8.3999996185303</ele>
        <time>2022-02-13T09:00:45.000Z</time>
      </trkpt>
      <trkpt lat="47.28282" lon="-2.24774">
        <ele>-8.8000001907349</ele>
        <time>2022-02-13T09:00:47.000Z</time>
      </trkpt>
      <trkpt lat="47.2829" lon="-2.24769">
        <ele>-9.1999998092651</ele>
        <time>2022-02-13T09:00:48.000Z</time>
      </trkpt>
      <trkpt lat="47.28298" lon="-2.24765">
        <ele>-9.6000003814697</ele>
        <time>2022-02-13T09:00:49.000Z</time>
      </trkpt>
      <trkpt lat="47.28306" lon="-2.2476">
        <ele>-10.199999809265</ele>
        <time>2022-02-13T09:00:50.000Z</time>
      </trkpt>
      <trkpt lat="47.28314" lon="-2.24757">
        <ele>-10.60000038147</ele>
        <time>2022-02-13T09:00:51.000Z</time>
      </trkpt>
      <trkpt lat="47.28329" lon="-2.24751">
        <ele>-10.60000038147</ele>
        <time>2022-02-13T09:00:53.000Z</time>
      </trkpt>
      <trkpt lat="47.28343" lon="-2.24746">
        <ele>-11</ele>
        <time>2022-02-13T09:00:55.000Z</time>
      </trkpt>
      <trkpt lat="47.28348" lon="-2.24743">
        <ele>-11.39999961853</ele>
        <time>2022-02-13T09:00:56.000Z</time>
      </trkpt>
      <trkpt lat="47.28351" lon="-2.24741">
        <ele>-11.800000190735</ele>
        <time>2022-02-13T09:00:57.000Z</time>
      </trkpt>
      <trkpt lat="47.28353" lon="-2.2474">
        <ele>-12.199999809265</ele>
        <time>2022-02-13T09:00:58.000Z</time>
      </trkpt>
      <trkpt lat="47.28355" lon="-2.2474">
        <ele>-12.60000038147</ele>
        <time>2022-02-13T09:00:59.000Z</time>
      </trkpt>
      <trkpt lat="47.28363" lon="-2.24748">
        <ele>-12.60000038147</ele>
        <time>2022-02-13T09:01:02.000Z</time>
      </trkpt>
      <trkpt lat="47.28364" lon="-2.24767">
        <ele>-13</ele>
        <time>2022-02-13T09:01:05.000Z</time>
      </trkpt>
      <trkpt lat="47.28368" lon="-2.24771">
        <ele>-13.39999961853</ele>
        <time>2022-02-13T09:01:06.000Z</time>
      </trkpt>
      <trkpt lat="47.28373" lon="-2.24772">
        <ele>-13.800000190735</ele>
        <time>2022-02-13T09:01:07.000Z</time>
      </trkpt>
      <trkpt lat="47.28378" lon="-2.24772">
        <ele>-14.39999961853</ele>
        <time>2022-02-13T09:01:08.000Z</time>
      </trkpt>
      <trkpt lat="47.28384" lon="-2.24773">
        <ele>-14.800000190735</ele>
        <time>2022-02-13T09:01:09.000Z</time>
      </trkpt>
      <trkpt lat="47.28389" lon="-2.24772">
        <ele>-14.800000190735</ele>
        <time>2022-02-13T09:01:10.000Z</time>
      </trkpt>
      <trkpt lat="47.28401" lon="-2.24763">
        <ele>-14.800000190735</ele>
        <time>2022-02-13T09:01:12.000Z</time>
      </trkpt>
      <trkpt lat="47.28418" lon="-2.24748">
        <ele>-14.800000190735</ele>
        <time>2022-02-13T09:01:15.000Z</time>
      </trkpt>
      <trkpt lat="47.28431" lon="-2.2474">
        <ele>-14.800000190735</ele>
        <time>2022-02-13T09:01:17.000Z</time>
      </trkpt>
      <trkpt lat="47.28468" lon="-2.24713">
        <ele>-14.800000190735</ele>
        <time>2022-02-13T09:01:23.000Z</time>
      </trkpt>
      <trkpt lat="47.28518" lon="-2.24677">
        <ele>-14.800000190735</ele>
        <time>2022-02-13T09:01:31.000Z</time>
      </trkpt>
      <trkpt lat="47.28534" lon="-2.24664">
        <ele>-15.199999809265</ele>
        <time>2022-02-13T09:01:34.000Z</time>
      </trkpt>
      <trkpt lat="47.2854" lon="-2.2466">
        <ele>-15.60000038147</ele>
        <time>2022-02-13T09:01:35.000Z</time>
      </trkpt>
      <trkpt lat="47.28544" lon="-2.24655">
        <ele>-16</ele>
        <time>2022-02-13T09:01:36.000Z</time>
      </trkpt>
      <trkpt lat="47.28549" lon="-2.24651">
        <ele>-16.39999961853</ele>
        <time>2022-02-13T09:01:37.000Z</time>
      </trkpt>
      <trkpt lat="47.28554" lon="-2.24647">
        <ele>-16.799999237061</ele>
        <time>2022-02-13T09:01:38.000Z</time>
      </trkpt>
      <trkpt lat="47.28586" lon="-2.24624">
        <ele>-16.799999237061</ele>
        <time>2022-02-13T09:01:45.000Z</time>
      </trkpt>
      <trkpt lat="47.28586" lon="-2.24621">
        <ele>-16.799999237061</ele>
        <time>2022-02-13T09:01:46.000Z</time>
      </trkpt>
      <trkpt lat="47.28588" lon="-2.24614">
        <ele>-16.799999237061</ele>
        <time>2022-02-13T09:01:48.000Z</time>
      </trkpt>
      <trkpt lat="47.28593" lon="-2.24606">
        <ele>-16.799999237061</ele>
        <time>2022-02-13T09:01:51.000Z</time>
      </trkpt>
      <trkpt lat="47.28601" lon="-2.24599">
        <ele>-16.799999237061</ele>
        <time>2022-02-13T09:01:54.000Z</time>
      </trkpt>
      <trkpt lat="47.28605" lon="-2.24583">
        <ele>-16.799999237061</ele>
        <time>2022-02-13T09:01:58.000Z</time>
      </trkpt>
      <trkpt lat="47.2861" lon="-2.24556">
        <ele>-16.799999237061</ele>
        <time>2022-02-13T09:02:03.000Z</time>
      </trkpt>
      <trkpt lat="47.28611" lon="-2.2455">
        <ele>-16.799999237061</ele>
        <time>2022-02-13T09:02:04.000Z</time>
      </trkpt>
      <trkpt lat="47.28621" lon="-2.24514">
        <ele>-16.799999237061</ele>
        <time>2022-02-13T09:02:09.000Z</time>
      </trkpt>
      <trkpt lat="47.28622" lon="-2.24506">
        <ele>-16.799999237061</ele>
        <time>2022-02-13T09:02:10.000Z</time>
      </trkpt>
      <trkpt lat="47.28629" lon="-2.24482">
        <ele>-16.799999237061</ele>
        <time>2022-02-13T09:02:13.000Z</time>
      </trkpt>
      <trkpt lat="47.28634" lon="-2.24465">
        <ele>-16.799999237061</ele>
        <time>2022-02-13T09:02:15.000Z</time>
      </trkpt>
      <trkpt lat="47.28649" lon="-2.24406">
        <ele>-16.799999237061</ele>
        <time>2022-02-13T09:02:22.000Z</time>
      </trkpt>
      <trkpt lat="47.28654" lon="-2.24382">
        <ele>-16.799999237061</ele>
        <time>2022-02-13T09:02:25.000Z</time>
      </trkpt>
      <trkpt lat="47.28662" lon="-2.24357">
        <ele>-16.799999237061</ele>
        <time>2022-02-13T09:02:28.000Z</time>
      </trkpt>
      <trkpt lat="47.28674" lon="-2.24311">
        <ele>-16.799999237061</ele>
        <time>2022-02-13T09:02:34.000Z</time>
      </trkpt>
      <trkpt lat="47.28684" lon="-2.24276">
        <ele>-16.799999237061</ele>
        <time>2022-02-13T09:02:39.000Z</time>
      </trkpt>
      <trkpt lat="47.28687" lon="-2.2427">
        <ele>-16.799999237061</ele>
        <time>2022-02-13T09:02:40.000Z</time>
      </trkpt>
      <trkpt lat="47.287" lon="-2.2426">
        <ele>-16.799999237061</ele>
        <time>2022-02-13T09:02:43.000Z</time>
      </trkpt>
      <trkpt lat="47.28711" lon="-2.2426">
        <ele>-16.799999237061</ele>
        <time>2022-02-13T09:02:45.000Z</time>
      </trkpt>
      <trkpt lat="47.28733" lon="-2.24262">
        <ele>-16.799999237061</ele>
        <time>2022-02-13T09:02:49.000Z</time>
      </trkpt>
      <trkpt lat="47.28768" lon="-2.2426">
        <ele>-16.799999237061</ele>
        <time>2022-02-13T09:02:55.000Z</time>
      </trkpt>
      <trkpt lat="47.28778" lon="-2.24256">
        <ele>-16.799999237061</ele>
        <time>2022-02-13T09:02:57.000Z</time>
      </trkpt>
      <trkpt lat="47.28782" lon="-2.24251">
        <ele>-16.799999237061</ele>
        <time>2022-02-13T09:02:58.000Z</time>
      </trkpt>
      <trkpt lat="47.28785" lon="-2.24231">
        <ele>-16.799999237061</ele>
        <time>2022-02-13T09:03:01.000Z</time>
      </trkpt>
      <trkpt lat="47.28786" lon="-2.24208">
        <ele>-16.799999237061</ele>
        <time>2022-02-13T09:03:04.000Z</time>
      </trkpt>
      <trkpt lat="47.28785" lon="-2.24192">
        <ele>-16.799999237061</ele>
        <time>2022-02-13T09:03:06.000Z</time>
      </trkpt>
      <trkpt lat="47.28784" lon="-2.2416">
        <ele>-16.799999237061</ele>
        <time>2022-02-13T09:03:10.000Z</time>
      </trkpt>
      <trkpt lat="47.28785" lon="-2.24145">
        <ele>-16.799999237061</ele>
        <time>2022-02-13T09:03:12.000Z</time>
      </trkpt>
      <trkpt lat="47.28786" lon="-2.24111">
        <ele>-16.799999237061</ele>
        <time>2022-02-13T09:03:16.000Z</time>
      </trkpt>
      <trkpt lat="47.28786" lon="-2.24102">
        <ele>-16.799999237061</ele>
        <time>2022-02-13T09:03:17.000Z</time>
      </trkpt>
      <trkpt lat="47.28789" lon="-2.24057">
        <ele>-16.799999237061</ele>
        <time>2022-02-13T09:03:22.000Z</time>
      </trkpt>
      <trkpt lat="47.2879" lon="-2.24032">
        <ele>-16.799999237061</ele>
        <time>2022-02-13T09:03:25.000Z</time>
      </trkpt>
      <trkpt lat="47.28793" lon="-2.24007">
        <ele>-16.799999237061</ele>
        <time>2022-02-13T09:03:28.000Z</time>
      </trkpt>
      <trkpt lat="47.28793" lon="-2.23998">
        <ele>-16.799999237061</ele>
        <time>2022-02-13T09:03:29.000Z</time>
      </trkpt>
      <trkpt lat="47.28794" lon="-2.23982">
        <ele>-16.799999237061</ele>
        <time>2022-02-13T09:03:31.000Z</time>
      </trkpt>
      <trkpt lat="47.28796" lon="-2.23967">
        <ele>-16.799999237061</ele>
        <time>2022-02-13T09:03:33.000Z</time>
      </trkpt>
      <trkpt lat="47.28798" lon="-2.23943">
        <ele>-16.799999237061</ele>
        <time>2022-02-13T09:03:36.000Z</time>
      </trkpt>
      <trkpt lat="47.288" lon="-2.23926">
        <ele>-16.799999237061</ele>
        <time>2022-02-13T09:03:38.000Z</time>
      </trkpt>
      <trkpt lat="47.28804" lon="-2.23878">
        <ele>-16.799999237061</ele>
        <time>2022-02-13T09:03:44.000Z</time>
      </trkpt>
      <trkpt lat="47.28804" lon="-2.23852">
        <ele>-16.799999237061</ele>
        <time>2022-02-13T09:03:47.000Z</time>
      </trkpt>
      <trkpt lat="47.28803" lon="-2.23844">
        <ele>-16.799999237061</ele>
        <time>2022-02-13T09:03:48.000Z</time>
      </trkpt>
      <trkpt lat="47.28792" lon="-2.23823">
        <ele>-16.799999237061</ele>
        <time>2022-02-13T09:03:51.000Z</time>
      </trkpt>
      <trkpt lat="47.28788" lon="-2.23816">
        <ele>-16.799999237061</ele>
        <time>2022-02-13T09:03:52.000Z</time>
      </trkpt>
      <trkpt lat="47.28766" lon="-2.23776">
        <ele>-16.799999237061</ele>
        <time>2022-02-13T09:03:58.000Z</time>
      </trkpt>
      <trkpt lat="47.28742" lon="-2.23732">
        <ele>-16.799999237061</ele>
        <time>2022-02-13T09:04:05.000Z</time>
      </trkpt>
      <trkpt lat="47.28722" lon="-2.23695">
        <ele>-16.799999237061</ele>
        <time>2022-02-13T09:04:11.000Z</time>
      </trkpt>
      <trkpt lat="47.28709" lon="-2.2367">
        <ele>-16.799999237061</ele>
        <time>2022-02-13T09:04:15.000Z</time>
      </trkpt>
      <trkpt lat="47.28698" lon="-2.23653">
        <ele>-16.799999237061</ele>
        <time>2022-02-13T09:04:18.000Z</time>
      </trkpt>
      <trkpt lat="47.28682" lon="-2.23623">
        <ele>-16.799999237061</ele>
        <time>2022-02-13T09:04:23.000Z</time>
      </trkpt>
      <trkpt lat="47.28678" lon="-2.23616">
        <ele>-16.799999237061</ele>
        <time>2022-02-13T09:04:24.000Z</time>
      </trkpt>
      <trkpt lat="47.28659" lon="-2.23587">
        <ele>-16.799999237061</ele>
        <time>2022-02-13T09:04:29.000Z</time>
      </trkpt>
      <trkpt lat="47.28655" lon="-2.23583">
        <ele>-16.799999237061</ele>
        <time>2022-02-13T09:04:30.000Z</time>
      </trkpt>
      <trkpt lat="47.2864" lon="-2.2357">
        <ele>-16.799999237061</ele>
        <time>2022-02-13T09:04:34.000Z</time>
      </trkpt>
      <trkpt lat="47.2864" lon="-2.23563">
        <ele>-17.200000762939</ele>
        <time>2022-02-13T09:04:36.000Z</time>
      </trkpt>
      <trkpt lat="47.28643" lon="-2.23561">
        <ele>-17.60000038147</ele>
        <time>2022-02-13T09:04:37.000Z</time>
      </trkpt>
      <trkpt lat="47.28646" lon="-2.23559">
        <ele>-18.200000762939</ele>
        <time>2022-02-13T09:04:38.000Z</time>
      </trkpt>
      <trkpt lat="47.28649" lon="-2.23555">
        <ele>-18.60000038147</ele>
        <time>2022-02-13T09:04:39.000Z</time>
      </trkpt>
      <trkpt lat="47.28651" lon="-2.2355">
        <ele>-19</ele>
        <time>2022-02-13T09:04:40.000Z</time>
      </trkpt>
      <trkpt lat="47.28652" lon="-2.23545">
        <ele>-19</ele>
        <time>2022-02-13T09:04:41.000Z</time>
      </trkpt>
      <trkpt lat="47.28651" lon="-2.23521">
        <ele>-19</ele>
        <time>2022-02-13T09:04:45.000Z</time>
      </trkpt>
      <trkpt lat="47.28652" lon="-2.23515">
        <ele>-19</ele>
        <time>2022-02-13T09:04:46.000Z</time>
      </trkpt>
      <trkpt lat="47.28652" lon="-2.23503">
        <ele>-18.60000038147</ele>
        <time>2022-02-13T09:04:48.000Z</time>
      </trkpt>
      <trkpt lat="47.28652" lon="-2.23497">
        <ele>-18.200000762939</ele>
        <time>2022-02-13T09:04:49.000Z</time>
      </trkpt>
      <trkpt lat="47.28652" lon="-2.2349">
        <ele>-17.799999237061</ele>
        <time>2022-02-13T09:04:50.000Z</time>
      </trkpt>
      <trkpt lat="47.28652" lon="-2.23483">
        <ele>-17.39999961853</ele>
        <time>2022-02-13T09:04:51.000Z</time>
      </trkpt>
      <trkpt lat="47.28653" lon="-2.23476">
        <ele>-17</ele>
        <time>2022-02-13T09:04:52.000Z</time>
      </trkpt>
      <trkpt lat="47.28653" lon="-2.23462">
        <ele>-17</ele>
        <time>2022-02-13T09:04:54.000Z</time>
      </trkpt>
      <trkpt lat="47.28653" lon="-2.23448">
        <ele>-17</ele>
        <time>2022-02-13T09:04:56.000Z</time>
      </trkpt>
      <trkpt lat="47.28649" lon="-2.2343">
        <ele>-17</ele>
        <time>2022-02-13T09:04:59.000Z</time>
      </trkpt>
      <trkpt lat="47.28646" lon="-2.23423">
        <ele>-17</ele>
        <time>2022-02-13T09:05:00.000Z</time>
      </trkpt>
      <trkpt lat="47.28644" lon="-2.23414">
        <ele>-17</ele>
        <time>2022-02-13T09:05:01.000Z</time>
      </trkpt>
      <trkpt lat="47.28642" lon="-2.23397">
        <ele>-17</ele>
        <time>2022-02-13T09:05:03.000Z</time>
      </trkpt>
      <trkpt lat="47.28643" lon="-2.23382">
        <ele>-17</ele>
        <time>2022-02-13T09:05:05.000Z</time>
      </trkpt>
      <trkpt lat="47.28644" lon="-2.23375">
        <ele>-17</ele>
        <time>2022-02-13T09:05:06.000Z</time>
      </trkpt>
      <trkpt lat="47.28646" lon="-2.2337">
        <ele>-17</ele>
        <time>2022-02-13T09:05:07.000Z</time>
      </trkpt>
      <trkpt lat="47.2865" lon="-2.23365">
        <ele>-17.799999237061</ele>
        <time>2022-02-13T09:05:08.000Z</time>
      </trkpt>
      <trkpt lat="47.28653" lon="-2.23364">
        <ele>-18.200000762939</ele>
        <time>2022-02-13T09:05:09.000Z</time>
      </trkpt>
      <trkpt lat="47.28657" lon="-2.23365">
        <ele>-18.60000038147</ele>
        <time>2022-02-13T09:05:10.000Z</time>
      </trkpt>
      <trkpt lat="47.2866" lon="-2.23366">
        <ele>-19</ele>
        <time>2022-02-13T09:05:11.000Z</time>
      </trkpt>
      <trkpt lat="47.28665" lon="-2.23362">
        <ele>-18.60000038147</ele>
        <time>2022-02-13T09:05:14.000Z</time>
      </trkpt>
      <trkpt lat="47.28665" lon="-2.23358">
        <ele>-18.200000762939</ele>
        <time>2022-02-13T09:05:15.000Z</time>
      </trkpt>
      <trkpt lat="47.28665" lon="-2.23352">
        <ele>-17.799999237061</ele>
        <time>2022-02-13T09:05:16.000Z</time>
      </trkpt>
      <trkpt lat="47.28665" lon="-2.23347">
        <ele>-17.39999961853</ele>
        <time>2022-02-13T09:05:17.000Z</time>
      </trkpt>
      <trkpt lat="47.28666" lon="-2.23341">
        <ele>-16.799999237061</ele>
        <time>2022-02-13T09:05:18.000Z</time>
      </trkpt>
      <trkpt lat="47.28667" lon="-2.23319">
        <ele>-16.799999237061</ele>
        <time>2022-02-13T09:05:22.000Z</time>
      </trkpt>
      <trkpt lat="47.28669" lon="-2.23286">
        <ele>-16.799999237061</ele>
        <time>2022-02-13T09:05:28.000Z</time>
      </trkpt>
      <trkpt lat="47.28675" lon="-2.23268">
        <ele>-16.799999237061</ele>
        <time>2022-02-13T09:05:32.000Z</time>
      </trkpt>
      <trkpt lat="47.2868" lon="-2.23256">
        <ele>-16.799999237061</ele>
        <time>2022-02-13T09:05:35.000Z</time>
      </trkpt>
      <trkpt lat="47.28683" lon="-2.23253">
        <ele>-16.799999237061</ele>
        <time>2022-02-13T09:05:36.000Z</time>
      </trkpt>
      <trkpt lat="47.28685" lon="-2.23251">
        <ele>-16.39999961853</ele>
        <time>2022-02-13T09:05:37.000Z</time>
      </trkpt>
      <trkpt lat="47.28686" lon="-2.23249">
        <ele>-16</ele>
        <time>2022-02-13T09:05:38.000Z</time>
      </trkpt>
      <trkpt lat="47.28685" lon="-2.23247">
        <ele>-15.60000038147</ele>
        <time>2022-02-13T09:05:39.000Z</time>
      </trkpt>
      <trkpt lat="47.28685" lon="-2.23244">
        <ele>-15.199999809265</ele>
        <time>2022-02-13T09:05:40.000Z</time>
      </trkpt>
      <trkpt lat="47.28685" lon="-2.23241">
        <ele>-14.800000190735</ele>
        <time>2022-02-13T09:05:41.000Z</time>
      </trkpt>
      <trkpt lat="47.28685" lon="-2.23238">
        <ele>-14.800000190735</ele>
        <time>2022-02-13T09:05:42.000Z</time>
      </trkpt>
      <trkpt lat="47.28682" lon="-2.23227">
        <ele>-14.800000190735</ele>
        <time>2022-02-13T09:05:44.000Z</time>
      </trkpt>
      <trkpt lat="47.28678" lon="-2.23212">
        <ele>-15.199999809265</ele>
        <time>2022-02-13T09:05:46.000Z</time>
      </trkpt>
      <trkpt lat="47.28675" lon="-2.23205">
        <ele>-15.800000190735</ele>
        <time>2022-02-13T09:05:47.000Z</time>
      </trkpt>
      <trkpt lat="47.28671" lon="-2.23198">
        <ele>-16.200000762939</ele>
        <time>2022-02-13T09:05:48.000Z</time>
      </trkpt>
      <trkpt lat="47.28665" lon="-2.23193">
        <ele>-16.799999237061</ele>
        <time>2022-02-13T09:05:49.000Z</time>
      </trkpt>
      <trkpt lat="47.28659" lon="-2.23189">
        <ele>-17.200000762939</ele>
        <time>2022-02-13T09:05:50.000Z</time>
      </trkpt>
      <trkpt lat="47.28647" lon="-2.23186">
        <ele>-17.60000038147</ele>
        <time>2022-02-13T09:05:52.000Z</time>
      </trkpt>
      <trkpt lat="47.28641" lon="-2.23187">
        <ele>-18</ele>
        <time>2022-02-13T09:05:53.000Z</time>
      </trkpt>
      <trkpt lat="47.28636" lon="-2.23188">
        <ele>-18.39999961853</ele>
        <time>2022-02-13T09:05:54.000Z</time>
      </trkpt>
      <trkpt lat="47.28631" lon="-2.23191">
        <ele>-18.799999237061</ele>
        <time>2022-02-13T09:05:55.000Z</time>
      </trkpt>
      <trkpt lat="47.28626" lon="-2.23193">
        <ele>-19.200000762939</ele>
        <time>2022-02-13T09:05:56.000Z</time>
      </trkpt>
      <trkpt lat="47.28611" lon="-2.23203">
        <ele>-19.200000762939</ele>
        <time>2022-02-13T09:05:59.000Z</time>
      </trkpt>
      <trkpt lat="47.28603" lon="-2.23211">
        <ele>-19.200000762939</ele>
        <time>2022-02-13T09:06:01.000Z</time>
      </trkpt>
      <trkpt lat="47.28599" lon="-2.23215">
        <ele>-19.200000762939</ele>
        <time>2022-02-13T09:06:02.000Z</time>
      </trkpt>
      <trkpt lat="47.28593" lon="-2.23234">
        <ele>-19.200000762939</ele>
        <time>2022-02-13T09:06:05.000Z</time>
      </trkpt>
      <trkpt lat="47.28591" lon="-2.23242">
        <ele>-19.200000762939</ele>
        <time>2022-02-13T09:06:06.000Z</time>
      </trkpt>
      <trkpt lat="47.28589" lon="-2.23258">
        <ele>-19.200000762939</ele>
        <time>2022-02-13T09:06:08.000Z</time>
      </trkpt>
      <trkpt lat="47.28589" lon="-2.23272">
        <ele>-19.200000762939</ele>
        <time>2022-02-13T09:06:10.000Z</time>
      </trkpt>
      <trkpt lat="47.28594" lon="-2.23294">
        <ele>-19.200000762939</ele>
        <time>2022-02-13T09:06:13.000Z</time>
      </trkpt>
      <trkpt lat="47.28604" lon="-2.23304">
        <ele>-19.200000762939</ele>
        <time>2022-02-13T09:06:16.000Z</time>
      </trkpt>
      <trkpt lat="47.28614" lon="-2.23306">
        <ele>-19.200000762939</ele>
        <time>2022-02-13T09:06:18.000Z</time>
      </trkpt>
      <trkpt lat="47.28619" lon="-2.23306">
        <ele>-19.200000762939</ele>
        <time>2022-02-13T09:06:19.000Z</time>
      </trkpt>
      <trkpt lat="47.28625" lon="-2.23305">
        <ele>-19.200000762939</ele>
        <time>2022-02-13T09:06:20.000Z</time>
      </trkpt>
      <trkpt lat="47.28642" lon="-2.23302">
        <ele>-19.200000762939</ele>
        <time>2022-02-13T09:06:24.000Z</time>
      </trkpt>
      <trkpt lat="47.28651" lon="-2.2331">
        <ele>-19.200000762939</ele>
        <time>2022-02-13T09:06:27.000Z</time>
      </trkpt>
      <trkpt lat="47.28653" lon="-2.23334">
        <ele>-19.200000762939</ele>
        <time>2022-02-13T09:06:31.000Z</time>
      </trkpt>
      <trkpt lat="47.28652" lon="-2.23349">
        <ele>-19.200000762939</ele>
        <time>2022-02-13T09:06:33.000Z</time>
      </trkpt>
      <trkpt lat="47.2865" lon="-2.23365">
        <ele>-19.200000762939</ele>
        <time>2022-02-13T09:06:35.000Z</time>
      </trkpt>
      <trkpt lat="47.28648" lon="-2.2338">
        <ele>-19.200000762939</ele>
        <time>2022-02-13T09:06:37.000Z</time>
      </trkpt>
      <trkpt lat="47.28646" lon="-2.23412">
        <ele>-19.200000762939</ele>
        <time>2022-02-13T09:06:41.000Z</time>
      </trkpt>
      <trkpt lat="47.28647" lon="-2.23419">
        <ele>-19.200000762939</ele>
        <time>2022-02-13T09:06:42.000Z</time>
      </trkpt>
      <trkpt lat="47.28655" lon="-2.23447">
        <ele>-18.799999237061</ele>
        <time>2022-02-13T09:06:47.000Z</time>
      </trkpt>
      <trkpt lat="47.28657" lon="-2.23452">
        <ele>-18.39999961853</ele>
        <time>2022-02-13T09:06:48.000Z</time>
      </trkpt>
      <trkpt lat="47.28658" lon="-2.23457">
        <ele>-18</ele>
        <time>2022-02-13T09:06:49.000Z</time>
      </trkpt>
      <trkpt lat="47.28659" lon="-2.23463">
        <ele>-17.60000038147</ele>
        <time>2022-02-13T09:06:50.000Z</time>
      </trkpt>
      <trkpt lat="47.28659" lon="-2.23469">
        <ele>-17.200000762939</ele>
        <time>2022-02-13T09:06:51.000Z</time>
      </trkpt>
      <trkpt lat="47.28655" lon="-2.2352">
        <ele>-17.200000762939</ele>
        <time>2022-02-13T09:06:58.000Z</time>
      </trkpt>
      <trkpt lat="47.28654" lon="-2.23527">
        <ele>-17.200000762939</ele>
        <time>2022-02-13T09:06:59.000Z</time>
      </trkpt>
      <trkpt lat="47.28656" lon="-2.23554">
        <ele>-17.200000762939</ele>
        <time>2022-02-13T09:07:03.000Z</time>
      </trkpt>
      <trkpt lat="47.28661" lon="-2.23561">
        <ele>-17.60000038147</ele>
        <time>2022-02-13T09:07:05.000Z</time>
      </trkpt>
      <trkpt lat="47.28665" lon="-2.23563">
        <ele>-18</ele>
        <time>2022-02-13T09:07:06.000Z</time>
      </trkpt>
      <trkpt lat="47.28669" lon="-2.23566">
        <ele>-18.60000038147</ele>
        <time>2022-02-13T09:07:07.000Z</time>
      </trkpt>
      <trkpt lat="47.28673" lon="-2.23569">
        <ele>-19</ele>
        <time>2022-02-13T09:07:08.000Z</time>
      </trkpt>
      <trkpt lat="47.28677" lon="-2.23573">
        <ele>-19.39999961853</ele>
        <time>2022-02-13T09:07:09.000Z</time>
      </trkpt>
      <trkpt lat="47.28688" lon="-2.23586">
        <ele>-19.39999961853</ele>
        <time>2022-02-13T09:07:12.000Z</time>
      </trkpt>
      <trkpt lat="47.28692" lon="-2.2359">
        <ele>-19.39999961853</ele>
        <time>2022-02-13T09:07:13.000Z</time>
      </trkpt>
      <trkpt lat="47.28701" lon="-2.23592">
        <ele>-19.39999961853</ele>
        <time>2022-02-13T09:07:15.000Z</time>
      </trkpt>
      <trkpt lat="47.28714" lon="-2.23585">
        <ele>-19.39999961853</ele>
        <time>2022-02-13T09:07:18.000Z</time>
      </trkpt>
      <trkpt lat="47.28721" lon="-2.23577">
        <ele>-19.39999961853</ele>
        <time>2022-02-13T09:07:20.000Z</time>
      </trkpt>
      <trkpt lat="47.28725" lon="-2.23567">
        <ele>-19.39999961853</ele>
        <time>2022-02-13T09:07:22.000Z</time>
      </trkpt>
      <trkpt lat="47.2873" lon="-2.23559">
        <ele>-19.39999961853</ele>
        <time>2022-02-13T09:07:24.000Z</time>
      </trkpt>
      <trkpt lat="47.28749" lon="-2.23532">
        <ele>-19.39999961853</ele>
        <time>2022-02-13T09:07:31.000Z</time>
      </trkpt>
      <trkpt lat="47.28752" lon="-2.2353">
        <ele>-19</ele>
        <time>2022-02-13T09:07:32.000Z</time>
      </trkpt>
      <trkpt lat="47.28755" lon="-2.23528">
        <ele>-18.60000038147</ele>
        <time>2022-02-13T09:07:33.000Z</time>
      </trkpt>
      <trkpt lat="47.28759" lon="-2.23527">
        <ele>-18</ele>
        <time>2022-02-13T09:07:34.000Z</time>
      </trkpt>
      <trkpt lat="47.28762" lon="-2.23525">
        <ele>-17.60000038147</ele>
        <time>2022-02-13T09:07:35.000Z</time>
      </trkpt>
      <trkpt lat="47.28765" lon="-2.23523">
        <ele>-17.200000762939</ele>
        <time>2022-02-13T09:07:36.000Z</time>
      </trkpt>
      <trkpt lat="47.28769" lon="-2.23521">
        <ele>-17.200000762939</ele>
        <time>2022-02-13T09:07:37.000Z</time>
      </trkpt>
      <trkpt lat="47.28775" lon="-2.23518">
        <ele>-16.60000038147</ele>
        <time>2022-02-13T09:07:39.000Z</time>
      </trkpt>
      <trkpt lat="47.28779" lon="-2.23516">
        <ele>-16.200000762939</ele>
        <time>2022-02-13T09:07:40.000Z</time>
      </trkpt>
      <trkpt lat="47.28783" lon="-2.23515">
        <ele>-15.800000190735</ele>
        <time>2022-02-13T09:07:41.000Z</time>
      </trkpt>
      <trkpt lat="47.28786" lon="-2.23514">
        <ele>-15.39999961853</ele>
        <time>2022-02-13T09:07:42.000Z</time>
      </trkpt>
      <trkpt lat="47.28789" lon="-2.23512">
        <ele>-15</ele>
        <time>2022-02-13T09:07:43.000Z</time>
      </trkpt>
      <trkpt lat="47.28793" lon="-2.23512">
        <ele>-15</ele>
        <time>2022-02-13T09:07:44.000Z</time>
      </trkpt>
      <trkpt lat="47.28804" lon="-2.2351">
        <ele>-15</ele>
        <time>2022-02-13T09:07:47.000Z</time>
      </trkpt>
      <trkpt lat="47.28828" lon="-2.23509">
        <ele>-15</ele>
        <time>2022-02-13T09:07:53.000Z</time>
      </trkpt>
      <trkpt lat="47.28832" lon="-2.23509">
        <ele>-14.60000038147</ele>
        <time>2022-02-13T09:07:54.000Z</time>
      </trkpt>
      <trkpt lat="47.28836" lon="-2.2351">
        <ele>-14.199999809265</ele>
        <time>2022-02-13T09:07:55.000Z</time>
      </trkpt>
      <trkpt lat="47.28841" lon="-2.2351">
        <ele>-13.800000190735</ele>
        <time>2022-02-13T09:07:56.000Z</time>
      </trkpt>
      <trkpt lat="47.28845" lon="-2.23509">
        <ele>-13.39999961853</ele>
        <time>2022-02-13T09:07:57.000Z</time>
      </trkpt>
      <trkpt lat="47.28849" lon="-2.23509">
        <ele>-13</ele>
        <time>2022-02-13T09:07:58.000Z</time>
      </trkpt>
      <trkpt lat="47.28878" lon="-2.23503">
        <ele>-12.60000038147</ele>
        <time>2022-02-13T09:08:05.000Z</time>
      </trkpt>
      <trkpt lat="47.28882" lon="-2.23505">
        <ele>-12.199999809265</ele>
        <time>2022-02-13T09:08:06.000Z</time>
      </trkpt>
      <trkpt lat="47.28886" lon="-2.23505">
        <ele>-11.800000190735</ele>
        <time>2022-02-13T09:08:07.000Z</time>
      </trkpt>
      <trkpt lat="47.2889" lon="-2.23506">
        <ele>-11.39999961853</ele>
        <time>2022-02-13T09:08:08.000Z</time>
      </trkpt>
      <trkpt lat="47.28894" lon="-2.23506">
        <ele>-11</ele>
        <time>2022-02-13T09:08:09.000Z</time>
      </trkpt>
      <trkpt lat="47.28902" lon="-2.23505">
        <ele>-11</ele>
        <time>2022-02-13T09:08:11.000Z</time>
      </trkpt>
      <trkpt lat="47.28928" lon="-2.23496">
        <ele>-11</ele>
        <time>2022-02-13T09:08:18.000Z</time>
      </trkpt>
      <trkpt lat="47.2895" lon="-2.2349">
        <ele>-11</ele>
        <time>2022-02-13T09:08:24.000Z</time>
      </trkpt>
      <trkpt lat="47.28958" lon="-2.23486">
        <ele>-11</ele>
        <time>2022-02-13T09:08:27.000Z</time>
      </trkpt>
      <trkpt lat="47.28959" lon="-2.2348">
        <ele>-11</ele>
        <time>2022-02-13T09:08:28.000Z</time>
      </trkpt>
      <trkpt lat="47.28963" lon="-2.2344">
        <ele>-11</ele>
        <time>2022-02-13T09:08:34.000Z</time>
      </trkpt>
      <trkpt lat="47.28966" lon="-2.23405">
        <ele>-11</ele>
        <time>2022-02-13T09:08:39.000Z</time>
      </trkpt>
      <trkpt lat="47.28968" lon="-2.23392">
        <ele>-11</ele>
        <time>2022-02-13T09:08:41.000Z</time>
      </trkpt>
      <trkpt lat="47.28972" lon="-2.23341">
        <ele>-11</ele>
        <time>2022-02-13T09:08:47.000Z</time>
      </trkpt>
      <trkpt lat="47.28977" lon="-2.2328">
        <ele>-11</ele>
        <time>2022-02-13T09:08:53.000Z</time>
      </trkpt>
      <trkpt lat="47.28982" lon="-2.23224">
        <ele>-11.39999961853</ele>
        <time>2022-02-13T09:08:58.000Z</time>
      </trkpt>
      <trkpt lat="47.28983" lon="-2.23212">
        <ele>-11.800000190735</ele>
        <time>2022-02-13T09:08:59.000Z</time>
      </trkpt>
      <trkpt lat="47.28985" lon="-2.232">
        <ele>-12.199999809265</ele>
        <time>2022-02-13T09:09:00.000Z</time>
      </trkpt>
      <trkpt lat="47.28986" lon="-2.23188">
        <ele>-12.60000038147</ele>
        <time>2022-02-13T09:09:01.000Z</time>
      </trkpt>
      <trkpt lat="47.28987" lon="-2.23176">
        <ele>-13</ele>
        <time>2022-02-13T09:09:02.000Z</time>
      </trkpt>
      <trkpt lat="47.28993" lon="-2.2313">
        <ele>-13.39999961853</ele>
        <time>2022-02-13T09:09:06.000Z</time>
      </trkpt>
      <trkpt lat="47.28995" lon="-2.23119">
        <ele>-14</ele>
        <time>2022-02-13T09:09:07.000Z</time>
      </trkpt>
      <trkpt lat="47.28997" lon="-2.23106">
        <ele>-14.39999961853</ele>
        <time>2022-02-13T09:09:08.000Z</time>
      </trkpt>
      <trkpt lat="47.28998" lon="-2.23095">
        <ele>-14.800000190735</ele>
        <time>2022-02-13T09:09:09.000Z</time>
      </trkpt>
      <trkpt lat="47.29" lon="-2.23083">
        <ele>-15.199999809265</ele>
        <time>2022-02-13T09:09:10.000Z</time>
      </trkpt>
      <trkpt lat="47.29004" lon="-2.23061">
        <ele>-15.800000190735</ele>
        <time>2022-02-13T09:09:12.000Z</time>
      </trkpt>
      <trkpt lat="47.29007" lon="-2.2305">
        <ele>-16.200000762939</ele>
        <time>2022-02-13T09:09:13.000Z</time>
      </trkpt>
      <trkpt lat="47.29011" lon="-2.2304">
        <ele>-16.60000038147</ele>
        <time>2022-02-13T09:09:14.000Z</time>
      </trkpt>
      <trkpt lat="47.29014" lon="-2.23029">
        <ele>-17</ele>
        <time>2022-02-13T09:09:15.000Z</time>
      </trkpt>
      <trkpt lat="47.29017" lon="-2.23019">
        <ele>-17.60000038147</ele>
        <time>2022-02-13T09:09:16.000Z</time>
      </trkpt>
      <trkpt lat="47.29019" lon="-2.23009">
        <ele>-18</ele>
        <time>2022-02-13T09:09:17.000Z</time>
      </trkpt>
      <trkpt lat="47.29021" lon="-2.23002">
        <ele>-18.39999961853</ele>
        <time>2022-02-13T09:09:18.000Z</time>
      </trkpt>
      <trkpt lat="47.29024" lon="-2.22995">
        <ele>-18.799999237061</ele>
        <time>2022-02-13T09:09:19.000Z</time>
      </trkpt>
      <trkpt lat="47.29026" lon="-2.22988">
        <ele>-19.39999961853</ele>
        <time>2022-02-13T09:09:20.000Z</time>
      </trkpt>
      <trkpt lat="47.29028" lon="-2.22981">
        <ele>-19.799999237061</ele>
        <time>2022-02-13T09:09:21.000Z</time>
      </trkpt>
      <trkpt lat="47.29029" lon="-2.22975">
        <ele>-19.799999237061</ele>
        <time>2022-02-13T09:09:22.000Z</time>
      </trkpt>
      <trkpt lat="47.29038" lon="-2.22972">
        <ele>-19.799999237061</ele>
        <time>2022-02-13T09:09:24.000Z</time>
      </trkpt>
      <trkpt lat="47.29047" lon="-2.22988">
        <ele>-19.799999237061</ele>
        <time>2022-02-13T09:09:27.000Z</time>
      </trkpt>
      <trkpt lat="47.29059" lon="-2.23005">
        <ele>-19.799999237061</ele>
        <time>2022-02-13T09:09:30.000Z</time>
      </trkpt>
      <trkpt lat="47.29069" lon="-2.23016">
        <ele>-19.799999237061</ele>
        <time>2022-02-13T09:09:32.000Z</time>
      </trkpt>
      <trkpt lat="47.29083" lon="-2.23034">
        <ele>-19.799999237061</ele>
        <time>2022-02-13T09:09:35.000Z</time>
      </trkpt>
      <trkpt lat="47.29122" lon="-2.23084">
        <ele>-19.799999237061</ele>
        <time>2022-02-13T09:09:43.000Z</time>
      </trkpt>
      <trkpt lat="47.29159" lon="-2.23132">
        <ele>-19.799999237061</ele>
        <time>2022-02-13T09:09:51.000Z</time>
      </trkpt>
      <trkpt lat="47.29163" lon="-2.23137">
        <ele>-19.799999237061</ele>
        <time>2022-02-13T09:09:52.000Z</time>
      </trkpt>
      <trkpt lat="47.29182" lon="-2.2316">
        <ele>-19.799999237061</ele>
        <time>2022-02-13T09:09:57.000Z</time>
      </trkpt>
      <trkpt lat="47.29185" lon="-2.23165">
        <ele>-19.799999237061</ele>
        <time>2022-02-13T09:09:58.000Z</time>
      </trkpt>
      <trkpt lat="47.2919" lon="-2.23176">
        <ele>-19.799999237061</ele>
        <time>2022-02-13T09:10:00.000Z</time>
      </trkpt>
      <trkpt lat="47.29196" lon="-2.23185">
        <ele>-19.799999237061</ele>
        <time>2022-02-13T09:10:02.000Z</time>
      </trkpt>
      <trkpt lat="47.29199" lon="-2.2319">
        <ele>-19.799999237061</ele>
        <time>2022-02-13T09:10:03.000Z</time>
      </trkpt>
      <trkpt lat="47.29202" lon="-2.23199">
        <ele>-19.799999237061</ele>
        <time>2022-02-13T09:10:05.000Z</time>
      </trkpt>
      <trkpt lat="47.29203" lon="-2.23211">
        <ele>-19.799999237061</ele>
        <time>2022-02-13T09:10:09.000Z</time>
      </trkpt>
      <trkpt lat="47.29204" lon="-2.23214">
        <ele>-19.799999237061</ele>
        <time>2022-02-13T09:10:11.000Z</time>
      </trkpt>
      <trkpt lat="47.29208" lon="-2.23222">
        <ele>-19.799999237061</ele>
        <time>2022-02-13T09:10:15.000Z</time>
      </trkpt>
      <trkpt lat="47.2921" lon="-2.23226">
        <ele>-19.799999237061</ele>
        <time>2022-02-13T09:10:17.000Z</time>
      </trkpt>
      <trkpt lat="47.29218" lon="-2.23237">
        <ele>-19.799999237061</ele>
        <time>2022-02-13T09:10:23.000Z</time>
      </trkpt>
      <trkpt lat="47.29227" lon="-2.2325">
        <ele>-19.799999237061</ele>
        <time>2022-02-13T09:10:30.000Z</time>
      </trkpt>
      <trkpt lat="47.29235" lon="-2.23262">
        <ele>-19.799999237061</ele>
        <time>2022-02-13T09:10:37.000Z</time>
      </trkpt>
      <trkpt lat="47.29245" lon="-2.23274">
        <ele>-19.799999237061</ele>
        <time>2022-02-13T09:10:44.000Z</time>
      </trkpt>
      <trkpt lat="47.29254" lon="-2.2329">
        <ele>-19.799999237061</ele>
        <time>2022-02-13T09:10:51.000Z</time>
      </trkpt>
      <trkpt lat="47.29263" lon="-2.23313">
        <ele>-19.799999237061</ele>
        <time>2022-02-13T09:10:59.000Z</time>
      </trkpt>
      <trkpt lat="47.2927" lon="-2.23341">
        <ele>-19.799999237061</ele>
        <time>2022-02-13T09:11:06.000Z</time>
      </trkpt>
      <trkpt lat="47.29277" lon="-2.23369">
        <ele>-19.799999237061</ele>
        <time>2022-02-13T09:11:13.000Z</time>
      </trkpt>
      <trkpt lat="47.29282" lon="-2.23393">
        <ele>-19.799999237061</ele>
        <time>2022-02-13T09:11:19.000Z</time>
      </trkpt>
      <trkpt lat="47.29288" lon="-2.23424">
        <ele>-19.799999237061</ele>
        <time>2022-02-13T09:11:26.000Z</time>
      </trkpt>
      <trkpt lat="47.29295" lon="-2.23452">
        <ele>-19.799999237061</ele>
        <time>2022-02-13T09:11:32.000Z</time>
      </trkpt>
      <trkpt lat="47.29302" lon="-2.23487">
        <ele>-19.799999237061</ele>
        <time>2022-02-13T09:11:40.000Z</time>
      </trkpt>
      <trkpt lat="47.29308" lon="-2.23524">
        <ele>-19.799999237061</ele>
        <time>2022-02-13T09:11:48.000Z</time>
      </trkpt>
      <trkpt lat="47.29314" lon="-2.2356">
        <ele>-19.799999237061</ele>
        <time>2022-02-13T09:11:55.000Z</time>
      </trkpt>
      <trkpt lat="47.29317" lon="-2.23607">
        <ele>-19.799999237061</ele>
        <time>2022-02-13T09:12:04.000Z</time>
      </trkpt>
      <trkpt lat="47.29317" lon="-2.23644">
        <ele>-19.799999237061</ele>
        <time>2022-02-13T09:12:12.000Z</time>
      </trkpt>
      <trkpt lat="47.29316" lon="-2.23678">
        <ele>-19.799999237061</ele>
        <time>2022-02-13T09:12:19.000Z</time>
      </trkpt>
      <trkpt lat="47.29317" lon="-2.23715">
        <ele>-19.799999237061</ele>
        <time>2022-02-13T09:12:26.000Z</time>
      </trkpt>
      <trkpt lat="47.29316" lon="-2.23751">
        <ele>-19.799999237061</ele>
        <time>2022-02-13T09:12:32.000Z</time>
      </trkpt>
      <trkpt lat="47.29318" lon="-2.23775">
        <ele>-19.799999237061</ele>
        <time>2022-02-13T09:12:37.000Z</time>
      </trkpt>
      <trkpt lat="47.29327" lon="-2.23777">
        <ele>-19.799999237061</ele>
        <time>2022-02-13T09:12:40.000Z</time>
      </trkpt>
      <trkpt lat="47.29344" lon="-2.23783">
        <ele>-19.799999237061</ele>
        <time>2022-02-13T09:12:44.000Z</time>
      </trkpt>
      <trkpt lat="47.29348" lon="-2.23786">
        <ele>-19.799999237061</ele>
        <time>2022-02-13T09:12:45.000Z</time>
      </trkpt>
      <trkpt lat="47.29357" lon="-2.23791">
        <ele>-19.799999237061</ele>
        <time>2022-02-13T09:12:47.000Z</time>
      </trkpt>
      <trkpt lat="47.29365" lon="-2.23787">
        <ele>-19.799999237061</ele>
        <time>2022-02-13T09:12:49.000Z</time>
      </trkpt>
      <trkpt lat="47.29371" lon="-2.23768">
        <ele>-19.799999237061</ele>
        <time>2022-02-13T09:12:52.000Z</time>
      </trkpt>
      <trkpt lat="47.29372" lon="-2.2376">
        <ele>-19.799999237061</ele>
        <time>2022-02-13T09:12:53.000Z</time>
      </trkpt>
      <trkpt lat="47.29374" lon="-2.23746">
        <ele>-19.799999237061</ele>
        <time>2022-02-13T09:12:55.000Z</time>
      </trkpt>
      <trkpt lat="47.29378" lon="-2.23724">
        <ele>-19.799999237061</ele>
        <time>2022-02-13T09:12:58.000Z</time>
      </trkpt>
      <trkpt lat="47.2939" lon="-2.23705">
        <ele>-19.799999237061</ele>
        <time>2022-02-13T09:13:02.000Z</time>
      </trkpt>
      <trkpt lat="47.29399" lon="-2.23701">
        <ele>-19.39999961853</ele>
        <time>2022-02-13T09:13:04.000Z</time>
      </trkpt>
      <trkpt lat="47.29404" lon="-2.23699">
        <ele>-19</ele>
        <time>2022-02-13T09:13:05.000Z</time>
      </trkpt>
      <trkpt lat="47.29409" lon="-2.23698">
        <ele>-18.60000038147</ele>
        <time>2022-02-13T09:13:06.000Z</time>
      </trkpt>
      <trkpt lat="47.29414" lon="-2.23696">
        <ele>-18.200000762939</ele>
        <time>2022-02-13T09:13:07.000Z</time>
      </trkpt>
      <trkpt lat="47.29418" lon="-2.23694">
        <ele>-17.799999237061</ele>
        <time>2022-02-13T09:13:08.000Z</time>
      </trkpt>
      <trkpt lat="47.29442" lon="-2.23686">
        <ele>-17.799999237061</ele>
        <time>2022-02-13T09:13:13.000Z</time>
      </trkpt>
      <trkpt lat="47.2945" lon="-2.23683">
        <ele>-17.39999961853</ele>
        <time>2022-02-13T09:13:15.000Z</time>
      </trkpt>
      <trkpt lat="47.29455" lon="-2.23681">
        <ele>-16.799999237061</ele>
        <time>2022-02-13T09:13:16.000Z</time>
      </trkpt>
      <trkpt lat="47.29459" lon="-2.23679">
        <ele>-16.39999961853</ele>
        <time>2022-02-13T09:13:17.000Z</time>
      </trkpt>
      <trkpt lat="47.29463" lon="-2.23676">
        <ele>-16</ele>
        <time>2022-02-13T09:13:18.000Z</time>
      </trkpt>
      <trkpt lat="47.29466" lon="-2.23674">
        <ele>-15.39999961853</ele>
        <time>2022-02-13T09:13:19.000Z</time>
      </trkpt>
      <trkpt lat="47.29477" lon="-2.23667">
        <ele>-15.39999961853</ele>
        <time>2022-02-13T09:13:22.000Z</time>
      </trkpt>
      <trkpt lat="47.29487" lon="-2.23665">
        <ele>-15.39999961853</ele>
        <time>2022-02-13T09:13:24.000Z</time>
      </trkpt>
      <trkpt lat="47.29496" lon="-2.23675">
        <ele>-15.39999961853</ele>
        <time>2022-02-13T09:13:26.000Z</time>
      </trkpt>
      <trkpt lat="47.29499" lon="-2.23701">
        <ele>-15.39999961853</ele>
        <time>2022-02-13T09:13:29.000Z</time>
      </trkpt>
      <trkpt lat="47.29505" lon="-2.23763">
        <ele>-15.39999961853</ele>
        <time>2022-02-13T09:13:35.000Z</time>
      </trkpt>
      <trkpt lat="47.29511" lon="-2.23796">
        <ele>-16</ele>
        <time>2022-02-13T09:13:38.000Z</time>
      </trkpt>
      <trkpt lat="47.29514" lon="-2.23807">
        <ele>-16.39999961853</ele>
        <time>2022-02-13T09:13:39.000Z</time>
      </trkpt>
      <trkpt lat="47.29516" lon="-2.23818">
        <ele>-16.799999237061</ele>
        <time>2022-02-13T09:13:40.000Z</time>
      </trkpt>
      <trkpt lat="47.29519" lon="-2.23829">
        <ele>-17.200000762939</ele>
        <time>2022-02-13T09:13:41.000Z</time>
      </trkpt>
      <trkpt lat="47.29522" lon="-2.2384">
        <ele>-17.60000038147</ele>
        <time>2022-02-13T09:13:42.000Z</time>
      </trkpt>
      <trkpt lat="47.29526" lon="-2.2385">
        <ele>-18</ele>
        <time>2022-02-13T09:13:43.000Z</time>
      </trkpt>
      <trkpt lat="47.29529" lon="-2.2386">
        <ele>-18.60000038147</ele>
        <time>2022-02-13T09:13:44.000Z</time>
      </trkpt>
      <trkpt lat="47.29531" lon="-2.23869">
        <ele>-19</ele>
        <time>2022-02-13T09:13:45.000Z</time>
      </trkpt>
      <trkpt lat="47.29533" lon="-2.23879">
        <ele>-19.39999961853</ele>
        <time>2022-02-13T09:13:46.000Z</time>
      </trkpt>
      <trkpt lat="47.29535" lon="-2.23889">
        <ele>-19.799999237061</ele>
        <time>2022-02-13T09:13:47.000Z</time>
      </trkpt>
      <trkpt lat="47.29545" lon="-2.23956">
        <ele>-19.799999237061</ele>
        <time>2022-02-13T09:13:54.000Z</time>
      </trkpt>
      <trkpt lat="47.29556" lon="-2.24028">
        <ele>-19.799999237061</ele>
        <time>2022-02-13T09:14:02.000Z</time>
      </trkpt>
      <trkpt lat="47.29568" lon="-2.24096">
        <ele>-19.799999237061</ele>
        <time>2022-02-13T09:14:10.000Z</time>
      </trkpt>
      <trkpt lat="47.29579" lon="-2.24161">
        <ele>-19.799999237061</ele>
        <time>2022-02-13T09:14:18.000Z</time>
      </trkpt>
      <trkpt lat="47.29586" lon="-2.24192">
        <ele>-19.39999961853</ele>
        <time>2022-02-13T09:14:22.000Z</time>
      </trkpt>
      <trkpt lat="47.29588" lon="-2.24199">
        <ele>-19</ele>
        <time>2022-02-13T09:14:23.000Z</time>
      </trkpt>
      <trkpt lat="47.29589" lon="-2.24205">
        <ele>-18.60000038147</ele>
        <time>2022-02-13T09:14:24.000Z</time>
      </trkpt>
      <trkpt lat="47.29592" lon="-2.24208">
        <ele>-18.200000762939</ele>
        <time>2022-02-13T09:14:25.000Z</time>
      </trkpt>
      <trkpt lat="47.29596" lon="-2.24208">
        <ele>-17.799999237061</ele>
        <time>2022-02-13T09:14:26.000Z</time>
      </trkpt>
      <trkpt lat="47.296" lon="-2.24206">
        <ele>-17.799999237061</ele>
        <time>2022-02-13T09:14:27.000Z</time>
      </trkpt>
      <trkpt lat="47.29607" lon="-2.24189">
        <ele>-17.799999237061</ele>
        <time>2022-02-13T09:14:30.000Z</time>
      </trkpt>
      <trkpt lat="47.2961" lon="-2.24166">
        <ele>-17.799999237061</ele>
        <time>2022-02-13T09:14:33.000Z</time>
      </trkpt>
      <trkpt lat="47.29612" lon="-2.24149">
        <ele>-17.799999237061</ele>
        <time>2022-02-13T09:14:35.000Z</time>
      </trkpt>
      <trkpt lat="47.29614" lon="-2.24133">
        <ele>-17.799999237061</ele>
        <time>2022-02-13T09:14:37.000Z</time>
      </trkpt>
      <trkpt lat="47.29618" lon="-2.24108">
        <ele>-17.799999237061</ele>
        <time>2022-02-13T09:14:40.000Z</time>
      </trkpt>
      <trkpt lat="47.29619" lon="-2.24099">
        <ele>-17.799999237061</ele>
        <time>2022-02-13T09:14:41.000Z</time>
      </trkpt>
      <trkpt lat="47.29622" lon="-2.24073">
        <ele>-17.799999237061</ele>
        <time>2022-02-13T09:14:44.000Z</time>
      </trkpt>
      <trkpt lat="47.29625" lon="-2.24066">
        <ele>-17.799999237061</ele>
        <time>2022-02-13T09:14:45.000Z</time>
      </trkpt>
      <trkpt lat="47.2963" lon="-2.2405">
        <ele>-17.799999237061</ele>
        <time>2022-02-13T09:14:47.000Z</time>
      </trkpt>
      <trkpt lat="47.29632" lon="-2.24031">
        <ele>-17.799999237061</ele>
        <time>2022-02-13T09:14:49.000Z</time>
      </trkpt>
      <trkpt lat="47.2964" lon="-2.23987">
        <ele>-18.200000762939</ele>
        <time>2022-02-13T09:14:54.000Z</time>
      </trkpt>
      <trkpt lat="47.29644" lon="-2.23981">
        <ele>-18.60000038147</ele>
        <time>2022-02-13T09:14:55.000Z</time>
      </trkpt>
      <trkpt lat="47.29648" lon="-2.23976">
        <ele>-19.200000762939</ele>
        <time>2022-02-13T09:14:56.000Z</time>
      </trkpt>
      <trkpt lat="47.29653" lon="-2.2397">
        <ele>-19.60000038147</ele>
        <time>2022-02-13T09:14:57.000Z</time>
      </trkpt>
      <trkpt lat="47.29658" lon="-2.23965">
        <ele>-20</ele>
        <time>2022-02-13T09:14:58.000Z</time>
      </trkpt>
      <trkpt lat="47.29672" lon="-2.23951">
        <ele>-20</ele>
        <time>2022-02-13T09:15:01.000Z</time>
      </trkpt>
      <trkpt lat="47.29682" lon="-2.23944">
        <ele>-20</ele>
        <time>2022-02-13T09:15:03.000Z</time>
      </trkpt>
      <trkpt lat="47.29696" lon="-2.23936">
        <ele>-20</ele>
        <time>2022-02-13T09:15:06.000Z</time>
      </trkpt>
      <trkpt lat="47.29704" lon="-2.23916">
        <ele>-20</ele>
        <time>2022-02-13T09:15:09.000Z</time>
      </trkpt>
      <trkpt lat="47.29706" lon="-2.23908">
        <ele>-20</ele>
        <time>2022-02-13T09:15:10.000Z</time>
      </trkpt>
      <trkpt lat="47.2971" lon="-2.23884">
        <ele>-20</ele>
        <time>2022-02-13T09:15:13.000Z</time>
      </trkpt>
      <trkpt lat="47.29716" lon="-2.23862">
        <ele>-20</ele>
        <time>2022-02-13T09:15:16.000Z</time>
      </trkpt>
      <trkpt lat="47.29723" lon="-2.23846">
        <ele>-20</ele>
        <time>2022-02-13T09:15:18.000Z</time>
      </trkpt>
      <trkpt lat="47.2974" lon="-2.2381">
        <ele>-20</ele>
        <time>2022-02-13T09:15:23.000Z</time>
      </trkpt>
      <trkpt lat="47.29745" lon="-2.23803">
        <ele>-20</ele>
        <time>2022-02-13T09:15:24.000Z</time>
      </trkpt>
      <trkpt lat="47.29767" lon="-2.23788">
        <ele>-20</ele>
        <time>2022-02-13T09:15:28.000Z</time>
      </trkpt>
      <trkpt lat="47.29787" lon="-2.23791">
        <ele>-20</ele>
        <time>2022-02-13T09:15:32.000Z</time>
      </trkpt>
      <trkpt lat="47.29792" lon="-2.23793">
        <ele>-20</ele>
        <time>2022-02-13T09:15:33.000Z</time>
      </trkpt>
      <trkpt lat="47.29818" lon="-2.23809">
        <ele>-20</ele>
        <time>2022-02-13T09:15:38.000Z</time>
      </trkpt>
      <trkpt lat="47.29846" lon="-2.23824">
        <ele>-20</ele>
        <time>2022-02-13T09:15:43.000Z</time>
      </trkpt>
      <trkpt lat="47.29852" lon="-2.23824">
        <ele>-20</ele>
        <time>2022-02-13T09:15:44.000Z</time>
      </trkpt>
      <trkpt lat="47.29888" lon="-2.2382">
        <ele>-20</ele>
        <time>2022-02-13T09:15:50.000Z</time>
      </trkpt>
      <trkpt lat="47.299" lon="-2.23821">
        <ele>-20</ele>
        <time>2022-02-13T09:15:52.000Z</time>
      </trkpt>
      <trkpt lat="47.29918" lon="-2.23826">
        <ele>-20</ele>
        <time>2022-02-13T09:15:55.000Z</time>
      </trkpt>
      <trkpt lat="47.29939" lon="-2.23833">
        <ele>-20</ele>
        <time>2022-02-13T09:15:59.000Z</time>
      </trkpt>
      <trkpt lat="47.29944" lon="-2.23836">
        <ele>-20</ele>
        <time>2022-02-13T09:16:00.000Z</time>
      </trkpt>
      <trkpt lat="47.29985" lon="-2.23862">
        <ele>-20</ele>
        <time>2022-02-13T09:16:06.000Z</time>
      </trkpt>
      <trkpt lat="47.29989" lon="-2.23867">
        <ele>-20</ele>
        <time>2022-02-13T09:16:07.000Z</time>
      </trkpt>
      <trkpt lat="47.29998" lon="-2.23887">
        <ele>-20</ele>
        <time>2022-02-13T09:16:10.000Z</time>
      </trkpt>
      <trkpt lat="47.3" lon="-2.23893">
        <ele>-20</ele>
        <time>2022-02-13T09:16:11.000Z</time>
      </trkpt>
      <trkpt lat="47.30002" lon="-2.2393">
        <ele>-20</ele>
        <time>2022-02-13T09:16:16.000Z</time>
      </trkpt>
      <trkpt lat="47.30004" lon="-2.23959">
        <ele>-20</ele>
        <time>2022-02-13T09:16:20.000Z</time>
      </trkpt>
      <trkpt lat="47.30004" lon="-2.23966">
        <ele>-20</ele>
        <time>2022-02-13T09:16:21.000Z</time>
      </trkpt>
      <trkpt lat="47.30001" lon="-2.2401">
        <ele>-20</ele>
        <time>2022-02-13T09:16:27.000Z</time>
      </trkpt>
      <trkpt lat="47.3" lon="-2.24017">
        <ele>-20</ele>
        <time>2022-02-13T09:16:28.000Z</time>
      </trkpt>
      <trkpt lat="47.29999" lon="-2.24046">
        <ele>-19.60000038147</ele>
        <time>2022-02-13T09:16:32.000Z</time>
      </trkpt>
      <trkpt lat="47.29999" lon="-2.24053">
        <ele>-19.200000762939</ele>
        <time>2022-02-13T09:16:33.000Z</time>
      </trkpt>
      <trkpt lat="47.29999" lon="-2.2406">
        <ele>-18.799999237061</ele>
        <time>2022-02-13T09:16:34.000Z</time>
      </trkpt>
      <trkpt lat="47.3" lon="-2.24067">
        <ele>-18.39999961853</ele>
        <time>2022-02-13T09:16:35.000Z</time>
      </trkpt>
      <trkpt lat="47.3" lon="-2.24074">
        <ele>-18</ele>
        <time>2022-02-13T09:16:36.000Z</time>
      </trkpt>
      <trkpt lat="47.3" lon="-2.24081">
        <ele>-18</ele>
        <time>2022-02-13T09:16:37.000Z</time>
      </trkpt>
      <trkpt lat="47.30001" lon="-2.24094">
        <ele>-18</ele>
        <time>2022-02-13T09:16:39.000Z</time>
      </trkpt>
      <trkpt lat="47.30001" lon="-2.24107">
        <ele>-18</ele>
        <time>2022-02-13T09:16:41.000Z</time>
      </trkpt>
      <trkpt lat="47.3" lon="-2.24113">
        <ele>-17.60000038147</ele>
        <time>2022-02-13T09:16:42.000Z</time>
      </trkpt>
      <trkpt lat="47.3" lon="-2.24118">
        <ele>-17.200000762939</ele>
        <time>2022-02-13T09:16:43.000Z</time>
      </trkpt>
      <trkpt lat="47.3" lon="-2.24123">
        <ele>-16.799999237061</ele>
        <time>2022-02-13T09:16:44.000Z</time>
      </trkpt>
      <trkpt lat="47.29999" lon="-2.24127">
        <ele>-16.39999961853</ele>
        <time>2022-02-13T09:16:45.000Z</time>
      </trkpt>
      <trkpt lat="47.29998" lon="-2.24132">
        <ele>-16</ele>
        <time>2022-02-13T09:16:46.000Z</time>
      </trkpt>
      <trkpt lat="47.29998" lon="-2.24136">
        <ele>-15.39999961853</ele>
        <time>2022-02-13T09:16:47.000Z</time>
      </trkpt>
      <trkpt lat="47.29998" lon="-2.24141">
        <ele>-15</ele>
        <time>2022-02-13T09:16:48.000Z</time>
      </trkpt>
      <trkpt lat="47.29997" lon="-2.24147">
        <ele>-14.60000038147</ele>
        <time>2022-02-13T09:16:49.000Z</time>
      </trkpt>
      <trkpt lat="47.29996" lon="-2.24152">
        <ele>-14.199999809265</ele>
        <time>2022-02-13T09:16:50.000Z</time>
      </trkpt>
      <trkpt lat="47.29994" lon="-2.24157">
        <ele>-13.800000190735</ele>
        <time>2022-02-13T09:16:51.000Z</time>
      </trkpt>
      <trkpt lat="47.29991" lon="-2.24168">
        <ele>-13.39999961853</ele>
        <time>2022-02-13T09:16:53.000Z</time>
      </trkpt>
      <trkpt lat="47.2999" lon="-2.24174">
        <ele>-13</ele>
        <time>2022-02-13T09:16:54.000Z</time>
      </trkpt>
      <trkpt lat="47.29988" lon="-2.24181">
        <ele>-12.39999961853</ele>
        <time>2022-02-13T09:16:55.000Z</time>
      </trkpt>
      <trkpt lat="47.29986" lon="-2.24186">
        <ele>-12</ele>
        <time>2022-02-13T09:16:56.000Z</time>
      </trkpt>
      <trkpt lat="47.29984" lon="-2.24192">
        <ele>-11.60000038147</ele>
        <time>2022-02-13T09:16:57.000Z</time>
      </trkpt>
      <trkpt lat="47.29977" lon="-2.24208">
        <ele>-11.60000038147</ele>
        <time>2022-02-13T09:17:00.000Z</time>
      </trkpt>
      <trkpt lat="47.29965" lon="-2.2423">
        <ele>-11.60000038147</ele>
        <time>2022-02-13T09:17:04.000Z</time>
      </trkpt>
      <trkpt lat="47.29959" lon="-2.24241">
        <ele>-11.199999809265</ele>
        <time>2022-02-13T09:17:06.000Z</time>
      </trkpt>
      <trkpt lat="47.29956" lon="-2.24247">
        <ele>-10.800000190735</ele>
        <time>2022-02-13T09:17:07.000Z</time>
      </trkpt>
      <trkpt lat="47.29953" lon="-2.24252">
        <ele>-10.39999961853</ele>
        <time>2022-02-13T09:17:08.000Z</time>
      </trkpt>
      <trkpt lat="47.29951" lon="-2.24257">
        <ele>-10</ele>
        <time>2022-02-13T09:17:09.000Z</time>
      </trkpt>
      <trkpt lat="47.29948" lon="-2.24263">
        <ele>-9.6000003814697</ele>
        <time>2022-02-13T09:17:10.000Z</time>
      </trkpt>
      <trkpt lat="47.29941" lon="-2.2428">
        <ele>-9.6000003814697</ele>
        <time>2022-02-13T09:17:13.000Z</time>
      </trkpt>
      <trkpt lat="47.29937" lon="-2.24291">
        <ele>-9.6000003814697</ele>
        <time>2022-02-13T09:17:15.000Z</time>
      </trkpt>
      <trkpt lat="47.29943" lon="-2.24307">
        <ele>-9.6000003814697</ele>
        <time>2022-02-13T09:17:18.000Z</time>
      </trkpt>
      <trkpt lat="47.29949" lon="-2.24316">
        <ele>-9.6000003814697</ele>
        <time>2022-02-13T09:17:20.000Z</time>
      </trkpt>
      <trkpt lat="47.29956" lon="-2.24323">
        <ele>-9.6000003814697</ele>
        <time>2022-02-13T09:17:22.000Z</time>
      </trkpt>
      <trkpt lat="47.29964" lon="-2.2433">
        <ele>-9.6000003814697</ele>
        <time>2022-02-13T09:17:24.000Z</time>
      </trkpt>
      <trkpt lat="47.29971" lon="-2.24336">
        <ele>-9.6000003814697</ele>
        <time>2022-02-13T09:17:26.000Z</time>
      </trkpt>
      <trkpt lat="47.29982" lon="-2.24354">
        <ele>-9.6000003814697</ele>
        <time>2022-02-13T09:17:30.000Z</time>
      </trkpt>
      <trkpt lat="47.29989" lon="-2.24359">
        <ele>-9.6000003814697</ele>
        <time>2022-02-13T09:17:32.000Z</time>
      </trkpt>
      <trkpt lat="47.29995" lon="-2.24358">
        <ele>-9.6000003814697</ele>
        <time>2022-02-13T09:17:34.000Z</time>
      </trkpt>
      <trkpt lat="47.30001" lon="-2.24346">
        <ele>-9.6000003814697</ele>
        <time>2022-02-13T09:17:37.000Z</time>
      </trkpt>
      <trkpt lat="47.30005" lon="-2.24332">
        <ele>-9.1999998092651</ele>
        <time>2022-02-13T09:17:40.000Z</time>
      </trkpt>
      <trkpt lat="47.30006" lon="-2.24326">
        <ele>-8.8000001907349</ele>
        <time>2022-02-13T09:17:41.000Z</time>
      </trkpt>
      <trkpt lat="47.30008" lon="-2.24321">
        <ele>-8.1999998092651</ele>
        <time>2022-02-13T09:17:42.000Z</time>
      </trkpt>
      <trkpt lat="47.3001" lon="-2.24316">
        <ele>-7.8000001907349</ele>
        <time>2022-02-13T09:17:43.000Z</time>
      </trkpt>
      <trkpt lat="47.30012" lon="-2.24311">
        <ele>-7.4000000953674</ele>
        <time>2022-02-13T09:17:44.000Z</time>
      </trkpt>
      <trkpt lat="47.30014" lon="-2.24305">
        <ele>-7.4000000953674</ele>
        <time>2022-02-13T09:17:45.000Z</time>
      </trkpt>
      <trkpt lat="47.30017" lon="-2.24291">
        <ele>-7.4000000953674</ele>
        <time>2022-02-13T09:17:47.000Z</time>
      </trkpt>
      <trkpt lat="47.30024" lon="-2.24279">
        <ele>-7.4000000953674</ele>
        <time>2022-02-13T09:17:50.000Z</time>
      </trkpt>
      <trkpt lat="47.30032" lon="-2.24258">
        <ele>-7.4000000953674</ele>
        <time>2022-02-13T09:17:54.000Z</time>
      </trkpt>
      <trkpt lat="47.30031" lon="-2.24241">
        <ele>-7.8000001907349</ele>
        <time>2022-02-13T09:17:56.000Z</time>
      </trkpt>
      <trkpt lat="47.3003" lon="-2.24233">
        <ele>-8.1999998092651</ele>
        <time>2022-02-13T09:17:57.000Z</time>
      </trkpt>
      <trkpt lat="47.3003" lon="-2.24224">
        <ele>-8.6000003814697</ele>
        <time>2022-02-13T09:17:58.000Z</time>
      </trkpt>
      <trkpt lat="47.30031" lon="-2.24217">
        <ele>-9.1999998092651</ele>
        <time>2022-02-13T09:17:59.000Z</time>
      </trkpt>
      <trkpt lat="47.30031" lon="-2.24211">
        <ele>-9.6000003814697</ele>
        <time>2022-02-13T09:18:00.000Z</time>
      </trkpt>
      <trkpt lat="47.30031" lon="-2.24204">
        <ele>-9.6000003814697</ele>
        <time>2022-02-13T09:18:01.000Z</time>
      </trkpt>
      <trkpt lat="47.30031" lon="-2.24194">
        <ele>-10</ele>
        <time>2022-02-13T09:18:02.000Z</time>
      </trkpt>
      <trkpt lat="47.30031" lon="-2.24184">
        <ele>-10.39999961853</ele>
        <time>2022-02-13T09:18:03.000Z</time>
      </trkpt>
      <trkpt lat="47.30031" lon="-2.24174">
        <ele>-11</ele>
        <time>2022-02-13T09:18:04.000Z</time>
      </trkpt>
      <trkpt lat="47.30031" lon="-2.24165">
        <ele>-11.60000038147</ele>
        <time>2022-02-13T09:18:05.000Z</time>
      </trkpt>
      <trkpt lat="47.3003" lon="-2.24158">
        <ele>-12.199999809265</ele>
        <time>2022-02-13T09:18:06.000Z</time>
      </trkpt>
      <trkpt lat="47.3003" lon="-2.24153">
        <ele>-12.800000190735</ele>
        <time>2022-02-13T09:18:07.000Z</time>
      </trkpt>
      <trkpt lat="47.30028" lon="-2.2415">
        <ele>-13.39999961853</ele>
        <time>2022-02-13T09:18:08.000Z</time>
      </trkpt>
      <trkpt lat="47.30025" lon="-2.2415">
        <ele>-14</ele>
        <time>2022-02-13T09:18:09.000Z</time>
      </trkpt>
      <trkpt lat="47.30023" lon="-2.24151">
        <ele>-14.60000038147</ele>
        <time>2022-02-13T09:18:10.000Z</time>
      </trkpt>
      <trkpt lat="47.30021" lon="-2.24151">
        <ele>-15.199999809265</ele>
        <time>2022-02-13T09:18:11.000Z</time>
      </trkpt>
      <trkpt lat="47.30019" lon="-2.24151">
        <ele>-15.800000190735</ele>
        <time>2022-02-13T09:18:12.000Z</time>
      </trkpt>
      <trkpt lat="47.30018" lon="-2.24151">
        <ele>-16.200000762939</ele>
        <time>2022-02-13T09:18:13.000Z</time>
      </trkpt>
      <trkpt lat="47.30017" lon="-2.24151">
        <ele>-16.200000762939</ele>
        <time>2022-02-13T09:18:16.000Z</time>
      </trkpt>
      <trkpt lat="47.3002" lon="-2.24142">
        <ele>-16.200000762939</ele>
        <time>2022-02-13T09:24:34.000Z</time>
      </trkpt>
      <trkpt lat="47.30023" lon="-2.24139">
        <ele>-16.200000762939</ele>
        <time>2022-02-13T09:24:36.000Z</time>
      </trkpt>
      <trkpt lat="47.30033" lon="-2.24131">
        <ele>-15.800000190735</ele>
        <time>2022-02-13T09:24:42.000Z</time>
      </trkpt>
      <trkpt lat="47.30036" lon="-2.24129">
        <ele>-15.39999961853</ele>
        <time>2022-02-13T09:24:43.000Z</time>
      </trkpt>
      <trkpt lat="47.30039" lon="-2.24127">
        <ele>-15</ele>
        <time>2022-02-13T09:24:44.000Z</time>
      </trkpt>
      <trkpt lat="47.30041" lon="-2.24126">
        <ele>-14.39999961853</ele>
        <time>2022-02-13T09:24:45.000Z</time>
      </trkpt>
      <trkpt lat="47.30044" lon="-2.24124">
        <ele>-14</ele>
        <time>2022-02-13T09:24:46.000Z</time>
      </trkpt>
      <trkpt lat="47.30054" lon="-2.24119">
        <ele>-14</ele>
        <time>2022-02-13T09:24:50.000Z</time>
      </trkpt>
      <trkpt lat="47.3007" lon="-2.24106">
        <ele>-14</ele>
        <time>2022-02-13T09:24:56.000Z</time>
      </trkpt>
      <trkpt lat="47.30093" lon="-2.24092">
        <ele>-14</ele>
        <time>2022-02-13T09:25:03.000Z</time>
      </trkpt>
      <trkpt lat="47.30098" lon="-2.24088">
        <ele>-13.60000038147</ele>
        <time>2022-02-13T09:25:04.000Z</time>
      </trkpt>
      <trkpt lat="47.30103" lon="-2.24085">
        <ele>-13.199999809265</ele>
        <time>2022-02-13T09:25:05.000Z</time>
      </trkpt>
      <trkpt lat="47.30108" lon="-2.24082">
        <ele>-12.800000190735</ele>
        <time>2022-02-13T09:25:06.000Z</time>
      </trkpt>
      <trkpt lat="47.30113" lon="-2.24079">
        <ele>-12.39999961853</ele>
        <time>2022-02-13T09:25:07.000Z</time>
      </trkpt>
      <trkpt lat="47.30118" lon="-2.24076">
        <ele>-12</ele>
        <time>2022-02-13T09:25:08.000Z</time>
      </trkpt>
      <trkpt lat="47.30129" lon="-2.24071">
        <ele>-12</ele>
        <time>2022-02-13T09:25:10.000Z</time>
      </trkpt>
      <trkpt lat="47.30151" lon="-2.24063">
        <ele>-12</ele>
        <time>2022-02-13T09:25:14.000Z</time>
      </trkpt>
      <trkpt lat="47.30163" lon="-2.24059">
        <ele>-12</ele>
        <time>2022-02-13T09:25:16.000Z</time>
      </trkpt>
      <trkpt lat="47.30185" lon="-2.24053">
        <ele>-12</ele>
        <time>2022-02-13T09:25:20.000Z</time>
      </trkpt>
      <trkpt lat="47.30214" lon="-2.24054">
        <ele>-12</ele>
        <time>2022-02-13T09:25:25.000Z</time>
      </trkpt>
      <trkpt lat="47.30225" lon="-2.24055">
        <ele>-12</ele>
        <time>2022-02-13T09:25:27.000Z</time>
      </trkpt>
      <trkpt lat="47.30231" lon="-2.24056">
        <ele>-12.39999961853</ele>
        <time>2022-02-13T09:25:28.000Z</time>
      </trkpt>
      <trkpt lat="47.30236" lon="-2.24057">
        <ele>-12.800000190735</ele>
        <time>2022-02-13T09:25:29.000Z</time>
      </trkpt>
      <trkpt lat="47.30242" lon="-2.24058">
        <ele>-13.199999809265</ele>
        <time>2022-02-13T09:25:30.000Z</time>
      </trkpt>
      <trkpt lat="47.30247" lon="-2.24059">
        <ele>-13.800000190735</ele>
        <time>2022-02-13T09:25:31.000Z</time>
      </trkpt>
      <trkpt lat="47.30252" lon="-2.2406">
        <ele>-14.199999809265</ele>
        <time>2022-02-13T09:25:32.000Z</time>
      </trkpt>
      <trkpt lat="47.30258" lon="-2.24062">
        <ele>-14.199999809265</ele>
        <time>2022-02-13T09:25:33.000Z</time>
      </trkpt>
      <trkpt lat="47.30267" lon="-2.24063">
        <ele>-14.199999809265</ele>
        <time>2022-02-13T09:25:35.000Z</time>
      </trkpt>
      <trkpt lat="47.30278" lon="-2.24047">
        <ele>-14.199999809265</ele>
        <time>2022-02-13T09:25:38.000Z</time>
      </trkpt>
      <trkpt lat="47.30279" lon="-2.2401">
        <ele>-14.199999809265</ele>
        <time>2022-02-13T09:25:42.000Z</time>
      </trkpt>
      <trkpt lat="47.30278" lon="-2.24">
        <ele>-14.60000038147</ele>
        <time>2022-02-13T09:25:43.000Z</time>
      </trkpt>
      <trkpt lat="47.30276" lon="-2.2399">
        <ele>-15.39999961853</ele>
        <time>2022-02-13T09:25:44.000Z</time>
      </trkpt>
      <trkpt lat="47.30274" lon="-2.2398">
        <ele>-16</ele>
        <time>2022-02-13T09:25:45.000Z</time>
      </trkpt>
      <trkpt lat="47.30272" lon="-2.2397">
        <ele>-16.39999961853</ele>
        <time>2022-02-13T09:25:46.000Z</time>
      </trkpt>
      <trkpt lat="47.3027" lon="-2.2396">
        <ele>-16.39999961853</ele>
        <time>2022-02-13T09:25:47.000Z</time>
      </trkpt>
      <trkpt lat="47.30267" lon="-2.23951">
        <ele>-16.799999237061</ele>
        <time>2022-02-13T09:25:48.000Z</time>
      </trkpt>
      <trkpt lat="47.30264" lon="-2.23942">
        <ele>-17.200000762939</ele>
        <time>2022-02-13T09:25:49.000Z</time>
      </trkpt>
      <trkpt lat="47.30262" lon="-2.23931">
        <ele>-17.60000038147</ele>
        <time>2022-02-13T09:25:50.000Z</time>
      </trkpt>
      <trkpt lat="47.30262" lon="-2.23921">
        <ele>-18</ele>
        <time>2022-02-13T09:25:51.000Z</time>
      </trkpt>
      <trkpt lat="47.30262" lon="-2.2391">
        <ele>-18.39999961853</ele>
        <time>2022-02-13T09:25:52.000Z</time>
      </trkpt>
      <trkpt lat="47.30274" lon="-2.23883">
        <ele>-18.799999237061</ele>
        <time>2022-02-13T09:25:56.000Z</time>
      </trkpt>
      <trkpt lat="47.30279" lon="-2.23881">
        <ele>-19.200000762939</ele>
        <time>2022-02-13T09:25:57.000Z</time>
      </trkpt>
      <trkpt lat="47.30285" lon="-2.2388">
        <ele>-19.60000038147</ele>
        <time>2022-02-13T09:25:58.000Z</time>
      </trkpt>
      <trkpt lat="47.30291" lon="-2.23879">
        <ele>-20</ele>
        <time>2022-02-13T09:25:59.000Z</time>
      </trkpt>
      <trkpt lat="47.30298" lon="-2.23878">
        <ele>-20.39999961853</ele>
        <time>2022-02-13T09:26:00.000Z</time>
      </trkpt>
      <trkpt lat="47.30323" lon="-2.23869">
        <ele>-20.39999961853</ele>
        <time>2022-02-13T09:26:04.000Z</time>
      </trkpt>
      <trkpt lat="47.30354" lon="-2.23857">
        <ele>-20.39999961853</ele>
        <time>2022-02-13T09:26:09.000Z</time>
      </trkpt>
      <trkpt lat="47.30367" lon="-2.23854">
        <ele>-20.39999961853</ele>
        <time>2022-02-13T09:26:11.000Z</time>
      </trkpt>
      <trkpt lat="47.30416" lon="-2.23847">
        <ele>-20.39999961853</ele>
        <time>2022-02-13T09:26:19.000Z</time>
      </trkpt>
      <trkpt lat="47.3047" lon="-2.2384">
        <ele>-20.39999961853</ele>
        <time>2022-02-13T09:26:28.000Z</time>
      </trkpt>
      <trkpt lat="47.30483" lon="-2.2384">
        <ele>-20.39999961853</ele>
        <time>2022-02-13T09:26:30.000Z</time>
      </trkpt>
      <trkpt lat="47.305" lon="-2.23851">
        <ele>-20.39999961853</ele>
        <time>2022-02-13T09:26:33.000Z</time>
      </trkpt>
      <trkpt lat="47.30513" lon="-2.23869">
        <ele>-20.39999961853</ele>
        <time>2022-02-13T09:26:36.000Z</time>
      </trkpt>
      <trkpt lat="47.30527" lon="-2.23888">
        <ele>-20.39999961853</ele>
        <time>2022-02-13T09:26:39.000Z</time>
      </trkpt>
      <trkpt lat="47.3055" lon="-2.23923">
        <ele>-20.39999961853</ele>
        <time>2022-02-13T09:26:45.000Z</time>
      </trkpt>
      <trkpt lat="47.30551" lon="-2.23932">
        <ele>-20.39999961853</ele>
        <time>2022-02-13T09:26:46.000Z</time>
      </trkpt>
      <trkpt lat="47.30546" lon="-2.23951">
        <ele>-20.39999961853</ele>
        <time>2022-02-13T09:26:49.000Z</time>
      </trkpt>
      <trkpt lat="47.30533" lon="-2.23967">
        <ele>-20.39999961853</ele>
        <time>2022-02-13T09:26:53.000Z</time>
      </trkpt>
      <trkpt lat="47.30519" lon="-2.23983">
        <ele>-20</ele>
        <time>2022-02-13T09:26:57.000Z</time>
      </trkpt>
      <trkpt lat="47.30515" lon="-2.23987">
        <ele>-19.200000762939</ele>
        <time>2022-02-13T09:26:58.000Z</time>
      </trkpt>
      <trkpt lat="47.30512" lon="-2.23992">
        <ele>-18.799999237061</ele>
        <time>2022-02-13T09:26:59.000Z</time>
      </trkpt>
      <trkpt lat="47.30508" lon="-2.23996">
        <ele>-18.39999961853</ele>
        <time>2022-02-13T09:27:00.000Z</time>
      </trkpt>
      <trkpt lat="47.30506" lon="-2.24001">
        <ele>-18.39999961853</ele>
        <time>2022-02-13T09:27:01.000Z</time>
      </trkpt>
      <trkpt lat="47.30498" lon="-2.24014">
        <ele>-17.799999237061</ele>
        <time>2022-02-13T09:27:04.000Z</time>
      </trkpt>
      <trkpt lat="47.30495" lon="-2.24018">
        <ele>-17.39999961853</ele>
        <time>2022-02-13T09:27:05.000Z</time>
      </trkpt>
      <trkpt lat="47.30492" lon="-2.24022">
        <ele>-17</ele>
        <time>2022-02-13T09:27:06.000Z</time>
      </trkpt>
      <trkpt lat="47.30489" lon="-2.24025">
        <ele>-16.60000038147</ele>
        <time>2022-02-13T09:27:07.000Z</time>
      </trkpt>
      <trkpt lat="47.30486" lon="-2.24027">
        <ele>-16.200000762939</ele>
        <time>2022-02-13T09:27:08.000Z</time>
      </trkpt>
      <trkpt lat="47.3048" lon="-2.24032">
        <ele>-15.800000190735</ele>
        <time>2022-02-13T09:27:10.000Z</time>
      </trkpt>
      <trkpt lat="47.30478" lon="-2.24033">
        <ele>-15.39999961853</ele>
        <time>2022-02-13T09:27:11.000Z</time>
      </trkpt>
      <trkpt lat="47.30476" lon="-2.24035">
        <ele>-15</ele>
        <time>2022-02-13T09:27:12.000Z</time>
      </trkpt>
      <trkpt lat="47.30473" lon="-2.24036">
        <ele>-14.60000038147</ele>
        <time>2022-02-13T09:27:13.000Z</time>
      </trkpt>
      <trkpt lat="47.3047" lon="-2.24037">
        <ele>-14.199999809265</ele>
        <time>2022-02-13T09:27:14.000Z</time>
      </trkpt>
      <trkpt lat="47.30464" lon="-2.24041">
        <ele>-14.199999809265</ele>
        <time>2022-02-13T09:27:16.000Z</time>
      </trkpt>
      <trkpt lat="47.30461" lon="-2.24043">
        <ele>-13.60000038147</ele>
        <time>2022-02-13T09:27:17.000Z</time>
      </trkpt>
      <trkpt lat="47.30459" lon="-2.24046">
        <ele>-13.199999809265</ele>
        <time>2022-02-13T09:27:18.000Z</time>
      </trkpt>
      <trkpt lat="47.30456" lon="-2.24049">
        <ele>-12.800000190735</ele>
        <time>2022-02-13T09:27:19.000Z</time>
      </trkpt>
      <trkpt lat="47.30454" lon="-2.24051">
        <ele>-12.199999809265</ele>
        <time>2022-02-13T09:27:20.000Z</time>
      </trkpt>
      <trkpt lat="47.30451" lon="-2.24054">
        <ele>-11.800000190735</ele>
        <time>2022-02-13T09:27:21.000Z</time>
      </trkpt>
      <trkpt lat="47.30449" lon="-2.24056">
        <ele>-11.800000190735</ele>
        <time>2022-02-13T09:27:22.000Z</time>
      </trkpt>
      <trkpt lat="47.30436" lon="-2.24075">
        <ele>-11.800000190735</ele>
        <time>2022-02-13T09:27:28.000Z</time>
      </trkpt>
      <trkpt lat="47.30432" lon="-2.24078">
        <ele>-11.39999961853</ele>
        <time>2022-02-13T09:27:29.000Z</time>
      </trkpt>
      <trkpt lat="47.3043" lon="-2.24081">
        <ele>-11</ele>
        <time>2022-02-13T09:27:30.000Z</time>
      </trkpt>
      <trkpt lat="47.30428" lon="-2.24084">
        <ele>-10.60000038147</ele>
        <time>2022-02-13T09:27:31.000Z</time>
      </trkpt>
      <trkpt lat="47.30425" lon="-2.24086">
        <ele>-10.199999809265</ele>
        <time>2022-02-13T09:27:32.000Z</time>
      </trkpt>
      <trkpt lat="47.30423" lon="-2.24088">
        <ele>-9.8000001907349</ele>
        <time>2022-02-13T09:27:33.000Z</time>
      </trkpt>
      <trkpt lat="47.30407" lon="-2.24105">
        <ele>-9.3999996185303</ele>
        <time>2022-02-13T09:27:39.000Z</time>
      </trkpt>
      <trkpt lat="47.30403" lon="-2.24109">
        <ele>-9</ele>
        <time>2022-02-13T09:27:40.000Z</time>
      </trkpt>
      <trkpt lat="47.30399" lon="-2.24113">
        <ele>-8.6000003814697</ele>
        <time>2022-02-13T09:27:41.000Z</time>
      </trkpt>
      <trkpt lat="47.30395" lon="-2.24116">
        <ele>-8.1999998092651</ele>
        <time>2022-02-13T09:27:42.000Z</time>
      </trkpt>
      <trkpt lat="47.30393" lon="-2.24119">
        <ele>-7.5999999046326</ele>
        <time>2022-02-13T09:27:43.000Z</time>
      </trkpt>
      <trkpt lat="47.30379" lon="-2.24132">
        <ele>-7.5999999046326</ele>
        <time>2022-02-13T09:27:46.000Z</time>
      </trkpt>
      <trkpt lat="47.30359" lon="-2.24161">
        <ele>-7.5999999046326</ele>
        <time>2022-02-13T09:27:51.000Z</time>
      </trkpt>
      <trkpt lat="47.30354" lon="-2.24167">
        <ele>-7.5999999046326</ele>
        <time>2022-02-13T09:27:52.000Z</time>
      </trkpt>
      <trkpt lat="47.30349" lon="-2.24182">
        <ele>-7.5999999046326</ele>
        <time>2022-02-13T09:27:54.000Z</time>
      </trkpt>
      <trkpt lat="47.3035" lon="-2.2419">
        <ele>-7.5999999046326</ele>
        <time>2022-02-13T09:27:55.000Z</time>
      </trkpt>
      <trkpt lat="47.30354" lon="-2.24204">
        <ele>-8.1999998092651</ele>
        <time>2022-02-13T09:27:57.000Z</time>
      </trkpt>
      <trkpt lat="47.30358" lon="-2.24209">
        <ele>-8.6000003814697</ele>
        <time>2022-02-13T09:27:58.000Z</time>
      </trkpt>
      <trkpt lat="47.30362" lon="-2.24213">
        <ele>-9</ele>
        <time>2022-02-13T09:27:59.000Z</time>
      </trkpt>
      <trkpt lat="47.30366" lon="-2.24217">
        <ele>-9.3999996185303</ele>
        <time>2022-02-13T09:28:00.000Z</time>
      </trkpt>
      <trkpt lat="47.30369" lon="-2.24221">
        <ele>-9.8000001907349</ele>
        <time>2022-02-13T09:28:01.000Z</time>
      </trkpt>
      <trkpt lat="47.3038" lon="-2.24234">
        <ele>-9.8000001907349</ele>
        <time>2022-02-13T09:28:04.000Z</time>
      </trkpt>
      <trkpt lat="47.30391" lon="-2.24245">
        <ele>-9.8000001907349</ele>
        <time>2022-02-13T09:28:07.000Z</time>
      </trkpt>
      <trkpt lat="47.30404" lon="-2.24257">
        <ele>-9.8000001907349</ele>
        <time>2022-02-13T09:28:10.000Z</time>
      </trkpt>
      <trkpt lat="47.30416" lon="-2.24269">
        <ele>-9.8000001907349</ele>
        <time>2022-02-13T09:28:13.000Z</time>
      </trkpt>
      <trkpt lat="47.30431" lon="-2.24275">
        <ele>-9.8000001907349</ele>
        <time>2022-02-13T09:28:16.000Z</time>
      </trkpt>
      <trkpt lat="47.30453" lon="-2.2428">
        <ele>-9.8000001907349</ele>
        <time>2022-02-13T09:28:20.000Z</time>
      </trkpt>
      <trkpt lat="47.30474" lon="-2.24288">
        <ele>-9.8000001907349</ele>
        <time>2022-02-13T09:28:24.000Z</time>
      </trkpt>
      <trkpt lat="47.30488" lon="-2.24295">
        <ele>-9.8000001907349</ele>
        <time>2022-02-13T09:28:27.000Z</time>
      </trkpt>
      <trkpt lat="47.30507" lon="-2.24309">
        <ele>-9.8000001907349</ele>
        <time>2022-02-13T09:28:31.000Z</time>
      </trkpt>
      <trkpt lat="47.30516" lon="-2.24318">
        <ele>-9.8000001907349</ele>
        <time>2022-02-13T09:28:33.000Z</time>
      </trkpt>
      <trkpt lat="47.30547" lon="-2.24352">
        <ele>-9.8000001907349</ele>
        <time>2022-02-13T09:28:40.000Z</time>
      </trkpt>
      <trkpt lat="47.30579" lon="-2.24388">
        <ele>-9.8000001907349</ele>
        <time>2022-02-13T09:28:47.000Z</time>
      </trkpt>
      <trkpt lat="47.30604" lon="-2.24413">
        <ele>-9.8000001907349</ele>
        <time>2022-02-13T09:28:52.000Z</time>
      </trkpt>
      <trkpt lat="47.30616" lon="-2.24419">
        <ele>-9.8000001907349</ele>
        <time>2022-02-13T09:28:54.000Z</time>
      </trkpt>
      <trkpt lat="47.30632" lon="-2.24431">
        <ele>-10.199999809265</ele>
        <time>2022-02-13T09:28:58.000Z</time>
      </trkpt>
      <trkpt lat="47.30635" lon="-2.24438">
        <ele>-10.60000038147</ele>
        <time>2022-02-13T09:28:59.000Z</time>
      </trkpt>
      <trkpt lat="47.30636" lon="-2.24445">
        <ele>-11.199999809265</ele>
        <time>2022-02-13T09:29:00.000Z</time>
      </trkpt>
      <trkpt lat="47.30636" lon="-2.24453">
        <ele>-12</ele>
        <time>2022-02-13T09:29:01.000Z</time>
      </trkpt>
      <trkpt lat="47.30636" lon="-2.24462">
        <ele>-12</ele>
        <time>2022-02-13T09:29:02.000Z</time>
      </trkpt>
      <trkpt lat="47.30636" lon="-2.24471">
        <ele>-12.39999961853</ele>
        <time>2022-02-13T09:29:03.000Z</time>
      </trkpt>
      <trkpt lat="47.30636" lon="-2.24482">
        <ele>-12.800000190735</ele>
        <time>2022-02-13T09:29:04.000Z</time>
      </trkpt>
      <trkpt lat="47.30636" lon="-2.24492">
        <ele>-13.39999961853</ele>
        <time>2022-02-13T09:29:05.000Z</time>
      </trkpt>
      <trkpt lat="47.30635" lon="-2.24504">
        <ele>-13.800000190735</ele>
        <time>2022-02-13T09:29:06.000Z</time>
      </trkpt>
      <trkpt lat="47.30634" lon="-2.24515">
        <ele>-14.199999809265</ele>
        <time>2022-02-13T09:29:07.000Z</time>
      </trkpt>
      <trkpt lat="47.30634" lon="-2.24528">
        <ele>-14.60000038147</ele>
        <time>2022-02-13T09:29:08.000Z</time>
      </trkpt>
      <trkpt lat="47.30633" lon="-2.2454">
        <ele>-15</ele>
        <time>2022-02-13T09:29:09.000Z</time>
      </trkpt>
      <trkpt lat="47.30632" lon="-2.24553">
        <ele>-15.39999961853</ele>
        <time>2022-02-13T09:29:10.000Z</time>
      </trkpt>
      <trkpt lat="47.30631" lon="-2.24566">
        <ele>-15.800000190735</ele>
        <time>2022-02-13T09:29:11.000Z</time>
      </trkpt>
      <trkpt lat="47.3063" lon="-2.24578">
        <ele>-16.39999961853</ele>
        <time>2022-02-13T09:29:12.000Z</time>
      </trkpt>
      <trkpt lat="47.30628" lon="-2.24592">
        <ele>-17</ele>
        <time>2022-02-13T09:29:13.000Z</time>
      </trkpt>
      <trkpt lat="47.30628" lon="-2.24606">
        <ele>-17.60000038147</ele>
        <time>2022-02-13T09:29:14.000Z</time>
      </trkpt>
      <trkpt lat="47.30628" lon="-2.24619">
        <ele>-18.200000762939</ele>
        <time>2022-02-13T09:29:15.000Z</time>
      </trkpt>
      <trkpt lat="47.30629" lon="-2.24632">
        <ele>-18.60000038147</ele>
        <time>2022-02-13T09:29:16.000Z</time>
      </trkpt>
      <trkpt lat="47.30631" lon="-2.24643">
        <ele>-18.60000038147</ele>
        <time>2022-02-13T09:29:17.000Z</time>
      </trkpt>
      <trkpt lat="47.30634" lon="-2.24654">
        <ele>-19.200000762939</ele>
        <time>2022-02-13T09:29:18.000Z</time>
      </trkpt>
      <trkpt lat="47.30636" lon="-2.24665">
        <ele>-19.60000038147</ele>
        <time>2022-02-13T09:29:19.000Z</time>
      </trkpt>
      <trkpt lat="47.30639" lon="-2.24675">
        <ele>-20</ele>
        <time>2022-02-13T09:29:20.000Z</time>
      </trkpt>
      <trkpt lat="47.30641" lon="-2.24685">
        <ele>-20.39999961853</ele>
        <time>2022-02-13T09:29:21.000Z</time>
      </trkpt>
      <trkpt lat="47.30644" lon="-2.24695">
        <ele>-21</ele>
        <time>2022-02-13T09:29:22.000Z</time>
      </trkpt>
      <trkpt lat="47.3067" lon="-2.24767">
        <ele>-21</ele>
        <time>2022-02-13T09:29:30.000Z</time>
      </trkpt>
      <trkpt lat="47.30679" lon="-2.24783">
        <ele>-21</ele>
        <time>2022-02-13T09:29:32.000Z</time>
      </trkpt>
      <trkpt lat="47.30693" lon="-2.24802">
        <ele>-21</ele>
        <time>2022-02-13T09:29:35.000Z</time>
      </trkpt>
      <trkpt lat="47.30706" lon="-2.24821">
        <ele>-21</ele>
        <time>2022-02-13T09:29:38.000Z</time>
      </trkpt>
      <trkpt lat="47.30713" lon="-2.24833">
        <ele>-21</ele>
        <time>2022-02-13T09:29:40.000Z</time>
      </trkpt>
      <trkpt lat="47.30728" lon="-2.24861">
        <ele>-21</ele>
        <time>2022-02-13T09:29:45.000Z</time>
      </trkpt>
      <trkpt lat="47.30731" lon="-2.24866">
        <ele>-21</ele>
        <time>2022-02-13T09:29:46.000Z</time>
      </trkpt>
      <trkpt lat="47.30748" lon="-2.24881">
        <ele>-21</ele>
        <time>2022-02-13T09:29:50.000Z</time>
      </trkpt>
      <trkpt lat="47.30757" lon="-2.24888">
        <ele>-21</ele>
        <time>2022-02-13T09:29:52.000Z</time>
      </trkpt>
      <trkpt lat="47.30786" lon="-2.249">
        <ele>-21</ele>
        <time>2022-02-13T09:29:58.000Z</time>
      </trkpt>
      <trkpt lat="47.30808" lon="-2.24911">
        <ele>-21</ele>
        <time>2022-02-13T09:30:05.000Z</time>
      </trkpt>
      <trkpt lat="47.30826" lon="-2.24912">
        <ele>-21</ele>
        <time>2022-02-13T09:30:10.000Z</time>
      </trkpt>
      <trkpt lat="47.30848" lon="-2.24902">
        <ele>-21</ele>
        <time>2022-02-13T09:30:16.000Z</time>
      </trkpt>
      <trkpt lat="47.30851" lon="-2.24898">
        <ele>-21</ele>
        <time>2022-02-13T09:30:17.000Z</time>
      </trkpt>
      <trkpt lat="47.30866" lon="-2.24878">
        <ele>-21</ele>
        <time>2022-02-13T09:30:21.000Z</time>
      </trkpt>
      <trkpt lat="47.30901" lon="-2.2483">
        <ele>-21</ele>
        <time>2022-02-13T09:30:30.000Z</time>
      </trkpt>
      <trkpt lat="47.30932" lon="-2.24788">
        <ele>-21</ele>
        <time>2022-02-13T09:30:38.000Z</time>
      </trkpt>
      <trkpt lat="47.30952" lon="-2.24765">
        <ele>-21</ele>
        <time>2022-02-13T09:30:43.000Z</time>
      </trkpt>
      <trkpt lat="47.3096" lon="-2.24757">
        <ele>-21</ele>
        <time>2022-02-13T09:30:45.000Z</time>
      </trkpt>
      <trkpt lat="47.30987" lon="-2.24745">
        <ele>-21</ele>
        <time>2022-02-13T09:30:50.000Z</time>
      </trkpt>
      <trkpt lat="47.31005" lon="-2.24746">
        <ele>-21</ele>
        <time>2022-02-13T09:30:53.000Z</time>
      </trkpt>
      <trkpt lat="47.31016" lon="-2.24748">
        <ele>-21</ele>
        <time>2022-02-13T09:30:55.000Z</time>
      </trkpt>
      <trkpt lat="47.31055" lon="-2.24765">
        <ele>-21</ele>
        <time>2022-02-13T09:31:02.000Z</time>
      </trkpt>
      <trkpt lat="47.31076" lon="-2.2477">
        <ele>-21</ele>
        <time>2022-02-13T09:31:06.000Z</time>
      </trkpt>
      <trkpt lat="47.31087" lon="-2.24771">
        <ele>-21</ele>
        <time>2022-02-13T09:31:08.000Z</time>
      </trkpt>
      <trkpt lat="47.31115" lon="-2.2477">
        <ele>-21</ele>
        <time>2022-02-13T09:31:13.000Z</time>
      </trkpt>
      <trkpt lat="47.3112" lon="-2.24773">
        <ele>-21</ele>
        <time>2022-02-13T09:31:14.000Z</time>
      </trkpt>
      <trkpt lat="47.31132" lon="-2.24793">
        <ele>-21</ele>
        <time>2022-02-13T09:31:17.000Z</time>
      </trkpt>
      <trkpt lat="47.31137" lon="-2.24817">
        <ele>-21</ele>
        <time>2022-02-13T09:31:20.000Z</time>
      </trkpt>
      <trkpt lat="47.31142" lon="-2.24831">
        <ele>-21</ele>
        <time>2022-02-13T09:31:22.000Z</time>
      </trkpt>
      <trkpt lat="47.3115" lon="-2.24861">
        <ele>-21</ele>
        <time>2022-02-13T09:31:26.000Z</time>
      </trkpt>
      <trkpt lat="47.31152" lon="-2.24877">
        <ele>-21</ele>
        <time>2022-02-13T09:31:28.000Z</time>
      </trkpt>
      <trkpt lat="47.31155" lon="-2.24892">
        <ele>-21</ele>
        <time>2022-02-13T09:31:30.000Z</time>
      </trkpt>
      <trkpt lat="47.31161" lon="-2.24924">
        <ele>-21</ele>
        <time>2022-02-13T09:31:34.000Z</time>
      </trkpt>
      <trkpt lat="47.31171" lon="-2.2498">
        <ele>-21</ele>
        <time>2022-02-13T09:31:41.000Z</time>
      </trkpt>
      <trkpt lat="47.31185" lon="-2.24986">
        <ele>-21</ele>
        <time>2022-02-13T09:31:44.000Z</time>
      </trkpt>
      <trkpt lat="47.31189" lon="-2.24989">
        <ele>-21</ele>
        <time>2022-02-13T09:31:45.000Z</time>
      </trkpt>
      <trkpt lat="47.31203" lon="-2.25008">
        <ele>-21</ele>
        <time>2022-02-13T09:31:48.000Z</time>
      </trkpt>
      <trkpt lat="47.31207" lon="-2.25015">
        <ele>-21</ele>
        <time>2022-02-13T09:31:49.000Z</time>
      </trkpt>
      <trkpt lat="47.31214" lon="-2.25029">
        <ele>-21</ele>
        <time>2022-02-13T09:31:51.000Z</time>
      </trkpt>
      <trkpt lat="47.3122" lon="-2.25044">
        <ele>-21</ele>
        <time>2022-02-13T09:31:53.000Z</time>
      </trkpt>
      <trkpt lat="47.31244" lon="-2.25113">
        <ele>-21</ele>
        <time>2022-02-13T09:32:02.000Z</time>
      </trkpt>
      <trkpt lat="47.31263" lon="-2.25157">
        <ele>-21</ele>
        <time>2022-02-13T09:32:08.000Z</time>
      </trkpt>
      <trkpt lat="47.31289" lon="-2.25206">
        <ele>-21</ele>
        <time>2022-02-13T09:32:15.000Z</time>
      </trkpt>
      <trkpt lat="47.31294" lon="-2.25212">
        <ele>-21</ele>
        <time>2022-02-13T09:32:16.000Z</time>
      </trkpt>
      <trkpt lat="47.31317" lon="-2.25242">
        <ele>-21</ele>
        <time>2022-02-13T09:32:21.000Z</time>
      </trkpt>
      <trkpt lat="47.31344" lon="-2.25285">
        <ele>-21</ele>
        <time>2022-02-13T09:32:28.000Z</time>
      </trkpt>
      <trkpt lat="47.31349" lon="-2.25301">
        <ele>-21</ele>
        <time>2022-02-13T09:32:30.000Z</time>
      </trkpt>
      <trkpt lat="47.31352" lon="-2.25325">
        <ele>-21</ele>
        <time>2022-02-13T09:32:33.000Z</time>
      </trkpt>
      <trkpt lat="47.31359" lon="-2.25357">
        <ele>-21</ele>
        <time>2022-02-13T09:32:37.000Z</time>
      </trkpt>
      <trkpt lat="47.31366" lon="-2.2538">
        <ele>-21</ele>
        <time>2022-02-13T09:32:40.000Z</time>
      </trkpt>
      <trkpt lat="47.31369" lon="-2.25386">
        <ele>-21</ele>
        <time>2022-02-13T09:32:41.000Z</time>
      </trkpt>
      <trkpt lat="47.31381" lon="-2.254">
        <ele>-21</ele>
        <time>2022-02-13T09:32:44.000Z</time>
      </trkpt>
      <trkpt lat="47.31407" lon="-2.25432">
        <ele>-21</ele>
        <time>2022-02-13T09:32:50.000Z</time>
      </trkpt>
      <trkpt lat="47.3141" lon="-2.25439">
        <ele>-21</ele>
        <time>2022-02-13T09:32:51.000Z</time>
      </trkpt>
      <trkpt lat="47.31421" lon="-2.25465">
        <ele>-21</ele>
        <time>2022-02-13T09:32:55.000Z</time>
      </trkpt>
      <trkpt lat="47.31443" lon="-2.2552">
        <ele>-21</ele>
        <time>2022-02-13T09:33:03.000Z</time>
      </trkpt>
      <trkpt lat="47.31447" lon="-2.25526">
        <ele>-21</ele>
        <time>2022-02-13T09:33:04.000Z</time>
      </trkpt>
      <trkpt lat="47.31456" lon="-2.25538">
        <ele>-21</ele>
        <time>2022-02-13T09:33:06.000Z</time>
      </trkpt>
      <trkpt lat="47.31466" lon="-2.25549">
        <ele>-21</ele>
        <time>2022-02-13T09:33:08.000Z</time>
      </trkpt>
      <trkpt lat="47.3149" lon="-2.25572">
        <ele>-21</ele>
        <time>2022-02-13T09:33:13.000Z</time>
      </trkpt>
      <trkpt lat="47.31495" lon="-2.25577">
        <ele>-21</ele>
        <time>2022-02-13T09:33:14.000Z</time>
      </trkpt>
      <trkpt lat="47.31502" lon="-2.2559">
        <ele>-21</ele>
        <time>2022-02-13T09:33:16.000Z</time>
      </trkpt>
      <trkpt lat="47.3151" lon="-2.25612">
        <ele>-21</ele>
        <time>2022-02-13T09:33:19.000Z</time>
      </trkpt>
      <trkpt lat="47.31522" lon="-2.25655">
        <ele>-21</ele>
        <time>2022-02-13T09:33:25.000Z</time>
      </trkpt>
      <trkpt lat="47.31534" lon="-2.25704">
        <ele>-21</ele>
        <time>2022-02-13T09:33:32.000Z</time>
      </trkpt>
      <trkpt lat="47.31545" lon="-2.25749">
        <ele>-21</ele>
        <time>2022-02-13T09:33:38.000Z</time>
      </trkpt>
      <trkpt lat="47.31548" lon="-2.25773">
        <ele>-21</ele>
        <time>2022-02-13T09:33:41.000Z</time>
      </trkpt>
      <trkpt lat="47.31552" lon="-2.25806">
        <ele>-21</ele>
        <time>2022-02-13T09:33:45.000Z</time>
      </trkpt>
      <trkpt lat="47.31556" lon="-2.25866">
        <ele>-21</ele>
        <time>2022-02-13T09:33:52.000Z</time>
      </trkpt>
      <trkpt lat="47.31555" lon="-2.25874">
        <ele>-21</ele>
        <time>2022-02-13T09:33:53.000Z</time>
      </trkpt>
      <trkpt lat="47.31549" lon="-2.25888">
        <ele>-21</ele>
        <time>2022-02-13T09:33:55.000Z</time>
      </trkpt>
      <trkpt lat="47.31539" lon="-2.25901">
        <ele>-21</ele>
        <time>2022-02-13T09:33:57.000Z</time>
      </trkpt>
      <trkpt lat="47.31526" lon="-2.25921">
        <ele>-21</ele>
        <time>2022-02-13T09:34:00.000Z</time>
      </trkpt>
      <trkpt lat="47.31502" lon="-2.25965">
        <ele>-21</ele>
        <time>2022-02-13T09:34:07.000Z</time>
      </trkpt>
      <trkpt lat="47.31491" lon="-2.25985">
        <ele>-21</ele>
        <time>2022-02-13T09:34:12.000Z</time>
      </trkpt>
      <trkpt lat="47.31492" lon="-2.25989">
        <ele>-21</ele>
        <time>2022-02-13T09:34:13.000Z</time>
      </trkpt>
      <trkpt lat="47.31495" lon="-2.25997">
        <ele>-21</ele>
        <time>2022-02-13T09:34:16.000Z</time>
      </trkpt>
      <trkpt lat="47.31497" lon="-2.26007">
        <ele>-21</ele>
        <time>2022-02-13T09:34:20.000Z</time>
      </trkpt>
      <trkpt lat="47.31497" lon="-2.26006">
        <ele>-21</ele>
        <time>2022-02-13T09:34:21.000Z</time>
      </trkpt>
      <trkpt lat="47.31497" lon="-2.26006">
        <ele>-21</ele>
        <time>2022-02-13T09:34:22.000Z</time>
      </trkpt>
      <trkpt lat="47.315" lon="-2.26011">
        <ele>-23</ele>
        <time>2022-02-13T09:50:15.000Z</time>
      </trkpt>
      <trkpt lat="47.31499" lon="-2.26011">
        <ele>-23</ele>
        <time>2022-02-13T09:50:16.000Z</time>
      </trkpt>
      <trkpt lat="47.31498" lon="-2.26006">
        <ele>-23</ele>
        <time>2022-02-13T09:50:20.000Z</time>
      </trkpt>
      <trkpt lat="47.31498" lon="-2.26005">
        <ele>-23</ele>
        <time>2022-02-13T09:50:21.000Z</time>
      </trkpt>
      <trkpt lat="47.31497" lon="-2.26003">
        <ele>-23</ele>
        <time>2022-02-13T09:50:24.000Z</time>
      </trkpt>
      <trkpt lat="47.3149" lon="-2.25995">
        <ele>-23</ele>
        <time>2022-02-13T09:50:52.000Z</time>
      </trkpt>
      <trkpt lat="47.31489" lon="-2.25995">
        <ele>-23</ele>
        <time>2022-02-13T09:50:53.000Z</time>
      </trkpt>
      <trkpt lat="47.31482" lon="-2.25999">
        <ele>-23</ele>
        <time>2022-02-13T09:50:58.000Z</time>
      </trkpt>
      <trkpt lat="47.31481" lon="-2.26005">
        <ele>-22.60000038147</ele>
        <time>2022-02-13T09:51:00.000Z</time>
      </trkpt>
      <trkpt lat="47.31479" lon="-2.26008">
        <ele>-22.200000762939</ele>
        <time>2022-02-13T09:51:01.000Z</time>
      </trkpt>
      <trkpt lat="47.31477" lon="-2.26011">
        <ele>-21.799999237061</ele>
        <time>2022-02-13T09:51:02.000Z</time>
      </trkpt>
      <trkpt lat="47.31475" lon="-2.26015">
        <ele>-21.39999961853</ele>
        <time>2022-02-13T09:51:03.000Z</time>
      </trkpt>
      <trkpt lat="47.31472" lon="-2.26019">
        <ele>-21</ele>
        <time>2022-02-13T09:51:04.000Z</time>
      </trkpt>
      <trkpt lat="47.31456" lon="-2.26045">
        <ele>-21</ele>
        <time>2022-02-13T09:51:10.000Z</time>
      </trkpt>
      <trkpt lat="47.31436" lon="-2.26073">
        <ele>-21</ele>
        <time>2022-02-13T09:51:16.000Z</time>
      </trkpt>
      <trkpt lat="47.31423" lon="-2.26107">
        <ele>-21</ele>
        <time>2022-02-13T09:51:22.000Z</time>
      </trkpt>
      <trkpt lat="47.31421" lon="-2.26112">
        <ele>-21</ele>
        <time>2022-02-13T09:51:23.000Z</time>
      </trkpt>
      <trkpt lat="47.31416" lon="-2.26121">
        <ele>-21</ele>
        <time>2022-02-13T09:51:25.000Z</time>
      </trkpt>
      <trkpt lat="47.31403" lon="-2.26137">
        <ele>-21</ele>
        <time>2022-02-13T09:51:29.000Z</time>
      </trkpt>
      <trkpt lat="47.31378" lon="-2.26156">
        <ele>-21</ele>
        <time>2022-02-13T09:51:35.000Z</time>
      </trkpt>
      <trkpt lat="47.31374" lon="-2.26158">
        <ele>-21</ele>
        <time>2022-02-13T09:51:36.000Z</time>
      </trkpt>
      <trkpt lat="47.3136" lon="-2.26158">
        <ele>-21</ele>
        <time>2022-02-13T09:51:39.000Z</time>
      </trkpt>
      <trkpt lat="47.31355" lon="-2.26156">
        <ele>-21</ele>
        <time>2022-02-13T09:51:40.000Z</time>
      </trkpt>
      <trkpt lat="47.31327" lon="-2.26145">
        <ele>-21</ele>
        <time>2022-02-13T09:51:46.000Z</time>
      </trkpt>
      <trkpt lat="47.313" lon="-2.26131">
        <ele>-21</ele>
        <time>2022-02-13T09:51:52.000Z</time>
      </trkpt>
      <trkpt lat="47.31296" lon="-2.26128">
        <ele>-21</ele>
        <time>2022-02-13T09:51:53.000Z</time>
      </trkpt>
      <trkpt lat="47.31255" lon="-2.26108">
        <ele>-21</ele>
        <time>2022-02-13T09:52:01.000Z</time>
      </trkpt>
      <trkpt lat="47.3122" lon="-2.26087">
        <ele>-21</ele>
        <time>2022-02-13T09:52:08.000Z</time>
      </trkpt>
      <trkpt lat="47.31212" lon="-2.2608">
        <ele>-21</ele>
        <time>2022-02-13T09:52:10.000Z</time>
      </trkpt>
      <trkpt lat="47.31194" lon="-2.26066">
        <ele>-21</ele>
        <time>2022-02-13T09:52:15.000Z</time>
      </trkpt>
      <trkpt lat="47.31161" lon="-2.26044">
        <ele>-21</ele>
        <time>2022-02-13T09:52:22.000Z</time>
      </trkpt>
      <trkpt lat="47.31143" lon="-2.26033">
        <ele>-20.60000038147</ele>
        <time>2022-02-13T09:52:26.000Z</time>
      </trkpt>
      <trkpt lat="47.31139" lon="-2.2603">
        <ele>-20.200000762939</ele>
        <time>2022-02-13T09:52:27.000Z</time>
      </trkpt>
      <trkpt lat="47.31134" lon="-2.26028">
        <ele>-19.799999237061</ele>
        <time>2022-02-13T09:52:29.000Z</time>
      </trkpt>
      <trkpt lat="47.3113" lon="-2.26026">
        <ele>-19</ele>
        <time>2022-02-13T09:52:30.000Z</time>
      </trkpt>
      <trkpt lat="47.31126" lon="-2.26024">
        <ele>-19</ele>
        <time>2022-02-13T09:52:31.000Z</time>
      </trkpt>
      <trkpt lat="47.31101" lon="-2.26007">
        <ele>-19</ele>
        <time>2022-02-13T09:52:38.000Z</time>
      </trkpt>
      <trkpt lat="47.31084" lon="-2.26004">
        <ele>-18.39999961853</ele>
        <time>2022-02-13T09:52:43.000Z</time>
      </trkpt>
      <trkpt lat="47.3108" lon="-2.26006">
        <ele>-18</ele>
        <time>2022-02-13T09:52:44.000Z</time>
      </trkpt>
      <trkpt lat="47.31077" lon="-2.26009">
        <ele>-17.60000038147</ele>
        <time>2022-02-13T09:52:45.000Z</time>
      </trkpt>
      <trkpt lat="47.31074" lon="-2.26012">
        <ele>-17.200000762939</ele>
        <time>2022-02-13T09:52:46.000Z</time>
      </trkpt>
      <trkpt lat="47.31071" lon="-2.26016">
        <ele>-16.799999237061</ele>
        <time>2022-02-13T09:52:47.000Z</time>
      </trkpt>
      <trkpt lat="47.31068" lon="-2.2602">
        <ele>-16.799999237061</ele>
        <time>2022-02-13T09:52:48.000Z</time>
      </trkpt>
      <trkpt lat="47.31054" lon="-2.2604">
        <ele>-16.799999237061</ele>
        <time>2022-02-13T09:52:52.000Z</time>
      </trkpt>
      <trkpt lat="47.31052" lon="-2.26046">
        <ele>-16.799999237061</ele>
        <time>2022-02-13T09:52:53.000Z</time>
      </trkpt>
      <trkpt lat="47.31048" lon="-2.26069">
        <ele>-16.799999237061</ele>
        <time>2022-02-13T09:52:56.000Z</time>
      </trkpt>
      <trkpt lat="47.31046" lon="-2.26085">
        <ele>-16.799999237061</ele>
        <time>2022-02-13T09:52:58.000Z</time>
      </trkpt>
      <trkpt lat="47.31037" lon="-2.26151">
        <ele>-16.799999237061</ele>
        <time>2022-02-13T09:53:06.000Z</time>
      </trkpt>
      <trkpt lat="47.31034" lon="-2.26168">
        <ele>-17.200000762939</ele>
        <time>2022-02-13T09:53:08.000Z</time>
      </trkpt>
      <trkpt lat="47.31033" lon="-2.26177">
        <ele>-17.60000038147</ele>
        <time>2022-02-13T09:53:09.000Z</time>
      </trkpt>
      <trkpt lat="47.31032" lon="-2.26186">
        <ele>-18</ele>
        <time>2022-02-13T09:53:10.000Z</time>
      </trkpt>
      <trkpt lat="47.3103" lon="-2.26194">
        <ele>-18.39999961853</ele>
        <time>2022-02-13T09:53:11.000Z</time>
      </trkpt>
      <trkpt lat="47.31029" lon="-2.26202">
        <ele>-18.799999237061</ele>
        <time>2022-02-13T09:53:12.000Z</time>
      </trkpt>
      <trkpt lat="47.31026" lon="-2.26226">
        <ele>-18.799999237061</ele>
        <time>2022-02-13T09:53:15.000Z</time>
      </trkpt>
      <trkpt lat="47.31017" lon="-2.26291">
        <ele>-18.799999237061</ele>
        <time>2022-02-13T09:53:23.000Z</time>
      </trkpt>
      <trkpt lat="47.31004" lon="-2.26358">
        <ele>-18.799999237061</ele>
        <time>2022-02-13T09:53:31.000Z</time>
      </trkpt>
      <trkpt lat="47.30992" lon="-2.26419">
        <ele>-18.799999237061</ele>
        <time>2022-02-13T09:53:38.000Z</time>
      </trkpt>
      <trkpt lat="47.3098" lon="-2.26488">
        <ele>-18.799999237061</ele>
        <time>2022-02-13T09:53:46.000Z</time>
      </trkpt>
      <trkpt lat="47.30968" lon="-2.26549">
        <ele>-18.799999237061</ele>
        <time>2022-02-13T09:53:53.000Z</time>
      </trkpt>
      <trkpt lat="47.30953" lon="-2.26628">
        <ele>-18.799999237061</ele>
        <time>2022-02-13T09:54:02.000Z</time>
      </trkpt>
      <trkpt lat="47.30943" lon="-2.26688">
        <ele>-18.799999237061</ele>
        <time>2022-02-13T09:54:09.000Z</time>
      </trkpt>
      <trkpt lat="47.3093" lon="-2.26749">
        <ele>-18.799999237061</ele>
        <time>2022-02-13T09:54:16.000Z</time>
      </trkpt>
      <trkpt lat="47.30916" lon="-2.26817">
        <ele>-18.799999237061</ele>
        <time>2022-02-13T09:54:24.000Z</time>
      </trkpt>
      <trkpt lat="47.30903" lon="-2.26889">
        <ele>-18.799999237061</ele>
        <time>2022-02-13T09:54:33.000Z</time>
      </trkpt>
      <trkpt lat="47.30903" lon="-2.26897">
        <ele>-18.799999237061</ele>
        <time>2022-02-13T09:54:34.000Z</time>
      </trkpt>
      <trkpt lat="47.30907" lon="-2.26919">
        <ele>-18.799999237061</ele>
        <time>2022-02-13T09:54:37.000Z</time>
      </trkpt>
      <trkpt lat="47.3091" lon="-2.26925">
        <ele>-19.200000762939</ele>
        <time>2022-02-13T09:54:38.000Z</time>
      </trkpt>
      <trkpt lat="47.30914" lon="-2.26932">
        <ele>-19.799999237061</ele>
        <time>2022-02-13T09:54:39.000Z</time>
      </trkpt>
      <trkpt lat="47.30918" lon="-2.26936">
        <ele>-20.200000762939</ele>
        <time>2022-02-13T09:54:40.000Z</time>
      </trkpt>
      <trkpt lat="47.30921" lon="-2.2694">
        <ele>-20.60000038147</ele>
        <time>2022-02-13T09:54:41.000Z</time>
      </trkpt>
      <trkpt lat="47.30927" lon="-2.26942">
        <ele>-21</ele>
        <time>2022-02-13T09:54:42.000Z</time>
      </trkpt>
      <trkpt lat="47.30932" lon="-2.26945">
        <ele>-21</ele>
        <time>2022-02-13T09:54:43.000Z</time>
      </trkpt>
      <trkpt lat="47.30948" lon="-2.26955">
        <ele>-21</ele>
        <time>2022-02-13T09:54:46.000Z</time>
      </trkpt>
      <trkpt lat="47.30978" lon="-2.26975">
        <ele>-21</ele>
        <time>2022-02-13T09:54:52.000Z</time>
      </trkpt>
      <trkpt lat="47.3099" lon="-2.26988">
        <ele>-21</ele>
        <time>2022-02-13T09:54:55.000Z</time>
      </trkpt>
      <trkpt lat="47.30995" lon="-2.27">
        <ele>-21</ele>
        <time>2022-02-13T09:54:57.000Z</time>
      </trkpt>
      <trkpt lat="47.30996" lon="-2.27014">
        <ele>-21</ele>
        <time>2022-02-13T09:54:59.000Z</time>
      </trkpt>
      <trkpt lat="47.30997" lon="-2.27021">
        <ele>-21</ele>
        <time>2022-02-13T09:55:00.000Z</time>
      </trkpt>
      <trkpt lat="47.30998" lon="-2.27027">
        <ele>-21</ele>
        <time>2022-02-13T09:55:01.000Z</time>
      </trkpt>
      <trkpt lat="47.30998" lon="-2.27042">
        <ele>-20.60000038147</ele>
        <time>2022-02-13T09:55:03.000Z</time>
      </trkpt>
      <trkpt lat="47.30998" lon="-2.27048">
        <ele>-20.200000762939</ele>
        <time>2022-02-13T09:55:04.000Z</time>
      </trkpt>
      <trkpt lat="47.30998" lon="-2.27055">
        <ele>-19.799999237061</ele>
        <time>2022-02-13T09:55:05.000Z</time>
      </trkpt>
      <trkpt lat="47.30998" lon="-2.27061">
        <ele>-19.39999961853</ele>
        <time>2022-02-13T09:55:06.000Z</time>
      </trkpt>
      <trkpt lat="47.30998" lon="-2.27067">
        <ele>-19</ele>
        <time>2022-02-13T09:55:07.000Z</time>
      </trkpt>
      <trkpt lat="47.30999" lon="-2.27085">
        <ele>-18.39999961853</ele>
        <time>2022-02-13T09:55:10.000Z</time>
      </trkpt>
      <trkpt lat="47.30999" lon="-2.27092">
        <ele>-18</ele>
        <time>2022-02-13T09:55:11.000Z</time>
      </trkpt>
      <trkpt lat="47.30999" lon="-2.27098">
        <ele>-17.60000038147</ele>
        <time>2022-02-13T09:55:12.000Z</time>
      </trkpt>
      <trkpt lat="47.31" lon="-2.27104">
        <ele>-17.200000762939</ele>
        <time>2022-02-13T09:55:13.000Z</time>
      </trkpt>
      <trkpt lat="47.31" lon="-2.2711">
        <ele>-16.799999237061</ele>
        <time>2022-02-13T09:55:14.000Z</time>
      </trkpt>
      <trkpt lat="47.31004" lon="-2.27163">
        <ele>-16.799999237061</ele>
        <time>2022-02-13T09:55:22.000Z</time>
      </trkpt>
      <trkpt lat="47.31008" lon="-2.27216">
        <ele>-16.799999237061</ele>
        <time>2022-02-13T09:55:29.000Z</time>
      </trkpt>
      <trkpt lat="47.3101" lon="-2.27224">
        <ele>-16.799999237061</ele>
        <time>2022-02-13T09:55:30.000Z</time>
      </trkpt>
      <trkpt lat="47.31019" lon="-2.27243">
        <ele>-16.799999237061</ele>
        <time>2022-02-13T09:55:33.000Z</time>
      </trkpt>
      <trkpt lat="47.31037" lon="-2.27254">
        <ele>-16.799999237061</ele>
        <time>2022-02-13T09:55:36.000Z</time>
      </trkpt>
      <trkpt lat="47.31057" lon="-2.27255">
        <ele>-16.799999237061</ele>
        <time>2022-02-13T09:55:39.000Z</time>
      </trkpt>
      <trkpt lat="47.31064" lon="-2.27252">
        <ele>-16.799999237061</ele>
        <time>2022-02-13T09:55:40.000Z</time>
      </trkpt>
      <trkpt lat="47.31091" lon="-2.27243">
        <ele>-16.799999237061</ele>
        <time>2022-02-13T09:55:45.000Z</time>
      </trkpt>
      <trkpt lat="47.31126" lon="-2.27229">
        <ele>-16.799999237061</ele>
        <time>2022-02-13T09:55:52.000Z</time>
      </trkpt>
      <trkpt lat="47.31132" lon="-2.27226">
        <ele>-16.799999237061</ele>
        <time>2022-02-13T09:55:53.000Z</time>
      </trkpt>
      <trkpt lat="47.31166" lon="-2.27198">
        <ele>-16.799999237061</ele>
        <time>2022-02-13T09:56:00.000Z</time>
      </trkpt>
      <trkpt lat="47.312" lon="-2.27162">
        <ele>-16.799999237061</ele>
        <time>2022-02-13T09:56:07.000Z</time>
      </trkpt>
      <trkpt lat="47.31243" lon="-2.27124">
        <ele>-16.799999237061</ele>
        <time>2022-02-13T09:56:15.000Z</time>
      </trkpt>
      <trkpt lat="47.31282" lon="-2.27096">
        <ele>-16.799999237061</ele>
        <time>2022-02-13T09:56:22.000Z</time>
      </trkpt>
      <trkpt lat="47.31322" lon="-2.27076">
        <ele>-16.799999237061</ele>
        <time>2022-02-13T09:56:29.000Z</time>
      </trkpt>
      <trkpt lat="47.31377" lon="-2.27057">
        <ele>-16.799999237061</ele>
        <time>2022-02-13T09:56:38.000Z</time>
      </trkpt>
      <trkpt lat="47.31418" lon="-2.27033">
        <ele>-16.799999237061</ele>
        <time>2022-02-13T09:56:45.000Z</time>
      </trkpt>
      <trkpt lat="47.31455" lon="-2.27005">
        <ele>-16.799999237061</ele>
        <time>2022-02-13T09:56:52.000Z</time>
      </trkpt>
      <trkpt lat="47.31465" lon="-2.26997">
        <ele>-17.200000762939</ele>
        <time>2022-02-13T09:56:54.000Z</time>
      </trkpt>
      <trkpt lat="47.31471" lon="-2.26993">
        <ele>-17.799999237061</ele>
        <time>2022-02-13T09:56:55.000Z</time>
      </trkpt>
      <trkpt lat="47.31477" lon="-2.2699">
        <ele>-18.39999961853</ele>
        <time>2022-02-13T09:56:56.000Z</time>
      </trkpt>
      <trkpt lat="47.31482" lon="-2.26987">
        <ele>-18.799999237061</ele>
        <time>2022-02-13T09:56:57.000Z</time>
      </trkpt>
      <trkpt lat="47.31488" lon="-2.26984">
        <ele>-19.39999961853</ele>
        <time>2022-02-13T09:56:58.000Z</time>
      </trkpt>
      <trkpt lat="47.31491" lon="-2.2698">
        <ele>-19.39999961853</ele>
        <time>2022-02-13T09:56:59.000Z</time>
      </trkpt>
      <trkpt lat="47.31496" lon="-2.26965">
        <ele>-19.39999961853</ele>
        <time>2022-02-13T09:57:01.000Z</time>
      </trkpt>
      <trkpt lat="47.31508" lon="-2.26921">
        <ele>-19.39999961853</ele>
        <time>2022-02-13T09:57:06.000Z</time>
      </trkpt>
      <trkpt lat="47.31528" lon="-2.26865">
        <ele>-19.799999237061</ele>
        <time>2022-02-13T09:57:12.000Z</time>
      </trkpt>
      <trkpt lat="47.31531" lon="-2.26857">
        <ele>-20.200000762939</ele>
        <time>2022-02-13T09:57:13.000Z</time>
      </trkpt>
      <trkpt lat="47.31534" lon="-2.26848">
        <ele>-20.60000038147</ele>
        <time>2022-02-13T09:57:14.000Z</time>
      </trkpt>
      <trkpt lat="47.31537" lon="-2.2684">
        <ele>-21</ele>
        <time>2022-02-13T09:57:15.000Z</time>
      </trkpt>
      <trkpt lat="47.3154" lon="-2.26832">
        <ele>-21.39999961853</ele>
        <time>2022-02-13T09:57:16.000Z</time>
      </trkpt>
      <trkpt lat="47.31542" lon="-2.26821">
        <ele>-21.39999961853</ele>
        <time>2022-02-13T09:57:17.000Z</time>
      </trkpt>
      <trkpt lat="47.31544" lon="-2.26815">
        <ele>-21.39999961853</ele>
        <time>2022-02-13T09:57:18.000Z</time>
      </trkpt>
      <trkpt lat="47.31554" lon="-2.26794">
        <ele>-21.39999961853</ele>
        <time>2022-02-13T09:57:21.000Z</time>
      </trkpt>
      <trkpt lat="47.3156" lon="-2.26778">
        <ele>-21.39999961853</ele>
        <time>2022-02-13T09:57:23.000Z</time>
      </trkpt>
      <trkpt lat="47.31576" lon="-2.26757">
        <ele>-21.39999961853</ele>
        <time>2022-02-13T09:57:27.000Z</time>
      </trkpt>
      <trkpt lat="47.3158" lon="-2.26756">
        <ele>-21.39999961853</ele>
        <time>2022-02-13T09:57:28.000Z</time>
      </trkpt>
      <trkpt lat="47.31598" lon="-2.26756">
        <ele>-21.39999961853</ele>
        <time>2022-02-13T09:57:31.000Z</time>
      </trkpt>
      <trkpt lat="47.31604" lon="-2.26757">
        <ele>-21.39999961853</ele>
        <time>2022-02-13T09:57:32.000Z</time>
      </trkpt>
      <trkpt lat="47.3161" lon="-2.26756">
        <ele>-21.39999961853</ele>
        <time>2022-02-13T09:57:33.000Z</time>
      </trkpt>
      <trkpt lat="47.31621" lon="-2.26755">
        <ele>-21.39999961853</ele>
        <time>2022-02-13T09:57:35.000Z</time>
      </trkpt>
      <trkpt lat="47.31626" lon="-2.26751">
        <ele>-21.39999961853</ele>
        <time>2022-02-13T09:57:36.000Z</time>
      </trkpt>
      <trkpt lat="47.31639" lon="-2.26738">
        <ele>-21.39999961853</ele>
        <time>2022-02-13T09:57:39.000Z</time>
      </trkpt>
      <trkpt lat="47.31648" lon="-2.26732">
        <ele>-21.39999961853</ele>
        <time>2022-02-13T09:57:41.000Z</time>
      </trkpt>
      <trkpt lat="47.31673" lon="-2.26725">
        <ele>-21.39999961853</ele>
        <time>2022-02-13T09:57:46.000Z</time>
      </trkpt>
      <trkpt lat="47.31687" lon="-2.26721">
        <ele>-21.39999961853</ele>
        <time>2022-02-13T09:57:49.000Z</time>
      </trkpt>
      <trkpt lat="47.31697" lon="-2.26722">
        <ele>-21.39999961853</ele>
        <time>2022-02-13T09:57:51.000Z</time>
      </trkpt>
      <trkpt lat="47.31702" lon="-2.26721">
        <ele>-21.39999961853</ele>
        <time>2022-02-13T09:57:52.000Z</time>
      </trkpt>
      <trkpt lat="47.31727" lon="-2.26716">
        <ele>-21.39999961853</ele>
        <time>2022-02-13T09:57:57.000Z</time>
      </trkpt>
      <trkpt lat="47.31732" lon="-2.26716">
        <ele>-21</ele>
        <time>2022-02-13T09:57:58.000Z</time>
      </trkpt>
      <trkpt lat="47.31737" lon="-2.26715">
        <ele>-20.60000038147</ele>
        <time>2022-02-13T09:57:59.000Z</time>
      </trkpt>
      <trkpt lat="47.31742" lon="-2.26713">
        <ele>-20.200000762939</ele>
        <time>2022-02-13T09:58:00.000Z</time>
      </trkpt>
      <trkpt lat="47.31747" lon="-2.26711">
        <ele>-19.799999237061</ele>
        <time>2022-02-13T09:58:01.000Z</time>
      </trkpt>
      <trkpt lat="47.31752" lon="-2.26709">
        <ele>-19.39999961853</ele>
        <time>2022-02-13T09:58:02.000Z</time>
      </trkpt>
      <trkpt lat="47.3178" lon="-2.267">
        <ele>-19</ele>
        <time>2022-02-13T09:58:08.000Z</time>
      </trkpt>
      <trkpt lat="47.31785" lon="-2.26698">
        <ele>-18.60000038147</ele>
        <time>2022-02-13T09:58:09.000Z</time>
      </trkpt>
      <trkpt lat="47.31789" lon="-2.26697">
        <ele>-18.200000762939</ele>
        <time>2022-02-13T09:58:10.000Z</time>
      </trkpt>
      <trkpt lat="47.31793" lon="-2.26696">
        <ele>-17.799999237061</ele>
        <time>2022-02-13T09:58:11.000Z</time>
      </trkpt>
      <trkpt lat="47.31797" lon="-2.26695">
        <ele>-17.39999961853</ele>
        <time>2022-02-13T09:58:12.000Z</time>
      </trkpt>
      <trkpt lat="47.31808" lon="-2.26699">
        <ele>-17.39999961853</ele>
        <time>2022-02-13T09:58:15.000Z</time>
      </trkpt>
      <trkpt lat="47.31816" lon="-2.26714">
        <ele>-17.39999961853</ele>
        <time>2022-02-13T09:58:18.000Z</time>
      </trkpt>
      <trkpt lat="47.31818" lon="-2.26721">
        <ele>-17.39999961853</ele>
        <time>2022-02-13T09:58:19.000Z</time>
      </trkpt>
      <trkpt lat="47.31826" lon="-2.26733">
        <ele>-17.39999961853</ele>
        <time>2022-02-13T09:58:21.000Z</time>
      </trkpt>
      <trkpt lat="47.31836" lon="-2.2674">
        <ele>-17.39999961853</ele>
        <time>2022-02-13T09:58:23.000Z</time>
      </trkpt>
      <trkpt lat="47.31855" lon="-2.26738">
        <ele>-17.39999961853</ele>
        <time>2022-02-13T09:58:27.000Z</time>
      </trkpt>
      <trkpt lat="47.31868" lon="-2.26729">
        <ele>-17.39999961853</ele>
        <time>2022-02-13T09:58:30.000Z</time>
      </trkpt>
      <trkpt lat="47.31872" lon="-2.26724">
        <ele>-16.799999237061</ele>
        <time>2022-02-13T09:58:31.000Z</time>
      </trkpt>
      <trkpt lat="47.31877" lon="-2.2672">
        <ele>-16.39999961853</ele>
        <time>2022-02-13T09:58:32.000Z</time>
      </trkpt>
      <trkpt lat="47.31881" lon="-2.26716">
        <ele>-15.60000038147</ele>
        <time>2022-02-13T09:58:33.000Z</time>
      </trkpt>
      <trkpt lat="47.31885" lon="-2.26713">
        <ele>-15.199999809265</ele>
        <time>2022-02-13T09:58:34.000Z</time>
      </trkpt>
      <trkpt lat="47.31903" lon="-2.26699">
        <ele>-15.199999809265</ele>
        <time>2022-02-13T09:58:38.000Z</time>
      </trkpt>
      <trkpt lat="47.31945" lon="-2.26664">
        <ele>-15.199999809265</ele>
        <time>2022-02-13T09:58:47.000Z</time>
      </trkpt>
      <trkpt lat="47.31986" lon="-2.26633">
        <ele>-15.199999809265</ele>
        <time>2022-02-13T09:58:54.000Z</time>
      </trkpt>
      <trkpt lat="47.32023" lon="-2.2661">
        <ele>-15.800000190735</ele>
        <time>2022-02-13T09:59:00.000Z</time>
      </trkpt>
      <trkpt lat="47.32029" lon="-2.26606">
        <ele>-16.200000762939</ele>
        <time>2022-02-13T09:59:01.000Z</time>
      </trkpt>
      <trkpt lat="47.32035" lon="-2.26602">
        <ele>-16.60000038147</ele>
        <time>2022-02-13T09:59:02.000Z</time>
      </trkpt>
      <trkpt lat="47.32042" lon="-2.26598">
        <ele>-17</ele>
        <time>2022-02-13T09:59:03.000Z</time>
      </trkpt>
      <trkpt lat="47.32048" lon="-2.26594">
        <ele>-17.60000038147</ele>
        <time>2022-02-13T09:59:04.000Z</time>
      </trkpt>
      <trkpt lat="47.32067" lon="-2.26587">
        <ele>-17.60000038147</ele>
        <time>2022-02-13T09:59:07.000Z</time>
      </trkpt>
      <trkpt lat="47.32074" lon="-2.26585">
        <ele>-17.60000038147</ele>
        <time>2022-02-13T09:59:08.000Z</time>
      </trkpt>
      <trkpt lat="47.32114" lon="-2.26582">
        <ele>-17.60000038147</ele>
        <time>2022-02-13T09:59:14.000Z</time>
      </trkpt>
      <trkpt lat="47.32154" lon="-2.26596">
        <ele>-17.60000038147</ele>
        <time>2022-02-13T09:59:20.000Z</time>
      </trkpt>
      <trkpt lat="47.32196" lon="-2.26606">
        <ele>-17.60000038147</ele>
        <time>2022-02-13T09:59:26.000Z</time>
      </trkpt>
      <trkpt lat="47.32244" lon="-2.26606">
        <ele>-17.60000038147</ele>
        <time>2022-02-13T09:59:33.000Z</time>
      </trkpt>
      <trkpt lat="47.32279" lon="-2.26604">
        <ele>-17.60000038147</ele>
        <time>2022-02-13T09:59:38.000Z</time>
      </trkpt>
      <trkpt lat="47.32286" lon="-2.26602">
        <ele>-18</ele>
        <time>2022-02-13T09:59:39.000Z</time>
      </trkpt>
      <trkpt lat="47.32293" lon="-2.26597">
        <ele>-18.39999961853</ele>
        <time>2022-02-13T09:59:40.000Z</time>
      </trkpt>
      <trkpt lat="47.32297" lon="-2.26592">
        <ele>-18.799999237061</ele>
        <time>2022-02-13T09:59:41.000Z</time>
      </trkpt>
      <trkpt lat="47.32302" lon="-2.26586">
        <ele>-19.200000762939</ele>
        <time>2022-02-13T09:59:42.000Z</time>
      </trkpt>
      <trkpt lat="47.32306" lon="-2.2658">
        <ele>-19.60000038147</ele>
        <time>2022-02-13T09:59:43.000Z</time>
      </trkpt>
      <trkpt lat="47.3234" lon="-2.26542">
        <ele>-19.60000038147</ele>
        <time>2022-02-13T09:59:50.000Z</time>
      </trkpt>
      <trkpt lat="47.32345" lon="-2.26538">
        <ele>-19.60000038147</ele>
        <time>2022-02-13T09:59:51.000Z</time>
      </trkpt>
      <trkpt lat="47.32362" lon="-2.2653">
        <ele>-19.60000038147</ele>
        <time>2022-02-13T09:59:54.000Z</time>
      </trkpt>
      <trkpt lat="47.32368" lon="-2.26529">
        <ele>-19.60000038147</ele>
        <time>2022-02-13T09:59:55.000Z</time>
      </trkpt>
      <trkpt lat="47.32379" lon="-2.26535">
        <ele>-19.60000038147</ele>
        <time>2022-02-13T09:59:57.000Z</time>
      </trkpt>
      <trkpt lat="47.3239" lon="-2.26553">
        <ele>-19.60000038147</ele>
        <time>2022-02-13T10:00:00.000Z</time>
      </trkpt>
      <trkpt lat="47.32394" lon="-2.26579">
        <ele>-19.60000038147</ele>
        <time>2022-02-13T10:00:03.000Z</time>
      </trkpt>
      <trkpt lat="47.32395" lon="-2.26587">
        <ele>-19.60000038147</ele>
        <time>2022-02-13T10:00:04.000Z</time>
      </trkpt>
      <trkpt lat="47.3241" lon="-2.26641">
        <ele>-19.60000038147</ele>
        <time>2022-02-13T10:00:11.000Z</time>
      </trkpt>
      <trkpt lat="47.3242" lon="-2.26672">
        <ele>-19.60000038147</ele>
        <time>2022-02-13T10:00:15.000Z</time>
      </trkpt>
      <trkpt lat="47.32421" lon="-2.2668">
        <ele>-19.60000038147</ele>
        <time>2022-02-13T10:00:16.000Z</time>
      </trkpt>
      <trkpt lat="47.32422" lon="-2.26688">
        <ele>-19.60000038147</ele>
        <time>2022-02-13T10:00:17.000Z</time>
      </trkpt>
      <trkpt lat="47.32422" lon="-2.2672">
        <ele>-19.60000038147</ele>
        <time>2022-02-13T10:00:21.000Z</time>
      </trkpt>
      <trkpt lat="47.32424" lon="-2.26792">
        <ele>-19.60000038147</ele>
        <time>2022-02-13T10:00:29.000Z</time>
      </trkpt>
      <trkpt lat="47.32426" lon="-2.2682">
        <ele>-19.60000038147</ele>
        <time>2022-02-13T10:00:32.000Z</time>
      </trkpt>
      <trkpt lat="47.3243" lon="-2.26854">
        <ele>-20</ele>
        <time>2022-02-13T10:00:36.000Z</time>
      </trkpt>
      <trkpt lat="47.32431" lon="-2.26862">
        <ele>-20.39999961853</ele>
        <time>2022-02-13T10:00:37.000Z</time>
      </trkpt>
      <trkpt lat="47.32432" lon="-2.2687">
        <ele>-20.799999237061</ele>
        <time>2022-02-13T10:00:38.000Z</time>
      </trkpt>
      <trkpt lat="47.32433" lon="-2.26879">
        <ele>-21.200000762939</ele>
        <time>2022-02-13T10:00:39.000Z</time>
      </trkpt>
      <trkpt lat="47.32435" lon="-2.26888">
        <ele>-21.60000038147</ele>
        <time>2022-02-13T10:00:40.000Z</time>
      </trkpt>
      <trkpt lat="47.3244" lon="-2.26913">
        <ele>-21.60000038147</ele>
        <time>2022-02-13T10:00:43.000Z</time>
      </trkpt>
      <trkpt lat="47.32452" lon="-2.26988">
        <ele>-21.60000038147</ele>
        <time>2022-02-13T10:00:52.000Z</time>
      </trkpt>
      <trkpt lat="47.32452" lon="-2.27007">
        <ele>-21.60000038147</ele>
        <time>2022-02-13T10:00:54.000Z</time>
      </trkpt>
      <trkpt lat="47.32449" lon="-2.2702">
        <ele>-21.60000038147</ele>
        <time>2022-02-13T10:00:56.000Z</time>
      </trkpt>
      <trkpt lat="47.32444" lon="-2.27024">
        <ele>-21.60000038147</ele>
        <time>2022-02-13T10:00:57.000Z</time>
      </trkpt>
      <trkpt lat="47.32433" lon="-2.27023">
        <ele>-21.60000038147</ele>
        <time>2022-02-13T10:00:59.000Z</time>
      </trkpt>
      <trkpt lat="47.32422" lon="-2.27023">
        <ele>-20.799999237061</ele>
        <time>2022-02-13T10:01:01.000Z</time>
      </trkpt>
      <trkpt lat="47.32417" lon="-2.27023">
        <ele>-20.39999961853</ele>
        <time>2022-02-13T10:01:02.000Z</time>
      </trkpt>
      <trkpt lat="47.32412" lon="-2.27023">
        <ele>-19.799999237061</ele>
        <time>2022-02-13T10:01:03.000Z</time>
      </trkpt>
      <trkpt lat="47.32407" lon="-2.27022">
        <ele>-19.39999961853</ele>
        <time>2022-02-13T10:01:04.000Z</time>
      </trkpt>
      <trkpt lat="47.32396" lon="-2.27021">
        <ele>-19.39999961853</ele>
        <time>2022-02-13T10:01:06.000Z</time>
      </trkpt>
      <trkpt lat="47.32387" lon="-2.27024">
        <ele>-19.39999961853</ele>
        <time>2022-02-13T10:01:08.000Z</time>
      </trkpt>
      <trkpt lat="47.32385" lon="-2.2703">
        <ele>-19.39999961853</ele>
        <time>2022-02-13T10:01:09.000Z</time>
      </trkpt>
      <trkpt lat="47.32383" lon="-2.2706">
        <ele>-19.39999961853</ele>
        <time>2022-02-13T10:01:13.000Z</time>
      </trkpt>
      <trkpt lat="47.32387" lon="-2.2711">
        <ele>-19.39999961853</ele>
        <time>2022-02-13T10:01:19.000Z</time>
      </trkpt>
      <trkpt lat="47.32387" lon="-2.27146">
        <ele>-19.39999961853</ele>
        <time>2022-02-13T10:01:23.000Z</time>
      </trkpt>
      <trkpt lat="47.32382" lon="-2.27172">
        <ele>-19.39999961853</ele>
        <time>2022-02-13T10:01:26.000Z</time>
      </trkpt>
      <trkpt lat="47.32377" lon="-2.27188">
        <ele>-19</ele>
        <time>2022-02-13T10:01:28.000Z</time>
      </trkpt>
      <trkpt lat="47.32374" lon="-2.27195">
        <ele>-18.60000038147</ele>
        <time>2022-02-13T10:01:29.000Z</time>
      </trkpt>
      <trkpt lat="47.32371" lon="-2.27203">
        <ele>-18.200000762939</ele>
        <time>2022-02-13T10:01:30.000Z</time>
      </trkpt>
      <trkpt lat="47.32369" lon="-2.27211">
        <ele>-17.799999237061</ele>
        <time>2022-02-13T10:01:31.000Z</time>
      </trkpt>
      <trkpt lat="47.32366" lon="-2.27219">
        <ele>-17.39999961853</ele>
        <time>2022-02-13T10:01:32.000Z</time>
      </trkpt>
      <trkpt lat="47.32347" lon="-2.27253">
        <ele>-17.39999961853</ele>
        <time>2022-02-13T10:01:37.000Z</time>
      </trkpt>
      <trkpt lat="47.32342" lon="-2.27258">
        <ele>-17.39999961853</ele>
        <time>2022-02-13T10:01:38.000Z</time>
      </trkpt>
      <trkpt lat="47.32322" lon="-2.27277">
        <ele>-17.39999961853</ele>
        <time>2022-02-13T10:01:42.000Z</time>
      </trkpt>
      <trkpt lat="47.32279" lon="-2.27301">
        <ele>-17.799999237061</ele>
        <time>2022-02-13T10:01:49.000Z</time>
      </trkpt>
      <trkpt lat="47.32273" lon="-2.27305">
        <ele>-18.39999961853</ele>
        <time>2022-02-13T10:01:50.000Z</time>
      </trkpt>
      <trkpt lat="47.32267" lon="-2.27308">
        <ele>-18.799999237061</ele>
        <time>2022-02-13T10:01:51.000Z</time>
      </trkpt>
      <trkpt lat="47.32261" lon="-2.27312">
        <ele>-19.200000762939</ele>
        <time>2022-02-13T10:01:52.000Z</time>
      </trkpt>
      <trkpt lat="47.32256" lon="-2.27317">
        <ele>-19.60000038147</ele>
        <time>2022-02-13T10:01:53.000Z</time>
      </trkpt>
      <trkpt lat="47.32252" lon="-2.27324">
        <ele>-19.60000038147</ele>
        <time>2022-02-13T10:01:54.000Z</time>
      </trkpt>
      <trkpt lat="47.3225" lon="-2.27343">
        <ele>-19.60000038147</ele>
        <time>2022-02-13T10:01:56.000Z</time>
      </trkpt>
      <trkpt lat="47.32252" lon="-2.2737">
        <ele>-19.60000038147</ele>
        <time>2022-02-13T10:01:59.000Z</time>
      </trkpt>
      <trkpt lat="47.32253" lon="-2.27388">
        <ele>-19.60000038147</ele>
        <time>2022-02-13T10:02:01.000Z</time>
      </trkpt>
      <trkpt lat="47.32253" lon="-2.27397">
        <ele>-19.60000038147</ele>
        <time>2022-02-13T10:02:02.000Z</time>
      </trkpt>
      <trkpt lat="47.3225" lon="-2.27431">
        <ele>-19.60000038147</ele>
        <time>2022-02-13T10:02:06.000Z</time>
      </trkpt>
      <trkpt lat="47.32243" lon="-2.27472">
        <ele>-19.60000038147</ele>
        <time>2022-02-13T10:02:11.000Z</time>
      </trkpt>
      <trkpt lat="47.32243" lon="-2.27481">
        <ele>-19.60000038147</ele>
        <time>2022-02-13T10:02:12.000Z</time>
      </trkpt>
      <trkpt lat="47.3225" lon="-2.27505">
        <ele>-19.60000038147</ele>
        <time>2022-02-13T10:02:16.000Z</time>
      </trkpt>
      <trkpt lat="47.3226" lon="-2.27505">
        <ele>-19.60000038147</ele>
        <time>2022-02-13T10:02:18.000Z</time>
      </trkpt>
      <trkpt lat="47.32266" lon="-2.27504">
        <ele>-19.60000038147</ele>
        <time>2022-02-13T10:02:19.000Z</time>
      </trkpt>
      <trkpt lat="47.3229" lon="-2.27504">
        <ele>-20</ele>
        <time>2022-02-13T10:02:23.000Z</time>
      </trkpt>
      <trkpt lat="47.32296" lon="-2.27505">
        <ele>-20.39999961853</ele>
        <time>2022-02-13T10:02:24.000Z</time>
      </trkpt>
      <trkpt lat="47.32302" lon="-2.27506">
        <ele>-20.799999237061</ele>
        <time>2022-02-13T10:02:25.000Z</time>
      </trkpt>
      <trkpt lat="47.32309" lon="-2.27507">
        <ele>-21.39999961853</ele>
        <time>2022-02-13T10:02:26.000Z</time>
      </trkpt>
      <trkpt lat="47.32315" lon="-2.27508">
        <ele>-21.799999237061</ele>
        <time>2022-02-13T10:02:27.000Z</time>
      </trkpt>
      <trkpt lat="47.32347" lon="-2.27511">
        <ele>-21.799999237061</ele>
        <time>2022-02-13T10:02:32.000Z</time>
      </trkpt>
      <trkpt lat="47.32353" lon="-2.27513">
        <ele>-21.799999237061</ele>
        <time>2022-02-13T10:02:33.000Z</time>
      </trkpt>
      <trkpt lat="47.32362" lon="-2.27525">
        <ele>-21.799999237061</ele>
        <time>2022-02-13T10:02:35.000Z</time>
      </trkpt>
      <trkpt lat="47.32368" lon="-2.27551">
        <ele>-21.799999237061</ele>
        <time>2022-02-13T10:02:38.000Z</time>
      </trkpt>
      <trkpt lat="47.32369" lon="-2.2756">
        <ele>-21.799999237061</ele>
        <time>2022-02-13T10:02:39.000Z</time>
      </trkpt>
      <trkpt lat="47.3237" lon="-2.27577">
        <ele>-21.200000762939</ele>
        <time>2022-02-13T10:02:41.000Z</time>
      </trkpt>
      <trkpt lat="47.32369" lon="-2.27585">
        <ele>-20.799999237061</ele>
        <time>2022-02-13T10:02:42.000Z</time>
      </trkpt>
      <trkpt lat="47.32367" lon="-2.27593">
        <ele>-20.39999961853</ele>
        <time>2022-02-13T10:02:43.000Z</time>
      </trkpt>
      <trkpt lat="47.32366" lon="-2.27601">
        <ele>-20</ele>
        <time>2022-02-13T10:02:44.000Z</time>
      </trkpt>
      <trkpt lat="47.32365" lon="-2.27609">
        <ele>-19.60000038147</ele>
        <time>2022-02-13T10:02:45.000Z</time>
      </trkpt>
      <trkpt lat="47.32361" lon="-2.27643">
        <ele>-19.60000038147</ele>
        <time>2022-02-13T10:02:49.000Z</time>
      </trkpt>
      <trkpt lat="47.32352" lon="-2.27691">
        <ele>-19.60000038147</ele>
        <time>2022-02-13T10:02:55.000Z</time>
      </trkpt>
      <trkpt lat="47.32352" lon="-2.27699">
        <ele>-19.60000038147</ele>
        <time>2022-02-13T10:02:56.000Z</time>
      </trkpt>
      <trkpt lat="47.32351" lon="-2.27707">
        <ele>-19.60000038147</ele>
        <time>2022-02-13T10:02:57.000Z</time>
      </trkpt>
      <trkpt lat="47.32345" lon="-2.2774">
        <ele>-19.60000038147</ele>
        <time>2022-02-13T10:03:01.000Z</time>
      </trkpt>
      <trkpt lat="47.3233" lon="-2.27801">
        <ele>-19.60000038147</ele>
        <time>2022-02-13T10:03:09.000Z</time>
      </trkpt>
      <trkpt lat="47.32325" lon="-2.27816">
        <ele>-19.60000038147</ele>
        <time>2022-02-13T10:03:11.000Z</time>
      </trkpt>
      <trkpt lat="47.32316" lon="-2.27827">
        <ele>-19.60000038147</ele>
        <time>2022-02-13T10:03:13.000Z</time>
      </trkpt>
      <trkpt lat="47.32294" lon="-2.27835">
        <ele>-19.60000038147</ele>
        <time>2022-02-13T10:03:17.000Z</time>
      </trkpt>
      <trkpt lat="47.32288" lon="-2.27835">
        <ele>-19.60000038147</ele>
        <time>2022-02-13T10:03:18.000Z</time>
      </trkpt>
      <trkpt lat="47.32254" lon="-2.2783">
        <ele>-19.60000038147</ele>
        <time>2022-02-13T10:03:24.000Z</time>
      </trkpt>
      <trkpt lat="47.32248" lon="-2.27828">
        <ele>-19.60000038147</ele>
        <time>2022-02-13T10:03:25.000Z</time>
      </trkpt>
      <trkpt lat="47.32226" lon="-2.27819">
        <ele>-19.60000038147</ele>
        <time>2022-02-13T10:03:29.000Z</time>
      </trkpt>
      <trkpt lat="47.32185" lon="-2.27808">
        <ele>-19.60000038147</ele>
        <time>2022-02-13T10:03:36.000Z</time>
      </trkpt>
      <trkpt lat="47.32169" lon="-2.27806">
        <ele>-19.60000038147</ele>
        <time>2022-02-13T10:03:39.000Z</time>
      </trkpt>
      <trkpt lat="47.32154" lon="-2.27809">
        <ele>-19.60000038147</ele>
        <time>2022-02-13T10:03:42.000Z</time>
      </trkpt>
      <trkpt lat="47.32147" lon="-2.27829">
        <ele>-19.60000038147</ele>
        <time>2022-02-13T10:03:45.000Z</time>
      </trkpt>
      <trkpt lat="47.32145" lon="-2.27837">
        <ele>-19.60000038147</ele>
        <time>2022-02-13T10:03:46.000Z</time>
      </trkpt>
      <trkpt lat="47.32136" lon="-2.27878">
        <ele>-19.60000038147</ele>
        <time>2022-02-13T10:03:51.000Z</time>
      </trkpt>
      <trkpt lat="47.32122" lon="-2.27943">
        <ele>-19.60000038147</ele>
        <time>2022-02-13T10:03:59.000Z</time>
      </trkpt>
      <trkpt lat="47.32119" lon="-2.2795">
        <ele>-19.60000038147</ele>
        <time>2022-02-13T10:04:00.000Z</time>
      </trkpt>
      <trkpt lat="47.32103" lon="-2.2796">
        <ele>-19.60000038147</ele>
        <time>2022-02-13T10:04:03.000Z</time>
      </trkpt>
      <trkpt lat="47.32071" lon="-2.27975">
        <ele>-19.60000038147</ele>
        <time>2022-02-13T10:04:09.000Z</time>
      </trkpt>
      <trkpt lat="47.32061" lon="-2.2798">
        <ele>-19.60000038147</ele>
        <time>2022-02-13T10:04:11.000Z</time>
      </trkpt>
      <trkpt lat="47.32054" lon="-2.27989">
        <ele>-19.60000038147</ele>
        <time>2022-02-13T10:04:13.000Z</time>
      </trkpt>
      <trkpt lat="47.32048" lon="-2.28001">
        <ele>-19.60000038147</ele>
        <time>2022-02-13T10:04:15.000Z</time>
      </trkpt>
      <trkpt lat="47.32045" lon="-2.28017">
        <ele>-19.60000038147</ele>
        <time>2022-02-13T10:04:17.000Z</time>
      </trkpt>
      <trkpt lat="47.32044" lon="-2.28034">
        <ele>-19.60000038147</ele>
        <time>2022-02-13T10:04:19.000Z</time>
      </trkpt>
      <trkpt lat="47.32043" lon="-2.2806">
        <ele>-19.60000038147</ele>
        <time>2022-02-13T10:04:22.000Z</time>
      </trkpt>
      <trkpt lat="47.3204" lon="-2.28111">
        <ele>-19.60000038147</ele>
        <time>2022-02-13T10:04:28.000Z</time>
      </trkpt>
      <trkpt lat="47.3203" lon="-2.28126">
        <ele>-19.60000038147</ele>
        <time>2022-02-13T10:04:31.000Z</time>
      </trkpt>
      <trkpt lat="47.32015" lon="-2.28131">
        <ele>-19.60000038147</ele>
        <time>2022-02-13T10:04:34.000Z</time>
      </trkpt>
      <trkpt lat="47.32006" lon="-2.28133">
        <ele>-19.60000038147</ele>
        <time>2022-02-13T10:04:36.000Z</time>
      </trkpt>
      <trkpt lat="47.31976" lon="-2.28137">
        <ele>-18.60000038147</ele>
        <time>2022-02-13T10:04:42.000Z</time>
      </trkpt>
      <trkpt lat="47.31971" lon="-2.28137">
        <ele>-18.200000762939</ele>
        <time>2022-02-13T10:04:43.000Z</time>
      </trkpt>
      <trkpt lat="47.31966" lon="-2.28138">
        <ele>-17.799999237061</ele>
        <time>2022-02-13T10:04:44.000Z</time>
      </trkpt>
      <trkpt lat="47.3196" lon="-2.28138">
        <ele>-17.39999961853</ele>
        <time>2022-02-13T10:04:45.000Z</time>
      </trkpt>
      <trkpt lat="47.31931" lon="-2.28139">
        <ele>-17.39999961853</ele>
        <time>2022-02-13T10:04:50.000Z</time>
      </trkpt>
      <trkpt lat="47.31885" lon="-2.28143">
        <ele>-17.39999961853</ele>
        <time>2022-02-13T10:04:58.000Z</time>
      </trkpt>
      <trkpt lat="47.31872" lon="-2.28146">
        <ele>-17.39999961853</ele>
        <time>2022-02-13T10:05:00.000Z</time>
      </trkpt>
      <trkpt lat="47.31862" lon="-2.28154">
        <ele>-17.39999961853</ele>
        <time>2022-02-13T10:05:02.000Z</time>
      </trkpt>
      <trkpt lat="47.31857" lon="-2.28179">
        <ele>-17.39999961853</ele>
        <time>2022-02-13T10:05:05.000Z</time>
      </trkpt>
      <trkpt lat="47.31857" lon="-2.28188">
        <ele>-17.39999961853</ele>
        <time>2022-02-13T10:05:06.000Z</time>
      </trkpt>
      <trkpt lat="47.3186" lon="-2.28216">
        <ele>-17.39999961853</ele>
        <time>2022-02-13T10:05:09.000Z</time>
      </trkpt>
      <trkpt lat="47.31864" lon="-2.28234">
        <ele>-17.39999961853</ele>
        <time>2022-02-13T10:05:11.000Z</time>
      </trkpt>
      <trkpt lat="47.31875" lon="-2.28304">
        <ele>-17.39999961853</ele>
        <time>2022-02-13T10:05:19.000Z</time>
      </trkpt>
      <trkpt lat="47.31889" lon="-2.28368">
        <ele>-17.39999961853</ele>
        <time>2022-02-13T10:05:26.000Z</time>
      </trkpt>
      <trkpt lat="47.319" lon="-2.28434">
        <ele>-17.39999961853</ele>
        <time>2022-02-13T10:05:33.000Z</time>
      </trkpt>
      <trkpt lat="47.31899" lon="-2.28491">
        <ele>-17.39999961853</ele>
        <time>2022-02-13T10:05:39.000Z</time>
      </trkpt>
      <trkpt lat="47.31899" lon="-2.28555">
        <ele>-17.39999961853</ele>
        <time>2022-02-13T10:05:46.000Z</time>
      </trkpt>
      <trkpt lat="47.31902" lon="-2.28582">
        <ele>-17.39999961853</ele>
        <time>2022-02-13T10:05:49.000Z</time>
      </trkpt>
      <trkpt lat="47.31899" lon="-2.28599">
        <ele>-17.39999961853</ele>
        <time>2022-02-13T10:05:51.000Z</time>
      </trkpt>
      <trkpt lat="47.3189" lon="-2.28659">
        <ele>-17.39999961853</ele>
        <time>2022-02-13T10:05:58.000Z</time>
      </trkpt>
      <trkpt lat="47.31885" lon="-2.28702">
        <ele>-17.799999237061</ele>
        <time>2022-02-13T10:06:03.000Z</time>
      </trkpt>
      <trkpt lat="47.31884" lon="-2.28712">
        <ele>-18.200000762939</ele>
        <time>2022-02-13T10:06:04.000Z</time>
      </trkpt>
      <trkpt lat="47.31883" lon="-2.28721">
        <ele>-18.60000038147</ele>
        <time>2022-02-13T10:06:05.000Z</time>
      </trkpt>
      <trkpt lat="47.31882" lon="-2.28731">
        <ele>-19</ele>
        <time>2022-02-13T10:06:06.000Z</time>
      </trkpt>
      <trkpt lat="47.31881" lon="-2.2874">
        <ele>-19.39999961853</ele>
        <time>2022-02-13T10:06:07.000Z</time>
      </trkpt>
      <trkpt lat="47.31874" lon="-2.28815">
        <ele>-19.39999961853</ele>
        <time>2022-02-13T10:06:15.000Z</time>
      </trkpt>
      <trkpt lat="47.31867" lon="-2.28849">
        <ele>-19.39999961853</ele>
        <time>2022-02-13T10:06:20.000Z</time>
      </trkpt>
      <trkpt lat="47.31867" lon="-2.28888">
        <ele>-19.39999961853</ele>
        <time>2022-02-13T10:06:25.000Z</time>
      </trkpt>
      <trkpt lat="47.31864" lon="-2.2895">
        <ele>-19.39999961853</ele>
        <time>2022-02-13T10:06:32.000Z</time>
      </trkpt>
      <trkpt lat="47.31859" lon="-2.29001">
        <ele>-19.39999961853</ele>
        <time>2022-02-13T10:06:38.000Z</time>
      </trkpt>
      <trkpt lat="47.31857" lon="-2.29017">
        <ele>-19.39999961853</ele>
        <time>2022-02-13T10:06:40.000Z</time>
      </trkpt>
      <trkpt lat="47.3185" lon="-2.29042">
        <ele>-19.39999961853</ele>
        <time>2022-02-13T10:06:43.000Z</time>
      </trkpt>
      <trkpt lat="47.3184" lon="-2.29095">
        <ele>-19.39999961853</ele>
        <time>2022-02-13T10:06:50.000Z</time>
      </trkpt>
      <trkpt lat="47.31832" lon="-2.29143">
        <ele>-19</ele>
        <time>2022-02-13T10:06:57.000Z</time>
      </trkpt>
      <trkpt lat="47.31831" lon="-2.29151">
        <ele>-18.60000038147</ele>
        <time>2022-02-13T10:06:58.000Z</time>
      </trkpt>
      <trkpt lat="47.31829" lon="-2.29157">
        <ele>-18.200000762939</ele>
        <time>2022-02-13T10:06:59.000Z</time>
      </trkpt>
      <trkpt lat="47.31828" lon="-2.29164">
        <ele>-17.799999237061</ele>
        <time>2022-02-13T10:07:00.000Z</time>
      </trkpt>
      <trkpt lat="47.31828" lon="-2.29171">
        <ele>-17.39999961853</ele>
        <time>2022-02-13T10:07:01.000Z</time>
      </trkpt>
      <trkpt lat="47.31827" lon="-2.29184">
        <ele>-17.39999961853</ele>
        <time>2022-02-13T10:07:03.000Z</time>
      </trkpt>
      <trkpt lat="47.31826" lon="-2.2919">
        <ele>-17</ele>
        <time>2022-02-13T10:07:04.000Z</time>
      </trkpt>
      <trkpt lat="47.31826" lon="-2.29197">
        <ele>-16.60000038147</ele>
        <time>2022-02-13T10:07:05.000Z</time>
      </trkpt>
      <trkpt lat="47.31826" lon="-2.29204">
        <ele>-16.200000762939</ele>
        <time>2022-02-13T10:07:06.000Z</time>
      </trkpt>
      <trkpt lat="47.31826" lon="-2.29211">
        <ele>-15.800000190735</ele>
        <time>2022-02-13T10:07:07.000Z</time>
      </trkpt>
      <trkpt lat="47.31826" lon="-2.29218">
        <ele>-15.199999809265</ele>
        <time>2022-02-13T10:07:08.000Z</time>
      </trkpt>
      <trkpt lat="47.31826" lon="-2.29224">
        <ele>-15.199999809265</ele>
        <time>2022-02-13T10:07:09.000Z</time>
      </trkpt>
      <trkpt lat="47.31833" lon="-2.29278">
        <ele>-14.800000190735</ele>
        <time>2022-02-13T10:07:17.000Z</time>
      </trkpt>
      <trkpt lat="47.31834" lon="-2.29284">
        <ele>-14.39999961853</ele>
        <time>2022-02-13T10:07:18.000Z</time>
      </trkpt>
      <trkpt lat="47.31834" lon="-2.2929">
        <ele>-14</ele>
        <time>2022-02-13T10:07:19.000Z</time>
      </trkpt>
      <trkpt lat="47.31835" lon="-2.29297">
        <ele>-13.60000038147</ele>
        <time>2022-02-13T10:07:20.000Z</time>
      </trkpt>
      <trkpt lat="47.31835" lon="-2.29304">
        <ele>-13.199999809265</ele>
        <time>2022-02-13T10:07:21.000Z</time>
      </trkpt>
      <trkpt lat="47.31835" lon="-2.2931">
        <ele>-13.199999809265</ele>
        <time>2022-02-13T10:07:22.000Z</time>
      </trkpt>
      <trkpt lat="47.31835" lon="-2.29317">
        <ele>-13.199999809265</ele>
        <time>2022-02-13T10:07:23.000Z</time>
      </trkpt>
      <trkpt lat="47.31839" lon="-2.29344">
        <ele>-12.800000190735</ele>
        <time>2022-02-13T10:07:27.000Z</time>
      </trkpt>
      <trkpt lat="47.3184" lon="-2.2935">
        <ele>-12.39999961853</ele>
        <time>2022-02-13T10:07:28.000Z</time>
      </trkpt>
      <trkpt lat="47.31842" lon="-2.29357">
        <ele>-12</ele>
        <time>2022-02-13T10:07:29.000Z</time>
      </trkpt>
      <trkpt lat="47.31844" lon="-2.29364">
        <ele>-11.60000038147</ele>
        <time>2022-02-13T10:07:30.000Z</time>
      </trkpt>
      <trkpt lat="47.31845" lon="-2.29371">
        <ele>-11.199999809265</ele>
        <time>2022-02-13T10:07:31.000Z</time>
      </trkpt>
      <trkpt lat="47.3185" lon="-2.29399">
        <ele>-11.199999809265</ele>
        <time>2022-02-13T10:07:35.000Z</time>
      </trkpt>
      <trkpt lat="47.31851" lon="-2.29407">
        <ele>-11.199999809265</ele>
        <time>2022-02-13T10:07:36.000Z</time>
      </trkpt>
      <trkpt lat="47.31852" lon="-2.29428">
        <ele>-11.199999809265</ele>
        <time>2022-02-13T10:07:39.000Z</time>
      </trkpt>
      <trkpt lat="47.3185" lon="-2.29442">
        <ele>-11.199999809265</ele>
        <time>2022-02-13T10:07:41.000Z</time>
      </trkpt>
      <trkpt lat="47.31849" lon="-2.2945">
        <ele>-11.199999809265</ele>
        <time>2022-02-13T10:07:42.000Z</time>
      </trkpt>
      <trkpt lat="47.31847" lon="-2.29471">
        <ele>-11.199999809265</ele>
        <time>2022-02-13T10:07:45.000Z</time>
      </trkpt>
      <trkpt lat="47.31847" lon="-2.29479">
        <ele>-11.199999809265</ele>
        <time>2022-02-13T10:07:46.000Z</time>
      </trkpt>
      <trkpt lat="47.31847" lon="-2.29486">
        <ele>-11.199999809265</ele>
        <time>2022-02-13T10:07:47.000Z</time>
      </trkpt>
      <trkpt lat="47.31854" lon="-2.29515">
        <ele>-11.199999809265</ele>
        <time>2022-02-13T10:07:51.000Z</time>
      </trkpt>
      <trkpt lat="47.31858" lon="-2.29528">
        <ele>-11.199999809265</ele>
        <time>2022-02-13T10:07:53.000Z</time>
      </trkpt>
      <trkpt lat="47.31873" lon="-2.29577">
        <ele>-11.199999809265</ele>
        <time>2022-02-13T10:08:00.000Z</time>
      </trkpt>
      <trkpt lat="47.31874" lon="-2.29584">
        <ele>-11.199999809265</ele>
        <time>2022-02-13T10:08:01.000Z</time>
      </trkpt>
      <trkpt lat="47.31873" lon="-2.29596">
        <ele>-10.800000190735</ele>
        <time>2022-02-13T10:08:03.000Z</time>
      </trkpt>
      <trkpt lat="47.31871" lon="-2.29602">
        <ele>-10.39999961853</ele>
        <time>2022-02-13T10:08:04.000Z</time>
      </trkpt>
      <trkpt lat="47.31867" lon="-2.29608">
        <ele>-10</ele>
        <time>2022-02-13T10:08:05.000Z</time>
      </trkpt>
      <trkpt lat="47.31864" lon="-2.29612">
        <ele>-9.6000003814697</ele>
        <time>2022-02-13T10:08:06.000Z</time>
      </trkpt>
      <trkpt lat="47.3186" lon="-2.29617">
        <ele>-9.1999998092651</ele>
        <time>2022-02-13T10:08:07.000Z</time>
      </trkpt>
      <trkpt lat="47.31852" lon="-2.29625">
        <ele>-9.1999998092651</ele>
        <time>2022-02-13T10:08:09.000Z</time>
      </trkpt>
      <trkpt lat="47.31848" lon="-2.29628">
        <ele>-9.1999998092651</ele>
        <time>2022-02-13T10:08:10.000Z</time>
      </trkpt>
      <trkpt lat="47.31822" lon="-2.29642">
        <ele>-9.1999998092651</ele>
        <time>2022-02-13T10:08:16.000Z</time>
      </trkpt>
      <trkpt lat="47.31817" lon="-2.29645">
        <ele>-9.1999998092651</ele>
        <time>2022-02-13T10:08:17.000Z</time>
      </trkpt>
      <trkpt lat="47.31804" lon="-2.29654">
        <ele>-9.1999998092651</ele>
        <time>2022-02-13T10:08:20.000Z</time>
      </trkpt>
      <trkpt lat="47.31793" lon="-2.29662">
        <ele>-9.1999998092651</ele>
        <time>2022-02-13T10:08:23.000Z</time>
      </trkpt>
      <trkpt lat="47.31782" lon="-2.29669">
        <ele>-9.1999998092651</ele>
        <time>2022-02-13T10:08:26.000Z</time>
      </trkpt>
      <trkpt lat="47.31759" lon="-2.29685">
        <ele>-9.1999998092651</ele>
        <time>2022-02-13T10:08:32.000Z</time>
      </trkpt>
      <trkpt lat="47.3173" lon="-2.29709">
        <ele>-9.1999998092651</ele>
        <time>2022-02-13T10:08:40.000Z</time>
      </trkpt>
      <trkpt lat="47.31711" lon="-2.29725">
        <ele>-9.1999998092651</ele>
        <time>2022-02-13T10:08:45.000Z</time>
      </trkpt>
      <trkpt lat="47.31708" lon="-2.29728">
        <ele>-9.1999998092651</ele>
        <time>2022-02-13T10:08:46.000Z</time>
      </trkpt>
      <trkpt lat="47.31691" lon="-2.29735">
        <ele>-8.3999996185303</ele>
        <time>2022-02-13T10:08:50.000Z</time>
      </trkpt>
      <trkpt lat="47.31686" lon="-2.29736">
        <ele>-8</ele>
        <time>2022-02-13T10:08:51.000Z</time>
      </trkpt>
      <trkpt lat="47.31681" lon="-2.29738">
        <ele>-7.5999999046326</ele>
        <time>2022-02-13T10:08:52.000Z</time>
      </trkpt>
      <trkpt lat="47.31677" lon="-2.29739">
        <ele>-7.1999998092651</ele>
        <time>2022-02-13T10:08:53.000Z</time>
      </trkpt>
      <trkpt lat="47.31667" lon="-2.29739">
        <ele>-7.1999998092651</ele>
        <time>2022-02-13T10:08:55.000Z</time>
      </trkpt>
      <trkpt lat="47.31663" lon="-2.29736">
        <ele>-7.1999998092651</ele>
        <time>2022-02-13T10:08:56.000Z</time>
      </trkpt>
      <trkpt lat="47.31653" lon="-2.2972">
        <ele>-7.1999998092651</ele>
        <time>2022-02-13T10:08:59.000Z</time>
      </trkpt>
      <trkpt lat="47.31648" lon="-2.29706">
        <ele>-7.1999998092651</ele>
        <time>2022-02-13T10:09:01.000Z</time>
      </trkpt>
      <trkpt lat="47.31639" lon="-2.29675">
        <ele>-7.1999998092651</ele>
        <time>2022-02-13T10:09:05.000Z</time>
      </trkpt>
      <trkpt lat="47.31624" lon="-2.29639">
        <ele>-7.1999998092651</ele>
        <time>2022-02-13T10:09:10.000Z</time>
      </trkpt>
      <trkpt lat="47.31611" lon="-2.29614">
        <ele>-7.1999998092651</ele>
        <time>2022-02-13T10:09:14.000Z</time>
      </trkpt>
      <trkpt lat="47.31607" lon="-2.29609">
        <ele>-7.1999998092651</ele>
        <time>2022-02-13T10:09:15.000Z</time>
      </trkpt>
      <trkpt lat="47.31585" lon="-2.29589">
        <ele>-7.1999998092651</ele>
        <time>2022-02-13T10:09:20.000Z</time>
      </trkpt>
      <trkpt lat="47.31577" lon="-2.29579">
        <ele>-7.1999998092651</ele>
        <time>2022-02-13T10:09:22.000Z</time>
      </trkpt>
      <trkpt lat="47.31559" lon="-2.29551">
        <ele>-7.5999999046326</ele>
        <time>2022-02-13T10:09:27.000Z</time>
      </trkpt>
      <trkpt lat="47.31556" lon="-2.29545">
        <ele>-8</ele>
        <time>2022-02-13T10:09:28.000Z</time>
      </trkpt>
      <trkpt lat="47.31553" lon="-2.29538">
        <ele>-8.3999996185303</ele>
        <time>2022-02-13T10:09:29.000Z</time>
      </trkpt>
      <trkpt lat="47.3155" lon="-2.29532">
        <ele>-8.8000001907349</ele>
        <time>2022-02-13T10:09:30.000Z</time>
      </trkpt>
      <trkpt lat="47.31548" lon="-2.29525">
        <ele>-9.1999998092651</ele>
        <time>2022-02-13T10:09:31.000Z</time>
      </trkpt>
      <trkpt lat="47.31543" lon="-2.29502">
        <ele>-9.1999998092651</ele>
        <time>2022-02-13T10:09:34.000Z</time>
      </trkpt>
      <trkpt lat="47.31532" lon="-2.29454">
        <ele>-9.1999998092651</ele>
        <time>2022-02-13T10:09:40.000Z</time>
      </trkpt>
      <trkpt lat="47.31529" lon="-2.29446">
        <ele>-9.8000001907349</ele>
        <time>2022-02-13T10:09:41.000Z</time>
      </trkpt>
      <trkpt lat="47.31526" lon="-2.29439">
        <ele>-10.199999809265</ele>
        <time>2022-02-13T10:09:42.000Z</time>
      </trkpt>
      <trkpt lat="47.31523" lon="-2.29431">
        <ele>-10.60000038147</ele>
        <time>2022-02-13T10:09:43.000Z</time>
      </trkpt>
      <trkpt lat="47.31519" lon="-2.29424">
        <ele>-11</ele>
        <time>2022-02-13T10:09:44.000Z</time>
      </trkpt>
      <trkpt lat="47.31515" lon="-2.29417">
        <ele>-11.39999961853</ele>
        <time>2022-02-13T10:09:45.000Z</time>
      </trkpt>
      <trkpt lat="47.31511" lon="-2.29411">
        <ele>-11.39999961853</ele>
        <time>2022-02-13T10:09:46.000Z</time>
      </trkpt>
      <trkpt lat="47.3149" lon="-2.29397">
        <ele>-11.39999961853</ele>
        <time>2022-02-13T10:09:50.000Z</time>
      </trkpt>
      <trkpt lat="47.31473" lon="-2.29401">
        <ele>-11.39999961853</ele>
        <time>2022-02-13T10:09:53.000Z</time>
      </trkpt>
      <trkpt lat="47.31467" lon="-2.29403">
        <ele>-11.39999961853</ele>
        <time>2022-02-13T10:09:54.000Z</time>
      </trkpt>
      <trkpt lat="47.31456" lon="-2.29404">
        <ele>-11.39999961853</ele>
        <time>2022-02-13T10:09:56.000Z</time>
      </trkpt>
      <trkpt lat="47.31447" lon="-2.29397">
        <ele>-11.39999961853</ele>
        <time>2022-02-13T10:09:58.000Z</time>
      </trkpt>
      <trkpt lat="47.3144" lon="-2.29386">
        <ele>-11.800000190735</ele>
        <time>2022-02-13T10:10:00.000Z</time>
      </trkpt>
      <trkpt lat="47.31436" lon="-2.2938">
        <ele>-12.199999809265</ele>
        <time>2022-02-13T10:10:01.000Z</time>
      </trkpt>
      <trkpt lat="47.31433" lon="-2.29374">
        <ele>-12.60000038147</ele>
        <time>2022-02-13T10:10:02.000Z</time>
      </trkpt>
      <trkpt lat="47.3143" lon="-2.29367">
        <ele>-13.199999809265</ele>
        <time>2022-02-13T10:10:03.000Z</time>
      </trkpt>
      <trkpt lat="47.31426" lon="-2.2936">
        <ele>-13.60000038147</ele>
        <time>2022-02-13T10:10:04.000Z</time>
      </trkpt>
      <trkpt lat="47.31409" lon="-2.29336">
        <ele>-13.60000038147</ele>
        <time>2022-02-13T10:10:08.000Z</time>
      </trkpt>
      <trkpt lat="47.31404" lon="-2.2933">
        <ele>-13.60000038147</ele>
        <time>2022-02-13T10:10:09.000Z</time>
      </trkpt>
      <trkpt lat="47.31373" lon="-2.29313">
        <ele>-14</ele>
        <time>2022-02-13T10:10:14.000Z</time>
      </trkpt>
      <trkpt lat="47.31367" lon="-2.2931">
        <ele>-14.39999961853</ele>
        <time>2022-02-13T10:10:15.000Z</time>
      </trkpt>
      <trkpt lat="47.31361" lon="-2.29308">
        <ele>-14.800000190735</ele>
        <time>2022-02-13T10:10:16.000Z</time>
      </trkpt>
      <trkpt lat="47.31355" lon="-2.29306">
        <ele>-15.199999809265</ele>
        <time>2022-02-13T10:10:17.000Z</time>
      </trkpt>
      <trkpt lat="47.31349" lon="-2.29304">
        <ele>-15.60000038147</ele>
        <time>2022-02-13T10:10:18.000Z</time>
      </trkpt>
      <trkpt lat="47.31325" lon="-2.29296">
        <ele>-15.60000038147</ele>
        <time>2022-02-13T10:10:22.000Z</time>
      </trkpt>
      <trkpt lat="47.31319" lon="-2.29295">
        <ele>-15.60000038147</ele>
        <time>2022-02-13T10:10:23.000Z</time>
      </trkpt>
      <trkpt lat="47.31312" lon="-2.29295">
        <ele>-15.60000038147</ele>
        <time>2022-02-13T10:10:24.000Z</time>
      </trkpt>
      <trkpt lat="47.31294" lon="-2.29302">
        <ele>-15.60000038147</ele>
        <time>2022-02-13T10:10:27.000Z</time>
      </trkpt>
      <trkpt lat="47.31281" lon="-2.29319">
        <ele>-15.60000038147</ele>
        <time>2022-02-13T10:10:30.000Z</time>
      </trkpt>
      <trkpt lat="47.31278" lon="-2.29326">
        <ele>-15.60000038147</ele>
        <time>2022-02-13T10:10:31.000Z</time>
      </trkpt>
      <trkpt lat="47.31267" lon="-2.29351">
        <ele>-15.60000038147</ele>
        <time>2022-02-13T10:10:35.000Z</time>
      </trkpt>
      <trkpt lat="47.31262" lon="-2.29365">
        <ele>-15.60000038147</ele>
        <time>2022-02-13T10:10:37.000Z</time>
      </trkpt>
      <trkpt lat="47.31256" lon="-2.29378">
        <ele>-15.60000038147</ele>
        <time>2022-02-13T10:10:39.000Z</time>
      </trkpt>
      <trkpt lat="47.31252" lon="-2.29383">
        <ele>-15.60000038147</ele>
        <time>2022-02-13T10:10:40.000Z</time>
      </trkpt>
      <trkpt lat="47.31239" lon="-2.29394">
        <ele>-15.60000038147</ele>
        <time>2022-02-13T10:10:43.000Z</time>
      </trkpt>
      <trkpt lat="47.31229" lon="-2.29401">
        <ele>-15.60000038147</ele>
        <time>2022-02-13T10:10:45.000Z</time>
      </trkpt>
      <trkpt lat="47.31184" lon="-2.29434">
        <ele>-15.60000038147</ele>
        <time>2022-02-13T10:10:53.000Z</time>
      </trkpt>
      <trkpt lat="47.31178" lon="-2.29438">
        <ele>-16.39999961853</ele>
        <time>2022-02-13T10:10:54.000Z</time>
      </trkpt>
      <trkpt lat="47.31172" lon="-2.29443">
        <ele>-16.799999237061</ele>
        <time>2022-02-13T10:10:55.000Z</time>
      </trkpt>
      <trkpt lat="47.31166" lon="-2.29448">
        <ele>-17.200000762939</ele>
        <time>2022-02-13T10:10:56.000Z</time>
      </trkpt>
      <trkpt lat="47.3116" lon="-2.29453">
        <ele>-17.799999237061</ele>
        <time>2022-02-13T10:10:57.000Z</time>
      </trkpt>
      <trkpt lat="47.3115" lon="-2.29465">
        <ele>-17.799999237061</ele>
        <time>2022-02-13T10:10:59.000Z</time>
      </trkpt>
      <trkpt lat="47.31147" lon="-2.29473">
        <ele>-18.200000762939</ele>
        <time>2022-02-13T10:11:00.000Z</time>
      </trkpt>
      <trkpt lat="47.31146" lon="-2.29482">
        <ele>-18.60000038147</ele>
        <time>2022-02-13T10:11:01.000Z</time>
      </trkpt>
      <trkpt lat="47.31146" lon="-2.2949">
        <ele>-19</ele>
        <time>2022-02-13T10:11:02.000Z</time>
      </trkpt>
      <trkpt lat="47.31147" lon="-2.29498">
        <ele>-19.39999961853</ele>
        <time>2022-02-13T10:11:03.000Z</time>
      </trkpt>
      <trkpt lat="47.31148" lon="-2.29505">
        <ele>-19.799999237061</ele>
        <time>2022-02-13T10:11:04.000Z</time>
      </trkpt>
      <trkpt lat="47.31153" lon="-2.29519">
        <ele>-19.799999237061</ele>
        <time>2022-02-13T10:11:06.000Z</time>
      </trkpt>
      <trkpt lat="47.31156" lon="-2.29525">
        <ele>-19.799999237061</ele>
        <time>2022-02-13T10:11:07.000Z</time>
      </trkpt>
      <trkpt lat="47.3117" lon="-2.29565">
        <ele>-19.799999237061</ele>
        <time>2022-02-13T10:11:12.000Z</time>
      </trkpt>
      <trkpt lat="47.31166" lon="-2.29588">
        <ele>-19.799999237061</ele>
        <time>2022-02-13T10:11:15.000Z</time>
      </trkpt>
      <trkpt lat="47.31152" lon="-2.296">
        <ele>-19.799999237061</ele>
        <time>2022-02-13T10:11:18.000Z</time>
      </trkpt>
      <trkpt lat="47.31147" lon="-2.29603">
        <ele>-19.799999237061</ele>
        <time>2022-02-13T10:11:19.000Z</time>
      </trkpt>
      <trkpt lat="47.31127" lon="-2.2962">
        <ele>-19.799999237061</ele>
        <time>2022-02-13T10:11:23.000Z</time>
      </trkpt>
      <trkpt lat="47.31118" lon="-2.29629">
        <ele>-19.799999237061</ele>
        <time>2022-02-13T10:11:25.000Z</time>
      </trkpt>
      <trkpt lat="47.31108" lon="-2.29639">
        <ele>-19.799999237061</ele>
        <time>2022-02-13T10:11:27.000Z</time>
      </trkpt>
      <trkpt lat="47.31104" lon="-2.29645">
        <ele>-19.39999961853</ele>
        <time>2022-02-13T10:11:28.000Z</time>
      </trkpt>
      <trkpt lat="47.311" lon="-2.2965">
        <ele>-19</ele>
        <time>2022-02-13T10:11:29.000Z</time>
      </trkpt>
      <trkpt lat="47.31095" lon="-2.29656">
        <ele>-18.60000038147</ele>
        <time>2022-02-13T10:11:30.000Z</time>
      </trkpt>
      <trkpt lat="47.31091" lon="-2.29661">
        <ele>-18.200000762939</ele>
        <time>2022-02-13T10:11:31.000Z</time>
      </trkpt>
      <trkpt lat="47.31087" lon="-2.29665">
        <ele>-17.799999237061</ele>
        <time>2022-02-13T10:11:32.000Z</time>
      </trkpt>
      <trkpt lat="47.31079" lon="-2.29673">
        <ele>-17.799999237061</ele>
        <time>2022-02-13T10:11:34.000Z</time>
      </trkpt>
      <trkpt lat="47.31072" lon="-2.29682">
        <ele>-17.799999237061</ele>
        <time>2022-02-13T10:11:36.000Z</time>
      </trkpt>
      <trkpt lat="47.31056" lon="-2.29697">
        <ele>-17.799999237061</ele>
        <time>2022-02-13T10:11:40.000Z</time>
      </trkpt>
      <trkpt lat="47.31053" lon="-2.29699">
        <ele>-17.799999237061</ele>
        <time>2022-02-13T10:11:41.000Z</time>
      </trkpt>
      <trkpt lat="47.31047" lon="-2.29704">
        <ele>-17.799999237061</ele>
        <time>2022-02-13T10:11:44.000Z</time>
      </trkpt>
      <trkpt lat="47.31047" lon="-2.29706">
        <ele>-17.799999237061</ele>
        <time>2022-02-13T10:11:45.000Z</time>
      </trkpt>
      <trkpt lat="47.31048" lon="-2.29719">
        <ele>-17.799999237061</ele>
        <time>2022-02-13T10:11:48.000Z</time>
      </trkpt>
      <trkpt lat="47.3105" lon="-2.29723">
        <ele>-17.799999237061</ele>
        <time>2022-02-13T10:11:49.000Z</time>
      </trkpt>
      <trkpt lat="47.31057" lon="-2.29745">
        <ele>-17.799999237061</ele>
        <time>2022-02-13T10:11:53.000Z</time>
      </trkpt>
      <trkpt lat="47.31072" lon="-2.29796">
        <ele>-17.799999237061</ele>
        <time>2022-02-13T10:12:01.000Z</time>
      </trkpt>
      <trkpt lat="47.31076" lon="-2.29809">
        <ele>-17.200000762939</ele>
        <time>2022-02-13T10:12:03.000Z</time>
      </trkpt>
      <trkpt lat="47.31079" lon="-2.29819">
        <ele>-16.39999961853</ele>
        <time>2022-02-13T10:12:05.000Z</time>
      </trkpt>
      <trkpt lat="47.31081" lon="-2.29825">
        <ele>-16</ele>
        <time>2022-02-13T10:12:06.000Z</time>
      </trkpt>
      <trkpt lat="47.31083" lon="-2.29831">
        <ele>-15.39999961853</ele>
        <time>2022-02-13T10:12:07.000Z</time>
      </trkpt>
      <trkpt lat="47.3109" lon="-2.29858">
        <ele>-15.39999961853</ele>
        <time>2022-02-13T10:12:11.000Z</time>
      </trkpt>
      <trkpt lat="47.31097" lon="-2.29884">
        <ele>-15.39999961853</ele>
        <time>2022-02-13T10:12:15.000Z</time>
      </trkpt>
      <trkpt lat="47.31101" lon="-2.29898">
        <ele>-15.39999961853</ele>
        <time>2022-02-13T10:12:17.000Z</time>
      </trkpt>
      <trkpt lat="47.31103" lon="-2.29905">
        <ele>-15</ele>
        <time>2022-02-13T10:12:18.000Z</time>
      </trkpt>
      <trkpt lat="47.31105" lon="-2.29912">
        <ele>-14.60000038147</ele>
        <time>2022-02-13T10:12:19.000Z</time>
      </trkpt>
      <trkpt lat="47.31107" lon="-2.29919">
        <ele>-14.199999809265</ele>
        <time>2022-02-13T10:12:20.000Z</time>
      </trkpt>
      <trkpt lat="47.31109" lon="-2.29926">
        <ele>-13.39999961853</ele>
        <time>2022-02-13T10:12:21.000Z</time>
      </trkpt>
      <trkpt lat="47.31117" lon="-2.29954">
        <ele>-13.39999961853</ele>
        <time>2022-02-13T10:12:25.000Z</time>
      </trkpt>
      <trkpt lat="47.31131" lon="-2.30003">
        <ele>-13.39999961853</ele>
        <time>2022-02-13T10:12:32.000Z</time>
      </trkpt>
      <trkpt lat="47.31149" lon="-2.30053">
        <ele>-13.39999961853</ele>
        <time>2022-02-13T10:12:39.000Z</time>
      </trkpt>
      <trkpt lat="47.31173" lon="-2.30114">
        <ele>-13.39999961853</ele>
        <time>2022-02-13T10:12:47.000Z</time>
      </trkpt>
      <trkpt lat="47.31183" lon="-2.30162">
        <ele>-13.39999961853</ele>
        <time>2022-02-13T10:12:53.000Z</time>
      </trkpt>
      <trkpt lat="47.31185" lon="-2.3018">
        <ele>-13</ele>
        <time>2022-02-13T10:12:55.000Z</time>
      </trkpt>
      <trkpt lat="47.31186" lon="-2.30188">
        <ele>-12.60000038147</ele>
        <time>2022-02-13T10:12:56.000Z</time>
      </trkpt>
      <trkpt lat="47.31186" lon="-2.30197">
        <ele>-12.199999809265</ele>
        <time>2022-02-13T10:12:57.000Z</time>
      </trkpt>
      <trkpt lat="47.31187" lon="-2.30205">
        <ele>-11.800000190735</ele>
        <time>2022-02-13T10:12:58.000Z</time>
      </trkpt>
      <trkpt lat="47.31188" lon="-2.30213">
        <ele>-11.39999961853</ele>
        <time>2022-02-13T10:12:59.000Z</time>
      </trkpt>
      <trkpt lat="47.31189" lon="-2.30229">
        <ele>-11.39999961853</ele>
        <time>2022-02-13T10:13:01.000Z</time>
      </trkpt>
      <trkpt lat="47.31189" lon="-2.30237">
        <ele>-11.39999961853</ele>
        <time>2022-02-13T10:13:02.000Z</time>
      </trkpt>
      <trkpt lat="47.31188" lon="-2.30261">
        <ele>-11</ele>
        <time>2022-02-13T10:13:05.000Z</time>
      </trkpt>
      <trkpt lat="47.31187" lon="-2.3027">
        <ele>-10.39999961853</ele>
        <time>2022-02-13T10:13:06.000Z</time>
      </trkpt>
      <trkpt lat="47.31185" lon="-2.30279">
        <ele>-10</ele>
        <time>2022-02-13T10:13:07.000Z</time>
      </trkpt>
      <trkpt lat="47.31183" lon="-2.30288">
        <ele>-9.6000003814697</ele>
        <time>2022-02-13T10:13:08.000Z</time>
      </trkpt>
      <trkpt lat="47.31181" lon="-2.30297">
        <ele>-9.1999998092651</ele>
        <time>2022-02-13T10:13:09.000Z</time>
      </trkpt>
      <trkpt lat="47.31174" lon="-2.30321">
        <ele>-9.1999998092651</ele>
        <time>2022-02-13T10:13:12.000Z</time>
      </trkpt>
      <trkpt lat="47.3117" lon="-2.30339">
        <ele>-9.1999998092651</ele>
        <time>2022-02-13T10:13:14.000Z</time>
      </trkpt>
      <trkpt lat="47.3117" lon="-2.30357">
        <ele>-9.1999998092651</ele>
        <time>2022-02-13T10:13:16.000Z</time>
      </trkpt>
      <trkpt lat="47.31171" lon="-2.30377">
        <ele>-9.1999998092651</ele>
        <time>2022-02-13T10:13:18.000Z</time>
      </trkpt>
      <trkpt lat="47.31175" lon="-2.30406">
        <ele>-9.6000003814697</ele>
        <time>2022-02-13T10:13:21.000Z</time>
      </trkpt>
      <trkpt lat="47.31177" lon="-2.30415">
        <ele>-10</ele>
        <time>2022-02-13T10:13:22.000Z</time>
      </trkpt>
      <trkpt lat="47.31179" lon="-2.30423">
        <ele>-10.39999961853</ele>
        <time>2022-02-13T10:13:23.000Z</time>
      </trkpt>
      <trkpt lat="47.31181" lon="-2.30433">
        <ele>-10.800000190735</ele>
        <time>2022-02-13T10:13:24.000Z</time>
      </trkpt>
      <trkpt lat="47.31183" lon="-2.30442">
        <ele>-11.199999809265</ele>
        <time>2022-02-13T10:13:25.000Z</time>
      </trkpt>
      <trkpt lat="47.31189" lon="-2.3047">
        <ele>-11.199999809265</ele>
        <time>2022-02-13T10:13:28.000Z</time>
      </trkpt>
      <trkpt lat="47.31205" lon="-2.30552">
        <ele>-11.199999809265</ele>
        <time>2022-02-13T10:13:37.000Z</time>
      </trkpt>
      <trkpt lat="47.31218" lon="-2.30619">
        <ele>-11.199999809265</ele>
        <time>2022-02-13T10:13:45.000Z</time>
      </trkpt>
      <trkpt lat="47.31229" lon="-2.30675">
        <ele>-11.199999809265</ele>
        <time>2022-02-13T10:13:52.000Z</time>
      </trkpt>
      <trkpt lat="47.31243" lon="-2.30733">
        <ele>-11.199999809265</ele>
        <time>2022-02-13T10:13:59.000Z</time>
      </trkpt>
      <trkpt lat="47.31255" lon="-2.30793">
        <ele>-11.199999809265</ele>
        <time>2022-02-13T10:14:06.000Z</time>
      </trkpt>
      <trkpt lat="47.3127" lon="-2.30831">
        <ele>-11.199999809265</ele>
        <time>2022-02-13T10:14:11.000Z</time>
      </trkpt>
      <trkpt lat="47.31279" lon="-2.30852">
        <ele>-10.800000190735</ele>
        <time>2022-02-13T10:14:14.000Z</time>
      </trkpt>
      <trkpt lat="47.31282" lon="-2.30859">
        <ele>-10.39999961853</ele>
        <time>2022-02-13T10:14:15.000Z</time>
      </trkpt>
      <trkpt lat="47.31285" lon="-2.30867">
        <ele>-10</ele>
        <time>2022-02-13T10:14:16.000Z</time>
      </trkpt>
      <trkpt lat="47.31288" lon="-2.30873">
        <ele>-9.6000003814697</ele>
        <time>2022-02-13T10:14:17.000Z</time>
      </trkpt>
      <trkpt lat="47.31291" lon="-2.3088">
        <ele>-9.1999998092651</ele>
        <time>2022-02-13T10:14:18.000Z</time>
      </trkpt>
      <trkpt lat="47.31294" lon="-2.30887">
        <ele>-9.1999998092651</ele>
        <time>2022-02-13T10:14:19.000Z</time>
      </trkpt>
      <trkpt lat="47.31307" lon="-2.30919">
        <ele>-9.1999998092651</ele>
        <time>2022-02-13T10:14:24.000Z</time>
      </trkpt>
      <trkpt lat="47.3131" lon="-2.30925">
        <ele>-8.6000003814697</ele>
        <time>2022-02-13T10:14:25.000Z</time>
      </trkpt>
      <trkpt lat="47.31312" lon="-2.30932">
        <ele>-8.1999998092651</ele>
        <time>2022-02-13T10:14:26.000Z</time>
      </trkpt>
      <trkpt lat="47.31314" lon="-2.30938">
        <ele>-7.8000001907349</ele>
        <time>2022-02-13T10:14:27.000Z</time>
      </trkpt>
      <trkpt lat="47.31316" lon="-2.30944">
        <ele>-7.1999998092651</ele>
        <time>2022-02-13T10:14:28.000Z</time>
      </trkpt>
      <trkpt lat="47.31319" lon="-2.30949">
        <ele>-6.8000001907349</ele>
        <time>2022-02-13T10:14:29.000Z</time>
      </trkpt>
      <trkpt lat="47.31322" lon="-2.30954">
        <ele>-6.8000001907349</ele>
        <time>2022-02-13T10:14:30.000Z</time>
      </trkpt>
      <trkpt lat="47.31325" lon="-2.3096">
        <ele>-6.4000000953674</ele>
        <time>2022-02-13T10:14:31.000Z</time>
      </trkpt>
      <trkpt lat="47.31326" lon="-2.30967">
        <ele>-6</ele>
        <time>2022-02-13T10:14:32.000Z</time>
      </trkpt>
      <trkpt lat="47.31326" lon="-2.30975">
        <ele>-5.4000000953674</ele>
        <time>2022-02-13T10:14:33.000Z</time>
      </trkpt>
      <trkpt lat="47.31326" lon="-2.30982">
        <ele>-5</ele>
        <time>2022-02-13T10:14:34.000Z</time>
      </trkpt>
      <trkpt lat="47.31327" lon="-2.3099">
        <ele>-4.5999999046326</ele>
        <time>2022-02-13T10:14:35.000Z</time>
      </trkpt>
      <trkpt lat="47.31328" lon="-2.30997">
        <ele>-4.5999999046326</ele>
        <time>2022-02-13T10:14:36.000Z</time>
      </trkpt>
      <trkpt lat="47.3133" lon="-2.31005">
        <ele>-4.5999999046326</ele>
        <time>2022-02-13T10:14:37.000Z</time>
      </trkpt>
      <trkpt lat="47.31333" lon="-2.31019">
        <ele>-4.5999999046326</ele>
        <time>2022-02-13T10:14:39.000Z</time>
      </trkpt>
      <trkpt lat="47.31347" lon="-2.31068">
        <ele>-4.5999999046326</ele>
        <time>2022-02-13T10:14:46.000Z</time>
      </trkpt>
      <trkpt lat="47.31358" lon="-2.31114">
        <ele>-4.5999999046326</ele>
        <time>2022-02-13T10:14:53.000Z</time>
      </trkpt>
      <trkpt lat="47.31363" lon="-2.31126">
        <ele>-4.5999999046326</ele>
        <time>2022-02-13T10:14:55.000Z</time>
      </trkpt>
      <trkpt lat="47.31369" lon="-2.31137">
        <ele>-4.1999998092651</ele>
        <time>2022-02-13T10:14:57.000Z</time>
      </trkpt>
      <trkpt lat="47.31372" lon="-2.31142">
        <ele>-3.7999999523163</ele>
        <time>2022-02-13T10:14:58.000Z</time>
      </trkpt>
      <trkpt lat="47.31374" lon="-2.31149">
        <ele>-3.4000000953674</ele>
        <time>2022-02-13T10:14:59.000Z</time>
      </trkpt>
      <trkpt lat="47.31377" lon="-2.31155">
        <ele>-3</ele>
        <time>2022-02-13T10:15:00.000Z</time>
      </trkpt>
      <trkpt lat="47.31379" lon="-2.31162">
        <ele>-2.5999999046326</ele>
        <time>2022-02-13T10:15:01.000Z</time>
      </trkpt>
      <trkpt lat="47.3138" lon="-2.3117">
        <ele>-2.5999999046326</ele>
        <time>2022-02-13T10:15:02.000Z</time>
      </trkpt>
      <trkpt lat="47.31382" lon="-2.31177">
        <ele>-2.5999999046326</ele>
        <time>2022-02-13T10:15:03.000Z</time>
      </trkpt>
      <trkpt lat="47.31395" lon="-2.31224">
        <ele>-2.5999999046326</ele>
        <time>2022-02-13T10:15:10.000Z</time>
      </trkpt>
      <trkpt lat="47.31396" lon="-2.31231">
        <ele>-2.5999999046326</ele>
        <time>2022-02-13T10:15:11.000Z</time>
      </trkpt>
      <trkpt lat="47.3139" lon="-2.31241">
        <ele>-2.5999999046326</ele>
        <time>2022-02-13T10:15:13.000Z</time>
      </trkpt>
      <trkpt lat="47.31376" lon="-2.3127">
        <ele>-2.5999999046326</ele>
        <time>2022-02-13T10:15:18.000Z</time>
      </trkpt>
      <trkpt lat="47.3137" lon="-2.3129">
        <ele>-2.5999999046326</ele>
        <time>2022-02-13T10:15:21.000Z</time>
      </trkpt>
      <trkpt lat="47.3137" lon="-2.31304">
        <ele>-2.5999999046326</ele>
        <time>2022-02-13T10:15:23.000Z</time>
      </trkpt>
      <trkpt lat="47.31371" lon="-2.31327">
        <ele>-2.5999999046326</ele>
        <time>2022-02-13T10:15:26.000Z</time>
      </trkpt>
      <trkpt lat="47.31373" lon="-2.31349">
        <ele>-2.5999999046326</ele>
        <time>2022-02-13T10:15:29.000Z</time>
      </trkpt>
      <trkpt lat="47.31375" lon="-2.31357">
        <ele>-2.5999999046326</ele>
        <time>2022-02-13T10:15:30.000Z</time>
      </trkpt>
      <trkpt lat="47.31382" lon="-2.31387">
        <ele>-2.5999999046326</ele>
        <time>2022-02-13T10:15:34.000Z</time>
      </trkpt>
      <trkpt lat="47.31396" lon="-2.3142">
        <ele>-2.5999999046326</ele>
        <time>2022-02-13T10:15:39.000Z</time>
      </trkpt>
      <trkpt lat="47.31425" lon="-2.31469">
        <ele>-2.5999999046326</ele>
        <time>2022-02-13T10:15:47.000Z</time>
      </trkpt>
      <trkpt lat="47.31427" lon="-2.31475">
        <ele>-2.5999999046326</ele>
        <time>2022-02-13T10:15:48.000Z</time>
      </trkpt>
      <trkpt lat="47.31427" lon="-2.31488">
        <ele>-2.5999999046326</ele>
        <time>2022-02-13T10:15:50.000Z</time>
      </trkpt>
      <trkpt lat="47.31428" lon="-2.31521">
        <ele>-2.5999999046326</ele>
        <time>2022-02-13T10:15:54.000Z</time>
      </trkpt>
      <trkpt lat="47.31429" lon="-2.3153">
        <ele>-2</ele>
        <time>2022-02-13T10:15:55.000Z</time>
      </trkpt>
      <trkpt lat="47.3143" lon="-2.31539">
        <ele>-1.6000000238419</ele>
        <time>2022-02-13T10:15:56.000Z</time>
      </trkpt>
      <trkpt lat="47.31431" lon="-2.31548">
        <ele>-1.2000000476837</ele>
        <time>2022-02-13T10:15:57.000Z</time>
      </trkpt>
      <trkpt lat="47.31432" lon="-2.31556">
        <ele>-0.80000001192093</ele>
        <time>2022-02-13T10:15:58.000Z</time>
      </trkpt>
      <trkpt lat="47.31434" lon="-2.31565">
        <ele>-0.40000000596046</ele>
        <time>2022-02-13T10:15:59.000Z</time>
      </trkpt>
      <trkpt lat="47.31435" lon="-2.31581">
        <ele>-0.40000000596046</ele>
        <time>2022-02-13T10:16:01.000Z</time>
      </trkpt>
      <trkpt lat="47.31444" lon="-2.31638">
        <ele>-0.40000000596046</ele>
        <time>2022-02-13T10:16:08.000Z</time>
      </trkpt>
      <trkpt lat="47.31457" lon="-2.31693">
        <ele>-0.40000000596046</ele>
        <time>2022-02-13T10:16:15.000Z</time>
      </trkpt>
      <trkpt lat="47.31458" lon="-2.31701">
        <ele>0.20000000298023</ele>
        <time>2022-02-13T10:16:16.000Z</time>
      </trkpt>
      <trkpt lat="47.3146" lon="-2.31709">
        <ele>0.60000002384186</ele>
        <time>2022-02-13T10:16:17.000Z</time>
      </trkpt>
      <trkpt lat="47.31461" lon="-2.31717">
        <ele>1</ele>
        <time>2022-02-13T10:16:18.000Z</time>
      </trkpt>
      <trkpt lat="47.31462" lon="-2.31724">
        <ele>1.6000000238419</ele>
        <time>2022-02-13T10:16:19.000Z</time>
      </trkpt>
      <trkpt lat="47.31464" lon="-2.31731">
        <ele>2</ele>
        <time>2022-02-13T10:16:20.000Z</time>
      </trkpt>
      <trkpt lat="47.31465" lon="-2.31739">
        <ele>2</ele>
        <time>2022-02-13T10:16:21.000Z</time>
      </trkpt>
      <trkpt lat="47.31469" lon="-2.31761">
        <ele>2</ele>
        <time>2022-02-13T10:16:24.000Z</time>
      </trkpt>
      <trkpt lat="47.31465" lon="-2.31783">
        <ele>2</ele>
        <time>2022-02-13T10:16:27.000Z</time>
      </trkpt>
      <trkpt lat="47.31456" lon="-2.31803">
        <ele>2</ele>
        <time>2022-02-13T10:16:30.000Z</time>
      </trkpt>
      <trkpt lat="47.3145" lon="-2.31816">
        <ele>2</ele>
        <time>2022-02-13T10:16:32.000Z</time>
      </trkpt>
      <trkpt lat="47.31429" lon="-2.31862">
        <ele>2</ele>
        <time>2022-02-13T10:16:39.000Z</time>
      </trkpt>
      <trkpt lat="47.31421" lon="-2.31902">
        <ele>2</ele>
        <time>2022-02-13T10:16:44.000Z</time>
      </trkpt>
      <trkpt lat="47.31421" lon="-2.3191">
        <ele>2</ele>
        <time>2022-02-13T10:16:45.000Z</time>
      </trkpt>
      <trkpt lat="47.31419" lon="-2.31944">
        <ele>2</ele>
        <time>2022-02-13T10:16:49.000Z</time>
      </trkpt>
      <trkpt lat="47.3142" lon="-2.31952">
        <ele>2</ele>
        <time>2022-02-13T10:16:50.000Z</time>
      </trkpt>
      <trkpt lat="47.31425" lon="-2.31977">
        <ele>2</ele>
        <time>2022-02-13T10:16:53.000Z</time>
      </trkpt>
      <trkpt lat="47.31429" lon="-2.31993">
        <ele>2</ele>
        <time>2022-02-13T10:16:55.000Z</time>
      </trkpt>
      <trkpt lat="47.31448" lon="-2.32045">
        <ele>1.6000000238419</ele>
        <time>2022-02-13T10:17:01.000Z</time>
      </trkpt>
      <trkpt lat="47.31452" lon="-2.32056">
        <ele>1.2000000476837</ele>
        <time>2022-02-13T10:17:02.000Z</time>
      </trkpt>
      <trkpt lat="47.31455" lon="-2.32065">
        <ele>0.80000001192093</ele>
        <time>2022-02-13T10:17:03.000Z</time>
      </trkpt>
      <trkpt lat="47.31459" lon="-2.32074">
        <ele>0.40000000596046</ele>
        <time>2022-02-13T10:17:04.000Z</time>
      </trkpt>
      <trkpt lat="47.31463" lon="-2.32083">
        <ele>27.6</ele>
        <time>2022-02-13T10:17:05.000Z</time>
      </trkpt>
      <trkpt lat="47.31473" lon="-2.32111">
        <ele>24.2</ele>
        <time>2022-02-13T10:17:08.000Z</time>
      </trkpt>
      <trkpt lat="47.31488" lon="-2.32145">
        <ele>27.4</ele>
        <time>2022-02-13T10:17:13.000Z</time>
      </trkpt>
      <trkpt lat="47.31498" lon="-2.32165">
        <ele>0.40000000596046</ele>
        <time>2022-02-13T10:17:17.000Z</time>
      </trkpt>
      <trkpt lat="47.31501" lon="-2.32169">
        <ele>1.2000000476837</ele>
        <time>2022-02-13T10:17:18.000Z</time>
      </trkpt>
      <trkpt lat="47.31503" lon="-2.32173">
        <ele>1.7999999523163</ele>
        <time>2022-02-13T10:17:19.000Z</time>
      </trkpt>
      <trkpt lat="47.31506" lon="-2.32176">
        <ele>2.2000000476837</ele>
        <time>2022-02-13T10:17:20.000Z</time>
      </trkpt>
      <trkpt lat="47.31517" lon="-2.32178">
        <ele>2.5999999046326</ele>
        <time>2022-02-13T10:17:23.000Z</time>
      </trkpt>
      <trkpt lat="47.31518" lon="-2.32174">
        <ele>3</ele>
        <time>2022-02-13T10:17:24.000Z</time>
      </trkpt>
      <trkpt lat="47.31518" lon="-2.3217">
        <ele>3.4000000953674</ele>
        <time>2022-02-13T10:17:25.000Z</time>
      </trkpt>
      <trkpt lat="47.31517" lon="-2.32164">
        <ele>3.7999999523163</ele>
        <time>2022-02-13T10:17:26.000Z</time>
      </trkpt>
      <trkpt lat="47.31515" lon="-2.3216">
        <ele>4.1999998092651</ele>
        <time>2022-02-13T10:17:27.000Z</time>
      </trkpt>
      <trkpt lat="47.31509" lon="-2.32151">
        <ele>4.1999998092651</ele>
        <time>2022-02-13T10:17:29.000Z</time>
      </trkpt>
      <trkpt lat="47.31501" lon="-2.32138">
        <ele>4.1999998092651</ele>
        <time>2022-02-13T10:17:31.000Z</time>
      </trkpt>
      <trkpt lat="47.31499" lon="-2.3213">
        <ele>4.1999998092651</ele>
        <time>2022-02-13T10:17:32.000Z</time>
      </trkpt>
      <trkpt lat="47.31497" lon="-2.32116">
        <ele>4.1999998092651</ele>
        <time>2022-02-13T10:17:34.000Z</time>
      </trkpt>
      <trkpt lat="47.31498" lon="-2.32109">
        <ele>4.1999998092651</ele>
        <time>2022-02-13T10:17:35.000Z</time>
      </trkpt>
      <trkpt lat="47.31505" lon="-2.32106">
        <ele>4.1999998092651</ele>
        <time>2022-02-13T10:17:37.000Z</time>
      </trkpt>
      <trkpt lat="47.31513" lon="-2.3211">
        <ele>4.1999998092651</ele>
        <time>2022-02-13T10:17:40.000Z</time>
      </trkpt>
      <trkpt lat="47.31517" lon="-2.32112">
        <ele>4.1999998092651</ele>
        <time>2022-02-13T10:17:41.000Z</time>
      </trkpt>
      <trkpt lat="47.31536" lon="-2.32116">
        <ele>4.1999998092651</ele>
        <time>2022-02-13T10:17:46.000Z</time>
      </trkpt>
      <trkpt lat="47.31568" lon="-2.32123">
        <ele>4.5999999046326</ele>
        <time>2022-02-13T10:17:53.000Z</time>
      </trkpt>
      <trkpt lat="47.31573" lon="-2.32124">
        <ele>5</ele>
        <time>2022-02-13T10:17:54.000Z</time>
      </trkpt>
      <trkpt lat="47.31578" lon="-2.32125">
        <ele>5.4000000953674</ele>
        <time>2022-02-13T10:17:55.000Z</time>
      </trkpt>
      <trkpt lat="47.31583" lon="-2.32126">
        <ele>6</ele>
        <time>2022-02-13T10:17:56.000Z</time>
      </trkpt>
      <trkpt lat="47.31588" lon="-2.32128">
        <ele>6.4000000953674</ele>
        <time>2022-02-13T10:17:57.000Z</time>
      </trkpt>
      <trkpt lat="47.31598" lon="-2.32131">
        <ele>6.4000000953674</ele>
        <time>2022-02-13T10:17:59.000Z</time>
      </trkpt>
      <trkpt lat="47.31629" lon="-2.32141">
        <ele>6.4000000953674</ele>
        <time>2022-02-13T10:18:05.000Z</time>
      </trkpt>
      <trkpt lat="47.31651" lon="-2.32145">
        <ele>6.4000000953674</ele>
        <time>2022-02-13T10:18:09.000Z</time>
      </trkpt>
      <trkpt lat="47.31661" lon="-2.32149">
        <ele>6.4000000953674</ele>
        <time>2022-02-13T10:18:11.000Z</time>
      </trkpt>
      <trkpt lat="47.31681" lon="-2.32154">
        <ele>6.4000000953674</ele>
        <time>2022-02-13T10:18:15.000Z</time>
      </trkpt>
      <trkpt lat="47.31691" lon="-2.32157">
        <ele>6.4000000953674</ele>
        <time>2022-02-13T10:18:17.000Z</time>
      </trkpt>
      <trkpt lat="47.31724" lon="-2.32165">
        <ele>6.4000000953674</ele>
        <time>2022-02-13T10:18:23.000Z</time>
      </trkpt>
      <trkpt lat="47.31761" lon="-2.32172">
        <ele>6.4000000953674</ele>
        <time>2022-02-13T10:18:29.000Z</time>
      </trkpt>
      <trkpt lat="47.31807" lon="-2.32184">
        <ele>6.4000000953674</ele>
        <time>2022-02-13T10:18:36.000Z</time>
      </trkpt>
      <trkpt lat="47.31857" lon="-2.32195">
        <ele>5.8000001907349</ele>
        <time>2022-02-13T10:18:43.000Z</time>
      </trkpt>
      <trkpt lat="47.31865" lon="-2.32197">
        <ele>5.4000000953674</ele>
        <time>2022-02-13T10:18:44.000Z</time>
      </trkpt>
      <trkpt lat="47.31872" lon="-2.32199">
        <ele>5</ele>
        <time>2022-02-13T10:18:45.000Z</time>
      </trkpt>
      <trkpt lat="47.31879" lon="-2.32199">
        <ele>4.1999998092651</ele>
        <time>2022-02-13T10:18:46.000Z</time>
      </trkpt>
      <trkpt lat="47.31885" lon="-2.322">
        <ele>3.5999999046326</ele>
        <time>2022-02-13T10:18:47.000Z</time>
      </trkpt>
      <trkpt lat="47.31889" lon="-2.322">
        <ele>2.7999999523163</ele>
        <time>2022-02-13T10:18:48.000Z</time>
      </trkpt>
      <trkpt lat="47.31892" lon="-2.32202">
        <ele>2.2000000476837</ele>
        <time>2022-02-13T10:18:49.000Z</time>
      </trkpt>
      <trkpt lat="47.31893" lon="-2.32205">
        <ele>1.6000000238419</ele>
        <time>2022-02-13T10:18:50.000Z</time>
      </trkpt>
      <trkpt lat="47.31892" lon="-2.32208">
        <ele>1</ele>
        <time>2022-02-13T10:18:51.000Z</time>
      </trkpt>
      <trkpt lat="47.31889" lon="-2.3221">
        <ele>0.40000000596046</ele>
        <time>2022-02-13T10:18:52.000Z</time>
      </trkpt>
      <trkpt lat="47.31886" lon="-2.32212">
        <ele>-0.20000000298023</ele>
        <time>2022-02-13T10:18:53.000Z</time>
      </trkpt>
      <trkpt lat="47.31883" lon="-2.32212">
        <ele>-0.60000002384186</ele>
        <time>2022-02-13T10:18:54.000Z</time>
      </trkpt>
      <trkpt lat="47.31879" lon="-2.32212">
        <ele>-0.60000002384186</ele>
        <time>2022-02-13T10:18:55.000Z</time>
      </trkpt>
      <trkpt lat="47.31867" lon="-2.32214">
        <ele>-0.60000002384186</ele>
        <time>2022-02-13T10:18:58.000Z</time>
      </trkpt>
      <trkpt lat="47.31858" lon="-2.32216">
        <ele>-0.20000000298023</ele>
        <time>2022-02-13T10:19:00.000Z</time>
      </trkpt>
      <trkpt lat="47.31854" lon="-2.32218">
        <ele>0.20000000298023</ele>
        <time>2022-02-13T10:19:01.000Z</time>
      </trkpt>
      <trkpt lat="47.3185" lon="-2.32219">
        <ele>0.60000002384186</ele>
        <time>2022-02-13T10:19:02.000Z</time>
      </trkpt>
      <trkpt lat="47.31846" lon="-2.3222">
        <ele>1</ele>
        <time>2022-02-13T10:19:03.000Z</time>
      </trkpt>
      <trkpt lat="47.31842" lon="-2.32222">
        <ele>1.3999999761581</ele>
        <time>2022-02-13T10:19:04.000Z</time>
      </trkpt>
      <trkpt lat="47.31835" lon="-2.32225">
        <ele>1.3999999761581</ele>
        <time>2022-02-13T10:19:06.000Z</time>
      </trkpt>
      <trkpt lat="47.31831" lon="-2.32226">
        <ele>1.3999999761581</ele>
        <time>2022-02-13T10:19:07.000Z</time>
      </trkpt>
      <trkpt lat="47.31823" lon="-2.32227">
        <ele>1.7999999523163</ele>
        <time>2022-02-13T10:19:09.000Z</time>
      </trkpt>
      <trkpt lat="47.31819" lon="-2.32227">
        <ele>2.2000000476837</ele>
        <time>2022-02-13T10:19:10.000Z</time>
      </trkpt>
      <trkpt lat="47.31815" lon="-2.32228">
        <ele>2.5999999046326</ele>
        <time>2022-02-13T10:19:11.000Z</time>
      </trkpt>
      <trkpt lat="47.31811" lon="-2.32228">
        <ele>3</ele>
        <time>2022-02-13T10:19:12.000Z</time>
      </trkpt>
      <trkpt lat="47.31807" lon="-2.32229">
        <ele>3.5999999046326</ele>
        <time>2022-02-13T10:19:13.000Z</time>
      </trkpt>
      <trkpt lat="47.31795" lon="-2.32229">
        <ele>3.5999999046326</ele>
        <time>2022-02-13T10:19:16.000Z</time>
      </trkpt>
      <trkpt lat="47.31791" lon="-2.32229">
        <ele>4</ele>
        <time>2022-02-13T10:19:17.000Z</time>
      </trkpt>
      <trkpt lat="47.31787" lon="-2.3223">
        <ele>4.4000000953674</ele>
        <time>2022-02-13T10:19:18.000Z</time>
      </trkpt>
      <trkpt lat="47.31784" lon="-2.32231">
        <ele>4.8000001907349</ele>
        <time>2022-02-13T10:19:19.000Z</time>
      </trkpt>
      <trkpt lat="47.31781" lon="-2.32232">
        <ele>5.1999998092651</ele>
        <time>2022-02-13T10:19:20.000Z</time>
      </trkpt>
      <trkpt lat="47.31778" lon="-2.32232">
        <ele>5.5999999046326</ele>
        <time>2022-02-13T10:19:21.000Z</time>
      </trkpt>
      <trkpt lat="47.31764" lon="-2.32234">
        <ele>5.5999999046326</ele>
        <time>2022-02-13T10:19:25.000Z</time>
      </trkpt>
      <trkpt lat="47.31757" lon="-2.32239">
        <ele>5.5999999046326</ele>
        <time>2022-02-13T10:19:27.000Z</time>
      </trkpt>
      <trkpt lat="47.31756" lon="-2.32244">
        <ele>5.5999999046326</ele>
        <time>2022-02-13T10:19:28.000Z</time>
      </trkpt>
      <trkpt lat="47.31761" lon="-2.32267">
        <ele>5.5999999046326</ele>
        <time>2022-02-13T10:19:32.000Z</time>
      </trkpt>
      <trkpt lat="47.31769" lon="-2.32308">
        <ele>5.5999999046326</ele>
        <time>2022-02-13T10:19:38.000Z</time>
      </trkpt>
      <trkpt lat="47.3178" lon="-2.32374">
        <ele>5.5999999046326</ele>
        <time>2022-02-13T10:19:46.000Z</time>
      </trkpt>
      <trkpt lat="47.3179" lon="-2.3243">
        <ele>5.5999999046326</ele>
        <time>2022-02-13T10:19:52.000Z</time>
      </trkpt>
      <trkpt lat="47.31791" lon="-2.32439">
        <ele>5.5999999046326</ele>
        <time>2022-02-13T10:19:53.000Z</time>
      </trkpt>
      <trkpt lat="47.31792" lon="-2.32448">
        <ele>5.1999998092651</ele>
        <time>2022-02-13T10:19:54.000Z</time>
      </trkpt>
      <trkpt lat="47.31793" lon="-2.32457">
        <ele>4.8000001907349</ele>
        <time>2022-02-13T10:19:55.000Z</time>
      </trkpt>
      <trkpt lat="47.31794" lon="-2.32466">
        <ele>4.4000000953674</ele>
        <time>2022-02-13T10:19:56.000Z</time>
      </trkpt>
      <trkpt lat="47.31796" lon="-2.32476">
        <ele>3.7999999523163</ele>
        <time>2022-02-13T10:19:57.000Z</time>
      </trkpt>
      <trkpt lat="47.31798" lon="-2.32485">
        <ele>3.4000000953674</ele>
        <time>2022-02-13T10:19:58.000Z</time>
      </trkpt>
      <trkpt lat="47.318" lon="-2.32495">
        <ele>2.7999999523163</ele>
        <time>2022-02-13T10:19:59.000Z</time>
      </trkpt>
      <trkpt lat="47.31803" lon="-2.32505">
        <ele>2.2000000476837</ele>
        <time>2022-02-13T10:20:00.000Z</time>
      </trkpt>
      <trkpt lat="47.31805" lon="-2.32515">
        <ele>1.7999999523163</ele>
        <time>2022-02-13T10:20:01.000Z</time>
      </trkpt>
      <trkpt lat="47.31807" lon="-2.32525">
        <ele>1.2000000476837</ele>
        <time>2022-02-13T10:20:02.000Z</time>
      </trkpt>
      <trkpt lat="47.31808" lon="-2.32535">
        <ele>1.2000000476837</ele>
        <time>2022-02-13T10:20:03.000Z</time>
      </trkpt>
      <trkpt lat="47.31813" lon="-2.32555">
        <ele>0.80000001192093</ele>
        <time>2022-02-13T10:20:05.000Z</time>
      </trkpt>
      <trkpt lat="47.31816" lon="-2.32566">
        <ele>0.40000000596046</ele>
        <time>2022-02-13T10:20:06.000Z</time>
      </trkpt>
      <trkpt lat="47.31818" lon="-2.32577">
        <ele>21.8</ele>
        <time>2022-02-13T10:20:07.000Z</time>
      </trkpt>
      <trkpt lat="47.3182" lon="-2.32588">
        <ele>-0.40000000596046</ele>
        <time>2022-02-13T10:20:08.000Z</time>
      </trkpt>
      <trkpt lat="47.31823" lon="-2.32598">
        <ele>-0.80000001192093</ele>
        <time>2022-02-13T10:20:09.000Z</time>
      </trkpt>
      <trkpt lat="47.3183" lon="-2.32624">
        <ele>-0.80000001192093</ele>
        <time>2022-02-13T10:20:12.000Z</time>
      </trkpt>
      <trkpt lat="47.31832" lon="-2.32632">
        <ele>-1.3999999761581</ele>
        <time>2022-02-13T10:20:13.000Z</time>
      </trkpt>
      <trkpt lat="47.31834" lon="-2.3264">
        <ele>-1.7999999523163</ele>
        <time>2022-02-13T10:20:14.000Z</time>
      </trkpt>
      <trkpt lat="47.31835" lon="-2.32648">
        <ele>-2.2000000476837</ele>
        <time>2022-02-13T10:20:15.000Z</time>
      </trkpt>
      <trkpt lat="47.31838" lon="-2.32656">
        <ele>-2.5999999046326</ele>
        <time>2022-02-13T10:20:16.000Z</time>
      </trkpt>
      <trkpt lat="47.31841" lon="-2.32665">
        <ele>-3</ele>
        <time>2022-02-13T10:20:17.000Z</time>
      </trkpt>
      <trkpt lat="47.31858" lon="-2.32705">
        <ele>-3.4000000953674</ele>
        <time>2022-02-13T10:20:22.000Z</time>
      </trkpt>
      <trkpt lat="47.31861" lon="-2.32713">
        <ele>-4</ele>
        <time>2022-02-13T10:20:23.000Z</time>
      </trkpt>
      <trkpt lat="47.31864" lon="-2.32721">
        <ele>-4.4000000953674</ele>
        <time>2022-02-13T10:20:24.000Z</time>
      </trkpt>
      <trkpt lat="47.31867" lon="-2.3273">
        <ele>-4.8000001907349</ele>
        <time>2022-02-13T10:20:25.000Z</time>
      </trkpt>
      <trkpt lat="47.3187" lon="-2.32739">
        <ele>-5.1999998092651</ele>
        <time>2022-02-13T10:20:26.000Z</time>
      </trkpt>
      <trkpt lat="47.31876" lon="-2.32756">
        <ele>-5.1999998092651</ele>
        <time>2022-02-13T10:20:28.000Z</time>
      </trkpt>
      <trkpt lat="47.3188" lon="-2.32775">
        <ele>-5.1999998092651</ele>
        <time>2022-02-13T10:20:30.000Z</time>
      </trkpt>
      <trkpt lat="47.31886" lon="-2.32848">
        <ele>-5.1999998092651</ele>
        <time>2022-02-13T10:20:38.000Z</time>
      </trkpt>
      <trkpt lat="47.31886" lon="-2.32883">
        <ele>-5.5999999046326</ele>
        <time>2022-02-13T10:20:42.000Z</time>
      </trkpt>
      <trkpt lat="47.31886" lon="-2.32892">
        <ele>-6</ele>
        <time>2022-02-13T10:20:43.000Z</time>
      </trkpt>
      <trkpt lat="47.31885" lon="-2.32901">
        <ele>-6.4000000953674</ele>
        <time>2022-02-13T10:20:44.000Z</time>
      </trkpt>
      <trkpt lat="47.31885" lon="-2.3291">
        <ele>-6.8000001907349</ele>
        <time>2022-02-13T10:20:45.000Z</time>
      </trkpt>
      <trkpt lat="47.31885" lon="-2.32918">
        <ele>-7.1999998092651</ele>
        <time>2022-02-13T10:20:46.000Z</time>
      </trkpt>
      <trkpt lat="47.31885" lon="-2.32926">
        <ele>-7.1999998092651</ele>
        <time>2022-02-13T10:20:47.000Z</time>
      </trkpt>
      <trkpt lat="47.31885" lon="-2.32935">
        <ele>-7.1999998092651</ele>
        <time>2022-02-13T10:20:48.000Z</time>
      </trkpt>
      <trkpt lat="47.3188" lon="-2.32984">
        <ele>-7.1999998092651</ele>
        <time>2022-02-13T10:20:53.000Z</time>
      </trkpt>
      <trkpt lat="47.3188" lon="-2.32993">
        <ele>-7.1999998092651</ele>
        <time>2022-02-13T10:20:54.000Z</time>
      </trkpt>
      <trkpt lat="47.31881" lon="-2.33032">
        <ele>-7.1999998092651</ele>
        <time>2022-02-13T10:20:58.000Z</time>
      </trkpt>
      <trkpt lat="47.31881" lon="-2.33041">
        <ele>-7.1999998092651</ele>
        <time>2022-02-13T10:20:59.000Z</time>
      </trkpt>
      <trkpt lat="47.3188" lon="-2.33082">
        <ele>-7.1999998092651</ele>
        <time>2022-02-13T10:21:04.000Z</time>
      </trkpt>
      <trkpt lat="47.31876" lon="-2.33123">
        <ele>-7.1999998092651</ele>
        <time>2022-02-13T10:21:10.000Z</time>
      </trkpt>
      <trkpt lat="47.31874" lon="-2.33141">
        <ele>-7.1999998092651</ele>
        <time>2022-02-13T10:21:13.000Z</time>
      </trkpt>
      <trkpt lat="47.31873" lon="-2.33152">
        <ele>-7.1999998092651</ele>
        <time>2022-02-13T10:21:15.000Z</time>
      </trkpt>
      <trkpt lat="47.31871" lon="-2.33178">
        <ele>-7.1999998092651</ele>
        <time>2022-02-13T10:21:20.000Z</time>
      </trkpt>
      <trkpt lat="47.31869" lon="-2.33196">
        <ele>-6.8000001907349</ele>
        <time>2022-02-13T10:21:23.000Z</time>
      </trkpt>
      <trkpt lat="47.31869" lon="-2.33202">
        <ele>-6.4000000953674</ele>
        <time>2022-02-13T10:21:24.000Z</time>
      </trkpt>
      <trkpt lat="47.31868" lon="-2.33208">
        <ele>-6</ele>
        <time>2022-02-13T10:21:25.000Z</time>
      </trkpt>
      <trkpt lat="47.31867" lon="-2.33213">
        <ele>-5.1999998092651</ele>
        <time>2022-02-13T10:21:26.000Z</time>
      </trkpt>
      <trkpt lat="47.3186" lon="-2.33244">
        <ele>-5.1999998092651</ele>
        <time>2022-02-13T10:21:32.000Z</time>
      </trkpt>
      <trkpt lat="47.31849" lon="-2.33268">
        <ele>-4.8000001907349</ele>
        <time>2022-02-13T10:21:37.000Z</time>
      </trkpt>
      <trkpt lat="47.31848" lon="-2.33272">
        <ele>-4.4000000953674</ele>
        <time>2022-02-13T10:21:38.000Z</time>
      </trkpt>
      <trkpt lat="47.31846" lon="-2.33277">
        <ele>-4</ele>
        <time>2022-02-13T10:21:39.000Z</time>
      </trkpt>
      <trkpt lat="47.31844" lon="-2.3328">
        <ele>-3.5999999046326</ele>
        <time>2022-02-13T10:21:40.000Z</time>
      </trkpt>
      <trkpt lat="47.31841" lon="-2.33284">
        <ele>-3.2000000476837</ele>
        <time>2022-02-13T10:21:41.000Z</time>
      </trkpt>
      <trkpt lat="47.31834" lon="-2.3329">
        <ele>-3.2000000476837</ele>
        <time>2022-02-13T10:21:43.000Z</time>
      </trkpt>
      <trkpt lat="47.31819" lon="-2.33304">
        <ele>-2.7999999523163</ele>
        <time>2022-02-13T10:21:48.000Z</time>
      </trkpt>
      <trkpt lat="47.31816" lon="-2.33307">
        <ele>-2.4000000953674</ele>
        <time>2022-02-13T10:21:49.000Z</time>
      </trkpt>
      <trkpt lat="47.31813" lon="-2.3331">
        <ele>-1.3999999761581</ele>
        <time>2022-02-13T10:21:50.000Z</time>
      </trkpt>
      <trkpt lat="47.3181" lon="-2.33313">
        <ele>-1</ele>
        <time>2022-02-13T10:21:51.000Z</time>
      </trkpt>
      <trkpt lat="47.31801" lon="-2.33319">
        <ele>-0.60000002384186</ele>
        <time>2022-02-13T10:21:54.000Z</time>
      </trkpt>
      <trkpt lat="47.31799" lon="-2.33321">
        <ele>24.4</ele>
        <time>2022-02-13T10:21:55.000Z</time>
      </trkpt>
      <trkpt lat="47.31796" lon="-2.33323">
        <ele>0.40000000596046</ele>
        <time>2022-02-13T10:21:56.000Z</time>
      </trkpt>
      <trkpt lat="47.31794" lon="-2.33325">
        <ele>0.80000001192093</ele>
        <time>2022-02-13T10:21:57.000Z</time>
      </trkpt>
      <trkpt lat="47.31791" lon="-2.33326">
        <ele>1.3999999761581</ele>
        <time>2022-02-13T10:21:58.000Z</time>
      </trkpt>
      <trkpt lat="47.31781" lon="-2.33326">
        <ele>1.3999999761581</ele>
        <time>2022-02-13T10:22:01.000Z</time>
      </trkpt>
      <trkpt lat="47.31766" lon="-2.33315">
        <ele>1.3999999761581</ele>
        <time>2022-02-13T10:22:06.000Z</time>
      </trkpt>
      <trkpt lat="47.3176" lon="-2.33305">
        <ele>1.7999999523163</ele>
        <time>2022-02-13T10:22:09.000Z</time>
      </trkpt>
      <trkpt lat="47.31758" lon="-2.33301">
        <ele>2.2000000476837</ele>
        <time>2022-02-13T10:22:10.000Z</time>
      </trkpt>
      <trkpt lat="47.31756" lon="-2.33297">
        <ele>2.5999999046326</ele>
        <time>2022-02-13T10:22:11.000Z</time>
      </trkpt>
      <trkpt lat="47.31754" lon="-2.33293">
        <ele>3</ele>
        <time>2022-02-13T10:22:12.000Z</time>
      </trkpt>
      <trkpt lat="47.31753" lon="-2.33289">
        <ele>3.4000000953674</ele>
        <time>2022-02-13T10:22:13.000Z</time>
      </trkpt>
      <trkpt lat="47.31746" lon="-2.3326">
        <ele>3.4000000953674</ele>
        <time>2022-02-13T10:22:19.000Z</time>
      </trkpt>
      <trkpt lat="47.31741" lon="-2.33249">
        <ele>3.4000000953674</ele>
        <time>2022-02-13T10:22:22.000Z</time>
      </trkpt>
      <trkpt lat="47.31739" lon="-2.33249">
        <ele>3.4000000953674</ele>
        <time>2022-02-13T10:22:23.000Z</time>
      </trkpt>
      <trkpt lat="47.31723" lon="-2.33255">
        <ele>3.7999999523163</ele>
        <time>2022-02-13T10:22:28.000Z</time>
      </trkpt>
      <trkpt lat="47.3172" lon="-2.33256">
        <ele>4.1999998092651</ele>
        <time>2022-02-13T10:22:29.000Z</time>
      </trkpt>
      <trkpt lat="47.31717" lon="-2.33258">
        <ele>4.5999999046326</ele>
        <time>2022-02-13T10:22:30.000Z</time>
      </trkpt>
      <trkpt lat="47.31714" lon="-2.33259">
        <ele>5</ele>
        <time>2022-02-13T10:22:31.000Z</time>
      </trkpt>
      <trkpt lat="47.31711" lon="-2.33259">
        <ele>5.4000000953674</ele>
        <time>2022-02-13T10:22:32.000Z</time>
      </trkpt>
      <trkpt lat="47.31701" lon="-2.33264">
        <ele>5.4000000953674</ele>
        <time>2022-02-13T10:22:36.000Z</time>
      </trkpt>
      <trkpt lat="47.31688" lon="-2.33269">
        <ele>5.8000001907349</ele>
        <time>2022-02-13T10:22:40.000Z</time>
      </trkpt>
      <trkpt lat="47.31685" lon="-2.3327">
        <ele>6.1999998092651</ele>
        <time>2022-02-13T10:22:41.000Z</time>
      </trkpt>
      <trkpt lat="47.31681" lon="-2.33271">
        <ele>6.5999999046326</ele>
        <time>2022-02-13T10:22:42.000Z</time>
      </trkpt>
      <trkpt lat="47.31678" lon="-2.33273">
        <ele>7</ele>
        <time>2022-02-13T10:22:43.000Z</time>
      </trkpt>
      <trkpt lat="47.31674" lon="-2.33275">
        <ele>7.4000000953674</ele>
        <time>2022-02-13T10:22:44.000Z</time>
      </trkpt>
      <trkpt lat="47.3166" lon="-2.33281">
        <ele>7.4000000953674</ele>
        <time>2022-02-13T10:22:48.000Z</time>
      </trkpt>
      <trkpt lat="47.31639" lon="-2.33293">
        <ele>7.4000000953674</ele>
        <time>2022-02-13T10:22:54.000Z</time>
      </trkpt>
      <trkpt lat="47.31623" lon="-2.33304">
        <ele>7.8000001907349</ele>
        <time>2022-02-13T10:22:59.000Z</time>
      </trkpt>
      <trkpt lat="47.31619" lon="-2.33306">
        <ele>8.1999998092651</ele>
        <time>2022-02-13T10:23:00.000Z</time>
      </trkpt>
      <trkpt lat="47.31615" lon="-2.33308">
        <ele>8.6000003814697</ele>
        <time>2022-02-13T10:23:01.000Z</time>
      </trkpt>
      <trkpt lat="47.31611" lon="-2.33309">
        <ele>9</ele>
        <time>2022-02-13T10:23:02.000Z</time>
      </trkpt>
      <trkpt lat="47.31607" lon="-2.33311">
        <ele>9.3999996185303</ele>
        <time>2022-02-13T10:23:03.000Z</time>
      </trkpt>
      <trkpt lat="47.31595" lon="-2.33319">
        <ele>9.3999996185303</ele>
        <time>2022-02-13T10:23:06.000Z</time>
      </trkpt>
      <trkpt lat="47.31569" lon="-2.33333">
        <ele>9.3999996185303</ele>
        <time>2022-02-13T10:23:13.000Z</time>
      </trkpt>
      <trkpt lat="47.31534" lon="-2.33348">
        <ele>9.3999996185303</ele>
        <time>2022-02-13T10:23:21.000Z</time>
      </trkpt>
      <trkpt lat="47.31503" lon="-2.33364">
        <ele>9.3999996185303</ele>
        <time>2022-02-13T10:23:28.000Z</time>
      </trkpt>
      <trkpt lat="47.31488" lon="-2.33368">
        <ele>9.3999996185303</ele>
        <time>2022-02-13T10:23:31.000Z</time>
      </trkpt>
      <trkpt lat="47.31479" lon="-2.33362">
        <ele>9.3999996185303</ele>
        <time>2022-02-13T10:23:33.000Z</time>
      </trkpt>
      <trkpt lat="47.31466" lon="-2.33339">
        <ele>9.3999996185303</ele>
        <time>2022-02-13T10:23:37.000Z</time>
      </trkpt>
      <trkpt lat="47.31463" lon="-2.33333">
        <ele>9.3999996185303</ele>
        <time>2022-02-13T10:23:38.000Z</time>
      </trkpt>
      <trkpt lat="47.31444" lon="-2.33297">
        <ele>9.3999996185303</ele>
        <time>2022-02-13T10:23:44.000Z</time>
      </trkpt>
      <trkpt lat="47.31441" lon="-2.33292">
        <ele>9.3999996185303</ele>
        <time>2022-02-13T10:23:45.000Z</time>
      </trkpt>
      <trkpt lat="47.31424" lon="-2.33275">
        <ele>9.3999996185303</ele>
        <time>2022-02-13T10:23:49.000Z</time>
      </trkpt>
      <trkpt lat="47.31388" lon="-2.33248">
        <ele>9.3999996185303</ele>
        <time>2022-02-13T10:23:56.000Z</time>
      </trkpt>
      <trkpt lat="47.31372" lon="-2.33236">
        <ele>9</ele>
        <time>2022-02-13T10:23:59.000Z</time>
      </trkpt>
      <trkpt lat="47.31367" lon="-2.33233">
        <ele>8.6000003814697</ele>
        <time>2022-02-13T10:24:00.000Z</time>
      </trkpt>
      <trkpt lat="47.31362" lon="-2.33229">
        <ele>8.1999998092651</ele>
        <time>2022-02-13T10:24:01.000Z</time>
      </trkpt>
      <trkpt lat="47.31356" lon="-2.33225">
        <ele>7.8000001907349</ele>
        <time>2022-02-13T10:24:02.000Z</time>
      </trkpt>
      <trkpt lat="47.31351" lon="-2.3322">
        <ele>7.4000000953674</ele>
        <time>2022-02-13T10:24:03.000Z</time>
      </trkpt>
      <trkpt lat="47.31345" lon="-2.33215">
        <ele>7.4000000953674</ele>
        <time>2022-02-13T10:24:04.000Z</time>
      </trkpt>
      <trkpt lat="47.31314" lon="-2.33186">
        <ele>7.4000000953674</ele>
        <time>2022-02-13T10:24:10.000Z</time>
      </trkpt>
      <trkpt lat="47.31281" lon="-2.33163">
        <ele>7.4000000953674</ele>
        <time>2022-02-13T10:24:16.000Z</time>
      </trkpt>
      <trkpt lat="47.3124" lon="-2.33152">
        <ele>7.4000000953674</ele>
        <time>2022-02-13T10:24:23.000Z</time>
      </trkpt>
      <trkpt lat="47.31217" lon="-2.3315">
        <ele>7.4000000953674</ele>
        <time>2022-02-13T10:24:27.000Z</time>
      </trkpt>
      <trkpt lat="47.31206" lon="-2.33153">
        <ele>7.4000000953674</ele>
        <time>2022-02-13T10:24:29.000Z</time>
      </trkpt>
      <trkpt lat="47.3118" lon="-2.33167">
        <ele>7.4000000953674</ele>
        <time>2022-02-13T10:24:34.000Z</time>
      </trkpt>
      <trkpt lat="47.31152" lon="-2.33187">
        <ele>7.4000000953674</ele>
        <time>2022-02-13T10:24:40.000Z</time>
      </trkpt>
      <trkpt lat="47.31148" lon="-2.3319">
        <ele>7.4000000953674</ele>
        <time>2022-02-13T10:24:41.000Z</time>
      </trkpt>
      <trkpt lat="47.3113" lon="-2.332">
        <ele>7.4000000953674</ele>
        <time>2022-02-13T10:24:45.000Z</time>
      </trkpt>
      <trkpt lat="47.31117" lon="-2.33208">
        <ele>7.4000000953674</ele>
        <time>2022-02-13T10:24:48.000Z</time>
      </trkpt>
      <trkpt lat="47.3111" lon="-2.33216">
        <ele>7.4000000953674</ele>
        <time>2022-02-13T10:24:50.000Z</time>
      </trkpt>
      <trkpt lat="47.31107" lon="-2.33242">
        <ele>7.4000000953674</ele>
        <time>2022-02-13T10:24:54.000Z</time>
      </trkpt>
      <trkpt lat="47.31107" lon="-2.33249">
        <ele>7.4000000953674</ele>
        <time>2022-02-13T10:24:55.000Z</time>
      </trkpt>
      <trkpt lat="47.31103" lon="-2.33292">
        <ele>7.4000000953674</ele>
        <time>2022-02-13T10:25:01.000Z</time>
      </trkpt>
      <trkpt lat="47.31101" lon="-2.33354">
        <ele>7.4000000953674</ele>
        <time>2022-02-13T10:25:09.000Z</time>
      </trkpt>
      <trkpt lat="47.311" lon="-2.334">
        <ele>7.4000000953674</ele>
        <time>2022-02-13T10:25:15.000Z</time>
      </trkpt>
      <trkpt lat="47.311" lon="-2.3346">
        <ele>7.4000000953674</ele>
        <time>2022-02-13T10:25:23.000Z</time>
      </trkpt>
      <trkpt lat="47.31101" lon="-2.33497">
        <ele>7.4000000953674</ele>
        <time>2022-02-13T10:25:28.000Z</time>
      </trkpt>
      <trkpt lat="47.31102" lon="-2.33504">
        <ele>7.8000001907349</ele>
        <time>2022-02-13T10:25:29.000Z</time>
      </trkpt>
      <trkpt lat="47.31103" lon="-2.33511">
        <ele>8.1999998092651</ele>
        <time>2022-02-13T10:25:30.000Z</time>
      </trkpt>
      <trkpt lat="47.31104" lon="-2.33519">
        <ele>8.6000003814697</ele>
        <time>2022-02-13T10:25:31.000Z</time>
      </trkpt>
      <trkpt lat="47.31106" lon="-2.33526">
        <ele>9.3999996185303</ele>
        <time>2022-02-13T10:25:32.000Z</time>
      </trkpt>
      <trkpt lat="47.31113" lon="-2.33572">
        <ele>9.3999996185303</ele>
        <time>2022-02-13T10:25:38.000Z</time>
      </trkpt>
      <trkpt lat="47.31114" lon="-2.33579">
        <ele>9.3999996185303</ele>
        <time>2022-02-13T10:25:39.000Z</time>
      </trkpt>
      <trkpt lat="47.31114" lon="-2.33611">
        <ele>9.3999996185303</ele>
        <time>2022-02-13T10:25:43.000Z</time>
      </trkpt>
      <trkpt lat="47.31111" lon="-2.33636">
        <ele>9.3999996185303</ele>
        <time>2022-02-13T10:25:46.000Z</time>
      </trkpt>
      <trkpt lat="47.31103" lon="-2.33694">
        <ele>9.3999996185303</ele>
        <time>2022-02-13T10:25:53.000Z</time>
      </trkpt>
      <trkpt lat="47.31093" lon="-2.33755">
        <ele>9.3999996185303</ele>
        <time>2022-02-13T10:26:00.000Z</time>
      </trkpt>
      <trkpt lat="47.31088" lon="-2.3377">
        <ele>9.3999996185303</ele>
        <time>2022-02-13T10:26:02.000Z</time>
      </trkpt>
      <trkpt lat="47.31079" lon="-2.33791">
        <ele>9.3999996185303</ele>
        <time>2022-02-13T10:26:05.000Z</time>
      </trkpt>
      <trkpt lat="47.31072" lon="-2.33815">
        <ele>9.3999996185303</ele>
        <time>2022-02-13T10:26:08.000Z</time>
      </trkpt>
      <trkpt lat="47.3107" lon="-2.33832">
        <ele>9.3999996185303</ele>
        <time>2022-02-13T10:26:10.000Z</time>
      </trkpt>
      <trkpt lat="47.31066" lon="-2.33899">
        <ele>9.3999996185303</ele>
        <time>2022-02-13T10:26:18.000Z</time>
      </trkpt>
      <trkpt lat="47.31064" lon="-2.33932">
        <ele>10.199999809265</ele>
        <time>2022-02-13T10:26:22.000Z</time>
      </trkpt>
      <trkpt lat="47.31061" lon="-2.33939">
        <ele>10.60000038147</ele>
        <time>2022-02-13T10:26:23.000Z</time>
      </trkpt>
      <trkpt lat="47.31056" lon="-2.33944">
        <ele>11</ele>
        <time>2022-02-13T10:26:24.000Z</time>
      </trkpt>
      <trkpt lat="47.31051" lon="-2.33947">
        <ele>11.60000038147</ele>
        <time>2022-02-13T10:26:25.000Z</time>
      </trkpt>
      <trkpt lat="47.31047" lon="-2.33948">
        <ele>11.60000038147</ele>
        <time>2022-02-13T10:26:26.000Z</time>
      </trkpt>
      <trkpt lat="47.31029" lon="-2.33951">
        <ele>11.60000038147</ele>
        <time>2022-02-13T10:26:30.000Z</time>
      </trkpt>
      <trkpt lat="47.31024" lon="-2.33952">
        <ele>11.60000038147</ele>
        <time>2022-02-13T10:26:31.000Z</time>
      </trkpt>
      <trkpt lat="47.31005" lon="-2.33956">
        <ele>12</ele>
        <time>2022-02-13T10:26:35.000Z</time>
      </trkpt>
      <trkpt lat="47.31001" lon="-2.33956">
        <ele>12.39999961853</ele>
        <time>2022-02-13T10:26:36.000Z</time>
      </trkpt>
      <trkpt lat="47.30996" lon="-2.33956">
        <ele>12.800000190735</ele>
        <time>2022-02-13T10:26:37.000Z</time>
      </trkpt>
      <trkpt lat="47.30992" lon="-2.33956">
        <ele>13.199999809265</ele>
        <time>2022-02-13T10:26:38.000Z</time>
      </trkpt>
      <trkpt lat="47.30987" lon="-2.33957">
        <ele>13.60000038147</ele>
        <time>2022-02-13T10:26:39.000Z</time>
      </trkpt>
      <trkpt lat="47.30961" lon="-2.33956">
        <ele>13.60000038147</ele>
        <time>2022-02-13T10:26:44.000Z</time>
      </trkpt>
      <trkpt lat="47.30956" lon="-2.33955">
        <ele>13.60000038147</ele>
        <time>2022-02-13T10:26:45.000Z</time>
      </trkpt>
      <trkpt lat="47.30936" lon="-2.3395">
        <ele>13.60000038147</ele>
        <time>2022-02-13T10:26:49.000Z</time>
      </trkpt>
      <trkpt lat="47.30926" lon="-2.33948">
        <ele>13.60000038147</ele>
        <time>2022-02-13T10:26:51.000Z</time>
      </trkpt>
      <trkpt lat="47.30889" lon="-2.33948">
        <ele>13.60000038147</ele>
        <time>2022-02-13T10:26:58.000Z</time>
      </trkpt>
      <trkpt lat="47.30848" lon="-2.33955">
        <ele>13.60000038147</ele>
        <time>2022-02-13T10:27:06.000Z</time>
      </trkpt>
      <trkpt lat="47.30812" lon="-2.33964">
        <ele>13.60000038147</ele>
        <time>2022-02-13T10:27:13.000Z</time>
      </trkpt>
      <trkpt lat="47.30782" lon="-2.33972">
        <ele>13.60000038147</ele>
        <time>2022-02-13T10:27:19.000Z</time>
      </trkpt>
      <trkpt lat="47.30744" lon="-2.3398">
        <ele>13.60000038147</ele>
        <time>2022-02-13T10:27:26.000Z</time>
      </trkpt>
      <trkpt lat="47.30706" lon="-2.33991">
        <ele>13.60000038147</ele>
        <time>2022-02-13T10:27:33.000Z</time>
      </trkpt>
      <trkpt lat="47.30682" lon="-2.33995">
        <ele>13.60000038147</ele>
        <time>2022-02-13T10:27:37.000Z</time>
      </trkpt>
      <trkpt lat="47.30677" lon="-2.33995">
        <ele>13.60000038147</ele>
        <time>2022-02-13T10:27:38.000Z</time>
      </trkpt>
      <trkpt lat="47.3066" lon="-2.33996">
        <ele>13.60000038147</ele>
        <time>2022-02-13T10:27:41.000Z</time>
      </trkpt>
      <trkpt lat="47.30654" lon="-2.33995">
        <ele>13.199999809265</ele>
        <time>2022-02-13T10:27:42.000Z</time>
      </trkpt>
      <trkpt lat="47.30649" lon="-2.33992">
        <ele>12.800000190735</ele>
        <time>2022-02-13T10:27:43.000Z</time>
      </trkpt>
      <trkpt lat="47.30643" lon="-2.33988">
        <ele>12.39999961853</ele>
        <time>2022-02-13T10:27:44.000Z</time>
      </trkpt>
      <trkpt lat="47.30637" lon="-2.33984">
        <ele>12</ele>
        <time>2022-02-13T10:27:45.000Z</time>
      </trkpt>
      <trkpt lat="47.30632" lon="-2.3398">
        <ele>11.60000038147</ele>
        <time>2022-02-13T10:27:46.000Z</time>
      </trkpt>
      <trkpt lat="47.30617" lon="-2.33968">
        <ele>11.60000038147</ele>
        <time>2022-02-13T10:27:49.000Z</time>
      </trkpt>
      <trkpt lat="47.30606" lon="-2.33957">
        <ele>11.60000038147</ele>
        <time>2022-02-13T10:27:52.000Z</time>
      </trkpt>
      <trkpt lat="47.30603" lon="-2.33951">
        <ele>11.60000038147</ele>
        <time>2022-02-13T10:27:53.000Z</time>
      </trkpt>
      <trkpt lat="47.306" lon="-2.3392">
        <ele>11.60000038147</ele>
        <time>2022-02-13T10:27:57.000Z</time>
      </trkpt>
      <trkpt lat="47.306" lon="-2.33897">
        <ele>11.60000038147</ele>
        <time>2022-02-13T10:28:00.000Z</time>
      </trkpt>
      <trkpt lat="47.306" lon="-2.33884">
        <ele>11.60000038147</ele>
        <time>2022-02-13T10:28:02.000Z</time>
      </trkpt>
      <trkpt lat="47.306" lon="-2.33872">
        <ele>11.60000038147</ele>
        <time>2022-02-13T10:28:04.000Z</time>
      </trkpt>
      <trkpt lat="47.30595" lon="-2.33853">
        <ele>11.60000038147</ele>
        <time>2022-02-13T10:28:07.000Z</time>
      </trkpt>
      <trkpt lat="47.30586" lon="-2.3383">
        <ele>11.60000038147</ele>
        <time>2022-02-13T10:28:11.000Z</time>
      </trkpt>
      <trkpt lat="47.30575" lon="-2.33789">
        <ele>11.60000038147</ele>
        <time>2022-02-13T10:28:17.000Z</time>
      </trkpt>
      <trkpt lat="47.30573" lon="-2.33782">
        <ele>11.60000038147</ele>
        <time>2022-02-13T10:28:18.000Z</time>
      </trkpt>
      <trkpt lat="47.30566" lon="-2.33744">
        <ele>11.60000038147</ele>
        <time>2022-02-13T10:28:23.000Z</time>
      </trkpt>
      <trkpt lat="47.30557" lon="-2.33695">
        <ele>11.60000038147</ele>
        <time>2022-02-13T10:28:29.000Z</time>
      </trkpt>
      <trkpt lat="47.30548" lon="-2.33658">
        <ele>11.199999809265</ele>
        <time>2022-02-13T10:28:34.000Z</time>
      </trkpt>
      <trkpt lat="47.30545" lon="-2.33654">
        <ele>10.60000038147</ele>
        <time>2022-02-13T10:28:35.000Z</time>
      </trkpt>
      <trkpt lat="47.3054" lon="-2.33652">
        <ele>10.199999809265</ele>
        <time>2022-02-13T10:28:36.000Z</time>
      </trkpt>
      <trkpt lat="47.30535" lon="-2.33652">
        <ele>9.8000001907349</ele>
        <time>2022-02-13T10:28:37.000Z</time>
      </trkpt>
      <trkpt lat="47.3053" lon="-2.33652">
        <ele>9.3999996185303</ele>
        <time>2022-02-13T10:28:38.000Z</time>
      </trkpt>
      <trkpt lat="47.30501" lon="-2.33657">
        <ele>9.3999996185303</ele>
        <time>2022-02-13T10:28:44.000Z</time>
      </trkpt>
      <trkpt lat="47.30491" lon="-2.3366">
        <ele>9.3999996185303</ele>
        <time>2022-02-13T10:28:46.000Z</time>
      </trkpt>
      <trkpt lat="47.30459" lon="-2.33676">
        <ele>9.3999996185303</ele>
        <time>2022-02-13T10:28:53.000Z</time>
      </trkpt>
      <trkpt lat="47.30436" lon="-2.3369">
        <ele>9.3999996185303</ele>
        <time>2022-02-13T10:28:58.000Z</time>
      </trkpt>
      <trkpt lat="47.30431" lon="-2.33691">
        <ele>9.3999996185303</ele>
        <time>2022-02-13T10:28:59.000Z</time>
      </trkpt>
      <trkpt lat="47.30418" lon="-2.33698">
        <ele>9.3999996185303</ele>
        <time>2022-02-13T10:29:02.000Z</time>
      </trkpt>
      <trkpt lat="47.30409" lon="-2.3371">
        <ele>9.3999996185303</ele>
        <time>2022-02-13T10:29:05.000Z</time>
      </trkpt>
      <trkpt lat="47.30389" lon="-2.33744">
        <ele>9.3999996185303</ele>
        <time>2022-02-13T10:29:12.000Z</time>
      </trkpt>
      <trkpt lat="47.30385" lon="-2.33749">
        <ele>9.3999996185303</ele>
        <time>2022-02-13T10:29:13.000Z</time>
      </trkpt>
      <trkpt lat="47.30367" lon="-2.33773">
        <ele>9.3999996185303</ele>
        <time>2022-02-13T10:29:18.000Z</time>
      </trkpt>
      <trkpt lat="47.30363" lon="-2.33777">
        <ele>9.3999996185303</ele>
        <time>2022-02-13T10:29:19.000Z</time>
      </trkpt>
      <trkpt lat="47.30347" lon="-2.33795">
        <ele>9.3999996185303</ele>
        <time>2022-02-13T10:29:23.000Z</time>
      </trkpt>
      <trkpt lat="47.30334" lon="-2.33811">
        <ele>9.8000001907349</ele>
        <time>2022-02-13T10:29:27.000Z</time>
      </trkpt>
      <trkpt lat="47.30331" lon="-2.33814">
        <ele>10.199999809265</ele>
        <time>2022-02-13T10:29:28.000Z</time>
      </trkpt>
      <trkpt lat="47.30327" lon="-2.33816">
        <ele>10.60000038147</ele>
        <time>2022-02-13T10:29:29.000Z</time>
      </trkpt>
      <trkpt lat="47.30324" lon="-2.33816">
        <ele>11</ele>
        <time>2022-02-13T10:29:30.000Z</time>
      </trkpt>
      <trkpt lat="47.30322" lon="-2.33813">
        <ele>11.39999961853</ele>
        <time>2022-02-13T10:29:31.000Z</time>
      </trkpt>
      <trkpt lat="47.30319" lon="-2.33801">
        <ele>11.39999961853</ele>
        <time>2022-02-13T10:29:33.000Z</time>
      </trkpt>
      <trkpt lat="47.3031" lon="-2.33758">
        <ele>11.39999961853</ele>
        <time>2022-02-13T10:29:39.000Z</time>
      </trkpt>
      <trkpt lat="47.30302" lon="-2.33728">
        <ele>11</ele>
        <time>2022-02-13T10:29:43.000Z</time>
      </trkpt>
      <trkpt lat="47.30301" lon="-2.3372">
        <ele>10.60000038147</ele>
        <time>2022-02-13T10:29:44.000Z</time>
      </trkpt>
      <trkpt lat="47.30299" lon="-2.33713">
        <ele>10.199999809265</ele>
        <time>2022-02-13T10:29:45.000Z</time>
      </trkpt>
      <trkpt lat="47.30297" lon="-2.33705">
        <ele>9.8000001907349</ele>
        <time>2022-02-13T10:29:46.000Z</time>
      </trkpt>
      <trkpt lat="47.30295" lon="-2.33698">
        <ele>9.3999996185303</ele>
        <time>2022-02-13T10:29:47.000Z</time>
      </trkpt>
      <trkpt lat="47.30283" lon="-2.33653">
        <ele>9.3999996185303</ele>
        <time>2022-02-13T10:29:53.000Z</time>
      </trkpt>
      <trkpt lat="47.30281" lon="-2.33646">
        <ele>9</ele>
        <time>2022-02-13T10:29:54.000Z</time>
      </trkpt>
      <trkpt lat="47.30279" lon="-2.33638">
        <ele>8.6000003814697</ele>
        <time>2022-02-13T10:29:55.000Z</time>
      </trkpt>
      <trkpt lat="47.30278" lon="-2.33631">
        <ele>8.1999998092651</ele>
        <time>2022-02-13T10:29:56.000Z</time>
      </trkpt>
      <trkpt lat="47.30276" lon="-2.33623">
        <ele>7.8000001907349</ele>
        <time>2022-02-13T10:29:57.000Z</time>
      </trkpt>
      <trkpt lat="47.30275" lon="-2.33616">
        <ele>7.4000000953674</ele>
        <time>2022-02-13T10:29:58.000Z</time>
      </trkpt>
      <trkpt lat="47.30274" lon="-2.33609">
        <ele>7.4000000953674</ele>
        <time>2022-02-13T10:29:59.000Z</time>
      </trkpt>
      <trkpt lat="47.30273" lon="-2.33593">
        <ele>7.4000000953674</ele>
        <time>2022-02-13T10:30:01.000Z</time>
      </trkpt>
      <trkpt lat="47.30268" lon="-2.33578">
        <ele>7.4000000953674</ele>
        <time>2022-02-13T10:30:03.000Z</time>
      </trkpt>
      <trkpt lat="47.30252" lon="-2.33566">
        <ele>7.4000000953674</ele>
        <time>2022-02-13T10:30:06.000Z</time>
      </trkpt>
      <trkpt lat="47.30238" lon="-2.33563">
        <ele>7.4000000953674</ele>
        <time>2022-02-13T10:30:08.000Z</time>
      </trkpt>
      <trkpt lat="47.30223" lon="-2.3356">
        <ele>7</ele>
        <time>2022-02-13T10:30:10.000Z</time>
      </trkpt>
      <trkpt lat="47.30217" lon="-2.33558">
        <ele>6.4000000953674</ele>
        <time>2022-02-13T10:30:11.000Z</time>
      </trkpt>
      <trkpt lat="47.3021" lon="-2.33557">
        <ele>6</ele>
        <time>2022-02-13T10:30:12.000Z</time>
      </trkpt>
      <trkpt lat="47.30202" lon="-2.33555">
        <ele>5.5999999046326</ele>
        <time>2022-02-13T10:30:13.000Z</time>
      </trkpt>
      <trkpt lat="47.30195" lon="-2.33553">
        <ele>5.1999998092651</ele>
        <time>2022-02-13T10:30:14.000Z</time>
      </trkpt>
      <trkpt lat="47.30169" lon="-2.33546">
        <ele>5.1999998092651</ele>
        <time>2022-02-13T10:30:18.000Z</time>
      </trkpt>
      <trkpt lat="47.30126" lon="-2.33531">
        <ele>4.8000001907349</ele>
        <time>2022-02-13T10:30:25.000Z</time>
      </trkpt>
      <trkpt lat="47.30119" lon="-2.33529">
        <ele>4.4000000953674</ele>
        <time>2022-02-13T10:30:26.000Z</time>
      </trkpt>
      <trkpt lat="47.30113" lon="-2.33527">
        <ele>3.7999999523163</ele>
        <time>2022-02-13T10:30:27.000Z</time>
      </trkpt>
      <trkpt lat="47.30107" lon="-2.33525">
        <ele>3.4000000953674</ele>
        <time>2022-02-13T10:30:28.000Z</time>
      </trkpt>
      <trkpt lat="47.30101" lon="-2.33524">
        <ele>3</ele>
        <time>2022-02-13T10:30:29.000Z</time>
      </trkpt>
      <trkpt lat="47.30083" lon="-2.33521">
        <ele>2.5999999046326</ele>
        <time>2022-02-13T10:30:32.000Z</time>
      </trkpt>
      <trkpt lat="47.30077" lon="-2.3352">
        <ele>2</ele>
        <time>2022-02-13T10:30:33.000Z</time>
      </trkpt>
      <trkpt lat="47.30071" lon="-2.3352">
        <ele>1.6000000238419</ele>
        <time>2022-02-13T10:30:34.000Z</time>
      </trkpt>
      <trkpt lat="47.30066" lon="-2.3352">
        <ele>1.2000000476837</ele>
        <time>2022-02-13T10:30:35.000Z</time>
      </trkpt>
      <trkpt lat="47.3006" lon="-2.33521">
        <ele>0.80000001192093</ele>
        <time>2022-02-13T10:30:36.000Z</time>
      </trkpt>
      <trkpt lat="47.30054" lon="-2.33523">
        <ele>0.80000001192093</ele>
        <time>2022-02-13T10:30:37.000Z</time>
      </trkpt>
      <trkpt lat="47.30031" lon="-2.33537">
        <ele>0.80000001192093</ele>
        <time>2022-02-13T10:30:41.000Z</time>
      </trkpt>
      <trkpt lat="47.30025" lon="-2.33539">
        <ele>0.80000001192093</ele>
        <time>2022-02-13T10:30:42.000Z</time>
      </trkpt>
      <trkpt lat="47.30007" lon="-2.3355">
        <ele>0.40000000596046</ele>
        <time>2022-02-13T10:30:45.000Z</time>
      </trkpt>
      <trkpt lat="47.30003" lon="-2.33557">
        <ele>23.1</ele>
        <time>2022-02-13T10:30:46.000Z</time>
      </trkpt>
      <trkpt lat="47.3" lon="-2.33566">
        <ele>-0.40000000596046</ele>
        <time>2022-02-13T10:30:47.000Z</time>
      </trkpt>
      <trkpt lat="47.29999" lon="-2.33575">
        <ele>-0.80000001192093</ele>
        <time>2022-02-13T10:30:48.000Z</time>
      </trkpt>
      <trkpt lat="47.29999" lon="-2.33584">
        <ele>-1.2000000476837</ele>
        <time>2022-02-13T10:30:49.000Z</time>
      </trkpt>
      <trkpt lat="47.30001" lon="-2.33602">
        <ele>-1.2000000476837</ele>
        <time>2022-02-13T10:30:51.000Z</time>
      </trkpt>
      <trkpt lat="47.30002" lon="-2.33628">
        <ele>-1.2000000476837</ele>
        <time>2022-02-13T10:30:54.000Z</time>
      </trkpt>
      <trkpt lat="47.30003" lon="-2.3367">
        <ele>-1.2000000476837</ele>
        <time>2022-02-13T10:30:59.000Z</time>
      </trkpt>
      <trkpt lat="47.30002" lon="-2.33687">
        <ele>-1.2000000476837</ele>
        <time>2022-02-13T10:31:01.000Z</time>
      </trkpt>
      <trkpt lat="47.29998" lon="-2.33733">
        <ele>-1.2000000476837</ele>
        <time>2022-02-13T10:31:07.000Z</time>
      </trkpt>
      <trkpt lat="47.29997" lon="-2.33748">
        <ele>-1.2000000476837</ele>
        <time>2022-02-13T10:31:09.000Z</time>
      </trkpt>
      <trkpt lat="47.29997" lon="-2.33768">
        <ele>-1.2000000476837</ele>
        <time>2022-02-13T10:31:12.000Z</time>
      </trkpt>
      <trkpt lat="47.29998" lon="-2.33788">
        <ele>-1.2000000476837</ele>
        <time>2022-02-13T10:31:15.000Z</time>
      </trkpt>
      <trkpt lat="47.29999" lon="-2.33795">
        <ele>-0.80000001192093</ele>
        <time>2022-02-13T10:31:16.000Z</time>
      </trkpt>
      <trkpt lat="47.3" lon="-2.33802">
        <ele>-0.40000000596046</ele>
        <time>2022-02-13T10:31:17.000Z</time>
      </trkpt>
      <trkpt lat="47.30002" lon="-2.33808">
        <ele>0.40000000596046</ele>
        <time>2022-02-13T10:31:18.000Z</time>
      </trkpt>
      <trkpt lat="47.30003" lon="-2.33814">
        <ele>0.80000001192093</ele>
        <time>2022-02-13T10:31:19.000Z</time>
      </trkpt>
      <trkpt lat="47.30008" lon="-2.33827">
        <ele>0.80000001192093</ele>
        <time>2022-02-13T10:31:21.000Z</time>
      </trkpt>
      <trkpt lat="47.30019" lon="-2.33846">
        <ele>0.80000001192093</ele>
        <time>2022-02-13T10:31:24.000Z</time>
      </trkpt>
      <trkpt lat="47.30035" lon="-2.33882">
        <ele>0.80000001192093</ele>
        <time>2022-02-13T10:31:30.000Z</time>
      </trkpt>
      <trkpt lat="47.30038" lon="-2.33888">
        <ele>0.80000001192093</ele>
        <time>2022-02-13T10:31:31.000Z</time>
      </trkpt>
      <trkpt lat="47.30051" lon="-2.33914">
        <ele>0.80000001192093</ele>
        <time>2022-02-13T10:31:36.000Z</time>
      </trkpt>
      <trkpt lat="47.30067" lon="-2.33945">
        <ele>1.2000000476837</ele>
        <time>2022-02-13T10:31:42.000Z</time>
      </trkpt>
      <trkpt lat="47.3007" lon="-2.3395">
        <ele>2</ele>
        <time>2022-02-13T10:31:43.000Z</time>
      </trkpt>
      <trkpt lat="47.30072" lon="-2.33956">
        <ele>2.4000000953674</ele>
        <time>2022-02-13T10:31:44.000Z</time>
      </trkpt>
      <trkpt lat="47.30074" lon="-2.33962">
        <ele>2.7999999523163</ele>
        <time>2022-02-13T10:31:45.000Z</time>
      </trkpt>
      <trkpt lat="47.30076" lon="-2.33967">
        <ele>2.7999999523163</ele>
        <time>2022-02-13T10:31:46.000Z</time>
      </trkpt>
      <trkpt lat="47.30086" lon="-2.33987">
        <ele>2.7999999523163</ele>
        <time>2022-02-13T10:31:50.000Z</time>
      </trkpt>
      <trkpt lat="47.30095" lon="-2.34015">
        <ele>2.7999999523163</ele>
        <time>2022-02-13T10:31:56.000Z</time>
      </trkpt>
      <trkpt lat="47.30091" lon="-2.34027">
        <ele>3.2000000476837</ele>
        <time>2022-02-13T10:31:58.000Z</time>
      </trkpt>
      <trkpt lat="47.30087" lon="-2.34033">
        <ele>3.5999999046326</ele>
        <time>2022-02-13T10:31:59.000Z</time>
      </trkpt>
      <trkpt lat="47.30084" lon="-2.34038">
        <ele>4</ele>
        <time>2022-02-13T10:32:00.000Z</time>
      </trkpt>
      <trkpt lat="47.30081" lon="-2.34042">
        <ele>4.5999999046326</ele>
        <time>2022-02-13T10:32:01.000Z</time>
      </trkpt>
      <trkpt lat="47.30078" lon="-2.34047">
        <ele>5</ele>
        <time>2022-02-13T10:32:02.000Z</time>
      </trkpt>
      <trkpt lat="47.30075" lon="-2.34052">
        <ele>5</ele>
        <time>2022-02-13T10:32:03.000Z</time>
      </trkpt>
      <trkpt lat="47.30069" lon="-2.34061">
        <ele>5</ele>
        <time>2022-02-13T10:32:05.000Z</time>
      </trkpt>
      <trkpt lat="47.30065" lon="-2.34065">
        <ele>5</ele>
        <time>2022-02-13T10:32:06.000Z</time>
      </trkpt>
      <trkpt lat="47.30042" lon="-2.34096">
        <ele>5</ele>
        <time>2022-02-13T10:32:13.000Z</time>
      </trkpt>
      <trkpt lat="47.30035" lon="-2.34105">
        <ele>5.4000000953674</ele>
        <time>2022-02-13T10:32:15.000Z</time>
      </trkpt>
      <trkpt lat="47.30031" lon="-2.34109">
        <ele>5.8000001907349</ele>
        <time>2022-02-13T10:32:16.000Z</time>
      </trkpt>
      <trkpt lat="47.30027" lon="-2.34114">
        <ele>6.4000000953674</ele>
        <time>2022-02-13T10:32:17.000Z</time>
      </trkpt>
      <trkpt lat="47.30023" lon="-2.34119">
        <ele>6.8000001907349</ele>
        <time>2022-02-13T10:32:18.000Z</time>
      </trkpt>
      <trkpt lat="47.3002" lon="-2.34124">
        <ele>7.1999998092651</ele>
        <time>2022-02-13T10:32:19.000Z</time>
      </trkpt>
      <trkpt lat="47.30016" lon="-2.34128">
        <ele>7.1999998092651</ele>
        <time>2022-02-13T10:32:20.000Z</time>
      </trkpt>
      <trkpt lat="47.2999" lon="-2.34162">
        <ele>7.1999998092651</ele>
        <time>2022-02-13T10:32:27.000Z</time>
      </trkpt>
      <trkpt lat="47.29957" lon="-2.34205">
        <ele>7.1999998092651</ele>
        <time>2022-02-13T10:32:36.000Z</time>
      </trkpt>
      <trkpt lat="47.29928" lon="-2.34242">
        <ele>7.1999998092651</ele>
        <time>2022-02-13T10:32:45.000Z</time>
      </trkpt>
      <trkpt lat="47.29916" lon="-2.34267">
        <ele>7.1999998092651</ele>
        <time>2022-02-13T10:32:51.000Z</time>
      </trkpt>
      <trkpt lat="47.29919" lon="-2.34289">
        <ele>7.1999998092651</ele>
        <time>2022-02-13T10:32:55.000Z</time>
      </trkpt>
      <trkpt lat="47.29921" lon="-2.34301">
        <ele>7.1999998092651</ele>
        <time>2022-02-13T10:32:57.000Z</time>
      </trkpt>
      <trkpt lat="47.29926" lon="-2.34329">
        <ele>7.1999998092651</ele>
        <time>2022-02-13T10:33:02.000Z</time>
      </trkpt>
      <trkpt lat="47.2993" lon="-2.34362">
        <ele>7.1999998092651</ele>
        <time>2022-02-13T10:33:09.000Z</time>
      </trkpt>
      <trkpt lat="47.29934" lon="-2.34403">
        <ele>7.1999998092651</ele>
        <time>2022-02-13T10:33:17.000Z</time>
      </trkpt>
      <trkpt lat="47.29938" lon="-2.34443">
        <ele>7.1999998092651</ele>
        <time>2022-02-13T10:33:24.000Z</time>
      </trkpt>
      <trkpt lat="47.29945" lon="-2.34497">
        <ele>7.1999998092651</ele>
        <time>2022-02-13T10:33:32.000Z</time>
      </trkpt>
      <trkpt lat="47.29953" lon="-2.34566">
        <ele>7.1999998092651</ele>
        <time>2022-02-13T10:33:41.000Z</time>
      </trkpt>
      <trkpt lat="47.29962" lon="-2.34645">
        <ele>7.1999998092651</ele>
        <time>2022-02-13T10:33:50.000Z</time>
      </trkpt>
      <trkpt lat="47.29971" lon="-2.34722">
        <ele>7.1999998092651</ele>
        <time>2022-02-13T10:33:59.000Z</time>
      </trkpt>
      <trkpt lat="47.29979" lon="-2.34792">
        <ele>7.1999998092651</ele>
        <time>2022-02-13T10:34:09.000Z</time>
      </trkpt>
      <trkpt lat="47.29979" lon="-2.34814">
        <ele>7.1999998092651</ele>
        <time>2022-02-13T10:34:12.000Z</time>
      </trkpt>
      <trkpt lat="47.29975" lon="-2.34819">
        <ele>7.1999998092651</ele>
        <time>2022-02-13T10:34:13.000Z</time>
      </trkpt>
      <trkpt lat="47.29961" lon="-2.34826">
        <ele>7.1999998092651</ele>
        <time>2022-02-13T10:34:16.000Z</time>
      </trkpt>
      <trkpt lat="47.29956" lon="-2.34826">
        <ele>7.1999998092651</ele>
        <time>2022-02-13T10:34:17.000Z</time>
      </trkpt>
      <trkpt lat="47.2994" lon="-2.34828">
        <ele>7.5999999046326</ele>
        <time>2022-02-13T10:34:20.000Z</time>
      </trkpt>
      <trkpt lat="47.29935" lon="-2.34829">
        <ele>8</ele>
        <time>2022-02-13T10:34:21.000Z</time>
      </trkpt>
      <trkpt lat="47.29929" lon="-2.3483">
        <ele>8.3999996185303</ele>
        <time>2022-02-13T10:34:22.000Z</time>
      </trkpt>
      <trkpt lat="47.29923" lon="-2.34832">
        <ele>9</ele>
        <time>2022-02-13T10:34:23.000Z</time>
      </trkpt>
      <trkpt lat="47.29918" lon="-2.34833">
        <ele>9.3999996185303</ele>
        <time>2022-02-13T10:34:24.000Z</time>
      </trkpt>
      <trkpt lat="47.2987" lon="-2.34842">
        <ele>9</ele>
        <time>2022-02-13T10:34:33.000Z</time>
      </trkpt>
      <trkpt lat="47.29864" lon="-2.34843">
        <ele>8.3999996185303</ele>
        <time>2022-02-13T10:34:34.000Z</time>
      </trkpt>
      <trkpt lat="47.29858" lon="-2.34844">
        <ele>8</ele>
        <time>2022-02-13T10:34:35.000Z</time>
      </trkpt>
      <trkpt lat="47.29853" lon="-2.34846">
        <ele>7.5999999046326</ele>
        <time>2022-02-13T10:34:36.000Z</time>
      </trkpt>
      <trkpt lat="47.29847" lon="-2.34847">
        <ele>7.1999998092651</ele>
        <time>2022-02-13T10:34:37.000Z</time>
      </trkpt>
      <trkpt lat="47.29831" lon="-2.34851">
        <ele>7.1999998092651</ele>
        <time>2022-02-13T10:34:40.000Z</time>
      </trkpt>
      <trkpt lat="47.29798" lon="-2.3486">
        <ele>7.1999998092651</ele>
        <time>2022-02-13T10:34:46.000Z</time>
      </trkpt>
      <trkpt lat="47.29777" lon="-2.34865">
        <ele>6.8000001907349</ele>
        <time>2022-02-13T10:34:50.000Z</time>
      </trkpt>
      <trkpt lat="47.29772" lon="-2.34868">
        <ele>6.4000000953674</ele>
        <time>2022-02-13T10:34:51.000Z</time>
      </trkpt>
      <trkpt lat="47.29767" lon="-2.3487">
        <ele>6</ele>
        <time>2022-02-13T10:34:52.000Z</time>
      </trkpt>
      <trkpt lat="47.29762" lon="-2.34871">
        <ele>5.5999999046326</ele>
        <time>2022-02-13T10:34:53.000Z</time>
      </trkpt>
      <trkpt lat="47.29756" lon="-2.34873">
        <ele>5.1999998092651</ele>
        <time>2022-02-13T10:34:54.000Z</time>
      </trkpt>
      <trkpt lat="47.29723" lon="-2.34887">
        <ele>5.1999998092651</ele>
        <time>2022-02-13T10:35:00.000Z</time>
      </trkpt>
      <trkpt lat="47.29703" lon="-2.34899">
        <ele>5.1999998092651</ele>
        <time>2022-02-13T10:35:04.000Z</time>
      </trkpt>
      <trkpt lat="47.29693" lon="-2.349">
        <ele>5.1999998092651</ele>
        <time>2022-02-13T10:35:06.000Z</time>
      </trkpt>
      <trkpt lat="47.29677" lon="-2.34892">
        <ele>5.1999998092651</ele>
        <time>2022-02-13T10:35:09.000Z</time>
      </trkpt>
      <trkpt lat="47.29664" lon="-2.34875">
        <ele>5.1999998092651</ele>
        <time>2022-02-13T10:35:12.000Z</time>
      </trkpt>
      <trkpt lat="47.29655" lon="-2.34866">
        <ele>5.1999998092651</ele>
        <time>2022-02-13T10:35:14.000Z</time>
      </trkpt>
      <trkpt lat="47.29648" lon="-2.34856">
        <ele>5.1999998092651</ele>
        <time>2022-02-13T10:35:16.000Z</time>
      </trkpt>
      <trkpt lat="47.29636" lon="-2.34842">
        <ele>5.1999998092651</ele>
        <time>2022-02-13T10:35:19.000Z</time>
      </trkpt>
      <trkpt lat="47.29618" lon="-2.34839">
        <ele>5.1999998092651</ele>
        <time>2022-02-13T10:35:23.000Z</time>
      </trkpt>
      <trkpt lat="47.29605" lon="-2.34856">
        <ele>5.1999998092651</ele>
        <time>2022-02-13T10:35:27.000Z</time>
      </trkpt>
      <trkpt lat="47.29601" lon="-2.34862">
        <ele>5.1999998092651</ele>
        <time>2022-02-13T10:35:28.000Z</time>
      </trkpt>
      <trkpt lat="47.29585" lon="-2.34888">
        <ele>5.1999998092651</ele>
        <time>2022-02-13T10:35:33.000Z</time>
      </trkpt>
      <trkpt lat="47.29558" lon="-2.34932">
        <ele>5.1999998092651</ele>
        <time>2022-02-13T10:35:40.000Z</time>
      </trkpt>
      <trkpt lat="47.29536" lon="-2.34963">
        <ele>5.1999998092651</ele>
        <time>2022-02-13T10:35:44.000Z</time>
      </trkpt>
      <trkpt lat="47.29519" lon="-2.34986">
        <ele>5.1999998092651</ele>
        <time>2022-02-13T10:35:47.000Z</time>
      </trkpt>
      <trkpt lat="47.29506" lon="-2.35011">
        <ele>5.1999998092651</ele>
        <time>2022-02-13T10:35:50.000Z</time>
      </trkpt>
      <trkpt lat="47.29493" lon="-2.35039">
        <ele>5.1999998092651</ele>
        <time>2022-02-13T10:35:54.000Z</time>
      </trkpt>
      <trkpt lat="47.29483" lon="-2.35067">
        <ele>5.1999998092651</ele>
        <time>2022-02-13T10:35:59.000Z</time>
      </trkpt>
      <trkpt lat="47.29471" lon="-2.35109">
        <ele>5.1999998092651</ele>
        <time>2022-02-13T10:36:06.000Z</time>
      </trkpt>
      <trkpt lat="47.29469" lon="-2.35115">
        <ele>5.1999998092651</ele>
        <time>2022-02-13T10:36:07.000Z</time>
      </trkpt>
      <trkpt lat="47.29467" lon="-2.35126">
        <ele>5.5999999046326</ele>
        <time>2022-02-13T10:36:09.000Z</time>
      </trkpt>
      <trkpt lat="47.29466" lon="-2.35131">
        <ele>6</ele>
        <time>2022-02-13T10:36:10.000Z</time>
      </trkpt>
      <trkpt lat="47.29465" lon="-2.35137">
        <ele>6.4000000953674</ele>
        <time>2022-02-13T10:36:11.000Z</time>
      </trkpt>
      <trkpt lat="47.29463" lon="-2.35143">
        <ele>6.8000001907349</ele>
        <time>2022-02-13T10:36:12.000Z</time>
      </trkpt>
      <trkpt lat="47.29461" lon="-2.35148">
        <ele>7.4000000953674</ele>
        <time>2022-02-13T10:36:13.000Z</time>
      </trkpt>
      <trkpt lat="47.29448" lon="-2.3518">
        <ele>7.4000000953674</ele>
        <time>2022-02-13T10:36:18.000Z</time>
      </trkpt>
      <trkpt lat="47.29428" lon="-2.3522">
        <ele>7.4000000953674</ele>
        <time>2022-02-13T10:36:24.000Z</time>
      </trkpt>
      <trkpt lat="47.29411" lon="-2.35246">
        <ele>7.4000000953674</ele>
        <time>2022-02-13T10:36:29.000Z</time>
      </trkpt>
      <trkpt lat="47.29387" lon="-2.35281">
        <ele>7.8000001907349</ele>
        <time>2022-02-13T10:36:36.000Z</time>
      </trkpt>
      <trkpt lat="47.29384" lon="-2.35286">
        <ele>8.1999998092651</ele>
        <time>2022-02-13T10:36:37.000Z</time>
      </trkpt>
      <trkpt lat="47.2938" lon="-2.35291">
        <ele>8.6000003814697</ele>
        <time>2022-02-13T10:36:38.000Z</time>
      </trkpt>
      <trkpt lat="47.29376" lon="-2.35296">
        <ele>9</ele>
        <time>2022-02-13T10:36:39.000Z</time>
      </trkpt>
      <trkpt lat="47.29373" lon="-2.353">
        <ele>9.6000003814697</ele>
        <time>2022-02-13T10:36:40.000Z</time>
      </trkpt>
      <trkpt lat="47.29352" lon="-2.35326">
        <ele>9.6000003814697</ele>
        <time>2022-02-13T10:36:46.000Z</time>
      </trkpt>
      <trkpt lat="47.29326" lon="-2.35355">
        <ele>9.6000003814697</ele>
        <time>2022-02-13T10:36:53.000Z</time>
      </trkpt>
      <trkpt lat="47.29294" lon="-2.35385">
        <ele>9.6000003814697</ele>
        <time>2022-02-13T10:37:01.000Z</time>
      </trkpt>
      <trkpt lat="47.29279" lon="-2.35399">
        <ele>10.39999961853</ele>
        <time>2022-02-13T10:37:05.000Z</time>
      </trkpt>
      <trkpt lat="47.29275" lon="-2.35403">
        <ele>10.800000190735</ele>
        <time>2022-02-13T10:37:06.000Z</time>
      </trkpt>
      <trkpt lat="47.29271" lon="-2.35406">
        <ele>11.199999809265</ele>
        <time>2022-02-13T10:37:07.000Z</time>
      </trkpt>
      <trkpt lat="47.29267" lon="-2.35409">
        <ele>11.60000038147</ele>
        <time>2022-02-13T10:37:08.000Z</time>
      </trkpt>
      <trkpt lat="47.29236" lon="-2.35424">
        <ele>11.60000038147</ele>
        <time>2022-02-13T10:37:15.000Z</time>
      </trkpt>
      <trkpt lat="47.29231" lon="-2.35425">
        <ele>11.60000038147</ele>
        <time>2022-02-13T10:37:16.000Z</time>
      </trkpt>
      <trkpt lat="47.29208" lon="-2.35435">
        <ele>11.60000038147</ele>
        <time>2022-02-13T10:37:21.000Z</time>
      </trkpt>
      <trkpt lat="47.29166" lon="-2.35452">
        <ele>11.60000038147</ele>
        <time>2022-02-13T10:37:30.000Z</time>
      </trkpt>
      <trkpt lat="47.29153" lon="-2.35458">
        <ele>11.60000038147</ele>
        <time>2022-02-13T10:37:33.000Z</time>
      </trkpt>
      <trkpt lat="47.29141" lon="-2.35462">
        <ele>11.60000038147</ele>
        <time>2022-02-13T10:37:36.000Z</time>
      </trkpt>
      <trkpt lat="47.2912" lon="-2.35474">
        <ele>11.60000038147</ele>
        <time>2022-02-13T10:37:43.000Z</time>
      </trkpt>
      <trkpt lat="47.29119" lon="-2.35489">
        <ele>11.60000038147</ele>
        <time>2022-02-13T10:37:46.000Z</time>
      </trkpt>
      <trkpt lat="47.29122" lon="-2.35498">
        <ele>11.60000038147</ele>
        <time>2022-02-13T10:37:48.000Z</time>
      </trkpt>
      <trkpt lat="47.29122" lon="-2.35507">
        <ele>11.60000038147</ele>
        <time>2022-02-13T10:37:50.000Z</time>
      </trkpt>
      <trkpt lat="47.29115" lon="-2.35522">
        <ele>11.60000038147</ele>
        <time>2022-02-13T10:37:54.000Z</time>
      </trkpt>
      <trkpt lat="47.29113" lon="-2.3553">
        <ele>11.60000038147</ele>
        <time>2022-02-13T10:37:56.000Z</time>
      </trkpt>
      <trkpt lat="47.29113" lon="-2.35541">
        <ele>11.60000038147</ele>
        <time>2022-02-13T10:37:58.000Z</time>
      </trkpt>
      <trkpt lat="47.29114" lon="-2.35575">
        <ele>11.60000038147</ele>
        <time>2022-02-13T10:38:04.000Z</time>
      </trkpt>
      <trkpt lat="47.29118" lon="-2.35604">
        <ele>11.60000038147</ele>
        <time>2022-02-13T10:38:09.000Z</time>
      </trkpt>
      <trkpt lat="47.29114" lon="-2.35618">
        <ele>11.60000038147</ele>
        <time>2022-02-13T10:38:12.000Z</time>
      </trkpt>
      <trkpt lat="47.29099" lon="-2.35635">
        <ele>11.60000038147</ele>
        <time>2022-02-13T10:38:17.000Z</time>
      </trkpt>
      <trkpt lat="47.29081" lon="-2.35649">
        <ele>11.60000038147</ele>
        <time>2022-02-13T10:38:22.000Z</time>
      </trkpt>
      <trkpt lat="47.29077" lon="-2.35652">
        <ele>11.60000038147</ele>
        <time>2022-02-13T10:38:23.000Z</time>
      </trkpt>
      <trkpt lat="47.29062" lon="-2.35667">
        <ele>11.60000038147</ele>
        <time>2022-02-13T10:38:27.000Z</time>
      </trkpt>
      <trkpt lat="47.29034" lon="-2.35693">
        <ele>11.60000038147</ele>
        <time>2022-02-13T10:38:34.000Z</time>
      </trkpt>
      <trkpt lat="47.29017" lon="-2.35703">
        <ele>11.60000038147</ele>
        <time>2022-02-13T10:38:38.000Z</time>
      </trkpt>
      <trkpt lat="47.29008" lon="-2.35703">
        <ele>11.60000038147</ele>
        <time>2022-02-13T10:38:40.000Z</time>
      </trkpt>
      <trkpt lat="47.28985" lon="-2.35693">
        <ele>11.60000038147</ele>
        <time>2022-02-13T10:38:45.000Z</time>
      </trkpt>
      <trkpt lat="47.28973" lon="-2.35671">
        <ele>11.60000038147</ele>
        <time>2022-02-13T10:38:49.000Z</time>
      </trkpt>
      <trkpt lat="47.2897" lon="-2.35665">
        <ele>11.60000038147</ele>
        <time>2022-02-13T10:38:50.000Z</time>
      </trkpt>
      <trkpt lat="47.28955" lon="-2.35627">
        <ele>11.60000038147</ele>
        <time>2022-02-13T10:38:56.000Z</time>
      </trkpt>
      <trkpt lat="47.28937" lon="-2.35583">
        <ele>11.60000038147</ele>
        <time>2022-02-13T10:39:03.000Z</time>
      </trkpt>
      <trkpt lat="47.28936" lon="-2.35577">
        <ele>11.60000038147</ele>
        <time>2022-02-13T10:39:04.000Z</time>
      </trkpt>
      <trkpt lat="47.28933" lon="-2.35571">
        <ele>11.60000038147</ele>
        <time>2022-02-13T10:39:05.000Z</time>
      </trkpt>
      <trkpt lat="47.28927" lon="-2.35557">
        <ele>11.199999809265</ele>
        <time>2022-02-13T10:39:08.000Z</time>
      </trkpt>
      <trkpt lat="47.28924" lon="-2.35556">
        <ele>10.800000190735</ele>
        <time>2022-02-13T10:39:09.000Z</time>
      </trkpt>
      <trkpt lat="47.2892" lon="-2.35557">
        <ele>10.39999961853</ele>
        <time>2022-02-13T10:39:10.000Z</time>
      </trkpt>
      <trkpt lat="47.28917" lon="-2.3556">
        <ele>10</ele>
        <time>2022-02-13T10:39:11.000Z</time>
      </trkpt>
      <trkpt lat="47.28913" lon="-2.35564">
        <ele>9.6000003814697</ele>
        <time>2022-02-13T10:39:12.000Z</time>
      </trkpt>
      <trkpt lat="47.28907" lon="-2.35574">
        <ele>9.6000003814697</ele>
        <time>2022-02-13T10:39:14.000Z</time>
      </trkpt>
      <trkpt lat="47.28893" lon="-2.35593">
        <ele>9.6000003814697</ele>
        <time>2022-02-13T10:39:18.000Z</time>
      </trkpt>
      <trkpt lat="47.28859" lon="-2.3563">
        <ele>9.6000003814697</ele>
        <time>2022-02-13T10:39:27.000Z</time>
      </trkpt>
      <trkpt lat="47.28849" lon="-2.35644">
        <ele>9.6000003814697</ele>
        <time>2022-02-13T10:39:30.000Z</time>
      </trkpt>
      <trkpt lat="47.2883" lon="-2.35664">
        <ele>9.6000003814697</ele>
        <time>2022-02-13T10:39:35.000Z</time>
      </trkpt>
      <trkpt lat="47.28808" lon="-2.357">
        <ele>9.6000003814697</ele>
        <time>2022-02-13T10:39:42.000Z</time>
      </trkpt>
      <trkpt lat="47.28784" lon="-2.35744">
        <ele>9.6000003814697</ele>
        <time>2022-02-13T10:39:50.000Z</time>
      </trkpt>
      <trkpt lat="47.28763" lon="-2.35786">
        <ele>9.6000003814697</ele>
        <time>2022-02-13T10:39:57.000Z</time>
      </trkpt>
      <trkpt lat="47.28742" lon="-2.35827">
        <ele>9.6000003814697</ele>
        <time>2022-02-13T10:40:04.000Z</time>
      </trkpt>
      <trkpt lat="47.28736" lon="-2.35838">
        <ele>9.6000003814697</ele>
        <time>2022-02-13T10:40:06.000Z</time>
      </trkpt>
      <trkpt lat="47.28723" lon="-2.35863">
        <ele>9.6000003814697</ele>
        <time>2022-02-13T10:40:10.000Z</time>
      </trkpt>
      <trkpt lat="47.28694" lon="-2.35905">
        <ele>9.6000003814697</ele>
        <time>2022-02-13T10:40:17.000Z</time>
      </trkpt>
      <trkpt lat="47.2867" lon="-2.35936">
        <ele>9.6000003814697</ele>
        <time>2022-02-13T10:40:23.000Z</time>
      </trkpt>
      <trkpt lat="47.28667" lon="-2.3594">
        <ele>9.6000003814697</ele>
        <time>2022-02-13T10:40:24.000Z</time>
      </trkpt>
      <trkpt lat="47.28664" lon="-2.35955">
        <ele>9.6000003814697</ele>
        <time>2022-02-13T10:40:27.000Z</time>
      </trkpt>
      <trkpt lat="47.28653" lon="-2.35963">
        <ele>9.6000003814697</ele>
        <time>2022-02-13T10:40:31.000Z</time>
      </trkpt>
      <trkpt lat="47.28635" lon="-2.35961">
        <ele>9.6000003814697</ele>
        <time>2022-02-13T10:40:35.000Z</time>
      </trkpt>
      <trkpt lat="47.28631" lon="-2.3596">
        <ele>9.6000003814697</ele>
        <time>2022-02-13T10:40:36.000Z</time>
      </trkpt>
      <trkpt lat="47.28626" lon="-2.35958">
        <ele>10</ele>
        <time>2022-02-13T10:40:37.000Z</time>
      </trkpt>
      <trkpt lat="47.28622" lon="-2.35956">
        <ele>10.39999961853</ele>
        <time>2022-02-13T10:40:38.000Z</time>
      </trkpt>
      <trkpt lat="47.28617" lon="-2.35953">
        <ele>10.800000190735</ele>
        <time>2022-02-13T10:40:39.000Z</time>
      </trkpt>
      <trkpt lat="47.28613" lon="-2.35949">
        <ele>11.39999961853</ele>
        <time>2022-02-13T10:40:40.000Z</time>
      </trkpt>
      <trkpt lat="47.28609" lon="-2.35946">
        <ele>11.800000190735</ele>
        <time>2022-02-13T10:40:41.000Z</time>
      </trkpt>
      <trkpt lat="47.28598" lon="-2.3594">
        <ele>11.800000190735</ele>
        <time>2022-02-13T10:40:44.000Z</time>
      </trkpt>
      <trkpt lat="47.28591" lon="-2.35937">
        <ele>11.800000190735</ele>
        <time>2022-02-13T10:40:46.000Z</time>
      </trkpt>
      <trkpt lat="47.28579" lon="-2.3592">
        <ele>11.800000190735</ele>
        <time>2022-02-13T10:40:51.000Z</time>
      </trkpt>
      <trkpt lat="47.28577" lon="-2.35916">
        <ele>11.800000190735</ele>
        <time>2022-02-13T10:40:54.000Z</time>
      </trkpt>
      <trkpt lat="47.28579" lon="-2.3591">
        <ele>11.800000190735</ele>
        <time>2022-02-13T10:40:59.000Z</time>
      </trkpt>
      <trkpt lat="47.28571" lon="-2.35899">
        <ele>11.800000190735</ele>
        <time>2022-02-13T10:41:03.000Z</time>
      </trkpt>
      <trkpt lat="47.28558" lon="-2.359">
        <ele>11.800000190735</ele>
        <time>2022-02-13T10:41:07.000Z</time>
      </trkpt>
      <trkpt lat="47.28556" lon="-2.35901">
        <ele>11.800000190735</ele>
        <time>2022-02-13T10:41:08.000Z</time>
      </trkpt>
      <trkpt lat="47.28554" lon="-2.35903">
        <ele>12.199999809265</ele>
        <time>2022-02-13T10:41:09.000Z</time>
      </trkpt>
      <trkpt lat="47.28553" lon="-2.35904">
        <ele>12.60000038147</ele>
        <time>2022-02-13T10:41:10.000Z</time>
      </trkpt>
      <trkpt lat="47.28552" lon="-2.35907">
        <ele>13</ele>
        <time>2022-02-13T10:41:11.000Z</time>
      </trkpt>
      <trkpt lat="47.2855" lon="-2.35909">
        <ele>14</ele>
        <time>2022-02-13T10:41:12.000Z</time>
      </trkpt>
      <trkpt lat="47.28549" lon="-2.35911">
        <ele>14</ele>
        <time>2022-02-13T10:41:13.000Z</time>
      </trkpt>
      <trkpt lat="47.28547" lon="-2.35916">
        <ele>14.39999961853</ele>
        <time>2022-02-13T10:41:15.000Z</time>
      </trkpt>
      <trkpt lat="47.28545" lon="-2.35919">
        <ele>14.800000190735</ele>
        <time>2022-02-13T10:41:16.000Z</time>
      </trkpt>
      <trkpt lat="47.28544" lon="-2.35921">
        <ele>15.39999961853</ele>
        <time>2022-02-13T10:41:17.000Z</time>
      </trkpt>
      <trkpt lat="47.28544" lon="-2.35922">
        <ele>15.800000190735</ele>
        <time>2022-02-13T10:41:18.000Z</time>
      </trkpt>
      <trkpt lat="47.28543" lon="-2.35924">
        <ele>16.200000762939</ele>
        <time>2022-02-13T10:41:19.000Z</time>
      </trkpt>
      <trkpt lat="47.28541" lon="-2.35934">
        <ele>16.60000038147</ele>
        <time>2022-02-13T10:41:23.000Z</time>
      </trkpt>
      <trkpt lat="47.28539" lon="-2.35935">
        <ele>17</ele>
        <time>2022-02-13T10:41:24.000Z</time>
      </trkpt>
      <trkpt lat="47.28538" lon="-2.35935">
        <ele>17.60000038147</ele>
        <time>2022-02-13T10:41:25.000Z</time>
      </trkpt>
      <trkpt lat="47.28536" lon="-2.35934">
        <ele>18</ele>
        <time>2022-02-13T10:41:26.000Z</time>
      </trkpt>
      <trkpt lat="47.28534" lon="-2.35934">
        <ele>18.39999961853</ele>
        <time>2022-02-13T10:41:27.000Z</time>
      </trkpt>
      <trkpt lat="47.28534" lon="-2.35933">
        <ele>18.39999961853</ele>
        <time>2022-02-13T10:41:28.000Z</time>
      </trkpt>
      <trkpt lat="47.28529" lon="-2.35935">
        <ele>18.39999961853</ele>
        <time>2022-02-13T10:48:05.000Z</time>
      </trkpt>
      <trkpt lat="47.28528" lon="-2.35934">
        <ele>18.39999961853</ele>
        <time>2022-02-13T10:48:06.000Z</time>
      </trkpt>
      <trkpt lat="47.28516" lon="-2.35934">
        <ele>18.39999961853</ele>
        <time>2022-02-13T10:48:10.000Z</time>
      </trkpt>
      <trkpt lat="47.28514" lon="-2.35934">
        <ele>18.39999961853</ele>
        <time>2022-02-13T10:48:11.000Z</time>
      </trkpt>
      <trkpt lat="47.28506" lon="-2.35935">
        <ele>18.39999961853</ele>
        <time>2022-02-13T10:48:15.000Z</time>
      </trkpt>
      <trkpt lat="47.28492" lon="-2.35944">
        <ele>18.39999961853</ele>
        <time>2022-02-13T10:48:21.000Z</time>
      </trkpt>
      <trkpt lat="47.28482" lon="-2.35953">
        <ele>18.39999961853</ele>
        <time>2022-02-13T10:48:24.000Z</time>
      </trkpt>
      <trkpt lat="47.28477" lon="-2.35961">
        <ele>18.39999961853</ele>
        <time>2022-02-13T10:48:26.000Z</time>
      </trkpt>
      <trkpt lat="47.28461" lon="-2.35975">
        <ele>18.39999961853</ele>
        <time>2022-02-13T10:48:32.000Z</time>
      </trkpt>
      <trkpt lat="47.28445" lon="-2.35987">
        <ele>18.39999961853</ele>
        <time>2022-02-13T10:48:37.000Z</time>
      </trkpt>
      <trkpt lat="47.28426" lon="-2.36004">
        <ele>18.39999961853</ele>
        <time>2022-02-13T10:48:44.000Z</time>
      </trkpt>
      <trkpt lat="47.28402" lon="-2.36022">
        <ele>18.39999961853</ele>
        <time>2022-02-13T10:48:50.000Z</time>
      </trkpt>
      <trkpt lat="47.28392" lon="-2.36024">
        <ele>18.39999961853</ele>
        <time>2022-02-13T10:48:52.000Z</time>
      </trkpt>
      <trkpt lat="47.28378" lon="-2.36024">
        <ele>18</ele>
        <time>2022-02-13T10:48:54.000Z</time>
      </trkpt>
      <trkpt lat="47.2837" lon="-2.36024">
        <ele>17.39999961853</ele>
        <time>2022-02-13T10:48:55.000Z</time>
      </trkpt>
      <trkpt lat="47.28363" lon="-2.36025">
        <ele>17</ele>
        <time>2022-02-13T10:48:56.000Z</time>
      </trkpt>
      <trkpt lat="47.28355" lon="-2.36028">
        <ele>16.39999961853</ele>
        <time>2022-02-13T10:48:57.000Z</time>
      </trkpt>
      <trkpt lat="47.28348" lon="-2.36033">
        <ele>15.800000190735</ele>
        <time>2022-02-13T10:48:58.000Z</time>
      </trkpt>
      <trkpt lat="47.2834" lon="-2.36039">
        <ele>15.199999809265</ele>
        <time>2022-02-13T10:48:59.000Z</time>
      </trkpt>
      <trkpt lat="47.28334" lon="-2.36046">
        <ele>14.39999961853</ele>
        <time>2022-02-13T10:49:00.000Z</time>
      </trkpt>
      <trkpt lat="47.28328" lon="-2.36053">
        <ele>13.60000038147</ele>
        <time>2022-02-13T10:49:01.000Z</time>
      </trkpt>
      <trkpt lat="47.28321" lon="-2.36054">
        <ele>12</ele>
        <time>2022-02-13T10:49:02.000Z</time>
      </trkpt>
      <trkpt lat="47.28315" lon="-2.36053">
        <ele>11.199999809265</ele>
        <time>2022-02-13T10:49:03.000Z</time>
      </trkpt>
      <trkpt lat="47.28304" lon="-2.3605">
        <ele>11.199999809265</ele>
        <time>2022-02-13T10:49:05.000Z</time>
      </trkpt>
      <trkpt lat="47.28294" lon="-2.36046">
        <ele>10.800000190735</ele>
        <time>2022-02-13T10:49:07.000Z</time>
      </trkpt>
      <trkpt lat="47.28289" lon="-2.36042">
        <ele>10.199999809265</ele>
        <time>2022-02-13T10:49:08.000Z</time>
      </trkpt>
      <trkpt lat="47.28286" lon="-2.36036">
        <ele>9.8000001907349</ele>
        <time>2022-02-13T10:49:09.000Z</time>
      </trkpt>
      <trkpt lat="47.28282" lon="-2.36028">
        <ele>8.8000001907349</ele>
        <time>2022-02-13T10:49:10.000Z</time>
      </trkpt>
      <trkpt lat="47.28278" lon="-2.3602">
        <ele>8</ele>
        <time>2022-02-13T10:49:11.000Z</time>
      </trkpt>
      <trkpt lat="47.28276" lon="-2.36012">
        <ele>7</ele>
        <time>2022-02-13T10:49:12.000Z</time>
      </trkpt>
      <trkpt lat="47.28274" lon="-2.36004">
        <ele>6</ele>
        <time>2022-02-13T10:49:13.000Z</time>
      </trkpt>
      <trkpt lat="47.28275" lon="-2.35997">
        <ele>4.8000001907349</ele>
        <time>2022-02-13T10:49:14.000Z</time>
      </trkpt>
      <trkpt lat="47.28276" lon="-2.35991">
        <ele>4</ele>
        <time>2022-02-13T10:49:15.000Z</time>
      </trkpt>
      <trkpt lat="47.28276" lon="-2.35985">
        <ele>3.2000000476837</ele>
        <time>2022-02-13T10:49:16.000Z</time>
      </trkpt>
      <trkpt lat="47.28277" lon="-2.35978">
        <ele>2.2000000476837</ele>
        <time>2022-02-13T10:49:17.000Z</time>
      </trkpt>
      <trkpt lat="47.28275" lon="-2.35973">
        <ele>1.3999999761581</ele>
        <time>2022-02-13T10:49:18.000Z</time>
      </trkpt>
      <trkpt lat="47.28274" lon="-2.35969">
        <ele>0.60000002384186</ele>
        <time>2022-02-13T10:49:19.000Z</time>
      </trkpt>
      <trkpt lat="47.28263" lon="-2.35941">
        <ele>1</ele>
        <time>2022-02-13T10:49:25.000Z</time>
      </trkpt>
      <trkpt lat="47.28262" lon="-2.35937">
        <ele>2</ele>
        <time>2022-02-13T10:49:26.000Z</time>
      </trkpt>
      <trkpt lat="47.28261" lon="-2.35934">
        <ele>2.5999999046326</ele>
        <time>2022-02-13T10:49:27.000Z</time>
      </trkpt>
      <trkpt lat="47.28259" lon="-2.35931">
        <ele>3</ele>
        <time>2022-02-13T10:49:28.000Z</time>
      </trkpt>
      <trkpt lat="47.28254" lon="-2.35917">
        <ele>3</ele>
        <time>2022-02-13T10:49:32.000Z</time>
      </trkpt>
      <trkpt lat="47.28251" lon="-2.35918">
        <ele>3</ele>
        <time>2022-02-13T10:49:33.000Z</time>
      </trkpt>
      <trkpt lat="47.28245" lon="-2.35916">
        <ele>3</ele>
        <time>2022-02-13T10:49:35.000Z</time>
      </trkpt>
      <trkpt lat="47.2823" lon="-2.35909">
        <ele>3</ele>
        <time>2022-02-13T10:49:41.000Z</time>
      </trkpt>
      <trkpt lat="47.28224" lon="-2.35906">
        <ele>3</ele>
        <time>2022-02-13T10:49:44.000Z</time>
      </trkpt>
      <trkpt lat="47.28221" lon="-2.35906">
        <ele>3</ele>
        <time>2022-02-13T10:49:52.000Z</time>
      </trkpt>
      <trkpt lat="47.28216" lon="-2.35904">
        <ele>3</ele>
        <time>2022-02-13T10:49:53.000Z</time>
      </trkpt>
      <trkpt lat="47.28211" lon="-2.35909">
        <ele>3</ele>
        <time>2022-02-13T10:49:55.000Z</time>
      </trkpt>
      <trkpt lat="47.28209" lon="-2.35918">
        <ele>3</ele>
        <time>2022-02-13T10:49:57.000Z</time>
      </trkpt>
      <trkpt lat="47.28203" lon="-2.35933">
        <ele>2.5999999046326</ele>
        <time>2022-02-13T10:50:00.000Z</time>
      </trkpt>
      <trkpt lat="47.282" lon="-2.35937">
        <ele>2.2000000476837</ele>
        <time>2022-02-13T10:50:01.000Z</time>
      </trkpt>
      <trkpt lat="47.28196" lon="-2.35941">
        <ele>1.6000000238419</ele>
        <time>2022-02-13T10:50:02.000Z</time>
      </trkpt>
      <trkpt lat="47.28192" lon="-2.35944">
        <ele>1.2000000476837</ele>
        <time>2022-02-13T10:50:03.000Z</time>
      </trkpt>
      <trkpt lat="47.28187" lon="-2.35947">
        <ele>0.80000001192093</ele>
        <time>2022-02-13T10:50:04.000Z</time>
      </trkpt>
      <trkpt lat="47.28177" lon="-2.35945">
        <ele>0.80000001192093</ele>
        <time>2022-02-13T10:50:06.000Z</time>
      </trkpt>
      <trkpt lat="47.28162" lon="-2.35928">
        <ele>0.80000001192093</ele>
        <time>2022-02-13T10:50:10.000Z</time>
      </trkpt>
      <trkpt lat="47.28159" lon="-2.35925">
        <ele>0.80000001192093</ele>
        <time>2022-02-13T10:50:11.000Z</time>
      </trkpt>
      <trkpt lat="47.28154" lon="-2.35918">
        <ele>0.80000001192093</ele>
        <time>2022-02-13T10:50:14.000Z</time>
      </trkpt>
      <trkpt lat="47.28153" lon="-2.35913">
        <ele>0.80000001192093</ele>
        <time>2022-02-13T10:50:16.000Z</time>
      </trkpt>
      <trkpt lat="47.28152" lon="-2.35905">
        <ele>0.80000001192093</ele>
        <time>2022-02-13T10:50:19.000Z</time>
      </trkpt>
      <trkpt lat="47.2815" lon="-2.35886">
        <ele>0.80000001192093</ele>
        <time>2022-02-13T10:50:24.000Z</time>
      </trkpt>
      <trkpt lat="47.28135" lon="-2.35876">
        <ele>0.80000001192093</ele>
        <time>2022-02-13T10:50:29.000Z</time>
      </trkpt>
      <trkpt lat="47.28126" lon="-2.3586">
        <ele>0.80000001192093</ele>
        <time>2022-02-13T10:50:34.000Z</time>
      </trkpt>
      <trkpt lat="47.28127" lon="-2.35855">
        <ele>0.80000001192093</ele>
        <time>2022-02-13T10:50:35.000Z</time>
      </trkpt>
      <trkpt lat="47.28127" lon="-2.35836">
        <ele>0.80000001192093</ele>
        <time>2022-02-13T10:50:39.000Z</time>
      </trkpt>
      <trkpt lat="47.28127" lon="-2.35832">
        <ele>0.80000001192093</ele>
        <time>2022-02-13T10:50:40.000Z</time>
      </trkpt>
      <trkpt lat="47.28125" lon="-2.35814">
        <ele>0.80000001192093</ele>
        <time>2022-02-13T10:50:44.000Z</time>
      </trkpt>
      <trkpt lat="47.2812" lon="-2.35807">
        <ele>0.80000001192093</ele>
        <time>2022-02-13T10:50:48.000Z</time>
      </trkpt>
      <trkpt lat="47.28114" lon="-2.35804">
        <ele>0.80000001192093</ele>
        <time>2022-02-13T10:50:50.000Z</time>
      </trkpt>
      <trkpt lat="47.28098" lon="-2.35803">
        <ele>0.80000001192093</ele>
        <time>2022-02-13T10:50:58.000Z</time>
      </trkpt>
      <trkpt lat="47.28086" lon="-2.35806">
        <ele>0.80000001192093</ele>
        <time>2022-02-13T10:51:04.000Z</time>
      </trkpt>
      <trkpt lat="47.28083" lon="-2.35804">
        <ele>0.80000001192093</ele>
        <time>2022-02-13T10:51:05.000Z</time>
      </trkpt>
      <trkpt lat="47.28078" lon="-2.35795">
        <ele>0.80000001192093</ele>
        <time>2022-02-13T10:51:07.000Z</time>
      </trkpt>
      <trkpt lat="47.28079" lon="-2.35788">
        <ele>0.80000001192093</ele>
        <time>2022-02-13T10:51:09.000Z</time>
      </trkpt>
      <trkpt lat="47.28081" lon="-2.35781">
        <ele>0.80000001192093</ele>
        <time>2022-02-13T10:51:11.000Z</time>
      </trkpt>
      <trkpt lat="47.28084" lon="-2.35768">
        <ele>1.2000000476837</ele>
        <time>2022-02-13T10:51:15.000Z</time>
      </trkpt>
      <trkpt lat="47.28084" lon="-2.35763">
        <ele>1.6000000238419</ele>
        <time>2022-02-13T10:51:16.000Z</time>
      </trkpt>
      <trkpt lat="47.28085" lon="-2.35759">
        <ele>2</ele>
        <time>2022-02-13T10:51:17.000Z</time>
      </trkpt>
      <trkpt lat="47.28086" lon="-2.35755">
        <ele>2.4000000953674</ele>
        <time>2022-02-13T10:51:18.000Z</time>
      </trkpt>
      <trkpt lat="47.28087" lon="-2.3575">
        <ele>3</ele>
        <time>2022-02-13T10:51:19.000Z</time>
      </trkpt>
      <trkpt lat="47.28094" lon="-2.35731">
        <ele>3.4000000953674</ele>
        <time>2022-02-13T10:51:24.000Z</time>
      </trkpt>
      <trkpt lat="47.28095" lon="-2.35728">
        <ele>3.7999999523163</ele>
        <time>2022-02-13T10:51:25.000Z</time>
      </trkpt>
      <trkpt lat="47.28096" lon="-2.35724">
        <ele>4.4000000953674</ele>
        <time>2022-02-13T10:51:26.000Z</time>
      </trkpt>
      <trkpt lat="47.28094" lon="-2.35718">
        <ele>4.8000001907349</ele>
        <time>2022-02-13T10:51:27.000Z</time>
      </trkpt>
      <trkpt lat="47.28093" lon="-2.35712">
        <ele>5.1999998092651</ele>
        <time>2022-02-13T10:51:28.000Z</time>
      </trkpt>
      <trkpt lat="47.28091" lon="-2.35704">
        <ele>5.1999998092651</ele>
        <time>2022-02-13T10:51:29.000Z</time>
      </trkpt>
      <trkpt lat="47.28088" lon="-2.3569">
        <ele>5.1999998092651</ele>
        <time>2022-02-13T10:51:31.000Z</time>
      </trkpt>
      <trkpt lat="47.28084" lon="-2.35674">
        <ele>5.1999998092651</ele>
        <time>2022-02-13T10:51:33.000Z</time>
      </trkpt>
      <trkpt lat="47.28076" lon="-2.35642">
        <ele>4.8000001907349</ele>
        <time>2022-02-13T10:51:37.000Z</time>
      </trkpt>
      <trkpt lat="47.28074" lon="-2.35632">
        <ele>4.1999998092651</ele>
        <time>2022-02-13T10:51:38.000Z</time>
      </trkpt>
      <trkpt lat="47.28073" lon="-2.35622">
        <ele>3.7999999523163</ele>
        <time>2022-02-13T10:51:39.000Z</time>
      </trkpt>
      <trkpt lat="47.28072" lon="-2.35612">
        <ele>3.2000000476837</ele>
        <time>2022-02-13T10:51:40.000Z</time>
      </trkpt>
      <trkpt lat="47.2807" lon="-2.35602">
        <ele>2.4000000953674</ele>
        <time>2022-02-13T10:51:41.000Z</time>
      </trkpt>
      <trkpt lat="47.28068" lon="-2.35594">
        <ele>1.7999999523163</ele>
        <time>2022-02-13T10:51:42.000Z</time>
      </trkpt>
      <trkpt lat="47.28064" lon="-2.35587">
        <ele>1.2000000476837</ele>
        <time>2022-02-13T10:51:43.000Z</time>
      </trkpt>
      <trkpt lat="47.28059" lon="-2.35583">
        <ele>0.60000002384186</ele>
        <time>2022-02-13T10:51:44.000Z</time>
      </trkpt>
      <trkpt lat="47.28048" lon="-2.35578">
        <ele>0.60000002384186</ele>
        <time>2022-02-13T10:51:46.000Z</time>
      </trkpt>
      <trkpt lat="47.28032" lon="-2.35574">
        <ele>0.20000000298023</ele>
        <time>2022-02-13T10:51:49.000Z</time>
      </trkpt>
      <trkpt lat="47.28028" lon="-2.35571">
        <ele>-0.40000000596046</ele>
        <time>2022-02-13T10:51:50.000Z</time>
      </trkpt>
      <trkpt lat="47.28025" lon="-2.35568">
        <ele>-0.80000001192093</ele>
        <time>2022-02-13T10:51:51.000Z</time>
      </trkpt>
      <trkpt lat="47.28022" lon="-2.35566">
        <ele>-1.2000000476837</ele>
        <time>2022-02-13T10:51:52.000Z</time>
      </trkpt>
      <trkpt lat="47.2802" lon="-2.35565">
        <ele>-1.6000000238419</ele>
        <time>2022-02-13T10:51:53.000Z</time>
      </trkpt>
      <trkpt lat="47.28017" lon="-2.35565">
        <ele>-1.6000000238419</ele>
        <time>2022-02-13T10:51:54.000Z</time>
      </trkpt>
      <trkpt lat="47.28001" lon="-2.3557">
        <ele>-1.6000000238419</ele>
        <time>2022-02-13T10:52:00.000Z</time>
      </trkpt>
      <trkpt lat="47.27977" lon="-2.35576">
        <ele>-1.6000000238419</ele>
        <time>2022-02-13T10:52:08.000Z</time>
      </trkpt>
      <trkpt lat="47.27971" lon="-2.35578">
        <ele>-2</ele>
        <time>2022-02-13T10:52:10.000Z</time>
      </trkpt>
      <trkpt lat="47.27968" lon="-2.35579">
        <ele>-2.4000000953674</ele>
        <time>2022-02-13T10:52:11.000Z</time>
      </trkpt>
      <trkpt lat="47.27965" lon="-2.35579">
        <ele>-2.7999999523163</ele>
        <time>2022-02-13T10:52:12.000Z</time>
      </trkpt>
      <trkpt lat="47.27962" lon="-2.35578">
        <ele>-3.2000000476837</ele>
        <time>2022-02-13T10:52:13.000Z</time>
      </trkpt>
      <trkpt lat="47.27958" lon="-2.35577">
        <ele>-3.5999999046326</ele>
        <time>2022-02-13T10:52:14.000Z</time>
      </trkpt>
      <trkpt lat="47.27939" lon="-2.3558">
        <ele>-3.5999999046326</ele>
        <time>2022-02-13T10:52:20.000Z</time>
      </trkpt>
      <trkpt lat="47.2792" lon="-2.35586">
        <ele>-3.5999999046326</ele>
        <time>2022-02-13T10:52:26.000Z</time>
      </trkpt>
      <trkpt lat="47.27896" lon="-2.35592">
        <ele>-3.5999999046326</ele>
        <time>2022-02-13T10:52:33.000Z</time>
      </trkpt>
      <trkpt lat="47.27884" lon="-2.35595">
        <ele>-4</ele>
        <time>2022-02-13T10:52:36.000Z</time>
      </trkpt>
      <trkpt lat="47.2788" lon="-2.35596">
        <ele>-4.4000000953674</ele>
        <time>2022-02-13T10:52:37.000Z</time>
      </trkpt>
      <trkpt lat="47.27875" lon="-2.35598">
        <ele>-4.8000001907349</ele>
        <time>2022-02-13T10:52:38.000Z</time>
      </trkpt>
      <trkpt lat="47.27871" lon="-2.35599">
        <ele>-5.1999998092651</ele>
        <time>2022-02-13T10:52:39.000Z</time>
      </trkpt>
      <trkpt lat="47.27867" lon="-2.35601">
        <ele>-5.5999999046326</ele>
        <time>2022-02-13T10:52:40.000Z</time>
      </trkpt>
      <trkpt lat="47.27862" lon="-2.35602">
        <ele>-5.5999999046326</ele>
        <time>2022-02-13T10:52:41.000Z</time>
      </trkpt>
      <trkpt lat="47.27858" lon="-2.35604">
        <ele>-5.5999999046326</ele>
        <time>2022-02-13T10:52:42.000Z</time>
      </trkpt>
      <trkpt lat="47.27836" lon="-2.35608">
        <ele>-5.5999999046326</ele>
        <time>2022-02-13T10:52:47.000Z</time>
      </trkpt>
      <trkpt lat="47.27832" lon="-2.35609">
        <ele>-5.5999999046326</ele>
        <time>2022-02-13T10:52:48.000Z</time>
      </trkpt>
      <trkpt lat="47.27805" lon="-2.35619">
        <ele>-5.5999999046326</ele>
        <time>2022-02-13T10:52:54.000Z</time>
      </trkpt>
      <trkpt lat="47.27796" lon="-2.35623">
        <ele>-6</ele>
        <time>2022-02-13T10:52:56.000Z</time>
      </trkpt>
      <trkpt lat="47.27791" lon="-2.35626">
        <ele>-6.5999999046326</ele>
        <time>2022-02-13T10:52:57.000Z</time>
      </trkpt>
      <trkpt lat="47.27786" lon="-2.35629">
        <ele>-7</ele>
        <time>2022-02-13T10:52:58.000Z</time>
      </trkpt>
      <trkpt lat="47.27781" lon="-2.35632">
        <ele>-7.4000000953674</ele>
        <time>2022-02-13T10:52:59.000Z</time>
      </trkpt>
      <trkpt lat="47.27776" lon="-2.35636">
        <ele>-7.8000001907349</ele>
        <time>2022-02-13T10:53:00.000Z</time>
      </trkpt>
      <trkpt lat="47.27756" lon="-2.3566">
        <ele>-7.8000001907349</ele>
        <time>2022-02-13T10:53:05.000Z</time>
      </trkpt>
      <trkpt lat="47.27742" lon="-2.35683">
        <ele>-8.6000003814697</ele>
        <time>2022-02-13T10:53:09.000Z</time>
      </trkpt>
      <trkpt lat="47.27738" lon="-2.35689">
        <ele>-9</ele>
        <time>2022-02-13T10:53:10.000Z</time>
      </trkpt>
      <trkpt lat="47.27734" lon="-2.35694">
        <ele>-9.3999996185303</ele>
        <time>2022-02-13T10:53:11.000Z</time>
      </trkpt>
      <trkpt lat="47.2773" lon="-2.357">
        <ele>-10</ele>
        <time>2022-02-13T10:53:12.000Z</time>
      </trkpt>
      <trkpt lat="47.277" lon="-2.35731">
        <ele>-10</ele>
        <time>2022-02-13T10:53:19.000Z</time>
      </trkpt>
      <trkpt lat="47.27696" lon="-2.35735">
        <ele>-10</ele>
        <time>2022-02-13T10:53:20.000Z</time>
      </trkpt>
      <trkpt lat="47.27689" lon="-2.35745">
        <ele>-10.39999961853</ele>
        <time>2022-02-13T10:53:22.000Z</time>
      </trkpt>
      <trkpt lat="47.27684" lon="-2.35748">
        <ele>-10.800000190735</ele>
        <time>2022-02-13T10:53:23.000Z</time>
      </trkpt>
      <trkpt lat="47.27679" lon="-2.35747">
        <ele>-11.39999961853</ele>
        <time>2022-02-13T10:53:24.000Z</time>
      </trkpt>
      <trkpt lat="47.27673" lon="-2.35743">
        <ele>-11.800000190735</ele>
        <time>2022-02-13T10:53:25.000Z</time>
      </trkpt>
      <trkpt lat="47.27669" lon="-2.35737">
        <ele>-12.199999809265</ele>
        <time>2022-02-13T10:53:26.000Z</time>
      </trkpt>
      <trkpt lat="47.27665" lon="-2.35731">
        <ele>-12.199999809265</ele>
        <time>2022-02-13T10:53:27.000Z</time>
      </trkpt>
      <trkpt lat="47.27657" lon="-2.35721">
        <ele>-12.199999809265</ele>
        <time>2022-02-13T10:53:29.000Z</time>
      </trkpt>
      <trkpt lat="47.27651" lon="-2.35718">
        <ele>-12.199999809265</ele>
        <time>2022-02-13T10:53:30.000Z</time>
      </trkpt>
      <trkpt lat="47.27616" lon="-2.3571">
        <ele>-12.199999809265</ele>
        <time>2022-02-13T10:53:36.000Z</time>
      </trkpt>
      <trkpt lat="47.27604" lon="-2.35707">
        <ele>-12.60000038147</ele>
        <time>2022-02-13T10:53:38.000Z</time>
      </trkpt>
      <trkpt lat="47.27599" lon="-2.35706">
        <ele>-13</ele>
        <time>2022-02-13T10:53:39.000Z</time>
      </trkpt>
      <trkpt lat="47.27593" lon="-2.35705">
        <ele>-13.60000038147</ele>
        <time>2022-02-13T10:53:40.000Z</time>
      </trkpt>
      <trkpt lat="47.27588" lon="-2.35704">
        <ele>-14</ele>
        <time>2022-02-13T10:53:41.000Z</time>
      </trkpt>
      <trkpt lat="47.27582" lon="-2.35703">
        <ele>-14.39999961853</ele>
        <time>2022-02-13T10:53:42.000Z</time>
      </trkpt>
      <trkpt lat="47.2757" lon="-2.35702">
        <ele>-14.39999961853</ele>
        <time>2022-02-13T10:53:44.000Z</time>
      </trkpt>
      <trkpt lat="47.27541" lon="-2.35695">
        <ele>-14.39999961853</ele>
        <time>2022-02-13T10:53:49.000Z</time>
      </trkpt>
      <trkpt lat="47.27507" lon="-2.35686">
        <ele>-14.39999961853</ele>
        <time>2022-02-13T10:53:55.000Z</time>
      </trkpt>
      <trkpt lat="47.2749" lon="-2.35683">
        <ele>-15.199999809265</ele>
        <time>2022-02-13T10:53:58.000Z</time>
      </trkpt>
      <trkpt lat="47.27485" lon="-2.35682">
        <ele>-15.60000038147</ele>
        <time>2022-02-13T10:53:59.000Z</time>
      </trkpt>
      <trkpt lat="47.2748" lon="-2.35681">
        <ele>-16</ele>
        <time>2022-02-13T10:54:00.000Z</time>
      </trkpt>
      <trkpt lat="47.27475" lon="-2.3568">
        <ele>-16.39999961853</ele>
        <time>2022-02-13T10:54:01.000Z</time>
      </trkpt>
      <trkpt lat="47.27436" lon="-2.35671">
        <ele>-16.39999961853</ele>
        <time>2022-02-13T10:54:09.000Z</time>
      </trkpt>
      <trkpt lat="47.27416" lon="-2.35668">
        <ele>-16.39999961853</ele>
        <time>2022-02-13T10:54:13.000Z</time>
      </trkpt>
      <trkpt lat="47.27411" lon="-2.35668">
        <ele>-16.39999961853</ele>
        <time>2022-02-13T10:54:14.000Z</time>
      </trkpt>
      <trkpt lat="47.27406" lon="-2.35669">
        <ele>-16.39999961853</ele>
        <time>2022-02-13T10:54:15.000Z</time>
      </trkpt>
      <trkpt lat="47.27392" lon="-2.35678">
        <ele>-16.39999961853</ele>
        <time>2022-02-13T10:54:18.000Z</time>
      </trkpt>
      <trkpt lat="47.27376" lon="-2.3569">
        <ele>-16.39999961853</ele>
        <time>2022-02-13T10:54:22.000Z</time>
      </trkpt>
      <trkpt lat="47.27371" lon="-2.35693">
        <ele>-16.39999961853</ele>
        <time>2022-02-13T10:54:23.000Z</time>
      </trkpt>
      <trkpt lat="47.27345" lon="-2.35712">
        <ele>-16.39999961853</ele>
        <time>2022-02-13T10:54:30.000Z</time>
      </trkpt>
      <trkpt lat="47.27327" lon="-2.35731">
        <ele>-16.799999237061</ele>
        <time>2022-02-13T10:54:36.000Z</time>
      </trkpt>
      <trkpt lat="47.27325" lon="-2.35734">
        <ele>-17.200000762939</ele>
        <time>2022-02-13T10:54:37.000Z</time>
      </trkpt>
      <trkpt lat="47.27324" lon="-2.35739">
        <ele>-17.60000038147</ele>
        <time>2022-02-13T10:54:38.000Z</time>
      </trkpt>
      <trkpt lat="47.27322" lon="-2.35743">
        <ele>-18.200000762939</ele>
        <time>2022-02-13T10:54:39.000Z</time>
      </trkpt>
      <trkpt lat="47.27319" lon="-2.35746">
        <ele>-18.60000038147</ele>
        <time>2022-02-13T10:54:40.000Z</time>
      </trkpt>
      <trkpt lat="47.2731" lon="-2.35744">
        <ele>-18.60000038147</ele>
        <time>2022-02-13T10:54:43.000Z</time>
      </trkpt>
      <trkpt lat="47.27306" lon="-2.35735">
        <ele>-18.60000038147</ele>
        <time>2022-02-13T10:54:47.000Z</time>
      </trkpt>
      <trkpt lat="47.27305" lon="-2.3573">
        <ele>-18.60000038147</ele>
        <time>2022-02-13T10:54:49.000Z</time>
      </trkpt>
      <trkpt lat="47.27302" lon="-2.35725">
        <ele>-18.60000038147</ele>
        <time>2022-02-13T10:54:51.000Z</time>
      </trkpt>
      <trkpt lat="47.27291" lon="-2.35701">
        <ele>-18.60000038147</ele>
        <time>2022-02-13T10:54:57.000Z</time>
      </trkpt>
      <trkpt lat="47.27273" lon="-2.35661">
        <ele>-18.60000038147</ele>
        <time>2022-02-13T10:55:06.000Z</time>
      </trkpt>
      <trkpt lat="47.27259" lon="-2.35629">
        <ele>-18.60000038147</ele>
        <time>2022-02-13T10:55:13.000Z</time>
      </trkpt>
      <trkpt lat="47.27253" lon="-2.35616">
        <ele>-18.200000762939</ele>
        <time>2022-02-13T10:55:16.000Z</time>
      </trkpt>
      <trkpt lat="47.27251" lon="-2.35612">
        <ele>-17.799999237061</ele>
        <time>2022-02-13T10:55:17.000Z</time>
      </trkpt>
      <trkpt lat="47.27249" lon="-2.35607">
        <ele>-17.200000762939</ele>
        <time>2022-02-13T10:55:18.000Z</time>
      </trkpt>
      <trkpt lat="47.27247" lon="-2.35603">
        <ele>-16.799999237061</ele>
        <time>2022-02-13T10:55:19.000Z</time>
      </trkpt>
      <trkpt lat="47.27244" lon="-2.35599">
        <ele>-16.39999961853</ele>
        <time>2022-02-13T10:55:20.000Z</time>
      </trkpt>
      <trkpt lat="47.27235" lon="-2.35581">
        <ele>-16.39999961853</ele>
        <time>2022-02-13T10:55:24.000Z</time>
      </trkpt>
      <trkpt lat="47.27229" lon="-2.35563">
        <ele>-16.39999961853</ele>
        <time>2022-02-13T10:55:28.000Z</time>
      </trkpt>
      <trkpt lat="47.27218" lon="-2.35539">
        <ele>-16.39999961853</ele>
        <time>2022-02-13T10:55:33.000Z</time>
      </trkpt>
      <trkpt lat="47.27216" lon="-2.35534">
        <ele>-16.39999961853</ele>
        <time>2022-02-13T10:55:34.000Z</time>
      </trkpt>
      <trkpt lat="47.27194" lon="-2.35489">
        <ele>-16.39999961853</ele>
        <time>2022-02-13T10:55:43.000Z</time>
      </trkpt>
      <trkpt lat="47.27172" lon="-2.35447">
        <ele>-16.39999961853</ele>
        <time>2022-02-13T10:55:51.000Z</time>
      </trkpt>
      <trkpt lat="47.27147" lon="-2.35398">
        <ele>-16.39999961853</ele>
        <time>2022-02-13T10:56:00.000Z</time>
      </trkpt>
      <trkpt lat="47.27135" lon="-2.35377">
        <ele>-16.39999961853</ele>
        <time>2022-02-13T10:56:04.000Z</time>
      </trkpt>
      <trkpt lat="47.27126" lon="-2.35362">
        <ele>-16.39999961853</ele>
        <time>2022-02-13T10:56:07.000Z</time>
      </trkpt>
      <trkpt lat="47.27104" lon="-2.35326">
        <ele>-16.39999961853</ele>
        <time>2022-02-13T10:56:14.000Z</time>
      </trkpt>
      <trkpt lat="47.27095" lon="-2.35311">
        <ele>-16.39999961853</ele>
        <time>2022-02-13T10:56:17.000Z</time>
      </trkpt>
      <trkpt lat="47.27083" lon="-2.35291">
        <ele>-16.39999961853</ele>
        <time>2022-02-13T10:56:21.000Z</time>
      </trkpt>
      <trkpt lat="47.27062" lon="-2.3526">
        <ele>-16.39999961853</ele>
        <time>2022-02-13T10:56:28.000Z</time>
      </trkpt>
      <trkpt lat="47.27041" lon="-2.35226">
        <ele>-16.39999961853</ele>
        <time>2022-02-13T10:56:35.000Z</time>
      </trkpt>
      <trkpt lat="47.27012" lon="-2.35182">
        <ele>-16.39999961853</ele>
        <time>2022-02-13T10:56:44.000Z</time>
      </trkpt>
      <trkpt lat="47.26989" lon="-2.35146">
        <ele>-16.39999961853</ele>
        <time>2022-02-13T10:56:52.000Z</time>
      </trkpt>
      <trkpt lat="47.26959" lon="-2.351">
        <ele>-16.39999961853</ele>
        <time>2022-02-13T10:57:02.000Z</time>
      </trkpt>
      <trkpt lat="47.26937" lon="-2.35067">
        <ele>-16.39999961853</ele>
        <time>2022-02-13T10:57:09.000Z</time>
      </trkpt>
      <trkpt lat="47.2692" lon="-2.3504">
        <ele>-16.39999961853</ele>
        <time>2022-02-13T10:57:15.000Z</time>
      </trkpt>
      <trkpt lat="47.269" lon="-2.3501">
        <ele>-16.39999961853</ele>
        <time>2022-02-13T10:57:21.000Z</time>
      </trkpt>
      <trkpt lat="47.2688" lon="-2.34982">
        <ele>-16.39999961853</ele>
        <time>2022-02-13T10:57:27.000Z</time>
      </trkpt>
      <trkpt lat="47.26856" lon="-2.34943">
        <ele>-16.39999961853</ele>
        <time>2022-02-13T10:57:35.000Z</time>
      </trkpt>
      <trkpt lat="47.26831" lon="-2.34904">
        <ele>-16.39999961853</ele>
        <time>2022-02-13T10:57:43.000Z</time>
      </trkpt>
      <trkpt lat="47.26808" lon="-2.34872">
        <ele>-16.39999961853</ele>
        <time>2022-02-13T10:57:50.000Z</time>
      </trkpt>
      <trkpt lat="47.26781" lon="-2.34833">
        <ele>-16.39999961853</ele>
        <time>2022-02-13T10:57:58.000Z</time>
      </trkpt>
      <trkpt lat="47.26761" lon="-2.34806">
        <ele>-16.39999961853</ele>
        <time>2022-02-13T10:58:04.000Z</time>
      </trkpt>
      <trkpt lat="47.26758" lon="-2.34801">
        <ele>-16.39999961853</ele>
        <time>2022-02-13T10:58:05.000Z</time>
      </trkpt>
      <trkpt lat="47.26732" lon="-2.34769">
        <ele>-16.39999961853</ele>
        <time>2022-02-13T10:58:12.000Z</time>
      </trkpt>
      <trkpt lat="47.26711" lon="-2.34743">
        <ele>-16.39999961853</ele>
        <time>2022-02-13T10:58:18.000Z</time>
      </trkpt>
      <trkpt lat="47.26692" lon="-2.34721">
        <ele>-16.39999961853</ele>
        <time>2022-02-13T10:58:24.000Z</time>
      </trkpt>
      <trkpt lat="47.26676" lon="-2.34701">
        <ele>-16.39999961853</ele>
        <time>2022-02-13T10:58:30.000Z</time>
      </trkpt>
      <trkpt lat="47.26659" lon="-2.34681">
        <ele>-16.39999961853</ele>
        <time>2022-02-13T10:58:36.000Z</time>
      </trkpt>
      <trkpt lat="47.26636" lon="-2.34652">
        <ele>-16.39999961853</ele>
        <time>2022-02-13T10:58:43.000Z</time>
      </trkpt>
      <trkpt lat="47.26623" lon="-2.34636">
        <ele>-16.799999237061</ele>
        <time>2022-02-13T10:58:47.000Z</time>
      </trkpt>
      <trkpt lat="47.2662" lon="-2.34632">
        <ele>-17.39999961853</ele>
        <time>2022-02-13T10:58:48.000Z</time>
      </trkpt>
      <trkpt lat="47.26616" lon="-2.34628">
        <ele>-17.799999237061</ele>
        <time>2022-02-13T10:58:49.000Z</time>
      </trkpt>
      <trkpt lat="47.26613" lon="-2.34624">
        <ele>-18.200000762939</ele>
        <time>2022-02-13T10:58:50.000Z</time>
      </trkpt>
      <trkpt lat="47.2661" lon="-2.3462">
        <ele>-18.60000038147</ele>
        <time>2022-02-13T10:58:51.000Z</time>
      </trkpt>
      <trkpt lat="47.26589" lon="-2.34596">
        <ele>-18.60000038147</ele>
        <time>2022-02-13T10:58:57.000Z</time>
      </trkpt>
      <trkpt lat="47.26585" lon="-2.34592">
        <ele>-18.60000038147</ele>
        <time>2022-02-13T10:58:58.000Z</time>
      </trkpt>
      <trkpt lat="47.26578" lon="-2.34584">
        <ele>-18.60000038147</ele>
        <time>2022-02-13T10:59:00.000Z</time>
      </trkpt>
      <trkpt lat="47.26563" lon="-2.34568">
        <ele>-18.60000038147</ele>
        <time>2022-02-13T10:59:04.000Z</time>
      </trkpt>
      <trkpt lat="47.26534" lon="-2.34539">
        <ele>-18.60000038147</ele>
        <time>2022-02-13T10:59:12.000Z</time>
      </trkpt>
      <trkpt lat="47.26527" lon="-2.34532">
        <ele>-18.200000762939</ele>
        <time>2022-02-13T10:59:14.000Z</time>
      </trkpt>
      <trkpt lat="47.26523" lon="-2.34528">
        <ele>-17.799999237061</ele>
        <time>2022-02-13T10:59:15.000Z</time>
      </trkpt>
      <trkpt lat="47.26519" lon="-2.34525">
        <ele>-17.39999961853</ele>
        <time>2022-02-13T10:59:16.000Z</time>
      </trkpt>
      <trkpt lat="47.26516" lon="-2.34522">
        <ele>-17</ele>
        <time>2022-02-13T10:59:17.000Z</time>
      </trkpt>
      <trkpt lat="47.26512" lon="-2.34519">
        <ele>-16.60000038147</ele>
        <time>2022-02-13T10:59:18.000Z</time>
      </trkpt>
      <trkpt lat="47.26504" lon="-2.34513">
        <ele>-16.60000038147</ele>
        <time>2022-02-13T10:59:20.000Z</time>
      </trkpt>
      <trkpt lat="47.26468" lon="-2.34487">
        <ele>-16.60000038147</ele>
        <time>2022-02-13T10:59:29.000Z</time>
      </trkpt>
      <trkpt lat="47.26433" lon="-2.34461">
        <ele>-16.60000038147</ele>
        <time>2022-02-13T10:59:38.000Z</time>
      </trkpt>
      <trkpt lat="47.26403" lon="-2.34437">
        <ele>-16.60000038147</ele>
        <time>2022-02-13T10:59:46.000Z</time>
      </trkpt>
      <trkpt lat="47.26376" lon="-2.34413">
        <ele>-16.60000038147</ele>
        <time>2022-02-13T10:59:53.000Z</time>
      </trkpt>
      <trkpt lat="47.26342" lon="-2.34382">
        <ele>-16.60000038147</ele>
        <time>2022-02-13T11:00:02.000Z</time>
      </trkpt>
      <trkpt lat="47.26329" lon="-2.3438">
        <ele>-16.60000038147</ele>
        <time>2022-02-13T11:00:05.000Z</time>
      </trkpt>
      <trkpt lat="47.26317" lon="-2.34367">
        <ele>-16.60000038147</ele>
        <time>2022-02-13T11:00:09.000Z</time>
      </trkpt>
      <trkpt lat="47.26305" lon="-2.3435">
        <ele>-16.60000038147</ele>
        <time>2022-02-13T11:00:13.000Z</time>
      </trkpt>
      <trkpt lat="47.2628" lon="-2.34323">
        <ele>-16.60000038147</ele>
        <time>2022-02-13T11:00:20.000Z</time>
      </trkpt>
      <trkpt lat="47.26276" lon="-2.34319">
        <ele>-16.60000038147</ele>
        <time>2022-02-13T11:00:21.000Z</time>
      </trkpt>
      <trkpt lat="47.2625" lon="-2.34292">
        <ele>-16.60000038147</ele>
        <time>2022-02-13T11:00:28.000Z</time>
      </trkpt>
      <trkpt lat="47.26225" lon="-2.34265">
        <ele>-17</ele>
        <time>2022-02-13T11:00:35.000Z</time>
      </trkpt>
      <trkpt lat="47.26222" lon="-2.34261">
        <ele>-17.39999961853</ele>
        <time>2022-02-13T11:00:36.000Z</time>
      </trkpt>
      <trkpt lat="47.26218" lon="-2.34257">
        <ele>-17.799999237061</ele>
        <time>2022-02-13T11:00:37.000Z</time>
      </trkpt>
      <trkpt lat="47.26214" lon="-2.34254">
        <ele>-18.200000762939</ele>
        <time>2022-02-13T11:00:38.000Z</time>
      </trkpt>
      <trkpt lat="47.26211" lon="-2.3425">
        <ele>-18.60000038147</ele>
        <time>2022-02-13T11:00:39.000Z</time>
      </trkpt>
      <trkpt lat="47.26189" lon="-2.34228">
        <ele>-18.60000038147</ele>
        <time>2022-02-13T11:00:45.000Z</time>
      </trkpt>
      <trkpt lat="47.26167" lon="-2.34206">
        <ele>-18.60000038147</ele>
        <time>2022-02-13T11:00:51.000Z</time>
      </trkpt>
      <trkpt lat="47.26148" lon="-2.34188">
        <ele>-18.60000038147</ele>
        <time>2022-02-13T11:00:56.000Z</time>
      </trkpt>
      <trkpt lat="47.26139" lon="-2.34185">
        <ele>-18.60000038147</ele>
        <time>2022-02-13T11:00:58.000Z</time>
      </trkpt>
      <trkpt lat="47.26124" lon="-2.34172">
        <ele>-18.60000038147</ele>
        <time>2022-02-13T11:01:02.000Z</time>
      </trkpt>
      <trkpt lat="47.26108" lon="-2.34158">
        <ele>-18.60000038147</ele>
        <time>2022-02-13T11:01:06.000Z</time>
      </trkpt>
      <trkpt lat="47.26099" lon="-2.34153">
        <ele>-18.60000038147</ele>
        <time>2022-02-13T11:01:08.000Z</time>
      </trkpt>
      <trkpt lat="47.26091" lon="-2.34149">
        <ele>-18.60000038147</ele>
        <time>2022-02-13T11:01:10.000Z</time>
      </trkpt>
      <trkpt lat="47.26076" lon="-2.34141">
        <ele>-18.60000038147</ele>
        <time>2022-02-13T11:01:13.000Z</time>
      </trkpt>
      <trkpt lat="47.26044" lon="-2.34123">
        <ele>-18.60000038147</ele>
        <time>2022-02-13T11:01:20.000Z</time>
      </trkpt>
      <trkpt lat="47.26017" lon="-2.3411">
        <ele>-18.60000038147</ele>
        <time>2022-02-13T11:01:26.000Z</time>
      </trkpt>
      <trkpt lat="47.25976" lon="-2.3409">
        <ele>-18.60000038147</ele>
        <time>2022-02-13T11:01:35.000Z</time>
      </trkpt>
      <trkpt lat="47.25954" lon="-2.34081">
        <ele>-18.60000038147</ele>
        <time>2022-02-13T11:01:41.000Z</time>
      </trkpt>
      <trkpt lat="47.2594" lon="-2.34074">
        <ele>-18.60000038147</ele>
        <time>2022-02-13T11:01:47.000Z</time>
      </trkpt>
      <trkpt lat="47.25926" lon="-2.34073">
        <ele>-18.60000038147</ele>
        <time>2022-02-13T11:01:50.000Z</time>
      </trkpt>
      <trkpt lat="47.25917" lon="-2.34075">
        <ele>-18.60000038147</ele>
        <time>2022-02-13T11:01:52.000Z</time>
      </trkpt>
      <trkpt lat="47.25905" lon="-2.3409">
        <ele>-18.60000038147</ele>
        <time>2022-02-13T11:01:55.000Z</time>
      </trkpt>
      <trkpt lat="47.25899" lon="-2.34104">
        <ele>-18.60000038147</ele>
        <time>2022-02-13T11:01:57.000Z</time>
      </trkpt>
      <trkpt lat="47.25891" lon="-2.34124">
        <ele>-18.60000038147</ele>
        <time>2022-02-13T11:02:00.000Z</time>
      </trkpt>
      <trkpt lat="47.25878" lon="-2.34154">
        <ele>-18.60000038147</ele>
        <time>2022-02-13T11:02:05.000Z</time>
      </trkpt>
      <trkpt lat="47.25873" lon="-2.34164">
        <ele>-18.60000038147</ele>
        <time>2022-02-13T11:02:07.000Z</time>
      </trkpt>
      <trkpt lat="47.25863" lon="-2.34164">
        <ele>-18.60000038147</ele>
        <time>2022-02-13T11:02:10.000Z</time>
      </trkpt>
      <trkpt lat="47.25856" lon="-2.34161">
        <ele>-18.60000038147</ele>
        <time>2022-02-13T11:02:12.000Z</time>
      </trkpt>
      <trkpt lat="47.25847" lon="-2.34158">
        <ele>-18</ele>
        <time>2022-02-13T11:02:15.000Z</time>
      </trkpt>
      <trkpt lat="47.25844" lon="-2.34156">
        <ele>-17.60000038147</ele>
        <time>2022-02-13T11:02:16.000Z</time>
      </trkpt>
      <trkpt lat="47.25841" lon="-2.34155">
        <ele>-17</ele>
        <time>2022-02-13T11:02:17.000Z</time>
      </trkpt>
      <trkpt lat="47.25838" lon="-2.34154">
        <ele>-16.60000038147</ele>
        <time>2022-02-13T11:02:18.000Z</time>
      </trkpt>
      <trkpt lat="47.25836" lon="-2.34157">
        <ele>-16</ele>
        <time>2022-02-13T11:02:19.000Z</time>
      </trkpt>
      <trkpt lat="47.25834" lon="-2.34161">
        <ele>-16</ele>
        <time>2022-02-13T11:02:20.000Z</time>
      </trkpt>
      <trkpt lat="47.25823" lon="-2.34178">
        <ele>-16</ele>
        <time>2022-02-13T11:02:24.000Z</time>
      </trkpt>
      <trkpt lat="47.25815" lon="-2.34179">
        <ele>-16</ele>
        <time>2022-02-13T11:02:26.000Z</time>
      </trkpt>
      <trkpt lat="47.25806" lon="-2.34177">
        <ele>-16</ele>
        <time>2022-02-13T11:02:28.000Z</time>
      </trkpt>
      <trkpt lat="47.25788" lon="-2.34172">
        <ele>-16</ele>
        <time>2022-02-13T11:02:33.000Z</time>
      </trkpt>
      <trkpt lat="47.25772" lon="-2.34174">
        <ele>-16</ele>
        <time>2022-02-13T11:02:39.000Z</time>
      </trkpt>
      <trkpt lat="47.25762" lon="-2.34177">
        <ele>-16</ele>
        <time>2022-02-13T11:02:41.000Z</time>
      </trkpt>
      <trkpt lat="47.25758" lon="-2.34177">
        <ele>-16</ele>
        <time>2022-02-13T11:02:42.000Z</time>
      </trkpt>
      <trkpt lat="47.25754" lon="-2.34178">
        <ele>-16</ele>
        <time>2022-02-13T11:02:43.000Z</time>
      </trkpt>
      <trkpt lat="47.25735" lon="-2.34183">
        <ele>-16</ele>
        <time>2022-02-13T11:02:47.000Z</time>
      </trkpt>
      <trkpt lat="47.25705" lon="-2.3419">
        <ele>-16</ele>
        <time>2022-02-13T11:02:54.000Z</time>
      </trkpt>
      <trkpt lat="47.25678" lon="-2.34193">
        <ele>-16</ele>
        <time>2022-02-13T11:03:01.000Z</time>
      </trkpt>
      <trkpt lat="47.25667" lon="-2.34183">
        <ele>-16</ele>
        <time>2022-02-13T11:03:05.000Z</time>
      </trkpt>
      <trkpt lat="47.25653" lon="-2.34155">
        <ele>-16</ele>
        <time>2022-02-13T11:03:11.000Z</time>
      </trkpt>
      <trkpt lat="47.25642" lon="-2.34126">
        <ele>-16</ele>
        <time>2022-02-13T11:03:17.000Z</time>
      </trkpt>
      <trkpt lat="47.25638" lon="-2.34087">
        <ele>-16</ele>
        <time>2022-02-13T11:03:24.000Z</time>
      </trkpt>
      <trkpt lat="47.25639" lon="-2.34076">
        <ele>-16</ele>
        <time>2022-02-13T11:03:26.000Z</time>
      </trkpt>
      <trkpt lat="47.25643" lon="-2.34058">
        <ele>-16</ele>
        <time>2022-02-13T11:03:29.000Z</time>
      </trkpt>
      <trkpt lat="47.25643" lon="-2.34051">
        <ele>-16</ele>
        <time>2022-02-13T11:03:30.000Z</time>
      </trkpt>
      <trkpt lat="47.25647" lon="-2.34025">
        <ele>-16</ele>
        <time>2022-02-13T11:03:34.000Z</time>
      </trkpt>
      <trkpt lat="47.25653" lon="-2.3399">
        <ele>-16</ele>
        <time>2022-02-13T11:03:40.000Z</time>
      </trkpt>
      <trkpt lat="47.25658" lon="-2.33958">
        <ele>-16</ele>
        <time>2022-02-13T11:03:46.000Z</time>
      </trkpt>
      <trkpt lat="47.25657" lon="-2.33925">
        <ele>-16</ele>
        <time>2022-02-13T11:03:52.000Z</time>
      </trkpt>
      <trkpt lat="47.2565" lon="-2.33884">
        <ele>-16</ele>
        <time>2022-02-13T11:03:59.000Z</time>
      </trkpt>
      <trkpt lat="47.25641" lon="-2.33849">
        <ele>-16</ele>
        <time>2022-02-13T11:04:05.000Z</time>
      </trkpt>
      <trkpt lat="47.25638" lon="-2.33822">
        <ele>-16</ele>
        <time>2022-02-13T11:04:10.000Z</time>
      </trkpt>
      <trkpt lat="47.25634" lon="-2.3379">
        <ele>-16</ele>
        <time>2022-02-13T11:04:16.000Z</time>
      </trkpt>
      <trkpt lat="47.25626" lon="-2.33774">
        <ele>-15.60000038147</ele>
        <time>2022-02-13T11:04:21.000Z</time>
      </trkpt>
      <trkpt lat="47.25622" lon="-2.33771">
        <ele>-15.199999809265</ele>
        <time>2022-02-13T11:04:22.000Z</time>
      </trkpt>
      <trkpt lat="47.25619" lon="-2.33769">
        <ele>-14.800000190735</ele>
        <time>2022-02-13T11:04:23.000Z</time>
      </trkpt>
      <trkpt lat="47.25615" lon="-2.33767">
        <ele>-14.39999961853</ele>
        <time>2022-02-13T11:04:24.000Z</time>
      </trkpt>
      <trkpt lat="47.25612" lon="-2.33765">
        <ele>-14</ele>
        <time>2022-02-13T11:04:25.000Z</time>
      </trkpt>
      <trkpt lat="47.25609" lon="-2.33764">
        <ele>-14</ele>
        <time>2022-02-13T11:04:26.000Z</time>
      </trkpt>
      <trkpt lat="47.25582" lon="-2.33761">
        <ele>-14</ele>
        <time>2022-02-13T11:04:32.000Z</time>
      </trkpt>
      <trkpt lat="47.25543" lon="-2.33762">
        <ele>-14</ele>
        <time>2022-02-13T11:04:39.000Z</time>
      </trkpt>
      <trkpt lat="47.25523" lon="-2.3376">
        <ele>-14</ele>
        <time>2022-02-13T11:04:43.000Z</time>
      </trkpt>
      <trkpt lat="47.25513" lon="-2.33758">
        <ele>-14</ele>
        <time>2022-02-13T11:04:45.000Z</time>
      </trkpt>
      <trkpt lat="47.2549" lon="-2.33755">
        <ele>-14</ele>
        <time>2022-02-13T11:04:50.000Z</time>
      </trkpt>
      <trkpt lat="47.25468" lon="-2.33749">
        <ele>-14</ele>
        <time>2022-02-13T11:04:55.000Z</time>
      </trkpt>
      <trkpt lat="47.25464" lon="-2.33747">
        <ele>-14</ele>
        <time>2022-02-13T11:04:56.000Z</time>
      </trkpt>
      <trkpt lat="47.25455" lon="-2.33741">
        <ele>-14</ele>
        <time>2022-02-13T11:04:58.000Z</time>
      </trkpt>
      <trkpt lat="47.25449" lon="-2.33731">
        <ele>-14</ele>
        <time>2022-02-13T11:05:00.000Z</time>
      </trkpt>
      <trkpt lat="47.25446" lon="-2.33719">
        <ele>-14</ele>
        <time>2022-02-13T11:05:02.000Z</time>
      </trkpt>
      <trkpt lat="47.25444" lon="-2.33706">
        <ele>-14</ele>
        <time>2022-02-13T11:05:04.000Z</time>
      </trkpt>
      <trkpt lat="47.25443" lon="-2.33699">
        <ele>-14</ele>
        <time>2022-02-13T11:05:05.000Z</time>
      </trkpt>
      <trkpt lat="47.25442" lon="-2.33692">
        <ele>-15</ele>
        <time>2022-02-13T11:05:06.000Z</time>
      </trkpt>
      <trkpt lat="47.25442" lon="-2.33686">
        <ele>-15.39999961853</ele>
        <time>2022-02-13T11:05:07.000Z</time>
      </trkpt>
      <trkpt lat="47.25441" lon="-2.33679">
        <ele>-15.800000190735</ele>
        <time>2022-02-13T11:05:08.000Z</time>
      </trkpt>
      <trkpt lat="47.25441" lon="-2.33673">
        <ele>-16.39999961853</ele>
        <time>2022-02-13T11:05:09.000Z</time>
      </trkpt>
      <trkpt lat="47.2544" lon="-2.33654">
        <ele>-16.39999961853</ele>
        <time>2022-02-13T11:05:12.000Z</time>
      </trkpt>
      <trkpt lat="47.25436" lon="-2.33632">
        <ele>-16.39999961853</ele>
        <time>2022-02-13T11:05:16.000Z</time>
      </trkpt>
      <trkpt lat="47.25436" lon="-2.3362">
        <ele>-16.39999961853</ele>
        <time>2022-02-13T11:05:18.000Z</time>
      </trkpt>
      <trkpt lat="47.25436" lon="-2.33596">
        <ele>-16.39999961853</ele>
        <time>2022-02-13T11:05:22.000Z</time>
      </trkpt>
      <trkpt lat="47.25439" lon="-2.33585">
        <ele>-16.39999961853</ele>
        <time>2022-02-13T11:05:24.000Z</time>
      </trkpt>
      <trkpt lat="47.25442" lon="-2.33583">
        <ele>-16.39999961853</ele>
        <time>2022-02-13T11:05:25.000Z</time>
      </trkpt>
      <trkpt lat="47.25453" lon="-2.33576">
        <ele>-16.39999961853</ele>
        <time>2022-02-13T11:05:28.000Z</time>
      </trkpt>
      <trkpt lat="47.25453" lon="-2.33571">
        <ele>-16.39999961853</ele>
        <time>2022-02-13T11:05:29.000Z</time>
      </trkpt>
      <trkpt lat="47.25449" lon="-2.33542">
        <ele>-16.39999961853</ele>
        <time>2022-02-13T11:05:34.000Z</time>
      </trkpt>
      <trkpt lat="47.2544" lon="-2.33504">
        <ele>-16.39999961853</ele>
        <time>2022-02-13T11:05:41.000Z</time>
      </trkpt>
      <trkpt lat="47.25431" lon="-2.33467">
        <ele>-16.39999961853</ele>
        <time>2022-02-13T11:05:47.000Z</time>
      </trkpt>
      <trkpt lat="47.25428" lon="-2.33441">
        <ele>-16.39999961853</ele>
        <time>2022-02-13T11:05:51.000Z</time>
      </trkpt>
      <trkpt lat="47.25429" lon="-2.33435">
        <ele>-16.39999961853</ele>
        <time>2022-02-13T11:05:52.000Z</time>
      </trkpt>
      <trkpt lat="47.25429" lon="-2.334">
        <ele>-16.39999961853</ele>
        <time>2022-02-13T11:05:58.000Z</time>
      </trkpt>
      <trkpt lat="47.2543" lon="-2.33363">
        <ele>-16.39999961853</ele>
        <time>2022-02-13T11:06:04.000Z</time>
      </trkpt>
      <trkpt lat="47.25432" lon="-2.3335">
        <ele>-16.39999961853</ele>
        <time>2022-02-13T11:06:06.000Z</time>
      </trkpt>
      <trkpt lat="47.25436" lon="-2.33331">
        <ele>-16.39999961853</ele>
        <time>2022-02-13T11:06:09.000Z</time>
      </trkpt>
      <trkpt lat="47.25438" lon="-2.33325">
        <ele>-16.39999961853</ele>
        <time>2022-02-13T11:06:10.000Z</time>
      </trkpt>
      <trkpt lat="47.25447" lon="-2.33301">
        <ele>-16.39999961853</ele>
        <time>2022-02-13T11:06:14.000Z</time>
      </trkpt>
      <trkpt lat="47.25448" lon="-2.33289">
        <ele>-16.39999961853</ele>
        <time>2022-02-13T11:06:16.000Z</time>
      </trkpt>
      <trkpt lat="47.25445" lon="-2.33275">
        <ele>-16.39999961853</ele>
        <time>2022-02-13T11:06:18.000Z</time>
      </trkpt>
      <trkpt lat="47.25439" lon="-2.33263">
        <ele>-16.39999961853</ele>
        <time>2022-02-13T11:06:20.000Z</time>
      </trkpt>
      <trkpt lat="47.2543" lon="-2.33237">
        <ele>-16.39999961853</ele>
        <time>2022-02-13T11:06:24.000Z</time>
      </trkpt>
      <trkpt lat="47.2541" lon="-2.33194">
        <ele>-16.39999961853</ele>
        <time>2022-02-13T11:06:31.000Z</time>
      </trkpt>
      <trkpt lat="47.25403" lon="-2.33177">
        <ele>-16.39999961853</ele>
        <time>2022-02-13T11:06:34.000Z</time>
      </trkpt>
      <trkpt lat="47.25399" lon="-2.33166">
        <ele>-16.39999961853</ele>
        <time>2022-02-13T11:06:36.000Z</time>
      </trkpt>
      <trkpt lat="47.25395" lon="-2.33154">
        <ele>-16.39999961853</ele>
        <time>2022-02-13T11:06:38.000Z</time>
      </trkpt>
      <trkpt lat="47.25389" lon="-2.33148">
        <ele>-16.39999961853</ele>
        <time>2022-02-13T11:06:40.000Z</time>
      </trkpt>
      <trkpt lat="47.25384" lon="-2.33149">
        <ele>-16.39999961853</ele>
        <time>2022-02-13T11:06:43.000Z</time>
      </trkpt>
      <trkpt lat="47.2538" lon="-2.33149">
        <ele>-16.39999961853</ele>
        <time>2022-02-13T11:06:45.000Z</time>
      </trkpt>
      <trkpt lat="47.25377" lon="-2.33142">
        <ele>-16.39999961853</ele>
        <time>2022-02-13T11:06:48.000Z</time>
      </trkpt>
      <trkpt lat="47.25376" lon="-2.33125">
        <ele>-16.39999961853</ele>
        <time>2022-02-13T11:06:53.000Z</time>
      </trkpt>
      <trkpt lat="47.25375" lon="-2.33122">
        <ele>-16.39999961853</ele>
        <time>2022-02-13T11:06:54.000Z</time>
      </trkpt>
      <trkpt lat="47.25372" lon="-2.33113">
        <ele>-16.39999961853</ele>
        <time>2022-02-13T11:07:00.000Z</time>
      </trkpt>
      <trkpt lat="47.25372" lon="-2.33108">
        <ele>-16.39999961853</ele>
        <time>2022-02-13T11:19:35.000Z</time>
      </trkpt>
      <trkpt lat="47.25368" lon="-2.33098">
        <ele>-16.39999961853</ele>
        <time>2022-02-13T11:19:38.000Z</time>
      </trkpt>
      <trkpt lat="47.25358" lon="-2.33071">
        <ele>-16.39999961853</ele>
        <time>2022-02-13T11:19:43.000Z</time>
      </trkpt>
      <trkpt lat="47.25351" lon="-2.33056">
        <ele>-16.39999961853</ele>
        <time>2022-02-13T11:19:46.000Z</time>
      </trkpt>
      <trkpt lat="47.25342" lon="-2.33034">
        <ele>-16.39999961853</ele>
        <time>2022-02-13T11:19:50.000Z</time>
      </trkpt>
      <trkpt lat="47.25327" lon="-2.32995">
        <ele>-16.39999961853</ele>
        <time>2022-02-13T11:19:57.000Z</time>
      </trkpt>
      <trkpt lat="47.25308" lon="-2.3295">
        <ele>-16.39999961853</ele>
        <time>2022-02-13T11:20:05.000Z</time>
      </trkpt>
      <trkpt lat="47.25307" lon="-2.32923">
        <ele>-16.39999961853</ele>
        <time>2022-02-13T11:20:10.000Z</time>
      </trkpt>
      <trkpt lat="47.25319" lon="-2.32909">
        <ele>-16.39999961853</ele>
        <time>2022-02-13T11:20:14.000Z</time>
      </trkpt>
      <trkpt lat="47.25341" lon="-2.32891">
        <ele>-16.39999961853</ele>
        <time>2022-02-13T11:20:20.000Z</time>
      </trkpt>
      <trkpt lat="47.25367" lon="-2.32865">
        <ele>-16.39999961853</ele>
        <time>2022-02-13T11:20:27.000Z</time>
      </trkpt>
      <trkpt lat="47.25395" lon="-2.32834">
        <ele>-16.39999961853</ele>
        <time>2022-02-13T11:20:34.000Z</time>
      </trkpt>
      <trkpt lat="47.25422" lon="-2.32795">
        <ele>-16.39999961853</ele>
        <time>2022-02-13T11:20:42.000Z</time>
      </trkpt>
      <trkpt lat="47.25425" lon="-2.3279">
        <ele>-16.39999961853</ele>
        <time>2022-02-13T11:20:43.000Z</time>
      </trkpt>
      <trkpt lat="47.25431" lon="-2.32774">
        <ele>-15.60000038147</ele>
        <time>2022-02-13T11:20:46.000Z</time>
      </trkpt>
      <trkpt lat="47.25434" lon="-2.32769">
        <ele>-15</ele>
        <time>2022-02-13T11:20:47.000Z</time>
      </trkpt>
      <trkpt lat="47.25437" lon="-2.32765">
        <ele>-14.60000038147</ele>
        <time>2022-02-13T11:20:48.000Z</time>
      </trkpt>
      <trkpt lat="47.25441" lon="-2.3276">
        <ele>-14.199999809265</ele>
        <time>2022-02-13T11:20:49.000Z</time>
      </trkpt>
      <trkpt lat="47.25454" lon="-2.3274">
        <ele>-14.199999809265</ele>
        <time>2022-02-13T11:20:53.000Z</time>
      </trkpt>
      <trkpt lat="47.25478" lon="-2.32704">
        <ele>-14.199999809265</ele>
        <time>2022-02-13T11:21:00.000Z</time>
      </trkpt>
      <trkpt lat="47.25484" lon="-2.32693">
        <ele>-14.199999809265</ele>
        <time>2022-02-13T11:21:02.000Z</time>
      </trkpt>
      <trkpt lat="47.25488" lon="-2.32673">
        <ele>-14.199999809265</ele>
        <time>2022-02-13T11:21:05.000Z</time>
      </trkpt>
      <trkpt lat="47.25484" lon="-2.32645">
        <ele>-14.199999809265</ele>
        <time>2022-02-13T11:21:09.000Z</time>
      </trkpt>
      <trkpt lat="47.25476" lon="-2.32593">
        <ele>-14.199999809265</ele>
        <time>2022-02-13T11:21:17.000Z</time>
      </trkpt>
      <trkpt lat="47.25483" lon="-2.32563">
        <ele>-14.199999809265</ele>
        <time>2022-02-13T11:21:22.000Z</time>
      </trkpt>
      <trkpt lat="47.25499" lon="-2.32546">
        <ele>-14.199999809265</ele>
        <time>2022-02-13T11:21:26.000Z</time>
      </trkpt>
      <trkpt lat="47.25502" lon="-2.32541">
        <ele>-14.199999809265</ele>
        <time>2022-02-13T11:21:27.000Z</time>
      </trkpt>
      <trkpt lat="47.25529" lon="-2.32515">
        <ele>-14.199999809265</ele>
        <time>2022-02-13T11:21:33.000Z</time>
      </trkpt>
      <trkpt lat="47.25555" lon="-2.32491">
        <ele>-14.199999809265</ele>
        <time>2022-02-13T11:21:38.000Z</time>
      </trkpt>
      <trkpt lat="47.25562" lon="-2.32485">
        <ele>-14.60000038147</ele>
        <time>2022-02-13T11:21:39.000Z</time>
      </trkpt>
      <trkpt lat="47.25567" lon="-2.32479">
        <ele>-15</ele>
        <time>2022-02-13T11:21:40.000Z</time>
      </trkpt>
      <trkpt lat="47.25573" lon="-2.32474">
        <ele>-15.39999961853</ele>
        <time>2022-02-13T11:21:41.000Z</time>
      </trkpt>
      <trkpt lat="47.25579" lon="-2.32467">
        <ele>-15.800000190735</ele>
        <time>2022-02-13T11:21:42.000Z</time>
      </trkpt>
      <trkpt lat="47.25585" lon="-2.32461">
        <ele>-16.200000762939</ele>
        <time>2022-02-13T11:21:43.000Z</time>
      </trkpt>
      <trkpt lat="47.25591" lon="-2.32454">
        <ele>-16.200000762939</ele>
        <time>2022-02-13T11:21:44.000Z</time>
      </trkpt>
      <trkpt lat="47.25604" lon="-2.32441">
        <ele>-16.60000038147</ele>
        <time>2022-02-13T11:21:46.000Z</time>
      </trkpt>
      <trkpt lat="47.2561" lon="-2.32435">
        <ele>-17</ele>
        <time>2022-02-13T11:21:47.000Z</time>
      </trkpt>
      <trkpt lat="47.25617" lon="-2.32428">
        <ele>-17.60000038147</ele>
        <time>2022-02-13T11:21:48.000Z</time>
      </trkpt>
      <trkpt lat="47.25623" lon="-2.32421">
        <ele>-18</ele>
        <time>2022-02-13T11:21:49.000Z</time>
      </trkpt>
      <trkpt lat="47.2563" lon="-2.32414">
        <ele>-18.39999961853</ele>
        <time>2022-02-13T11:21:50.000Z</time>
      </trkpt>
      <trkpt lat="47.25636" lon="-2.32408">
        <ele>-19</ele>
        <time>2022-02-13T11:21:51.000Z</time>
      </trkpt>
      <trkpt lat="47.25643" lon="-2.32405">
        <ele>-19.60000038147</ele>
        <time>2022-02-13T11:21:52.000Z</time>
      </trkpt>
      <trkpt lat="47.25647" lon="-2.32402">
        <ele>-20</ele>
        <time>2022-02-13T11:21:53.000Z</time>
      </trkpt>
      <trkpt lat="47.25648" lon="-2.32401">
        <ele>-20.60000038147</ele>
        <time>2022-02-13T11:21:54.000Z</time>
      </trkpt>
      <trkpt lat="47.2565" lon="-2.32401">
        <ele>-20.60000038147</ele>
        <time>2022-02-13T11:21:55.000Z</time>
      </trkpt>
      <trkpt lat="47.25663" lon="-2.32403">
        <ele>-20.60000038147</ele>
        <time>2022-02-13T11:21:59.000Z</time>
      </trkpt>
      <trkpt lat="47.25667" lon="-2.32408">
        <ele>-20.60000038147</ele>
        <time>2022-02-13T11:22:00.000Z</time>
      </trkpt>
      <trkpt lat="47.25678" lon="-2.32415">
        <ele>-20.60000038147</ele>
        <time>2022-02-13T11:22:02.000Z</time>
      </trkpt>
      <trkpt lat="47.25703" lon="-2.32419">
        <ele>-20.60000038147</ele>
        <time>2022-02-13T11:22:06.000Z</time>
      </trkpt>
      <trkpt lat="47.25741" lon="-2.32419">
        <ele>-20.60000038147</ele>
        <time>2022-02-13T11:22:12.000Z</time>
      </trkpt>
      <trkpt lat="47.25746" lon="-2.32419">
        <ele>-20.60000038147</ele>
        <time>2022-02-13T11:22:13.000Z</time>
      </trkpt>
      <trkpt lat="47.25767" lon="-2.32415">
        <ele>-20.60000038147</ele>
        <time>2022-02-13T11:22:17.000Z</time>
      </trkpt>
      <trkpt lat="47.25776" lon="-2.32412">
        <ele>-20.60000038147</ele>
        <time>2022-02-13T11:22:19.000Z</time>
      </trkpt>
      <trkpt lat="47.25781" lon="-2.32412">
        <ele>-20.60000038147</ele>
        <time>2022-02-13T11:22:20.000Z</time>
      </trkpt>
      <trkpt lat="47.25787" lon="-2.32424">
        <ele>-20.60000038147</ele>
        <time>2022-02-13T11:22:22.000Z</time>
      </trkpt>
      <trkpt lat="47.25797" lon="-2.32443">
        <ele>-20.60000038147</ele>
        <time>2022-02-13T11:22:25.000Z</time>
      </trkpt>
      <trkpt lat="47.25802" lon="-2.32448">
        <ele>-20.60000038147</ele>
        <time>2022-02-13T11:22:26.000Z</time>
      </trkpt>
      <trkpt lat="47.25807" lon="-2.32453">
        <ele>-20.60000038147</ele>
        <time>2022-02-13T11:22:27.000Z</time>
      </trkpt>
      <trkpt lat="47.25824" lon="-2.32463">
        <ele>-20.60000038147</ele>
        <time>2022-02-13T11:22:30.000Z</time>
      </trkpt>
      <trkpt lat="47.2583" lon="-2.32467">
        <ele>-21</ele>
        <time>2022-02-13T11:22:31.000Z</time>
      </trkpt>
      <trkpt lat="47.25835" lon="-2.3247">
        <ele>-21.60000038147</ele>
        <time>2022-02-13T11:22:32.000Z</time>
      </trkpt>
      <trkpt lat="47.25841" lon="-2.32472">
        <ele>-22</ele>
        <time>2022-02-13T11:22:33.000Z</time>
      </trkpt>
      <trkpt lat="47.25846" lon="-2.32473">
        <ele>-22.39999961853</ele>
        <time>2022-02-13T11:22:34.000Z</time>
      </trkpt>
      <trkpt lat="47.25852" lon="-2.32474">
        <ele>-22.799999237061</ele>
        <time>2022-02-13T11:22:35.000Z</time>
      </trkpt>
      <trkpt lat="47.25863" lon="-2.32475">
        <ele>-22.799999237061</ele>
        <time>2022-02-13T11:22:37.000Z</time>
      </trkpt>
      <trkpt lat="47.25894" lon="-2.32463">
        <ele>-22.799999237061</ele>
        <time>2022-02-13T11:22:43.000Z</time>
      </trkpt>
      <trkpt lat="47.25916" lon="-2.32434">
        <ele>-22.799999237061</ele>
        <time>2022-02-13T11:22:48.000Z</time>
      </trkpt>
      <trkpt lat="47.25926" lon="-2.32424">
        <ele>-22.799999237061</ele>
        <time>2022-02-13T11:22:50.000Z</time>
      </trkpt>
      <trkpt lat="47.25935" lon="-2.32413">
        <ele>-22.799999237061</ele>
        <time>2022-02-13T11:22:52.000Z</time>
      </trkpt>
      <trkpt lat="47.25939" lon="-2.32406">
        <ele>-22.799999237061</ele>
        <time>2022-02-13T11:22:53.000Z</time>
      </trkpt>
      <trkpt lat="47.25966" lon="-2.3237">
        <ele>-22.799999237061</ele>
        <time>2022-02-13T11:22:59.000Z</time>
      </trkpt>
      <trkpt lat="47.26003" lon="-2.32326">
        <ele>-22.799999237061</ele>
        <time>2022-02-13T11:23:07.000Z</time>
      </trkpt>
      <trkpt lat="47.26029" lon="-2.32295">
        <ele>-22.799999237061</ele>
        <time>2022-02-13T11:23:13.000Z</time>
      </trkpt>
      <trkpt lat="47.26056" lon="-2.32263">
        <ele>-22.799999237061</ele>
        <time>2022-02-13T11:23:19.000Z</time>
      </trkpt>
      <trkpt lat="47.26064" lon="-2.32253">
        <ele>-22.799999237061</ele>
        <time>2022-02-13T11:23:21.000Z</time>
      </trkpt>
      <trkpt lat="47.26076" lon="-2.32237">
        <ele>-22.799999237061</ele>
        <time>2022-02-13T11:23:24.000Z</time>
      </trkpt>
      <trkpt lat="47.26102" lon="-2.32193">
        <ele>-22.799999237061</ele>
        <time>2022-02-13T11:23:31.000Z</time>
      </trkpt>
      <trkpt lat="47.26119" lon="-2.3215">
        <ele>-22.799999237061</ele>
        <time>2022-02-13T11:23:37.000Z</time>
      </trkpt>
      <trkpt lat="47.26131" lon="-2.32115">
        <ele>-22.799999237061</ele>
        <time>2022-02-13T11:23:42.000Z</time>
      </trkpt>
      <trkpt lat="47.26133" lon="-2.32107">
        <ele>-22.799999237061</ele>
        <time>2022-02-13T11:23:43.000Z</time>
      </trkpt>
      <trkpt lat="47.26157" lon="-2.32038">
        <ele>-22.799999237061</ele>
        <time>2022-02-13T11:23:53.000Z</time>
      </trkpt>
      <trkpt lat="47.26163" lon="-2.3202">
        <ele>-22.799999237061</ele>
        <time>2022-02-13T11:23:56.000Z</time>
      </trkpt>
      <trkpt lat="47.26172" lon="-2.32019">
        <ele>-22.799999237061</ele>
        <time>2022-02-13T11:23:58.000Z</time>
      </trkpt>
      <trkpt lat="47.2618" lon="-2.3202">
        <ele>-22.799999237061</ele>
        <time>2022-02-13T11:24:00.000Z</time>
      </trkpt>
      <trkpt lat="47.26191" lon="-2.32025">
        <ele>-22.799999237061</ele>
        <time>2022-02-13T11:24:03.000Z</time>
      </trkpt>
      <trkpt lat="47.26197" lon="-2.32022">
        <ele>-22.799999237061</ele>
        <time>2022-02-13T11:24:06.000Z</time>
      </trkpt>
      <trkpt lat="47.26197" lon="-2.3202">
        <ele>-22.799999237061</ele>
        <time>2022-02-13T11:24:07.000Z</time>
      </trkpt>
      <trkpt lat="47.26198" lon="-2.32015">
        <ele>-22.799999237061</ele>
        <time>2022-02-13T11:24:08.000Z</time>
      </trkpt>
      <trkpt lat="47.26198" lon="-2.32011">
        <ele>-23.200000762939</ele>
        <time>2022-02-13T11:24:09.000Z</time>
      </trkpt>
      <trkpt lat="47.26198" lon="-2.32008">
        <ele>-23.60000038147</ele>
        <time>2022-02-13T11:24:10.000Z</time>
      </trkpt>
      <trkpt lat="47.26199" lon="-2.32006">
        <ele>-24</ele>
        <time>2022-02-13T11:24:11.000Z</time>
      </trkpt>
      <trkpt lat="47.26202" lon="-2.32004">
        <ele>-24.39999961853</ele>
        <time>2022-02-13T11:24:12.000Z</time>
      </trkpt>
      <trkpt lat="47.26205" lon="-2.32001">
        <ele>-24.799999237061</ele>
        <time>2022-02-13T11:24:13.000Z</time>
      </trkpt>
      <trkpt lat="47.26212" lon="-2.31995">
        <ele>-24.799999237061</ele>
        <time>2022-02-13T11:24:15.000Z</time>
      </trkpt>
      <trkpt lat="47.2623" lon="-2.31975">
        <ele>-24.799999237061</ele>
        <time>2022-02-13T11:24:20.000Z</time>
      </trkpt>
      <trkpt lat="47.26235" lon="-2.3197">
        <ele>-24.799999237061</ele>
        <time>2022-02-13T11:24:21.000Z</time>
      </trkpt>
      <trkpt lat="47.2625" lon="-2.31948">
        <ele>-24.799999237061</ele>
        <time>2022-02-13T11:24:27.000Z</time>
      </trkpt>
      <trkpt lat="47.26263" lon="-2.31924">
        <ele>-24.799999237061</ele>
        <time>2022-02-13T11:24:33.000Z</time>
      </trkpt>
      <trkpt lat="47.2628" lon="-2.31901">
        <ele>-24.799999237061</ele>
        <time>2022-02-13T11:24:39.000Z</time>
      </trkpt>
      <trkpt lat="47.26292" lon="-2.31886">
        <ele>-24.799999237061</ele>
        <time>2022-02-13T11:24:43.000Z</time>
      </trkpt>
      <trkpt lat="47.26295" lon="-2.31876">
        <ele>-24.799999237061</ele>
        <time>2022-02-13T11:24:45.000Z</time>
      </trkpt>
      <trkpt lat="47.26296" lon="-2.31865">
        <ele>-24.799999237061</ele>
        <time>2022-02-13T11:24:47.000Z</time>
      </trkpt>
      <trkpt lat="47.26299" lon="-2.31842">
        <ele>-24.39999961853</ele>
        <time>2022-02-13T11:24:51.000Z</time>
      </trkpt>
      <trkpt lat="47.263" lon="-2.31836">
        <ele>-24</ele>
        <time>2022-02-13T11:24:52.000Z</time>
      </trkpt>
      <trkpt lat="47.26301" lon="-2.3183">
        <ele>-23.200000762939</ele>
        <time>2022-02-13T11:24:53.000Z</time>
      </trkpt>
      <trkpt lat="47.26301" lon="-2.31824">
        <ele>-22.799999237061</ele>
        <time>2022-02-13T11:24:54.000Z</time>
      </trkpt>
      <trkpt lat="47.26301" lon="-2.31809">
        <ele>-22.799999237061</ele>
        <time>2022-02-13T11:24:57.000Z</time>
      </trkpt>
      <trkpt lat="47.26302" lon="-2.31764">
        <ele>-22.799999237061</ele>
        <time>2022-02-13T11:25:03.000Z</time>
      </trkpt>
      <trkpt lat="47.26303" lon="-2.31722">
        <ele>-22.799999237061</ele>
        <time>2022-02-13T11:25:10.000Z</time>
      </trkpt>
      <trkpt lat="47.2631" lon="-2.31707">
        <ele>-22.799999237061</ele>
        <time>2022-02-13T11:25:14.000Z</time>
      </trkpt>
      <trkpt lat="47.26327" lon="-2.31694">
        <ele>-22.799999237061</ele>
        <time>2022-02-13T11:25:20.000Z</time>
      </trkpt>
      <trkpt lat="47.26331" lon="-2.31687">
        <ele>-22.200000762939</ele>
        <time>2022-02-13T11:25:22.000Z</time>
      </trkpt>
      <trkpt lat="47.26334" lon="-2.31685">
        <ele>-21.799999237061</ele>
        <time>2022-02-13T11:25:23.000Z</time>
      </trkpt>
      <trkpt lat="47.26337" lon="-2.31683">
        <ele>-21.39999961853</ele>
        <time>2022-02-13T11:25:24.000Z</time>
      </trkpt>
      <trkpt lat="47.2634" lon="-2.31682">
        <ele>-21</ele>
        <time>2022-02-13T11:25:25.000Z</time>
      </trkpt>
      <trkpt lat="47.26343" lon="-2.3168">
        <ele>-20.60000038147</ele>
        <time>2022-02-13T11:25:26.000Z</time>
      </trkpt>
      <trkpt lat="47.2636" lon="-2.31674">
        <ele>-20.60000038147</ele>
        <time>2022-02-13T11:25:31.000Z</time>
      </trkpt>
      <trkpt lat="47.26378" lon="-2.31666">
        <ele>-20.60000038147</ele>
        <time>2022-02-13T11:25:36.000Z</time>
      </trkpt>
      <trkpt lat="47.26396" lon="-2.31658">
        <ele>-20.200000762939</ele>
        <time>2022-02-13T11:25:42.000Z</time>
      </trkpt>
      <trkpt lat="47.26398" lon="-2.31656">
        <ele>-19.60000038147</ele>
        <time>2022-02-13T11:25:43.000Z</time>
      </trkpt>
      <trkpt lat="47.264" lon="-2.31655">
        <ele>-19.200000762939</ele>
        <time>2022-02-13T11:25:44.000Z</time>
      </trkpt>
      <trkpt lat="47.26402" lon="-2.31654">
        <ele>-18.799999237061</ele>
        <time>2022-02-13T11:25:45.000Z</time>
      </trkpt>
      <trkpt lat="47.26405" lon="-2.31652">
        <ele>-18.39999961853</ele>
        <time>2022-02-13T11:25:46.000Z</time>
      </trkpt>
      <trkpt lat="47.26407" lon="-2.31649">
        <ele>-18.39999961853</ele>
        <time>2022-02-13T11:25:47.000Z</time>
      </trkpt>
      <trkpt lat="47.26408" lon="-2.31645">
        <ele>-18.39999961853</ele>
        <time>2022-02-13T11:25:48.000Z</time>
      </trkpt>
      <trkpt lat="47.26409" lon="-2.31627">
        <ele>-18.39999961853</ele>
        <time>2022-02-13T11:25:52.000Z</time>
      </trkpt>
      <trkpt lat="47.26409" lon="-2.31598">
        <ele>-18.39999961853</ele>
        <time>2022-02-13T11:25:58.000Z</time>
      </trkpt>
      <trkpt lat="47.2641" lon="-2.31565">
        <ele>-18.39999961853</ele>
        <time>2022-02-13T11:26:05.000Z</time>
      </trkpt>
      <trkpt lat="47.26411" lon="-2.31558">
        <ele>-18.39999961853</ele>
        <time>2022-02-13T11:26:07.000Z</time>
      </trkpt>
      <trkpt lat="47.26414" lon="-2.31554">
        <ele>-18.39999961853</ele>
        <time>2022-02-13T11:26:09.000Z</time>
      </trkpt>
      <trkpt lat="47.26417" lon="-2.31554">
        <ele>-18.39999961853</ele>
        <time>2022-02-13T11:26:11.000Z</time>
      </trkpt>
      <trkpt lat="47.26417" lon="-2.31554">
        <ele>-18.39999961853</ele>
        <time>2022-02-13T11:26:12.000Z</time>
      </trkpt>
    </trkseg>
  </trk>
</gpx>